<?xml version="1.0" encoding="UTF-8" standalone="no" ?>
<gpx xmlns="http://www.topografix.com/GPX/1/1" xmlns:xsi="http://www.w3.org/2001/XMLSchema-instance" xsi:schemaLocation="http://www.topografix.com/GPX/1/1 http://www.topografix.com/GPX/1/1/gpx.xsd" version="1.1" creator="VisuGPX - https://www.visugpx.com">
  <metadata>
    <name>E-O-Champ Siome Vertou Haie Fouassière haute Goulaine Basse Goulaine Reze</name>
    <desc><![CDATA[E-O-Champ Siome Vertou Haie Fouassière haute Goulaine Basse Goulaine Reze]]></desc>
  </metadata>
  <trk>
    <name><![CDATA[2020-01-19 13:40]]></name>
    <desc><![CDATA[<p>Heure de départ: 01/19/2020 13:40<br/>Heure d'arrivée: 01/19/2020 16:08<br/>Distance: 54,4 km (02:28)<br/>Temps déplacement: 02:25<br/>Vitesse moyenne: 22,06 km/h<br/>Vitesse moyenne mouv.: 22,42 km/h<br/>Vitesse Max.: 35,33 km/h<br/>Altitude minimale: 0 m<br/>Altitude maximale: 67 m<br/>Vitesse de montée: 312,8 m/h<br/>Vitesse de descente: -333,6 m/h<br/>Gain d'altitude: 238 m<br/>Perte d'altitude: -231 m<br/>Temps de montée: 00:45<br/>Temps de descente: 00:41<br/></p><hr align="center" width="480" style="height: 2px; width: 517px"/>]]></desc>
    <trkseg>
      <trkpt lat="47.16786" lon="-1.62657">
        <ele>67.03</ele>
        <time>2020-01-19T12:40:18Z</time>
      </trkpt>
      <trkpt lat="47.16778" lon="-1.62671">
        <ele>17.5</ele>
        <time>2020-01-19T12:41:27Z</time>
      </trkpt>
      <trkpt lat="47.16768" lon="-1.62673">
        <ele>16</ele>
        <time>2020-01-19T12:41:29Z</time>
      </trkpt>
      <trkpt lat="47.16758" lon="-1.62669">
        <ele>15.71</ele>
        <time>2020-01-19T12:41:31Z</time>
      </trkpt>
      <trkpt lat="47.16748" lon="-1.62672">
        <ele>15.47</ele>
        <time>2020-01-19T12:41:34Z</time>
      </trkpt>
      <trkpt lat="47.16738" lon="-1.62677">
        <ele>15.35</ele>
        <time>2020-01-19T12:41:36Z</time>
      </trkpt>
      <trkpt lat="47.16729" lon="-1.62684">
        <ele>15.18</ele>
        <time>2020-01-19T12:41:38Z</time>
      </trkpt>
      <trkpt lat="47.1672" lon="-1.6269">
        <ele>15.17</ele>
        <time>2020-01-19T12:41:40Z</time>
      </trkpt>
      <trkpt lat="47.16711" lon="-1.62688">
        <ele>15.63</ele>
        <time>2020-01-19T12:41:42Z</time>
      </trkpt>
      <trkpt lat="47.16703" lon="-1.62675">
        <ele>15.98</ele>
        <time>2020-01-19T12:41:44Z</time>
      </trkpt>
      <trkpt lat="47.167" lon="-1.62659">
        <ele>16.19</ele>
        <time>2020-01-19T12:41:46Z</time>
      </trkpt>
      <trkpt lat="47.16697" lon="-1.62643">
        <ele>16.3</ele>
        <time>2020-01-19T12:41:48Z</time>
      </trkpt>
      <trkpt lat="47.16695" lon="-1.62624">
        <ele>16.16</ele>
        <time>2020-01-19T12:41:50Z</time>
      </trkpt>
      <trkpt lat="47.16695" lon="-1.62605">
        <ele>15.82</ele>
        <time>2020-01-19T12:41:52Z</time>
      </trkpt>
      <trkpt lat="47.16695" lon="-1.62585">
        <ele>15.31</ele>
        <time>2020-01-19T12:41:54Z</time>
      </trkpt>
      <trkpt lat="47.16695" lon="-1.62567">
        <ele>15.36</ele>
        <time>2020-01-19T12:41:56Z</time>
      </trkpt>
      <trkpt lat="47.16697" lon="-1.62549">
        <ele>15.11</ele>
        <time>2020-01-19T12:41:58Z</time>
      </trkpt>
      <trkpt lat="47.167" lon="-1.62531">
        <ele>14.5</ele>
        <time>2020-01-19T12:42:00Z</time>
      </trkpt>
      <trkpt lat="47.16703" lon="-1.62513">
        <ele>14.6</ele>
        <time>2020-01-19T12:42:02Z</time>
      </trkpt>
      <trkpt lat="47.16706" lon="-1.62496">
        <ele>14.82</ele>
        <time>2020-01-19T12:42:04Z</time>
      </trkpt>
      <trkpt lat="47.16708" lon="-1.62479">
        <ele>14.81</ele>
        <time>2020-01-19T12:42:06Z</time>
      </trkpt>
      <trkpt lat="47.16712" lon="-1.62458">
        <ele>15.54</ele>
        <time>2020-01-19T12:42:08Z</time>
      </trkpt>
      <trkpt lat="47.16714" lon="-1.62443">
        <ele>14.71</ele>
        <time>2020-01-19T12:42:10Z</time>
      </trkpt>
      <trkpt lat="47.16716" lon="-1.62428">
        <ele>14.44</ele>
        <time>2020-01-19T12:42:12Z</time>
      </trkpt>
      <trkpt lat="47.1672" lon="-1.62415">
        <ele>13.35</ele>
        <time>2020-01-19T12:42:14Z</time>
      </trkpt>
      <trkpt lat="47.16719" lon="-1.62401">
        <ele>13.17</ele>
        <time>2020-01-19T12:42:17Z</time>
      </trkpt>
      <trkpt lat="47.16712" lon="-1.62387">
        <ele>13.49</ele>
        <time>2020-01-19T12:42:19Z</time>
      </trkpt>
      <trkpt lat="47.16704" lon="-1.62374">
        <ele>14.78</ele>
        <time>2020-01-19T12:42:21Z</time>
      </trkpt>
      <trkpt lat="47.16696" lon="-1.62365">
        <ele>15.89</ele>
        <time>2020-01-19T12:42:23Z</time>
      </trkpt>
      <trkpt lat="47.16683" lon="-1.62357">
        <ele>15.55</ele>
        <time>2020-01-19T12:42:25Z</time>
      </trkpt>
      <trkpt lat="47.1667" lon="-1.62355">
        <ele>15.22</ele>
        <time>2020-01-19T12:42:27Z</time>
      </trkpt>
      <trkpt lat="47.16658" lon="-1.62358">
        <ele>15.59</ele>
        <time>2020-01-19T12:42:29Z</time>
      </trkpt>
      <trkpt lat="47.16647" lon="-1.62365">
        <ele>16.86</ele>
        <time>2020-01-19T12:42:31Z</time>
      </trkpt>
      <trkpt lat="47.16638" lon="-1.62375">
        <ele>17.76</ele>
        <time>2020-01-19T12:42:33Z</time>
      </trkpt>
      <trkpt lat="47.16627" lon="-1.62388">
        <ele>18.17</ele>
        <time>2020-01-19T12:42:35Z</time>
      </trkpt>
      <trkpt lat="47.16616" lon="-1.62403">
        <ele>18</ele>
        <time>2020-01-19T12:42:38Z</time>
      </trkpt>
      <trkpt lat="47.16609" lon="-1.62415">
        <ele>17.6</ele>
        <time>2020-01-19T12:42:40Z</time>
      </trkpt>
      <trkpt lat="47.16601" lon="-1.62431">
        <ele>17.21</ele>
        <time>2020-01-19T12:42:42Z</time>
      </trkpt>
      <trkpt lat="47.16595" lon="-1.62445">
        <ele>16.35</ele>
        <time>2020-01-19T12:42:44Z</time>
      </trkpt>
      <trkpt lat="47.16589" lon="-1.62462">
        <ele>17.29</ele>
        <time>2020-01-19T12:42:46Z</time>
      </trkpt>
      <trkpt lat="47.16583" lon="-1.62476">
        <ele>18.53</ele>
        <time>2020-01-19T12:42:48Z</time>
      </trkpt>
      <trkpt lat="47.16578" lon="-1.62491">
        <ele>19.04</ele>
        <time>2020-01-19T12:42:50Z</time>
      </trkpt>
      <trkpt lat="47.16573" lon="-1.62505">
        <ele>18.86</ele>
        <time>2020-01-19T12:42:52Z</time>
      </trkpt>
      <trkpt lat="47.16567" lon="-1.62518">
        <ele>19.47</ele>
        <time>2020-01-19T12:42:54Z</time>
      </trkpt>
      <trkpt lat="47.16561" lon="-1.62532">
        <ele>19.98</ele>
        <time>2020-01-19T12:42:56Z</time>
      </trkpt>
      <trkpt lat="47.16553" lon="-1.62543">
        <ele>20.92</ele>
        <time>2020-01-19T12:42:58Z</time>
      </trkpt>
      <trkpt lat="47.16545" lon="-1.62552">
        <ele>21.23</ele>
        <time>2020-01-19T12:43:00Z</time>
      </trkpt>
      <trkpt lat="47.16535" lon="-1.62562">
        <ele>21.81</ele>
        <time>2020-01-19T12:43:02Z</time>
      </trkpt>
      <trkpt lat="47.16522" lon="-1.62562">
        <ele>22.87</ele>
        <time>2020-01-19T12:43:05Z</time>
      </trkpt>
      <trkpt lat="47.16508" lon="-1.62559">
        <ele>23.37</ele>
        <time>2020-01-19T12:43:07Z</time>
      </trkpt>
      <trkpt lat="47.16499" lon="-1.62556">
        <ele>24.07</ele>
        <time>2020-01-19T12:43:09Z</time>
      </trkpt>
      <trkpt lat="47.16489" lon="-1.62553">
        <ele>24.25</ele>
        <time>2020-01-19T12:43:11Z</time>
      </trkpt>
      <trkpt lat="47.16477" lon="-1.62549">
        <ele>24.83</ele>
        <time>2020-01-19T12:43:13Z</time>
      </trkpt>
      <trkpt lat="47.16465" lon="-1.62546">
        <ele>25.31</ele>
        <time>2020-01-19T12:43:15Z</time>
      </trkpt>
      <trkpt lat="47.16456" lon="-1.62544">
        <ele>25.45</ele>
        <time>2020-01-19T12:43:17Z</time>
      </trkpt>
      <trkpt lat="47.16444" lon="-1.6254">
        <ele>24.09</ele>
        <time>2020-01-19T12:43:19Z</time>
      </trkpt>
      <trkpt lat="47.16434" lon="-1.62538">
        <ele>23.48</ele>
        <time>2020-01-19T12:43:21Z</time>
      </trkpt>
      <trkpt lat="47.16424" lon="-1.62544">
        <ele>22.5</ele>
        <time>2020-01-19T12:43:23Z</time>
      </trkpt>
      <trkpt lat="47.16413" lon="-1.62554">
        <ele>22.69</ele>
        <time>2020-01-19T12:43:25Z</time>
      </trkpt>
      <trkpt lat="47.16403" lon="-1.62565">
        <ele>22.92</ele>
        <time>2020-01-19T12:43:27Z</time>
      </trkpt>
      <trkpt lat="47.16394" lon="-1.62574">
        <ele>22.73</ele>
        <time>2020-01-19T12:43:29Z</time>
      </trkpt>
      <trkpt lat="47.16383" lon="-1.62581">
        <ele>22.59</ele>
        <time>2020-01-19T12:43:31Z</time>
      </trkpt>
      <trkpt lat="47.16372" lon="-1.62583">
        <ele>21.65</ele>
        <time>2020-01-19T12:43:33Z</time>
      </trkpt>
      <trkpt lat="47.16361" lon="-1.62581">
        <ele>20.67</ele>
        <time>2020-01-19T12:43:35Z</time>
      </trkpt>
      <trkpt lat="47.16348" lon="-1.62579">
        <ele>20.8</ele>
        <time>2020-01-19T12:43:37Z</time>
      </trkpt>
      <trkpt lat="47.16336" lon="-1.62575">
        <ele>21.62</ele>
        <time>2020-01-19T12:43:39Z</time>
      </trkpt>
      <trkpt lat="47.16325" lon="-1.62571">
        <ele>22.17</ele>
        <time>2020-01-19T12:43:41Z</time>
      </trkpt>
      <trkpt lat="47.16314" lon="-1.62568">
        <ele>23.14</ele>
        <time>2020-01-19T12:43:43Z</time>
      </trkpt>
      <trkpt lat="47.16302" lon="-1.62569">
        <ele>23.04</ele>
        <time>2020-01-19T12:43:45Z</time>
      </trkpt>
      <trkpt lat="47.16293" lon="-1.6258">
        <ele>22.14</ele>
        <time>2020-01-19T12:43:47Z</time>
      </trkpt>
      <trkpt lat="47.16287" lon="-1.62595">
        <ele>22.05</ele>
        <time>2020-01-19T12:43:49Z</time>
      </trkpt>
      <trkpt lat="47.16283" lon="-1.62612">
        <ele>23.08</ele>
        <time>2020-01-19T12:43:51Z</time>
      </trkpt>
      <trkpt lat="47.16279" lon="-1.62631">
        <ele>23.54</ele>
        <time>2020-01-19T12:43:53Z</time>
      </trkpt>
      <trkpt lat="47.16276" lon="-1.62647">
        <ele>24.17</ele>
        <time>2020-01-19T12:43:55Z</time>
      </trkpt>
      <trkpt lat="47.16274" lon="-1.62665">
        <ele>23.81</ele>
        <time>2020-01-19T12:43:57Z</time>
      </trkpt>
      <trkpt lat="47.16273" lon="-1.62682">
        <ele>22.95</ele>
        <time>2020-01-19T12:43:59Z</time>
      </trkpt>
      <trkpt lat="47.16274" lon="-1.62699">
        <ele>22.96</ele>
        <time>2020-01-19T12:44:01Z</time>
      </trkpt>
      <trkpt lat="47.16277" lon="-1.62717">
        <ele>24.43</ele>
        <time>2020-01-19T12:44:04Z</time>
      </trkpt>
      <trkpt lat="47.16276" lon="-1.62734">
        <ele>23.76</ele>
        <time>2020-01-19T12:44:07Z</time>
      </trkpt>
      <trkpt lat="47.16267" lon="-1.62735">
        <ele>23.03</ele>
        <time>2020-01-19T12:44:09Z</time>
      </trkpt>
      <trkpt lat="47.16256" lon="-1.6274">
        <ele>22.34</ele>
        <time>2020-01-19T12:44:11Z</time>
      </trkpt>
      <trkpt lat="47.16244" lon="-1.62746">
        <ele>21.89</ele>
        <time>2020-01-19T12:44:13Z</time>
      </trkpt>
      <trkpt lat="47.16233" lon="-1.62751">
        <ele>21.19</ele>
        <time>2020-01-19T12:44:15Z</time>
      </trkpt>
      <trkpt lat="47.1622" lon="-1.62757">
        <ele>20.46</ele>
        <time>2020-01-19T12:44:17Z</time>
      </trkpt>
      <trkpt lat="47.16205" lon="-1.62766">
        <ele>19.57</ele>
        <time>2020-01-19T12:44:19Z</time>
      </trkpt>
      <trkpt lat="47.16192" lon="-1.62775">
        <ele>18.32</ele>
        <time>2020-01-19T12:44:21Z</time>
      </trkpt>
      <trkpt lat="47.16177" lon="-1.62788">
        <ele>16.46</ele>
        <time>2020-01-19T12:44:23Z</time>
      </trkpt>
      <trkpt lat="47.16163" lon="-1.628">
        <ele>16.46</ele>
        <time>2020-01-19T12:44:25Z</time>
      </trkpt>
      <trkpt lat="47.16149" lon="-1.62815">
        <ele>16.32</ele>
        <time>2020-01-19T12:44:27Z</time>
      </trkpt>
      <trkpt lat="47.16135" lon="-1.62828">
        <ele>14.93</ele>
        <time>2020-01-19T12:44:29Z</time>
      </trkpt>
      <trkpt lat="47.16127" lon="-1.62835">
        <ele>14.54</ele>
        <time>2020-01-19T12:44:30Z</time>
      </trkpt>
      <trkpt lat="47.16114" lon="-1.62848">
        <ele>14.07</ele>
        <time>2020-01-19T12:44:32Z</time>
      </trkpt>
      <trkpt lat="47.16099" lon="-1.62862">
        <ele>13.91</ele>
        <time>2020-01-19T12:44:34Z</time>
      </trkpt>
      <trkpt lat="47.16086" lon="-1.62874">
        <ele>12.97</ele>
        <time>2020-01-19T12:44:36Z</time>
      </trkpt>
      <trkpt lat="47.16072" lon="-1.62886">
        <ele>12.78</ele>
        <time>2020-01-19T12:44:38Z</time>
      </trkpt>
      <trkpt lat="47.16056" lon="-1.62898">
        <ele>12.47</ele>
        <time>2020-01-19T12:44:40Z</time>
      </trkpt>
      <trkpt lat="47.16047" lon="-1.62905">
        <ele>12.49</ele>
        <time>2020-01-19T12:44:41Z</time>
      </trkpt>
      <trkpt lat="47.16032" lon="-1.62918">
        <ele>12.7</ele>
        <time>2020-01-19T12:44:43Z</time>
      </trkpt>
      <trkpt lat="47.16017" lon="-1.6293">
        <ele>12.45</ele>
        <time>2020-01-19T12:44:45Z</time>
      </trkpt>
      <trkpt lat="47.16002" lon="-1.62942">
        <ele>13.38</ele>
        <time>2020-01-19T12:44:47Z</time>
      </trkpt>
      <trkpt lat="47.15989" lon="-1.62954">
        <ele>13.32</ele>
        <time>2020-01-19T12:44:49Z</time>
      </trkpt>
      <trkpt lat="47.15975" lon="-1.62968">
        <ele>13.24</ele>
        <time>2020-01-19T12:44:51Z</time>
      </trkpt>
      <trkpt lat="47.15959" lon="-1.6298">
        <ele>12.2</ele>
        <time>2020-01-19T12:44:53Z</time>
      </trkpt>
      <trkpt lat="47.15951" lon="-1.62987">
        <ele>11.52</ele>
        <time>2020-01-19T12:44:54Z</time>
      </trkpt>
      <trkpt lat="47.15943" lon="-1.62995">
        <ele>10.83</ele>
        <time>2020-01-19T12:44:55Z</time>
      </trkpt>
      <trkpt lat="47.15935" lon="-1.63002">
        <ele>10.34</ele>
        <time>2020-01-19T12:44:56Z</time>
      </trkpt>
      <trkpt lat="47.15927" lon="-1.6301">
        <ele>10.24</ele>
        <time>2020-01-19T12:44:57Z</time>
      </trkpt>
      <trkpt lat="47.15919" lon="-1.63016">
        <ele>10.05</ele>
        <time>2020-01-19T12:44:58Z</time>
      </trkpt>
      <trkpt lat="47.15904" lon="-1.6303">
        <ele>8.15</ele>
        <time>2020-01-19T12:45:00Z</time>
      </trkpt>
      <trkpt lat="47.15889" lon="-1.63043">
        <ele>7.21</ele>
        <time>2020-01-19T12:45:02Z</time>
      </trkpt>
      <trkpt lat="47.15875" lon="-1.63056">
        <ele>6.69</ele>
        <time>2020-01-19T12:45:04Z</time>
      </trkpt>
      <trkpt lat="47.15867" lon="-1.63063">
        <ele>6.54</ele>
        <time>2020-01-19T12:45:05Z</time>
      </trkpt>
      <trkpt lat="47.15853" lon="-1.63076">
        <ele>6.21</ele>
        <time>2020-01-19T12:45:07Z</time>
      </trkpt>
      <trkpt lat="47.1584" lon="-1.63088">
        <ele>5.35</ele>
        <time>2020-01-19T12:45:09Z</time>
      </trkpt>
      <trkpt lat="47.15829" lon="-1.63098">
        <ele>5.52</ele>
        <time>2020-01-19T12:45:11Z</time>
      </trkpt>
      <trkpt lat="47.15821" lon="-1.63106">
        <ele>6.03</ele>
        <time>2020-01-19T12:45:12Z</time>
      </trkpt>
      <trkpt lat="47.15808" lon="-1.63117">
        <ele>7.62</ele>
        <time>2020-01-19T12:45:14Z</time>
      </trkpt>
      <trkpt lat="47.15798" lon="-1.63126">
        <ele>8.84</ele>
        <time>2020-01-19T12:45:16Z</time>
      </trkpt>
      <trkpt lat="47.15786" lon="-1.63135">
        <ele>9.67</ele>
        <time>2020-01-19T12:45:18Z</time>
      </trkpt>
      <trkpt lat="47.15774" lon="-1.63146">
        <ele>10.58</ele>
        <time>2020-01-19T12:45:20Z</time>
      </trkpt>
      <trkpt lat="47.15762" lon="-1.63157">
        <ele>11.53</ele>
        <time>2020-01-19T12:45:22Z</time>
      </trkpt>
      <trkpt lat="47.1575" lon="-1.63168">
        <ele>11.35</ele>
        <time>2020-01-19T12:45:24Z</time>
      </trkpt>
      <trkpt lat="47.15739" lon="-1.63178">
        <ele>11.75</ele>
        <time>2020-01-19T12:45:26Z</time>
      </trkpt>
      <trkpt lat="47.15725" lon="-1.63191">
        <ele>12.43</ele>
        <time>2020-01-19T12:45:28Z</time>
      </trkpt>
      <trkpt lat="47.15712" lon="-1.63202">
        <ele>13.12</ele>
        <time>2020-01-19T12:45:30Z</time>
      </trkpt>
      <trkpt lat="47.15701" lon="-1.63213">
        <ele>12.72</ele>
        <time>2020-01-19T12:45:32Z</time>
      </trkpt>
      <trkpt lat="47.15689" lon="-1.63223">
        <ele>12.5</ele>
        <time>2020-01-19T12:45:34Z</time>
      </trkpt>
      <trkpt lat="47.15676" lon="-1.63235">
        <ele>12.39</ele>
        <time>2020-01-19T12:45:36Z</time>
      </trkpt>
      <trkpt lat="47.15662" lon="-1.63247">
        <ele>12.6</ele>
        <time>2020-01-19T12:45:38Z</time>
      </trkpt>
      <trkpt lat="47.1565" lon="-1.63257">
        <ele>11.3</ele>
        <time>2020-01-19T12:45:40Z</time>
      </trkpt>
      <trkpt lat="47.15638" lon="-1.63268">
        <ele>10.09</ele>
        <time>2020-01-19T12:45:42Z</time>
      </trkpt>
      <trkpt lat="47.15624" lon="-1.6328">
        <ele>8.99</ele>
        <time>2020-01-19T12:45:44Z</time>
      </trkpt>
      <trkpt lat="47.1561" lon="-1.63294">
        <ele>8.2</ele>
        <time>2020-01-19T12:45:46Z</time>
      </trkpt>
      <trkpt lat="47.15597" lon="-1.63304">
        <ele>8.19</ele>
        <time>2020-01-19T12:45:48Z</time>
      </trkpt>
      <trkpt lat="47.15584" lon="-1.63315">
        <ele>9.51</ele>
        <time>2020-01-19T12:45:50Z</time>
      </trkpt>
      <trkpt lat="47.15571" lon="-1.63327">
        <ele>11.91</ele>
        <time>2020-01-19T12:45:52Z</time>
      </trkpt>
      <trkpt lat="47.15559" lon="-1.63337">
        <ele>13.22</ele>
        <time>2020-01-19T12:45:54Z</time>
      </trkpt>
      <trkpt lat="47.15549" lon="-1.63347">
        <ele>14.43</ele>
        <time>2020-01-19T12:45:56Z</time>
      </trkpt>
      <trkpt lat="47.15539" lon="-1.63356">
        <ele>14.88</ele>
        <time>2020-01-19T12:45:58Z</time>
      </trkpt>
      <trkpt lat="47.15529" lon="-1.63366">
        <ele>14.21</ele>
        <time>2020-01-19T12:46:00Z</time>
      </trkpt>
      <trkpt lat="47.15517" lon="-1.63377">
        <ele>14.32</ele>
        <time>2020-01-19T12:46:02Z</time>
      </trkpt>
      <trkpt lat="47.15506" lon="-1.63387">
        <ele>14.99</ele>
        <time>2020-01-19T12:46:04Z</time>
      </trkpt>
      <trkpt lat="47.15496" lon="-1.63396">
        <ele>15.42</ele>
        <time>2020-01-19T12:46:06Z</time>
      </trkpt>
      <trkpt lat="47.15485" lon="-1.63406">
        <ele>16.78</ele>
        <time>2020-01-19T12:46:08Z</time>
      </trkpt>
      <trkpt lat="47.15475" lon="-1.63414">
        <ele>16.8</ele>
        <time>2020-01-19T12:46:10Z</time>
      </trkpt>
      <trkpt lat="47.15463" lon="-1.63425">
        <ele>16.88</ele>
        <time>2020-01-19T12:46:12Z</time>
      </trkpt>
      <trkpt lat="47.15452" lon="-1.63435">
        <ele>17.24</ele>
        <time>2020-01-19T12:46:14Z</time>
      </trkpt>
      <trkpt lat="47.15441" lon="-1.63444">
        <ele>18.16</ele>
        <time>2020-01-19T12:46:16Z</time>
      </trkpt>
      <trkpt lat="47.1543" lon="-1.63455">
        <ele>18.26</ele>
        <time>2020-01-19T12:46:18Z</time>
      </trkpt>
      <trkpt lat="47.1542" lon="-1.63464">
        <ele>18.68</ele>
        <time>2020-01-19T12:46:20Z</time>
      </trkpt>
      <trkpt lat="47.1541" lon="-1.63473">
        <ele>19.07</ele>
        <time>2020-01-19T12:46:22Z</time>
      </trkpt>
      <trkpt lat="47.154" lon="-1.63486">
        <ele>20.25</ele>
        <time>2020-01-19T12:46:24Z</time>
      </trkpt>
      <trkpt lat="47.15391" lon="-1.63499">
        <ele>20.99</ele>
        <time>2020-01-19T12:46:26Z</time>
      </trkpt>
      <trkpt lat="47.15382" lon="-1.6351">
        <ele>22.31</ele>
        <time>2020-01-19T12:46:28Z</time>
      </trkpt>
      <trkpt lat="47.15372" lon="-1.63513">
        <ele>21.97</ele>
        <time>2020-01-19T12:46:30Z</time>
      </trkpt>
      <trkpt lat="47.15361" lon="-1.63519">
        <ele>21.35</ele>
        <time>2020-01-19T12:46:32Z</time>
      </trkpt>
      <trkpt lat="47.15352" lon="-1.63529">
        <ele>21.24</ele>
        <time>2020-01-19T12:46:34Z</time>
      </trkpt>
      <trkpt lat="47.15341" lon="-1.63541">
        <ele>21.54</ele>
        <time>2020-01-19T12:46:36Z</time>
      </trkpt>
      <trkpt lat="47.1533" lon="-1.6355">
        <ele>21.34</ele>
        <time>2020-01-19T12:46:38Z</time>
      </trkpt>
      <trkpt lat="47.15319" lon="-1.6356">
        <ele>21.59</ele>
        <time>2020-01-19T12:46:40Z</time>
      </trkpt>
      <trkpt lat="47.15308" lon="-1.63567">
        <ele>21.6</ele>
        <time>2020-01-19T12:46:42Z</time>
      </trkpt>
      <trkpt lat="47.15296" lon="-1.63576">
        <ele>20.62</ele>
        <time>2020-01-19T12:46:44Z</time>
      </trkpt>
      <trkpt lat="47.15284" lon="-1.63586">
        <ele>20.01</ele>
        <time>2020-01-19T12:46:46Z</time>
      </trkpt>
      <trkpt lat="47.15273" lon="-1.63595">
        <ele>19.59</ele>
        <time>2020-01-19T12:46:48Z</time>
      </trkpt>
      <trkpt lat="47.15262" lon="-1.63605">
        <ele>19.58</ele>
        <time>2020-01-19T12:46:50Z</time>
      </trkpt>
      <trkpt lat="47.1525" lon="-1.63615">
        <ele>19.22</ele>
        <time>2020-01-19T12:46:52Z</time>
      </trkpt>
      <trkpt lat="47.15237" lon="-1.63626">
        <ele>18.35</ele>
        <time>2020-01-19T12:46:54Z</time>
      </trkpt>
      <trkpt lat="47.15226" lon="-1.63635">
        <ele>17.91</ele>
        <time>2020-01-19T12:46:56Z</time>
      </trkpt>
      <trkpt lat="47.15213" lon="-1.63645">
        <ele>18.53</ele>
        <time>2020-01-19T12:46:58Z</time>
      </trkpt>
      <trkpt lat="47.15201" lon="-1.63655">
        <ele>18.56</ele>
        <time>2020-01-19T12:47:00Z</time>
      </trkpt>
      <trkpt lat="47.15188" lon="-1.63666">
        <ele>18.61</ele>
        <time>2020-01-19T12:47:02Z</time>
      </trkpt>
      <trkpt lat="47.15177" lon="-1.63677">
        <ele>18.46</ele>
        <time>2020-01-19T12:47:04Z</time>
      </trkpt>
      <trkpt lat="47.15165" lon="-1.63687">
        <ele>18.63</ele>
        <time>2020-01-19T12:47:06Z</time>
      </trkpt>
      <trkpt lat="47.15153" lon="-1.63698">
        <ele>18.43</ele>
        <time>2020-01-19T12:47:08Z</time>
      </trkpt>
      <trkpt lat="47.15143" lon="-1.63709">
        <ele>18.56</ele>
        <time>2020-01-19T12:47:10Z</time>
      </trkpt>
      <trkpt lat="47.1513" lon="-1.6372">
        <ele>18.82</ele>
        <time>2020-01-19T12:47:12Z</time>
      </trkpt>
      <trkpt lat="47.15119" lon="-1.63732">
        <ele>19.07</ele>
        <time>2020-01-19T12:47:14Z</time>
      </trkpt>
      <trkpt lat="47.15107" lon="-1.63744">
        <ele>19.15</ele>
        <time>2020-01-19T12:47:16Z</time>
      </trkpt>
      <trkpt lat="47.15096" lon="-1.63757">
        <ele>19.47</ele>
        <time>2020-01-19T12:47:18Z</time>
      </trkpt>
      <trkpt lat="47.15085" lon="-1.63769">
        <ele>19.89</ele>
        <time>2020-01-19T12:47:20Z</time>
      </trkpt>
      <trkpt lat="47.15075" lon="-1.63781">
        <ele>19.02</ele>
        <time>2020-01-19T12:47:22Z</time>
      </trkpt>
      <trkpt lat="47.15063" lon="-1.63795">
        <ele>18.34</ele>
        <time>2020-01-19T12:47:24Z</time>
      </trkpt>
      <trkpt lat="47.15054" lon="-1.63809">
        <ele>18.17</ele>
        <time>2020-01-19T12:47:26Z</time>
      </trkpt>
      <trkpt lat="47.15044" lon="-1.63821">
        <ele>18.59</ele>
        <time>2020-01-19T12:47:28Z</time>
      </trkpt>
      <trkpt lat="47.15034" lon="-1.63836">
        <ele>18.29</ele>
        <time>2020-01-19T12:47:30Z</time>
      </trkpt>
      <trkpt lat="47.15024" lon="-1.63851">
        <ele>18.93</ele>
        <time>2020-01-19T12:47:32Z</time>
      </trkpt>
      <trkpt lat="47.15015" lon="-1.63864">
        <ele>20.06</ele>
        <time>2020-01-19T12:47:34Z</time>
      </trkpt>
      <trkpt lat="47.15006" lon="-1.63879">
        <ele>21.03</ele>
        <time>2020-01-19T12:47:36Z</time>
      </trkpt>
      <trkpt lat="47.14996" lon="-1.63894">
        <ele>20.64</ele>
        <time>2020-01-19T12:47:38Z</time>
      </trkpt>
      <trkpt lat="47.14985" lon="-1.63909">
        <ele>20.8</ele>
        <time>2020-01-19T12:47:40Z</time>
      </trkpt>
      <trkpt lat="47.14975" lon="-1.63922">
        <ele>21.27</ele>
        <time>2020-01-19T12:47:42Z</time>
      </trkpt>
      <trkpt lat="47.14966" lon="-1.63939">
        <ele>20.58</ele>
        <time>2020-01-19T12:47:44Z</time>
      </trkpt>
      <trkpt lat="47.14959" lon="-1.63952">
        <ele>20.35</ele>
        <time>2020-01-19T12:47:46Z</time>
      </trkpt>
      <trkpt lat="47.1495" lon="-1.63969">
        <ele>20.55</ele>
        <time>2020-01-19T12:47:48Z</time>
      </trkpt>
      <trkpt lat="47.14941" lon="-1.63984">
        <ele>21.55</ele>
        <time>2020-01-19T12:47:50Z</time>
      </trkpt>
      <trkpt lat="47.14931" lon="-1.63995">
        <ele>21.61</ele>
        <time>2020-01-19T12:47:52Z</time>
      </trkpt>
      <trkpt lat="47.14921" lon="-1.6401">
        <ele>20.83</ele>
        <time>2020-01-19T12:47:54Z</time>
      </trkpt>
      <trkpt lat="47.14911" lon="-1.64024">
        <ele>20.87</ele>
        <time>2020-01-19T12:47:56Z</time>
      </trkpt>
      <trkpt lat="47.14901" lon="-1.6404">
        <ele>20.62</ele>
        <time>2020-01-19T12:47:58Z</time>
      </trkpt>
      <trkpt lat="47.14888" lon="-1.64044">
        <ele>20.56</ele>
        <time>2020-01-19T12:48:00Z</time>
      </trkpt>
      <trkpt lat="47.14878" lon="-1.64031">
        <ele>20.7</ele>
        <time>2020-01-19T12:48:02Z</time>
      </trkpt>
      <trkpt lat="47.14869" lon="-1.64014">
        <ele>20.01</ele>
        <time>2020-01-19T12:48:04Z</time>
      </trkpt>
      <trkpt lat="47.1486" lon="-1.63999">
        <ele>18.94</ele>
        <time>2020-01-19T12:48:06Z</time>
      </trkpt>
      <trkpt lat="47.14852" lon="-1.63983">
        <ele>19.49</ele>
        <time>2020-01-19T12:48:08Z</time>
      </trkpt>
      <trkpt lat="47.14849" lon="-1.63964">
        <ele>19.95</ele>
        <time>2020-01-19T12:48:10Z</time>
      </trkpt>
      <trkpt lat="47.14851" lon="-1.63945">
        <ele>20.71</ele>
        <time>2020-01-19T12:48:12Z</time>
      </trkpt>
      <trkpt lat="47.14855" lon="-1.63925">
        <ele>20.82</ele>
        <time>2020-01-19T12:48:14Z</time>
      </trkpt>
      <trkpt lat="47.14858" lon="-1.63906">
        <ele>19.96</ele>
        <time>2020-01-19T12:48:16Z</time>
      </trkpt>
      <trkpt lat="47.1486" lon="-1.63892">
        <ele>19.93</ele>
        <time>2020-01-19T12:48:18Z</time>
      </trkpt>
      <trkpt lat="47.14863" lon="-1.63874">
        <ele>19.52</ele>
        <time>2020-01-19T12:48:20Z</time>
      </trkpt>
      <trkpt lat="47.14865" lon="-1.63855">
        <ele>20.01</ele>
        <time>2020-01-19T12:48:22Z</time>
      </trkpt>
      <trkpt lat="47.14866" lon="-1.63835">
        <ele>20</ele>
        <time>2020-01-19T12:48:24Z</time>
      </trkpt>
      <trkpt lat="47.14868" lon="-1.63816">
        <ele>19.46</ele>
        <time>2020-01-19T12:48:26Z</time>
      </trkpt>
      <trkpt lat="47.14868" lon="-1.63798">
        <ele>19.56</ele>
        <time>2020-01-19T12:48:28Z</time>
      </trkpt>
      <trkpt lat="47.14868" lon="-1.6378">
        <ele>19.66</ele>
        <time>2020-01-19T12:48:30Z</time>
      </trkpt>
      <trkpt lat="47.14867" lon="-1.63762">
        <ele>20.44</ele>
        <time>2020-01-19T12:48:32Z</time>
      </trkpt>
      <trkpt lat="47.14867" lon="-1.63744">
        <ele>20.85</ele>
        <time>2020-01-19T12:48:34Z</time>
      </trkpt>
      <trkpt lat="47.14867" lon="-1.63725">
        <ele>21.17</ele>
        <time>2020-01-19T12:48:36Z</time>
      </trkpt>
      <trkpt lat="47.14866" lon="-1.63704">
        <ele>21.48</ele>
        <time>2020-01-19T12:48:38Z</time>
      </trkpt>
      <trkpt lat="47.14866" lon="-1.63685">
        <ele>21.21</ele>
        <time>2020-01-19T12:48:40Z</time>
      </trkpt>
      <trkpt lat="47.14866" lon="-1.63668">
        <ele>21.02</ele>
        <time>2020-01-19T12:48:42Z</time>
      </trkpt>
      <trkpt lat="47.14866" lon="-1.63648">
        <ele>20.71</ele>
        <time>2020-01-19T12:48:44Z</time>
      </trkpt>
      <trkpt lat="47.14866" lon="-1.63628">
        <ele>20.66</ele>
        <time>2020-01-19T12:48:46Z</time>
      </trkpt>
      <trkpt lat="47.14866" lon="-1.63611">
        <ele>20.83</ele>
        <time>2020-01-19T12:48:48Z</time>
      </trkpt>
      <trkpt lat="47.14867" lon="-1.63592">
        <ele>21.29</ele>
        <time>2020-01-19T12:48:50Z</time>
      </trkpt>
      <trkpt lat="47.14867" lon="-1.63572">
        <ele>21.77</ele>
        <time>2020-01-19T12:48:52Z</time>
      </trkpt>
      <trkpt lat="47.14868" lon="-1.63557">
        <ele>22.78</ele>
        <time>2020-01-19T12:48:54Z</time>
      </trkpt>
      <trkpt lat="47.14868" lon="-1.63536">
        <ele>23.61</ele>
        <time>2020-01-19T12:48:56Z</time>
      </trkpt>
      <trkpt lat="47.14868" lon="-1.63518">
        <ele>22.18</ele>
        <time>2020-01-19T12:48:58Z</time>
      </trkpt>
      <trkpt lat="47.14868" lon="-1.63501">
        <ele>21.66</ele>
        <time>2020-01-19T12:49:00Z</time>
      </trkpt>
      <trkpt lat="47.14868" lon="-1.63482">
        <ele>22.16</ele>
        <time>2020-01-19T12:49:02Z</time>
      </trkpt>
      <trkpt lat="47.14868" lon="-1.63464">
        <ele>22.56</ele>
        <time>2020-01-19T12:49:04Z</time>
      </trkpt>
      <trkpt lat="47.14867" lon="-1.63445">
        <ele>21.96</ele>
        <time>2020-01-19T12:49:06Z</time>
      </trkpt>
      <trkpt lat="47.14867" lon="-1.63427">
        <ele>21.1</ele>
        <time>2020-01-19T12:49:08Z</time>
      </trkpt>
      <trkpt lat="47.14867" lon="-1.63408">
        <ele>20.15</ele>
        <time>2020-01-19T12:49:10Z</time>
      </trkpt>
      <trkpt lat="47.14868" lon="-1.63391">
        <ele>19.94</ele>
        <time>2020-01-19T12:49:12Z</time>
      </trkpt>
      <trkpt lat="47.14868" lon="-1.63371">
        <ele>20.58</ele>
        <time>2020-01-19T12:49:14Z</time>
      </trkpt>
      <trkpt lat="47.14868" lon="-1.63356">
        <ele>21.52</ele>
        <time>2020-01-19T12:49:16Z</time>
      </trkpt>
      <trkpt lat="47.14868" lon="-1.63337">
        <ele>22.55</ele>
        <time>2020-01-19T12:49:18Z</time>
      </trkpt>
      <trkpt lat="47.14868" lon="-1.6332">
        <ele>23.55</ele>
        <time>2020-01-19T12:49:20Z</time>
      </trkpt>
      <trkpt lat="47.14869" lon="-1.63299">
        <ele>23.86</ele>
        <time>2020-01-19T12:49:22Z</time>
      </trkpt>
      <trkpt lat="47.14869" lon="-1.63281">
        <ele>22.32</ele>
        <time>2020-01-19T12:49:24Z</time>
      </trkpt>
      <trkpt lat="47.14869" lon="-1.63263">
        <ele>21.92</ele>
        <time>2020-01-19T12:49:26Z</time>
      </trkpt>
      <trkpt lat="47.14869" lon="-1.63243">
        <ele>22.62</ele>
        <time>2020-01-19T12:49:28Z</time>
      </trkpt>
      <trkpt lat="47.14869" lon="-1.63224">
        <ele>22.87</ele>
        <time>2020-01-19T12:49:30Z</time>
      </trkpt>
      <trkpt lat="47.14869" lon="-1.63206">
        <ele>22.27</ele>
        <time>2020-01-19T12:49:32Z</time>
      </trkpt>
      <trkpt lat="47.1487" lon="-1.63187">
        <ele>20.96</ele>
        <time>2020-01-19T12:49:34Z</time>
      </trkpt>
      <trkpt lat="47.14871" lon="-1.63169">
        <ele>19.58</ele>
        <time>2020-01-19T12:49:36Z</time>
      </trkpt>
      <trkpt lat="47.14871" lon="-1.63153">
        <ele>19.15</ele>
        <time>2020-01-19T12:49:38Z</time>
      </trkpt>
      <trkpt lat="47.14873" lon="-1.63134">
        <ele>19.47</ele>
        <time>2020-01-19T12:49:40Z</time>
      </trkpt>
      <trkpt lat="47.14875" lon="-1.63118">
        <ele>20.67</ele>
        <time>2020-01-19T12:49:42Z</time>
      </trkpt>
      <trkpt lat="47.14876" lon="-1.63104">
        <ele>20.96</ele>
        <time>2020-01-19T12:49:43Z</time>
      </trkpt>
      <trkpt lat="47.14878" lon="-1.63086">
        <ele>20.87</ele>
        <time>2020-01-19T12:49:45Z</time>
      </trkpt>
      <trkpt lat="47.1488" lon="-1.63072">
        <ele>21.35</ele>
        <time>2020-01-19T12:49:47Z</time>
      </trkpt>
      <trkpt lat="47.14884" lon="-1.6305">
        <ele>22.43</ele>
        <time>2020-01-19T12:49:49Z</time>
      </trkpt>
      <trkpt lat="47.14886" lon="-1.63034">
        <ele>22.58</ele>
        <time>2020-01-19T12:49:51Z</time>
      </trkpt>
      <trkpt lat="47.14889" lon="-1.63017">
        <ele>22.35</ele>
        <time>2020-01-19T12:49:53Z</time>
      </trkpt>
      <trkpt lat="47.1489" lon="-1.63001">
        <ele>22.4</ele>
        <time>2020-01-19T12:49:55Z</time>
      </trkpt>
      <trkpt lat="47.14892" lon="-1.6298">
        <ele>22.68</ele>
        <time>2020-01-19T12:49:57Z</time>
      </trkpt>
      <trkpt lat="47.14894" lon="-1.62963">
        <ele>23.23</ele>
        <time>2020-01-19T12:49:59Z</time>
      </trkpt>
      <trkpt lat="47.14897" lon="-1.62948">
        <ele>22.95</ele>
        <time>2020-01-19T12:50:01Z</time>
      </trkpt>
      <trkpt lat="47.149" lon="-1.62928">
        <ele>21.83</ele>
        <time>2020-01-19T12:50:03Z</time>
      </trkpt>
      <trkpt lat="47.14902" lon="-1.62911">
        <ele>21.04</ele>
        <time>2020-01-19T12:50:05Z</time>
      </trkpt>
      <trkpt lat="47.14904" lon="-1.62894">
        <ele>20.98</ele>
        <time>2020-01-19T12:50:07Z</time>
      </trkpt>
      <trkpt lat="47.14906" lon="-1.62877">
        <ele>20.66</ele>
        <time>2020-01-19T12:50:09Z</time>
      </trkpt>
      <trkpt lat="47.14909" lon="-1.6286">
        <ele>20.46</ele>
        <time>2020-01-19T12:50:11Z</time>
      </trkpt>
      <trkpt lat="47.14913" lon="-1.62841">
        <ele>19.62</ele>
        <time>2020-01-19T12:50:13Z</time>
      </trkpt>
      <trkpt lat="47.14915" lon="-1.62823">
        <ele>20.1</ele>
        <time>2020-01-19T12:50:15Z</time>
      </trkpt>
      <trkpt lat="47.14917" lon="-1.62807">
        <ele>20.63</ele>
        <time>2020-01-19T12:50:17Z</time>
      </trkpt>
      <trkpt lat="47.14921" lon="-1.62791">
        <ele>21.29</ele>
        <time>2020-01-19T12:50:19Z</time>
      </trkpt>
      <trkpt lat="47.14924" lon="-1.62771">
        <ele>20.24</ele>
        <time>2020-01-19T12:50:21Z</time>
      </trkpt>
      <trkpt lat="47.14925" lon="-1.62756">
        <ele>19</ele>
        <time>2020-01-19T12:50:23Z</time>
      </trkpt>
      <trkpt lat="47.14927" lon="-1.6274">
        <ele>18</ele>
        <time>2020-01-19T12:50:25Z</time>
      </trkpt>
      <trkpt lat="47.1493" lon="-1.62722">
        <ele>18.61</ele>
        <time>2020-01-19T12:50:27Z</time>
      </trkpt>
      <trkpt lat="47.14932" lon="-1.62705">
        <ele>18.77</ele>
        <time>2020-01-19T12:50:29Z</time>
      </trkpt>
      <trkpt lat="47.14934" lon="-1.62686">
        <ele>19.02</ele>
        <time>2020-01-19T12:50:31Z</time>
      </trkpt>
      <trkpt lat="47.14936" lon="-1.6267">
        <ele>19.06</ele>
        <time>2020-01-19T12:50:33Z</time>
      </trkpt>
      <trkpt lat="47.14939" lon="-1.6265">
        <ele>18.52</ele>
        <time>2020-01-19T12:50:35Z</time>
      </trkpt>
      <trkpt lat="47.14941" lon="-1.62633">
        <ele>18.24</ele>
        <time>2020-01-19T12:50:37Z</time>
      </trkpt>
      <trkpt lat="47.14944" lon="-1.62616">
        <ele>18.32</ele>
        <time>2020-01-19T12:50:39Z</time>
      </trkpt>
      <trkpt lat="47.14948" lon="-1.62598">
        <ele>18</ele>
        <time>2020-01-19T12:50:41Z</time>
      </trkpt>
      <trkpt lat="47.1495" lon="-1.62578">
        <ele>18.03</ele>
        <time>2020-01-19T12:50:43Z</time>
      </trkpt>
      <trkpt lat="47.14953" lon="-1.62559">
        <ele>17.91</ele>
        <time>2020-01-19T12:50:45Z</time>
      </trkpt>
      <trkpt lat="47.14955" lon="-1.62541">
        <ele>17.44</ele>
        <time>2020-01-19T12:50:47Z</time>
      </trkpt>
      <trkpt lat="47.14958" lon="-1.62523">
        <ele>17.14</ele>
        <time>2020-01-19T12:50:49Z</time>
      </trkpt>
      <trkpt lat="47.1496" lon="-1.62507">
        <ele>17.93</ele>
        <time>2020-01-19T12:50:51Z</time>
      </trkpt>
      <trkpt lat="47.14963" lon="-1.62486">
        <ele>17.08</ele>
        <time>2020-01-19T12:50:53Z</time>
      </trkpt>
      <trkpt lat="47.14965" lon="-1.62472">
        <ele>17.01</ele>
        <time>2020-01-19T12:50:55Z</time>
      </trkpt>
      <trkpt lat="47.14968" lon="-1.62451">
        <ele>17.38</ele>
        <time>2020-01-19T12:50:57Z</time>
      </trkpt>
      <trkpt lat="47.1497" lon="-1.62435">
        <ele>18.39</ele>
        <time>2020-01-19T12:50:59Z</time>
      </trkpt>
      <trkpt lat="47.14972" lon="-1.62418">
        <ele>18.73</ele>
        <time>2020-01-19T12:51:01Z</time>
      </trkpt>
      <trkpt lat="47.14974" lon="-1.62403">
        <ele>18.66</ele>
        <time>2020-01-19T12:51:03Z</time>
      </trkpt>
      <trkpt lat="47.14977" lon="-1.62386">
        <ele>19.08</ele>
        <time>2020-01-19T12:51:05Z</time>
      </trkpt>
      <trkpt lat="47.14978" lon="-1.62373">
        <ele>17.83</ele>
        <time>2020-01-19T12:51:07Z</time>
      </trkpt>
      <trkpt lat="47.14981" lon="-1.62353">
        <ele>18</ele>
        <time>2020-01-19T12:51:09Z</time>
      </trkpt>
      <trkpt lat="47.14983" lon="-1.62337">
        <ele>18.77</ele>
        <time>2020-01-19T12:51:11Z</time>
      </trkpt>
      <trkpt lat="47.14985" lon="-1.62323">
        <ele>19.07</ele>
        <time>2020-01-19T12:51:13Z</time>
      </trkpt>
      <trkpt lat="47.14987" lon="-1.62309">
        <ele>20.94</ele>
        <time>2020-01-19T12:51:15Z</time>
      </trkpt>
      <trkpt lat="47.14989" lon="-1.62293">
        <ele>21.19</ele>
        <time>2020-01-19T12:51:17Z</time>
      </trkpt>
      <trkpt lat="47.14991" lon="-1.6228">
        <ele>20.98</ele>
        <time>2020-01-19T12:51:19Z</time>
      </trkpt>
      <trkpt lat="47.14993" lon="-1.62265">
        <ele>20.35</ele>
        <time>2020-01-19T12:51:21Z</time>
      </trkpt>
      <trkpt lat="47.14995" lon="-1.62247">
        <ele>19.1</ele>
        <time>2020-01-19T12:51:23Z</time>
      </trkpt>
      <trkpt lat="47.14998" lon="-1.62232">
        <ele>17.8</ele>
        <time>2020-01-19T12:51:25Z</time>
      </trkpt>
      <trkpt lat="47.15001" lon="-1.62216">
        <ele>17.88</ele>
        <time>2020-01-19T12:51:27Z</time>
      </trkpt>
      <trkpt lat="47.15004" lon="-1.62197">
        <ele>18.2</ele>
        <time>2020-01-19T12:51:29Z</time>
      </trkpt>
      <trkpt lat="47.15006" lon="-1.62181">
        <ele>18.26</ele>
        <time>2020-01-19T12:51:31Z</time>
      </trkpt>
      <trkpt lat="47.15008" lon="-1.62164">
        <ele>18.6</ele>
        <time>2020-01-19T12:51:33Z</time>
      </trkpt>
      <trkpt lat="47.1501" lon="-1.62149">
        <ele>19.7</ele>
        <time>2020-01-19T12:51:35Z</time>
      </trkpt>
      <trkpt lat="47.15013" lon="-1.62132">
        <ele>20.52</ele>
        <time>2020-01-19T12:51:37Z</time>
      </trkpt>
      <trkpt lat="47.15014" lon="-1.62118">
        <ele>20.88</ele>
        <time>2020-01-19T12:51:39Z</time>
      </trkpt>
      <trkpt lat="47.15017" lon="-1.62101">
        <ele>21.27</ele>
        <time>2020-01-19T12:51:41Z</time>
      </trkpt>
      <trkpt lat="47.15019" lon="-1.62085">
        <ele>20.74</ele>
        <time>2020-01-19T12:51:43Z</time>
      </trkpt>
      <trkpt lat="47.15018" lon="-1.62071">
        <ele>19.88</ele>
        <time>2020-01-19T12:51:45Z</time>
      </trkpt>
      <trkpt lat="47.15009" lon="-1.62064">
        <ele>18.71</ele>
        <time>2020-01-19T12:51:47Z</time>
      </trkpt>
      <trkpt lat="47.14997" lon="-1.62058">
        <ele>19.53</ele>
        <time>2020-01-19T12:51:49Z</time>
      </trkpt>
      <trkpt lat="47.14986" lon="-1.62055">
        <ele>20.48</ele>
        <time>2020-01-19T12:51:51Z</time>
      </trkpt>
      <trkpt lat="47.14974" lon="-1.62052">
        <ele>20.41</ele>
        <time>2020-01-19T12:51:52Z</time>
      </trkpt>
      <trkpt lat="47.14964" lon="-1.62049">
        <ele>20.66</ele>
        <time>2020-01-19T12:51:54Z</time>
      </trkpt>
      <trkpt lat="47.14955" lon="-1.62046">
        <ele>19.18</ele>
        <time>2020-01-19T12:51:56Z</time>
      </trkpt>
      <trkpt lat="47.14942" lon="-1.62042">
        <ele>18.15</ele>
        <time>2020-01-19T12:51:58Z</time>
      </trkpt>
      <trkpt lat="47.1493" lon="-1.62037">
        <ele>18.37</ele>
        <time>2020-01-19T12:52:00Z</time>
      </trkpt>
      <trkpt lat="47.14919" lon="-1.62034">
        <ele>19.14</ele>
        <time>2020-01-19T12:52:02Z</time>
      </trkpt>
      <trkpt lat="47.14908" lon="-1.62031">
        <ele>17.83</ele>
        <time>2020-01-19T12:52:04Z</time>
      </trkpt>
      <trkpt lat="47.14896" lon="-1.62028">
        <ele>17.33</ele>
        <time>2020-01-19T12:52:06Z</time>
      </trkpt>
      <trkpt lat="47.14884" lon="-1.62024">
        <ele>18.58</ele>
        <time>2020-01-19T12:52:08Z</time>
      </trkpt>
      <trkpt lat="47.14871" lon="-1.62021">
        <ele>18.51</ele>
        <time>2020-01-19T12:52:10Z</time>
      </trkpt>
      <trkpt lat="47.14861" lon="-1.62018">
        <ele>17.8</ele>
        <time>2020-01-19T12:52:12Z</time>
      </trkpt>
      <trkpt lat="47.14847" lon="-1.62015">
        <ele>18.15</ele>
        <time>2020-01-19T12:52:14Z</time>
      </trkpt>
      <trkpt lat="47.14836" lon="-1.62013">
        <ele>18.99</ele>
        <time>2020-01-19T12:52:16Z</time>
      </trkpt>
      <trkpt lat="47.14823" lon="-1.62014">
        <ele>19.79</ele>
        <time>2020-01-19T12:52:18Z</time>
      </trkpt>
      <trkpt lat="47.1481" lon="-1.62015">
        <ele>21.22</ele>
        <time>2020-01-19T12:52:20Z</time>
      </trkpt>
      <trkpt lat="47.14796" lon="-1.62016">
        <ele>21.95</ele>
        <time>2020-01-19T12:52:22Z</time>
      </trkpt>
      <trkpt lat="47.14784" lon="-1.62016">
        <ele>21.87</ele>
        <time>2020-01-19T12:52:24Z</time>
      </trkpt>
      <trkpt lat="47.14773" lon="-1.62017">
        <ele>21.06</ele>
        <time>2020-01-19T12:52:26Z</time>
      </trkpt>
      <trkpt lat="47.14758" lon="-1.62016">
        <ele>20.89</ele>
        <time>2020-01-19T12:52:28Z</time>
      </trkpt>
      <trkpt lat="47.14746" lon="-1.62018">
        <ele>20.7</ele>
        <time>2020-01-19T12:52:30Z</time>
      </trkpt>
      <trkpt lat="47.14734" lon="-1.62021">
        <ele>19.96</ele>
        <time>2020-01-19T12:52:32Z</time>
      </trkpt>
      <trkpt lat="47.1472" lon="-1.62024">
        <ele>19.5</ele>
        <time>2020-01-19T12:52:34Z</time>
      </trkpt>
      <trkpt lat="47.14708" lon="-1.6203">
        <ele>19.38</ele>
        <time>2020-01-19T12:52:36Z</time>
      </trkpt>
      <trkpt lat="47.14696" lon="-1.62034">
        <ele>18.5</ele>
        <time>2020-01-19T12:52:38Z</time>
      </trkpt>
      <trkpt lat="47.14684" lon="-1.62036">
        <ele>19.07</ele>
        <time>2020-01-19T12:52:40Z</time>
      </trkpt>
      <trkpt lat="47.14671" lon="-1.62037">
        <ele>19.05</ele>
        <time>2020-01-19T12:52:42Z</time>
      </trkpt>
      <trkpt lat="47.14658" lon="-1.62037">
        <ele>18.76</ele>
        <time>2020-01-19T12:52:44Z</time>
      </trkpt>
      <trkpt lat="47.14646" lon="-1.62038">
        <ele>18.25</ele>
        <time>2020-01-19T12:52:46Z</time>
      </trkpt>
      <trkpt lat="47.14632" lon="-1.6204">
        <ele>18.4</ele>
        <time>2020-01-19T12:52:48Z</time>
      </trkpt>
      <trkpt lat="47.1462" lon="-1.62041">
        <ele>19.04</ele>
        <time>2020-01-19T12:52:50Z</time>
      </trkpt>
      <trkpt lat="47.14607" lon="-1.62041">
        <ele>19.25</ele>
        <time>2020-01-19T12:52:52Z</time>
      </trkpt>
      <trkpt lat="47.14594" lon="-1.62041">
        <ele>19.43</ele>
        <time>2020-01-19T12:52:54Z</time>
      </trkpt>
      <trkpt lat="47.1458" lon="-1.62042">
        <ele>19.62</ele>
        <time>2020-01-19T12:52:56Z</time>
      </trkpt>
      <trkpt lat="47.14568" lon="-1.62043">
        <ele>20.24</ele>
        <time>2020-01-19T12:52:58Z</time>
      </trkpt>
      <trkpt lat="47.14554" lon="-1.62044">
        <ele>20.34</ele>
        <time>2020-01-19T12:53:00Z</time>
      </trkpt>
      <trkpt lat="47.1454" lon="-1.6204">
        <ele>20.61</ele>
        <time>2020-01-19T12:53:02Z</time>
      </trkpt>
      <trkpt lat="47.14528" lon="-1.62034">
        <ele>21.57</ele>
        <time>2020-01-19T12:53:04Z</time>
      </trkpt>
      <trkpt lat="47.14516" lon="-1.62027">
        <ele>21.72</ele>
        <time>2020-01-19T12:53:06Z</time>
      </trkpt>
      <trkpt lat="47.14505" lon="-1.62027">
        <ele>21.43</ele>
        <time>2020-01-19T12:53:08Z</time>
      </trkpt>
      <trkpt lat="47.14493" lon="-1.62035">
        <ele>20.8</ele>
        <time>2020-01-19T12:53:10Z</time>
      </trkpt>
      <trkpt lat="47.14482" lon="-1.62043">
        <ele>20.17</ele>
        <time>2020-01-19T12:53:12Z</time>
      </trkpt>
      <trkpt lat="47.14469" lon="-1.62054">
        <ele>20.54</ele>
        <time>2020-01-19T12:53:14Z</time>
      </trkpt>
      <trkpt lat="47.14457" lon="-1.62063">
        <ele>19.8</ele>
        <time>2020-01-19T12:53:16Z</time>
      </trkpt>
      <trkpt lat="47.14445" lon="-1.62073">
        <ele>19.55</ele>
        <time>2020-01-19T12:53:18Z</time>
      </trkpt>
      <trkpt lat="47.14434" lon="-1.62082">
        <ele>18.98</ele>
        <time>2020-01-19T12:53:20Z</time>
      </trkpt>
      <trkpt lat="47.14423" lon="-1.62091">
        <ele>18.7</ele>
        <time>2020-01-19T12:53:22Z</time>
      </trkpt>
      <trkpt lat="47.1441" lon="-1.62102">
        <ele>18.03</ele>
        <time>2020-01-19T12:53:24Z</time>
      </trkpt>
      <trkpt lat="47.14396" lon="-1.62112">
        <ele>17.84</ele>
        <time>2020-01-19T12:53:26Z</time>
      </trkpt>
      <trkpt lat="47.14384" lon="-1.6212">
        <ele>18.54</ele>
        <time>2020-01-19T12:53:28Z</time>
      </trkpt>
      <trkpt lat="47.14371" lon="-1.6213">
        <ele>19.62</ele>
        <time>2020-01-19T12:53:30Z</time>
      </trkpt>
      <trkpt lat="47.14359" lon="-1.62139">
        <ele>20.26</ele>
        <time>2020-01-19T12:53:32Z</time>
      </trkpt>
      <trkpt lat="47.14348" lon="-1.62146">
        <ele>20.12</ele>
        <time>2020-01-19T12:53:34Z</time>
      </trkpt>
      <trkpt lat="47.14335" lon="-1.62155">
        <ele>20.47</ele>
        <time>2020-01-19T12:53:36Z</time>
      </trkpt>
      <trkpt lat="47.14323" lon="-1.62165">
        <ele>20.59</ele>
        <time>2020-01-19T12:53:38Z</time>
      </trkpt>
      <trkpt lat="47.14313" lon="-1.62174">
        <ele>20.54</ele>
        <time>2020-01-19T12:53:40Z</time>
      </trkpt>
      <trkpt lat="47.143" lon="-1.62183">
        <ele>20.4</ele>
        <time>2020-01-19T12:53:42Z</time>
      </trkpt>
      <trkpt lat="47.14285" lon="-1.62194">
        <ele>20.15</ele>
        <time>2020-01-19T12:53:44Z</time>
      </trkpt>
      <trkpt lat="47.14273" lon="-1.62207">
        <ele>19.9</ele>
        <time>2020-01-19T12:53:46Z</time>
      </trkpt>
      <trkpt lat="47.14265" lon="-1.62226">
        <ele>19.6</ele>
        <time>2020-01-19T12:53:48Z</time>
      </trkpt>
      <trkpt lat="47.14261" lon="-1.62249">
        <ele>19.47</ele>
        <time>2020-01-19T12:53:50Z</time>
      </trkpt>
      <trkpt lat="47.14259" lon="-1.62269">
        <ele>19.41</ele>
        <time>2020-01-19T12:53:52Z</time>
      </trkpt>
      <trkpt lat="47.14256" lon="-1.62291">
        <ele>18.95</ele>
        <time>2020-01-19T12:53:54Z</time>
      </trkpt>
      <trkpt lat="47.14253" lon="-1.62315">
        <ele>18.5</ele>
        <time>2020-01-19T12:53:56Z</time>
      </trkpt>
      <trkpt lat="47.1425" lon="-1.62336">
        <ele>18.21</ele>
        <time>2020-01-19T12:53:58Z</time>
      </trkpt>
      <trkpt lat="47.14246" lon="-1.62358">
        <ele>17.5</ele>
        <time>2020-01-19T12:54:00Z</time>
      </trkpt>
      <trkpt lat="47.14243" lon="-1.62381">
        <ele>16.64</ele>
        <time>2020-01-19T12:54:02Z</time>
      </trkpt>
      <trkpt lat="47.14239" lon="-1.62404">
        <ele>15.84</ele>
        <time>2020-01-19T12:54:04Z</time>
      </trkpt>
      <trkpt lat="47.14235" lon="-1.62427">
        <ele>15.45</ele>
        <time>2020-01-19T12:54:06Z</time>
      </trkpt>
      <trkpt lat="47.14232" lon="-1.6245">
        <ele>15.04</ele>
        <time>2020-01-19T12:54:08Z</time>
      </trkpt>
      <trkpt lat="47.14229" lon="-1.62468">
        <ele>14.99</ele>
        <time>2020-01-19T12:54:10Z</time>
      </trkpt>
      <trkpt lat="47.14225" lon="-1.62491">
        <ele>15.77</ele>
        <time>2020-01-19T12:54:12Z</time>
      </trkpt>
      <trkpt lat="47.14222" lon="-1.62505">
        <ele>15.8</ele>
        <time>2020-01-19T12:54:13Z</time>
      </trkpt>
      <trkpt lat="47.14218" lon="-1.62526">
        <ele>16.02</ele>
        <time>2020-01-19T12:54:15Z</time>
      </trkpt>
      <trkpt lat="47.14214" lon="-1.62548">
        <ele>15.91</ele>
        <time>2020-01-19T12:54:17Z</time>
      </trkpt>
      <trkpt lat="47.14213" lon="-1.62569">
        <ele>15.45</ele>
        <time>2020-01-19T12:54:19Z</time>
      </trkpt>
      <trkpt lat="47.14214" lon="-1.62589">
        <ele>14.91</ele>
        <time>2020-01-19T12:54:21Z</time>
      </trkpt>
      <trkpt lat="47.14215" lon="-1.6261">
        <ele>15.45</ele>
        <time>2020-01-19T12:54:23Z</time>
      </trkpt>
      <trkpt lat="47.14217" lon="-1.62628">
        <ele>16.19</ele>
        <time>2020-01-19T12:54:25Z</time>
      </trkpt>
      <trkpt lat="47.14218" lon="-1.6265">
        <ele>16.1</ele>
        <time>2020-01-19T12:54:27Z</time>
      </trkpt>
      <trkpt lat="47.14219" lon="-1.62671">
        <ele>15.35</ele>
        <time>2020-01-19T12:54:29Z</time>
      </trkpt>
      <trkpt lat="47.14215" lon="-1.62691">
        <ele>15.02</ele>
        <time>2020-01-19T12:54:31Z</time>
      </trkpt>
      <trkpt lat="47.14207" lon="-1.62704">
        <ele>15.46</ele>
        <time>2020-01-19T12:54:33Z</time>
      </trkpt>
      <trkpt lat="47.14194" lon="-1.6271">
        <ele>15.4</ele>
        <time>2020-01-19T12:54:35Z</time>
      </trkpt>
      <trkpt lat="47.14182" lon="-1.62715">
        <ele>14.95</ele>
        <time>2020-01-19T12:54:37Z</time>
      </trkpt>
      <trkpt lat="47.14169" lon="-1.6272">
        <ele>14.57</ele>
        <time>2020-01-19T12:54:39Z</time>
      </trkpt>
      <trkpt lat="47.14156" lon="-1.62724">
        <ele>14.9</ele>
        <time>2020-01-19T12:54:41Z</time>
      </trkpt>
      <trkpt lat="47.14142" lon="-1.62729">
        <ele>15.09</ele>
        <time>2020-01-19T12:54:43Z</time>
      </trkpt>
      <trkpt lat="47.14129" lon="-1.62732">
        <ele>15.17</ele>
        <time>2020-01-19T12:54:45Z</time>
      </trkpt>
      <trkpt lat="47.14116" lon="-1.62731">
        <ele>14.94</ele>
        <time>2020-01-19T12:54:47Z</time>
      </trkpt>
      <trkpt lat="47.14102" lon="-1.62732">
        <ele>15.5</ele>
        <time>2020-01-19T12:54:49Z</time>
      </trkpt>
      <trkpt lat="47.14089" lon="-1.62732">
        <ele>17.4</ele>
        <time>2020-01-19T12:54:51Z</time>
      </trkpt>
      <trkpt lat="47.14074" lon="-1.62732">
        <ele>19.49</ele>
        <time>2020-01-19T12:54:53Z</time>
      </trkpt>
      <trkpt lat="47.14059" lon="-1.62731">
        <ele>19.82</ele>
        <time>2020-01-19T12:54:55Z</time>
      </trkpt>
      <trkpt lat="47.14046" lon="-1.62729">
        <ele>19.44</ele>
        <time>2020-01-19T12:54:57Z</time>
      </trkpt>
      <trkpt lat="47.14034" lon="-1.62727">
        <ele>18.18</ele>
        <time>2020-01-19T12:54:59Z</time>
      </trkpt>
      <trkpt lat="47.14019" lon="-1.62727">
        <ele>17.25</ele>
        <time>2020-01-19T12:55:01Z</time>
      </trkpt>
      <trkpt lat="47.14008" lon="-1.62732">
        <ele>16.77</ele>
        <time>2020-01-19T12:55:03Z</time>
      </trkpt>
      <trkpt lat="47.13995" lon="-1.62738">
        <ele>16.19</ele>
        <time>2020-01-19T12:55:05Z</time>
      </trkpt>
      <trkpt lat="47.13984" lon="-1.62745">
        <ele>15.78</ele>
        <time>2020-01-19T12:55:07Z</time>
      </trkpt>
      <trkpt lat="47.13971" lon="-1.62754">
        <ele>16.28</ele>
        <time>2020-01-19T12:55:09Z</time>
      </trkpt>
      <trkpt lat="47.13959" lon="-1.62763">
        <ele>16.82</ele>
        <time>2020-01-19T12:55:11Z</time>
      </trkpt>
      <trkpt lat="47.13947" lon="-1.62772">
        <ele>16.73</ele>
        <time>2020-01-19T12:55:13Z</time>
      </trkpt>
      <trkpt lat="47.13935" lon="-1.62782">
        <ele>16.72</ele>
        <time>2020-01-19T12:55:15Z</time>
      </trkpt>
      <trkpt lat="47.13924" lon="-1.62792">
        <ele>16.53</ele>
        <time>2020-01-19T12:55:17Z</time>
      </trkpt>
      <trkpt lat="47.13914" lon="-1.62803">
        <ele>16.23</ele>
        <time>2020-01-19T12:55:19Z</time>
      </trkpt>
      <trkpt lat="47.13902" lon="-1.62816">
        <ele>15.79</ele>
        <time>2020-01-19T12:55:21Z</time>
      </trkpt>
      <trkpt lat="47.13893" lon="-1.62827">
        <ele>15.44</ele>
        <time>2020-01-19T12:55:23Z</time>
      </trkpt>
      <trkpt lat="47.13881" lon="-1.6284">
        <ele>14.89</ele>
        <time>2020-01-19T12:55:25Z</time>
      </trkpt>
      <trkpt lat="47.13871" lon="-1.62852">
        <ele>14.33</ele>
        <time>2020-01-19T12:55:27Z</time>
      </trkpt>
      <trkpt lat="47.1386" lon="-1.62863">
        <ele>14.02</ele>
        <time>2020-01-19T12:55:29Z</time>
      </trkpt>
      <trkpt lat="47.13849" lon="-1.62875">
        <ele>14.66</ele>
        <time>2020-01-19T12:55:31Z</time>
      </trkpt>
      <trkpt lat="47.1384" lon="-1.62886">
        <ele>15.39</ele>
        <time>2020-01-19T12:55:33Z</time>
      </trkpt>
      <trkpt lat="47.13828" lon="-1.62892">
        <ele>14.9</ele>
        <time>2020-01-19T12:55:35Z</time>
      </trkpt>
      <trkpt lat="47.13818" lon="-1.6288">
        <ele>15.21</ele>
        <time>2020-01-19T12:55:37Z</time>
      </trkpt>
      <trkpt lat="47.13811" lon="-1.62861">
        <ele>14.74</ele>
        <time>2020-01-19T12:55:39Z</time>
      </trkpt>
      <trkpt lat="47.13805" lon="-1.62845">
        <ele>14.08</ele>
        <time>2020-01-19T12:55:41Z</time>
      </trkpt>
      <trkpt lat="47.13799" lon="-1.6283">
        <ele>14.01</ele>
        <time>2020-01-19T12:55:43Z</time>
      </trkpt>
      <trkpt lat="47.13793" lon="-1.62812">
        <ele>14.41</ele>
        <time>2020-01-19T12:55:45Z</time>
      </trkpt>
      <trkpt lat="47.13787" lon="-1.62797">
        <ele>14.93</ele>
        <time>2020-01-19T12:55:47Z</time>
      </trkpt>
      <trkpt lat="47.1378" lon="-1.6278">
        <ele>14.74</ele>
        <time>2020-01-19T12:55:49Z</time>
      </trkpt>
      <trkpt lat="47.13775" lon="-1.62758">
        <ele>14.24</ele>
        <time>2020-01-19T12:55:51Z</time>
      </trkpt>
      <trkpt lat="47.13774" lon="-1.62737">
        <ele>13.73</ele>
        <time>2020-01-19T12:55:53Z</time>
      </trkpt>
      <trkpt lat="47.13774" lon="-1.62717">
        <ele>13.27</ele>
        <time>2020-01-19T12:55:55Z</time>
      </trkpt>
      <trkpt lat="47.13776" lon="-1.62697">
        <ele>13.25</ele>
        <time>2020-01-19T12:55:57Z</time>
      </trkpt>
      <trkpt lat="47.13777" lon="-1.62677">
        <ele>12.45</ele>
        <time>2020-01-19T12:55:59Z</time>
      </trkpt>
      <trkpt lat="47.13777" lon="-1.62656">
        <ele>11.77</ele>
        <time>2020-01-19T12:56:01Z</time>
      </trkpt>
      <trkpt lat="47.13777" lon="-1.62635">
        <ele>11.39</ele>
        <time>2020-01-19T12:56:03Z</time>
      </trkpt>
      <trkpt lat="47.13776" lon="-1.62615">
        <ele>12.28</ele>
        <time>2020-01-19T12:56:05Z</time>
      </trkpt>
      <trkpt lat="47.13775" lon="-1.62597">
        <ele>11.96</ele>
        <time>2020-01-19T12:56:07Z</time>
      </trkpt>
      <trkpt lat="47.13774" lon="-1.62577">
        <ele>12.08</ele>
        <time>2020-01-19T12:56:09Z</time>
      </trkpt>
      <trkpt lat="47.13773" lon="-1.6256">
        <ele>12.22</ele>
        <time>2020-01-19T12:56:11Z</time>
      </trkpt>
      <trkpt lat="47.13771" lon="-1.62539">
        <ele>12.91</ele>
        <time>2020-01-19T12:56:13Z</time>
      </trkpt>
      <trkpt lat="47.13769" lon="-1.62518">
        <ele>13.23</ele>
        <time>2020-01-19T12:56:15Z</time>
      </trkpt>
      <trkpt lat="47.13767" lon="-1.62499">
        <ele>13.5</ele>
        <time>2020-01-19T12:56:17Z</time>
      </trkpt>
      <trkpt lat="47.13765" lon="-1.62479">
        <ele>12.78</ele>
        <time>2020-01-19T12:56:19Z</time>
      </trkpt>
      <trkpt lat="47.13763" lon="-1.62461">
        <ele>12.52</ele>
        <time>2020-01-19T12:56:21Z</time>
      </trkpt>
      <trkpt lat="47.13762" lon="-1.62446">
        <ele>12.91</ele>
        <time>2020-01-19T12:56:23Z</time>
      </trkpt>
      <trkpt lat="47.1376" lon="-1.62428">
        <ele>12.58</ele>
        <time>2020-01-19T12:56:25Z</time>
      </trkpt>
      <trkpt lat="47.13759" lon="-1.62411">
        <ele>11.38</ele>
        <time>2020-01-19T12:56:27Z</time>
      </trkpt>
      <trkpt lat="47.13757" lon="-1.62397">
        <ele>11.19</ele>
        <time>2020-01-19T12:56:29Z</time>
      </trkpt>
      <trkpt lat="47.13756" lon="-1.62382">
        <ele>11.14</ele>
        <time>2020-01-19T12:56:31Z</time>
      </trkpt>
      <trkpt lat="47.13758" lon="-1.62367">
        <ele>10.76</ele>
        <time>2020-01-19T12:56:33Z</time>
      </trkpt>
      <trkpt lat="47.1376" lon="-1.62351">
        <ele>11.4</ele>
        <time>2020-01-19T12:56:35Z</time>
      </trkpt>
      <trkpt lat="47.13761" lon="-1.62328">
        <ele>11.81</ele>
        <time>2020-01-19T12:56:38Z</time>
      </trkpt>
      <trkpt lat="47.13762" lon="-1.62312">
        <ele>12.04</ele>
        <time>2020-01-19T12:56:40Z</time>
      </trkpt>
      <trkpt lat="47.13762" lon="-1.6229">
        <ele>12.37</ele>
        <time>2020-01-19T12:56:43Z</time>
      </trkpt>
      <trkpt lat="47.13761" lon="-1.62274">
        <ele>12.78</ele>
        <time>2020-01-19T12:56:45Z</time>
      </trkpt>
      <trkpt lat="47.1376" lon="-1.6226">
        <ele>12.81</ele>
        <time>2020-01-19T12:56:47Z</time>
      </trkpt>
      <trkpt lat="47.13758" lon="-1.62247">
        <ele>13.23</ele>
        <time>2020-01-19T12:56:49Z</time>
      </trkpt>
      <trkpt lat="47.13756" lon="-1.62229">
        <ele>13.74</ele>
        <time>2020-01-19T12:56:51Z</time>
      </trkpt>
      <trkpt lat="47.13754" lon="-1.62216">
        <ele>13.99</ele>
        <time>2020-01-19T12:56:53Z</time>
      </trkpt>
      <trkpt lat="47.13752" lon="-1.62202">
        <ele>13.05</ele>
        <time>2020-01-19T12:56:55Z</time>
      </trkpt>
      <trkpt lat="47.1375" lon="-1.62187">
        <ele>12.65</ele>
        <time>2020-01-19T12:56:57Z</time>
      </trkpt>
      <trkpt lat="47.13748" lon="-1.6217">
        <ele>13.42</ele>
        <time>2020-01-19T12:56:59Z</time>
      </trkpt>
      <trkpt lat="47.13747" lon="-1.62155">
        <ele>12.64</ele>
        <time>2020-01-19T12:57:01Z</time>
      </trkpt>
      <trkpt lat="47.13744" lon="-1.6214">
        <ele>12.8</ele>
        <time>2020-01-19T12:57:03Z</time>
      </trkpt>
      <trkpt lat="47.13742" lon="-1.62122">
        <ele>13.48</ele>
        <time>2020-01-19T12:57:05Z</time>
      </trkpt>
      <trkpt lat="47.1374" lon="-1.62105">
        <ele>13.98</ele>
        <time>2020-01-19T12:57:07Z</time>
      </trkpt>
      <trkpt lat="47.13739" lon="-1.62089">
        <ele>13.86</ele>
        <time>2020-01-19T12:57:09Z</time>
      </trkpt>
      <trkpt lat="47.13737" lon="-1.62072">
        <ele>13.98</ele>
        <time>2020-01-19T12:57:11Z</time>
      </trkpt>
      <trkpt lat="47.13735" lon="-1.62056">
        <ele>14.64</ele>
        <time>2020-01-19T12:57:13Z</time>
      </trkpt>
      <trkpt lat="47.13732" lon="-1.6204">
        <ele>14.63</ele>
        <time>2020-01-19T12:57:15Z</time>
      </trkpt>
      <trkpt lat="47.1373" lon="-1.62026">
        <ele>14.45</ele>
        <time>2020-01-19T12:57:17Z</time>
      </trkpt>
      <trkpt lat="47.13728" lon="-1.62008">
        <ele>14.13</ele>
        <time>2020-01-19T12:57:19Z</time>
      </trkpt>
      <trkpt lat="47.13725" lon="-1.61989">
        <ele>14.01</ele>
        <time>2020-01-19T12:57:21Z</time>
      </trkpt>
      <trkpt lat="47.13722" lon="-1.61972">
        <ele>13.5</ele>
        <time>2020-01-19T12:57:23Z</time>
      </trkpt>
      <trkpt lat="47.13719" lon="-1.61954">
        <ele>12.95</ele>
        <time>2020-01-19T12:57:25Z</time>
      </trkpt>
      <trkpt lat="47.13717" lon="-1.61935">
        <ele>12.04</ele>
        <time>2020-01-19T12:57:27Z</time>
      </trkpt>
      <trkpt lat="47.13716" lon="-1.61918">
        <ele>11.24</ele>
        <time>2020-01-19T12:57:29Z</time>
      </trkpt>
      <trkpt lat="47.13717" lon="-1.61902">
        <ele>11.47</ele>
        <time>2020-01-19T12:57:31Z</time>
      </trkpt>
      <trkpt lat="47.13718" lon="-1.61887">
        <ele>11.55</ele>
        <time>2020-01-19T12:57:33Z</time>
      </trkpt>
      <trkpt lat="47.13718" lon="-1.61869">
        <ele>11.03</ele>
        <time>2020-01-19T12:57:35Z</time>
      </trkpt>
      <trkpt lat="47.1372" lon="-1.6185">
        <ele>11.08</ele>
        <time>2020-01-19T12:57:37Z</time>
      </trkpt>
      <trkpt lat="47.13721" lon="-1.61834">
        <ele>12.11</ele>
        <time>2020-01-19T12:57:39Z</time>
      </trkpt>
      <trkpt lat="47.13722" lon="-1.61819">
        <ele>13.56</ele>
        <time>2020-01-19T12:57:41Z</time>
      </trkpt>
      <trkpt lat="47.13725" lon="-1.61804">
        <ele>13.86</ele>
        <time>2020-01-19T12:57:43Z</time>
      </trkpt>
      <trkpt lat="47.13727" lon="-1.61789">
        <ele>14.15</ele>
        <time>2020-01-19T12:57:45Z</time>
      </trkpt>
      <trkpt lat="47.13731" lon="-1.61772">
        <ele>14.59</ele>
        <time>2020-01-19T12:57:47Z</time>
      </trkpt>
      <trkpt lat="47.13734" lon="-1.61758">
        <ele>14.8</ele>
        <time>2020-01-19T12:57:49Z</time>
      </trkpt>
      <trkpt lat="47.13737" lon="-1.61741">
        <ele>14.68</ele>
        <time>2020-01-19T12:57:51Z</time>
      </trkpt>
      <trkpt lat="47.13738" lon="-1.61721">
        <ele>14.79</ele>
        <time>2020-01-19T12:57:54Z</time>
      </trkpt>
      <trkpt lat="47.13744" lon="-1.61707">
        <ele>15.33</ele>
        <time>2020-01-19T12:57:56Z</time>
      </trkpt>
      <trkpt lat="47.13751" lon="-1.61697">
        <ele>15.04</ele>
        <time>2020-01-19T12:57:58Z</time>
      </trkpt>
      <trkpt lat="47.1376" lon="-1.61688">
        <ele>13.97</ele>
        <time>2020-01-19T12:58:00Z</time>
      </trkpt>
      <trkpt lat="47.1377" lon="-1.61677">
        <ele>12.94</ele>
        <time>2020-01-19T12:58:02Z</time>
      </trkpt>
      <trkpt lat="47.13779" lon="-1.61666">
        <ele>11.89</ele>
        <time>2020-01-19T12:58:04Z</time>
      </trkpt>
      <trkpt lat="47.13786" lon="-1.61657">
        <ele>12.21</ele>
        <time>2020-01-19T12:58:06Z</time>
      </trkpt>
      <trkpt lat="47.13797" lon="-1.61643">
        <ele>12.74</ele>
        <time>2020-01-19T12:58:09Z</time>
      </trkpt>
      <trkpt lat="47.13805" lon="-1.61631">
        <ele>13.87</ele>
        <time>2020-01-19T12:58:11Z</time>
      </trkpt>
      <trkpt lat="47.13814" lon="-1.61617">
        <ele>14.51</ele>
        <time>2020-01-19T12:58:13Z</time>
      </trkpt>
      <trkpt lat="47.13822" lon="-1.61608">
        <ele>14.75</ele>
        <time>2020-01-19T12:58:15Z</time>
      </trkpt>
      <trkpt lat="47.1383" lon="-1.61597">
        <ele>14.75</ele>
        <time>2020-01-19T12:58:17Z</time>
      </trkpt>
      <trkpt lat="47.13837" lon="-1.61586">
        <ele>14.6</ele>
        <time>2020-01-19T12:58:19Z</time>
      </trkpt>
      <trkpt lat="47.13845" lon="-1.61574">
        <ele>14.93</ele>
        <time>2020-01-19T12:58:21Z</time>
      </trkpt>
      <trkpt lat="47.13852" lon="-1.61564">
        <ele>14.63</ele>
        <time>2020-01-19T12:58:23Z</time>
      </trkpt>
      <trkpt lat="47.1386" lon="-1.61552">
        <ele>13.75</ele>
        <time>2020-01-19T12:58:25Z</time>
      </trkpt>
      <trkpt lat="47.13869" lon="-1.61541">
        <ele>13.93</ele>
        <time>2020-01-19T12:58:27Z</time>
      </trkpt>
      <trkpt lat="47.13878" lon="-1.61529">
        <ele>14.27</ele>
        <time>2020-01-19T12:58:29Z</time>
      </trkpt>
      <trkpt lat="47.13887" lon="-1.61516">
        <ele>13.82</ele>
        <time>2020-01-19T12:58:31Z</time>
      </trkpt>
      <trkpt lat="47.13895" lon="-1.61503">
        <ele>13.9</ele>
        <time>2020-01-19T12:58:33Z</time>
      </trkpt>
      <trkpt lat="47.13904" lon="-1.6149">
        <ele>13.43</ele>
        <time>2020-01-19T12:58:35Z</time>
      </trkpt>
      <trkpt lat="47.13912" lon="-1.61476">
        <ele>12.86</ele>
        <time>2020-01-19T12:58:37Z</time>
      </trkpt>
      <trkpt lat="47.13919" lon="-1.61465">
        <ele>13.02</ele>
        <time>2020-01-19T12:58:39Z</time>
      </trkpt>
      <trkpt lat="47.13928" lon="-1.61452">
        <ele>13.44</ele>
        <time>2020-01-19T12:58:41Z</time>
      </trkpt>
      <trkpt lat="47.13937" lon="-1.61442">
        <ele>14.15</ele>
        <time>2020-01-19T12:58:43Z</time>
      </trkpt>
      <trkpt lat="47.13947" lon="-1.61432">
        <ele>14.05</ele>
        <time>2020-01-19T12:58:45Z</time>
      </trkpt>
      <trkpt lat="47.13956" lon="-1.61422">
        <ele>13.96</ele>
        <time>2020-01-19T12:58:47Z</time>
      </trkpt>
      <trkpt lat="47.13966" lon="-1.61413">
        <ele>13.51</ele>
        <time>2020-01-19T12:58:49Z</time>
      </trkpt>
      <trkpt lat="47.13977" lon="-1.61404">
        <ele>13.28</ele>
        <time>2020-01-19T12:58:51Z</time>
      </trkpt>
      <trkpt lat="47.13987" lon="-1.61395">
        <ele>12.51</ele>
        <time>2020-01-19T12:58:53Z</time>
      </trkpt>
      <trkpt lat="47.13996" lon="-1.61385">
        <ele>11.23</ele>
        <time>2020-01-19T12:58:55Z</time>
      </trkpt>
      <trkpt lat="47.14005" lon="-1.61375">
        <ele>11.28</ele>
        <time>2020-01-19T12:58:57Z</time>
      </trkpt>
      <trkpt lat="47.14014" lon="-1.6136">
        <ele>10.95</ele>
        <time>2020-01-19T12:58:59Z</time>
      </trkpt>
      <trkpt lat="47.14018" lon="-1.61342">
        <ele>10.86</ele>
        <time>2020-01-19T12:59:01Z</time>
      </trkpt>
      <trkpt lat="47.14022" lon="-1.61326">
        <ele>10.57</ele>
        <time>2020-01-19T12:59:03Z</time>
      </trkpt>
      <trkpt lat="47.14024" lon="-1.6131">
        <ele>11.27</ele>
        <time>2020-01-19T12:59:05Z</time>
      </trkpt>
      <trkpt lat="47.14027" lon="-1.61296">
        <ele>11.03</ele>
        <time>2020-01-19T12:59:07Z</time>
      </trkpt>
      <trkpt lat="47.14032" lon="-1.61278">
        <ele>11.12</ele>
        <time>2020-01-19T12:59:09Z</time>
      </trkpt>
      <trkpt lat="47.14037" lon="-1.61262">
        <ele>11.6</ele>
        <time>2020-01-19T12:59:11Z</time>
      </trkpt>
      <trkpt lat="47.14042" lon="-1.61247">
        <ele>12.04</ele>
        <time>2020-01-19T12:59:13Z</time>
      </trkpt>
      <trkpt lat="47.14049" lon="-1.61233">
        <ele>12.26</ele>
        <time>2020-01-19T12:59:15Z</time>
      </trkpt>
      <trkpt lat="47.14055" lon="-1.6122">
        <ele>11.56</ele>
        <time>2020-01-19T12:59:17Z</time>
      </trkpt>
      <trkpt lat="47.14061" lon="-1.61206">
        <ele>11.27</ele>
        <time>2020-01-19T12:59:19Z</time>
      </trkpt>
      <trkpt lat="47.14068" lon="-1.61191">
        <ele>11.86</ele>
        <time>2020-01-19T12:59:21Z</time>
      </trkpt>
      <trkpt lat="47.14075" lon="-1.61178">
        <ele>11.12</ele>
        <time>2020-01-19T12:59:23Z</time>
      </trkpt>
      <trkpt lat="47.14083" lon="-1.61164">
        <ele>10.95</ele>
        <time>2020-01-19T12:59:25Z</time>
      </trkpt>
      <trkpt lat="47.1409" lon="-1.61153">
        <ele>10.55</ele>
        <time>2020-01-19T12:59:27Z</time>
      </trkpt>
      <trkpt lat="47.14098" lon="-1.61139">
        <ele>10.28</ele>
        <time>2020-01-19T12:59:29Z</time>
      </trkpt>
      <trkpt lat="47.14106" lon="-1.61125">
        <ele>10.96</ele>
        <time>2020-01-19T12:59:31Z</time>
      </trkpt>
      <trkpt lat="47.14112" lon="-1.6111">
        <ele>10.97</ele>
        <time>2020-01-19T12:59:33Z</time>
      </trkpt>
      <trkpt lat="47.14117" lon="-1.61094">
        <ele>11.52</ele>
        <time>2020-01-19T12:59:35Z</time>
      </trkpt>
      <trkpt lat="47.1412" lon="-1.61078">
        <ele>11.55</ele>
        <time>2020-01-19T12:59:37Z</time>
      </trkpt>
      <trkpt lat="47.14119" lon="-1.61063">
        <ele>11.81</ele>
        <time>2020-01-19T12:59:39Z</time>
      </trkpt>
      <trkpt lat="47.14118" lon="-1.61045">
        <ele>12.3</ele>
        <time>2020-01-19T12:59:41Z</time>
      </trkpt>
      <trkpt lat="47.14116" lon="-1.61029">
        <ele>12.58</ele>
        <time>2020-01-19T12:59:43Z</time>
      </trkpt>
      <trkpt lat="47.14113" lon="-1.61012">
        <ele>13.11</ele>
        <time>2020-01-19T12:59:45Z</time>
      </trkpt>
      <trkpt lat="47.14111" lon="-1.60998">
        <ele>13.43</ele>
        <time>2020-01-19T12:59:47Z</time>
      </trkpt>
      <trkpt lat="47.14109" lon="-1.60982">
        <ele>13.66</ele>
        <time>2020-01-19T12:59:49Z</time>
      </trkpt>
      <trkpt lat="47.14107" lon="-1.60968">
        <ele>13.67</ele>
        <time>2020-01-19T12:59:51Z</time>
      </trkpt>
      <trkpt lat="47.14104" lon="-1.60949">
        <ele>13.42</ele>
        <time>2020-01-19T12:59:53Z</time>
      </trkpt>
      <trkpt lat="47.14099" lon="-1.60933">
        <ele>14.12</ele>
        <time>2020-01-19T12:59:55Z</time>
      </trkpt>
      <trkpt lat="47.14093" lon="-1.6092">
        <ele>15.13</ele>
        <time>2020-01-19T12:59:57Z</time>
      </trkpt>
      <trkpt lat="47.14087" lon="-1.60905">
        <ele>15.16</ele>
        <time>2020-01-19T12:59:59Z</time>
      </trkpt>
      <trkpt lat="47.1408" lon="-1.60892">
        <ele>14.77</ele>
        <time>2020-01-19T13:00:01Z</time>
      </trkpt>
      <trkpt lat="47.14074" lon="-1.60879">
        <ele>15.48</ele>
        <time>2020-01-19T13:00:03Z</time>
      </trkpt>
      <trkpt lat="47.14071" lon="-1.60862">
        <ele>16.78</ele>
        <time>2020-01-19T13:00:05Z</time>
      </trkpt>
      <trkpt lat="47.14074" lon="-1.60841">
        <ele>18.64</ele>
        <time>2020-01-19T13:00:08Z</time>
      </trkpt>
      <trkpt lat="47.14077" lon="-1.60827">
        <ele>18.16</ele>
        <time>2020-01-19T13:00:10Z</time>
      </trkpt>
      <trkpt lat="47.14081" lon="-1.60809">
        <ele>17.41</ele>
        <time>2020-01-19T13:00:12Z</time>
      </trkpt>
      <trkpt lat="47.14086" lon="-1.60795">
        <ele>17.1</ele>
        <time>2020-01-19T13:00:14Z</time>
      </trkpt>
      <trkpt lat="47.1409" lon="-1.60776">
        <ele>17.47</ele>
        <time>2020-01-19T13:00:17Z</time>
      </trkpt>
      <trkpt lat="47.1409" lon="-1.60762">
        <ele>17.79</ele>
        <time>2020-01-19T13:00:20Z</time>
      </trkpt>
      <trkpt lat="47.14082" lon="-1.60754">
        <ele>17.45</ele>
        <time>2020-01-19T13:00:22Z</time>
      </trkpt>
      <trkpt lat="47.14071" lon="-1.60754">
        <ele>17.13</ele>
        <time>2020-01-19T13:00:24Z</time>
      </trkpt>
      <trkpt lat="47.1406" lon="-1.60758">
        <ele>16.89</ele>
        <time>2020-01-19T13:00:26Z</time>
      </trkpt>
      <trkpt lat="47.1405" lon="-1.60758">
        <ele>16.69</ele>
        <time>2020-01-19T13:00:28Z</time>
      </trkpt>
      <trkpt lat="47.1404" lon="-1.60751">
        <ele>16.99</ele>
        <time>2020-01-19T13:00:30Z</time>
      </trkpt>
      <trkpt lat="47.1403" lon="-1.60746">
        <ele>16.74</ele>
        <time>2020-01-19T13:00:32Z</time>
      </trkpt>
      <trkpt lat="47.14018" lon="-1.60744">
        <ele>16.28</ele>
        <time>2020-01-19T13:00:34Z</time>
      </trkpt>
      <trkpt lat="47.14005" lon="-1.60742">
        <ele>16.02</ele>
        <time>2020-01-19T13:00:36Z</time>
      </trkpt>
      <trkpt lat="47.13992" lon="-1.60741">
        <ele>15.77</ele>
        <time>2020-01-19T13:00:38Z</time>
      </trkpt>
      <trkpt lat="47.13981" lon="-1.6074">
        <ele>16.33</ele>
        <time>2020-01-19T13:00:40Z</time>
      </trkpt>
      <trkpt lat="47.13967" lon="-1.6074">
        <ele>16.4</ele>
        <time>2020-01-19T13:00:42Z</time>
      </trkpt>
      <trkpt lat="47.13956" lon="-1.60737">
        <ele>16.71</ele>
        <time>2020-01-19T13:00:44Z</time>
      </trkpt>
      <trkpt lat="47.13944" lon="-1.60733">
        <ele>17.11</ele>
        <time>2020-01-19T13:00:46Z</time>
      </trkpt>
      <trkpt lat="47.13932" lon="-1.60727">
        <ele>17.36</ele>
        <time>2020-01-19T13:00:48Z</time>
      </trkpt>
      <trkpt lat="47.13919" lon="-1.60719">
        <ele>17.47</ele>
        <time>2020-01-19T13:00:50Z</time>
      </trkpt>
      <trkpt lat="47.13907" lon="-1.6071">
        <ele>17.68</ele>
        <time>2020-01-19T13:00:52Z</time>
      </trkpt>
      <trkpt lat="47.13899" lon="-1.60696">
        <ele>18.64</ele>
        <time>2020-01-19T13:00:54Z</time>
      </trkpt>
      <trkpt lat="47.13891" lon="-1.60682">
        <ele>19.19</ele>
        <time>2020-01-19T13:00:56Z</time>
      </trkpt>
      <trkpt lat="47.13884" lon="-1.60668">
        <ele>18.76</ele>
        <time>2020-01-19T13:00:58Z</time>
      </trkpt>
      <trkpt lat="47.13877" lon="-1.60653">
        <ele>18.75</ele>
        <time>2020-01-19T13:01:00Z</time>
      </trkpt>
      <trkpt lat="47.1387" lon="-1.60637">
        <ele>18.17</ele>
        <time>2020-01-19T13:01:02Z</time>
      </trkpt>
      <trkpt lat="47.13864" lon="-1.60624">
        <ele>17.18</ele>
        <time>2020-01-19T13:01:04Z</time>
      </trkpt>
      <trkpt lat="47.13857" lon="-1.60609">
        <ele>16.33</ele>
        <time>2020-01-19T13:01:06Z</time>
      </trkpt>
      <trkpt lat="47.1385" lon="-1.60595">
        <ele>14.88</ele>
        <time>2020-01-19T13:01:08Z</time>
      </trkpt>
      <trkpt lat="47.13842" lon="-1.60581">
        <ele>15.11</ele>
        <time>2020-01-19T13:01:10Z</time>
      </trkpt>
      <trkpt lat="47.13836" lon="-1.6057">
        <ele>15.13</ele>
        <time>2020-01-19T13:01:12Z</time>
      </trkpt>
      <trkpt lat="47.13827" lon="-1.60558">
        <ele>13.79</ele>
        <time>2020-01-19T13:01:14Z</time>
      </trkpt>
      <trkpt lat="47.13816" lon="-1.60552">
        <ele>13.7</ele>
        <time>2020-01-19T13:01:16Z</time>
      </trkpt>
      <trkpt lat="47.13803" lon="-1.60551">
        <ele>13.73</ele>
        <time>2020-01-19T13:01:18Z</time>
      </trkpt>
      <trkpt lat="47.1379" lon="-1.60552">
        <ele>13.78</ele>
        <time>2020-01-19T13:01:20Z</time>
      </trkpt>
      <trkpt lat="47.13778" lon="-1.60556">
        <ele>13.76</ele>
        <time>2020-01-19T13:01:22Z</time>
      </trkpt>
      <trkpt lat="47.13767" lon="-1.6056">
        <ele>13.79</ele>
        <time>2020-01-19T13:01:24Z</time>
      </trkpt>
      <trkpt lat="47.13756" lon="-1.60562">
        <ele>12.75</ele>
        <time>2020-01-19T13:01:26Z</time>
      </trkpt>
      <trkpt lat="47.13744" lon="-1.6056">
        <ele>12.36</ele>
        <time>2020-01-19T13:01:28Z</time>
      </trkpt>
      <trkpt lat="47.13732" lon="-1.60553">
        <ele>12.48</ele>
        <time>2020-01-19T13:01:30Z</time>
      </trkpt>
      <trkpt lat="47.13722" lon="-1.60545">
        <ele>13.66</ele>
        <time>2020-01-19T13:01:32Z</time>
      </trkpt>
      <trkpt lat="47.13712" lon="-1.60537">
        <ele>13.92</ele>
        <time>2020-01-19T13:01:34Z</time>
      </trkpt>
      <trkpt lat="47.13701" lon="-1.60527">
        <ele>14.16</ele>
        <time>2020-01-19T13:01:36Z</time>
      </trkpt>
      <trkpt lat="47.13691" lon="-1.60517">
        <ele>14.44</ele>
        <time>2020-01-19T13:01:38Z</time>
      </trkpt>
      <trkpt lat="47.1368" lon="-1.60504">
        <ele>14.84</ele>
        <time>2020-01-19T13:01:40Z</time>
      </trkpt>
      <trkpt lat="47.13673" lon="-1.60493">
        <ele>15.63</ele>
        <time>2020-01-19T13:01:42Z</time>
      </trkpt>
      <trkpt lat="47.13665" lon="-1.60476">
        <ele>15.06</ele>
        <time>2020-01-19T13:01:44Z</time>
      </trkpt>
      <trkpt lat="47.1366" lon="-1.60459">
        <ele>15.27</ele>
        <time>2020-01-19T13:01:46Z</time>
      </trkpt>
      <trkpt lat="47.13656" lon="-1.60443">
        <ele>15.03</ele>
        <time>2020-01-19T13:01:48Z</time>
      </trkpt>
      <trkpt lat="47.13652" lon="-1.60422">
        <ele>14.45</ele>
        <time>2020-01-19T13:01:50Z</time>
      </trkpt>
      <trkpt lat="47.13651" lon="-1.60405">
        <ele>13.86</ele>
        <time>2020-01-19T13:01:52Z</time>
      </trkpt>
      <trkpt lat="47.1365" lon="-1.60388">
        <ele>13.02</ele>
        <time>2020-01-19T13:01:54Z</time>
      </trkpt>
      <trkpt lat="47.13651" lon="-1.60369">
        <ele>12.88</ele>
        <time>2020-01-19T13:01:56Z</time>
      </trkpt>
      <trkpt lat="47.13651" lon="-1.60349">
        <ele>13.72</ele>
        <time>2020-01-19T13:01:58Z</time>
      </trkpt>
      <trkpt lat="47.13647" lon="-1.60332">
        <ele>14.18</ele>
        <time>2020-01-19T13:02:00Z</time>
      </trkpt>
      <trkpt lat="47.13641" lon="-1.6032">
        <ele>14.52</ele>
        <time>2020-01-19T13:02:02Z</time>
      </trkpt>
      <trkpt lat="47.1363" lon="-1.60309">
        <ele>15.13</ele>
        <time>2020-01-19T13:02:04Z</time>
      </trkpt>
      <trkpt lat="47.13619" lon="-1.60299">
        <ele>14.77</ele>
        <time>2020-01-19T13:02:06Z</time>
      </trkpt>
      <trkpt lat="47.1361" lon="-1.60292">
        <ele>14.29</ele>
        <time>2020-01-19T13:02:09Z</time>
      </trkpt>
      <trkpt lat="47.13598" lon="-1.60283">
        <ele>14.71</ele>
        <time>2020-01-19T13:02:10Z</time>
      </trkpt>
      <trkpt lat="47.13587" lon="-1.60275">
        <ele>15.25</ele>
        <time>2020-01-19T13:02:13Z</time>
      </trkpt>
      <trkpt lat="47.13574" lon="-1.6027">
        <ele>15.52</ele>
        <time>2020-01-19T13:02:15Z</time>
      </trkpt>
      <trkpt lat="47.13561" lon="-1.60264">
        <ele>14.81</ele>
        <time>2020-01-19T13:02:17Z</time>
      </trkpt>
      <trkpt lat="47.13546" lon="-1.60259">
        <ele>13.66</ele>
        <time>2020-01-19T13:02:19Z</time>
      </trkpt>
      <trkpt lat="47.13534" lon="-1.60255">
        <ele>13.7</ele>
        <time>2020-01-19T13:02:21Z</time>
      </trkpt>
      <trkpt lat="47.13523" lon="-1.60248">
        <ele>14.05</ele>
        <time>2020-01-19T13:02:23Z</time>
      </trkpt>
      <trkpt lat="47.13511" lon="-1.6024">
        <ele>13.51</ele>
        <time>2020-01-19T13:02:25Z</time>
      </trkpt>
      <trkpt lat="47.13502" lon="-1.60227">
        <ele>12.64</ele>
        <time>2020-01-19T13:02:27Z</time>
      </trkpt>
      <trkpt lat="47.13491" lon="-1.60213">
        <ele>12.31</ele>
        <time>2020-01-19T13:02:29Z</time>
      </trkpt>
      <trkpt lat="47.13483" lon="-1.60202">
        <ele>11.65</ele>
        <time>2020-01-19T13:02:31Z</time>
      </trkpt>
      <trkpt lat="47.13476" lon="-1.60188">
        <ele>10.97</ele>
        <time>2020-01-19T13:02:33Z</time>
      </trkpt>
      <trkpt lat="47.13469" lon="-1.60174">
        <ele>10.89</ele>
        <time>2020-01-19T13:02:35Z</time>
      </trkpt>
      <trkpt lat="47.13463" lon="-1.6016">
        <ele>10.94</ele>
        <time>2020-01-19T13:02:37Z</time>
      </trkpt>
      <trkpt lat="47.13455" lon="-1.60145">
        <ele>11.69</ele>
        <time>2020-01-19T13:02:40Z</time>
      </trkpt>
      <trkpt lat="47.13449" lon="-1.60132">
        <ele>12.13</ele>
        <time>2020-01-19T13:02:42Z</time>
      </trkpt>
      <trkpt lat="47.1344" lon="-1.60116">
        <ele>12.27</ele>
        <time>2020-01-19T13:02:44Z</time>
      </trkpt>
      <trkpt lat="47.13431" lon="-1.60101">
        <ele>12.97</ele>
        <time>2020-01-19T13:02:46Z</time>
      </trkpt>
      <trkpt lat="47.13422" lon="-1.60086">
        <ele>14.38</ele>
        <time>2020-01-19T13:02:48Z</time>
      </trkpt>
      <trkpt lat="47.13414" lon="-1.60074">
        <ele>14.6</ele>
        <time>2020-01-19T13:02:50Z</time>
      </trkpt>
      <trkpt lat="47.13405" lon="-1.6006">
        <ele>13.34</ele>
        <time>2020-01-19T13:02:52Z</time>
      </trkpt>
      <trkpt lat="47.13396" lon="-1.60043">
        <ele>11.65</ele>
        <time>2020-01-19T13:02:54Z</time>
      </trkpt>
      <trkpt lat="47.13388" lon="-1.60029">
        <ele>10.91</ele>
        <time>2020-01-19T13:02:56Z</time>
      </trkpt>
      <trkpt lat="47.13382" lon="-1.60015">
        <ele>10.49</ele>
        <time>2020-01-19T13:02:58Z</time>
      </trkpt>
      <trkpt lat="47.13374" lon="-1.59999">
        <ele>9.05</ele>
        <time>2020-01-19T13:03:00Z</time>
      </trkpt>
      <trkpt lat="47.13365" lon="-1.59985">
        <ele>9.33</ele>
        <time>2020-01-19T13:03:02Z</time>
      </trkpt>
      <trkpt lat="47.13357" lon="-1.59973">
        <ele>11.5</ele>
        <time>2020-01-19T13:03:04Z</time>
      </trkpt>
      <trkpt lat="47.13348" lon="-1.59956">
        <ele>12.54</ele>
        <time>2020-01-19T13:03:06Z</time>
      </trkpt>
      <trkpt lat="47.13343" lon="-1.59945">
        <ele>12.35</ele>
        <time>2020-01-19T13:03:08Z</time>
      </trkpt>
      <trkpt lat="47.13335" lon="-1.59932">
        <ele>12.55</ele>
        <time>2020-01-19T13:03:10Z</time>
      </trkpt>
      <trkpt lat="47.13328" lon="-1.5992">
        <ele>12.9</ele>
        <time>2020-01-19T13:03:12Z</time>
      </trkpt>
      <trkpt lat="47.1332" lon="-1.59905">
        <ele>11.82</ele>
        <time>2020-01-19T13:03:14Z</time>
      </trkpt>
      <trkpt lat="47.13313" lon="-1.59892">
        <ele>11.17</ele>
        <time>2020-01-19T13:03:16Z</time>
      </trkpt>
      <trkpt lat="47.13306" lon="-1.59879">
        <ele>11.49</ele>
        <time>2020-01-19T13:03:18Z</time>
      </trkpt>
      <trkpt lat="47.133" lon="-1.59865">
        <ele>12.05</ele>
        <time>2020-01-19T13:03:20Z</time>
      </trkpt>
      <trkpt lat="47.13293" lon="-1.5985">
        <ele>11.63</ele>
        <time>2020-01-19T13:03:22Z</time>
      </trkpt>
      <trkpt lat="47.13288" lon="-1.59834">
        <ele>11.46</ele>
        <time>2020-01-19T13:03:24Z</time>
      </trkpt>
      <trkpt lat="47.13281" lon="-1.59813">
        <ele>12.48</ele>
        <time>2020-01-19T13:03:27Z</time>
      </trkpt>
      <trkpt lat="47.13277" lon="-1.59798">
        <ele>13.21</ele>
        <time>2020-01-19T13:03:29Z</time>
      </trkpt>
      <trkpt lat="47.13272" lon="-1.59781">
        <ele>13.92</ele>
        <time>2020-01-19T13:03:31Z</time>
      </trkpt>
      <trkpt lat="47.13268" lon="-1.59765">
        <ele>13.92</ele>
        <time>2020-01-19T13:03:33Z</time>
      </trkpt>
      <trkpt lat="47.13264" lon="-1.59749">
        <ele>13.73</ele>
        <time>2020-01-19T13:03:35Z</time>
      </trkpt>
      <trkpt lat="47.1326" lon="-1.59734">
        <ele>13.81</ele>
        <time>2020-01-19T13:03:37Z</time>
      </trkpt>
      <trkpt lat="47.13255" lon="-1.59717">
        <ele>13.42</ele>
        <time>2020-01-19T13:03:39Z</time>
      </trkpt>
      <trkpt lat="47.13249" lon="-1.59699">
        <ele>13.34</ele>
        <time>2020-01-19T13:03:41Z</time>
      </trkpt>
      <trkpt lat="47.13245" lon="-1.59684">
        <ele>13.29</ele>
        <time>2020-01-19T13:03:43Z</time>
      </trkpt>
      <trkpt lat="47.13242" lon="-1.59671">
        <ele>13.56</ele>
        <time>2020-01-19T13:03:45Z</time>
      </trkpt>
      <trkpt lat="47.13238" lon="-1.59656">
        <ele>13.52</ele>
        <time>2020-01-19T13:03:47Z</time>
      </trkpt>
      <trkpt lat="47.13235" lon="-1.59636">
        <ele>12.7</ele>
        <time>2020-01-19T13:03:49Z</time>
      </trkpt>
      <trkpt lat="47.13231" lon="-1.59618">
        <ele>12.39</ele>
        <time>2020-01-19T13:03:51Z</time>
      </trkpt>
      <trkpt lat="47.13226" lon="-1.59605">
        <ele>13.75</ele>
        <time>2020-01-19T13:03:53Z</time>
      </trkpt>
      <trkpt lat="47.13222" lon="-1.59592">
        <ele>14.72</ele>
        <time>2020-01-19T13:03:55Z</time>
      </trkpt>
      <trkpt lat="47.13218" lon="-1.59574">
        <ele>14.71</ele>
        <time>2020-01-19T13:03:57Z</time>
      </trkpt>
      <trkpt lat="47.13213" lon="-1.59557">
        <ele>14.58</ele>
        <time>2020-01-19T13:03:59Z</time>
      </trkpt>
      <trkpt lat="47.13209" lon="-1.5954">
        <ele>14.86</ele>
        <time>2020-01-19T13:04:01Z</time>
      </trkpt>
      <trkpt lat="47.13205" lon="-1.59525">
        <ele>14.96</ele>
        <time>2020-01-19T13:04:03Z</time>
      </trkpt>
      <trkpt lat="47.13202" lon="-1.59509">
        <ele>15.52</ele>
        <time>2020-01-19T13:04:05Z</time>
      </trkpt>
      <trkpt lat="47.13199" lon="-1.59494">
        <ele>16.17</ele>
        <time>2020-01-19T13:04:07Z</time>
      </trkpt>
      <trkpt lat="47.13196" lon="-1.59477">
        <ele>16.85</ele>
        <time>2020-01-19T13:04:09Z</time>
      </trkpt>
      <trkpt lat="47.13192" lon="-1.59461">
        <ele>16.51</ele>
        <time>2020-01-19T13:04:11Z</time>
      </trkpt>
      <trkpt lat="47.13189" lon="-1.59447">
        <ele>16.18</ele>
        <time>2020-01-19T13:04:13Z</time>
      </trkpt>
      <trkpt lat="47.13181" lon="-1.59434">
        <ele>14.83</ele>
        <time>2020-01-19T13:04:15Z</time>
      </trkpt>
      <trkpt lat="47.1317" lon="-1.59425">
        <ele>14.32</ele>
        <time>2020-01-19T13:04:17Z</time>
      </trkpt>
      <trkpt lat="47.1316" lon="-1.59418">
        <ele>14.67</ele>
        <time>2020-01-19T13:04:19Z</time>
      </trkpt>
      <trkpt lat="47.13148" lon="-1.59412">
        <ele>14.69</ele>
        <time>2020-01-19T13:04:21Z</time>
      </trkpt>
      <trkpt lat="47.13136" lon="-1.59406">
        <ele>14.42</ele>
        <time>2020-01-19T13:04:23Z</time>
      </trkpt>
      <trkpt lat="47.13125" lon="-1.594">
        <ele>14.81</ele>
        <time>2020-01-19T13:04:25Z</time>
      </trkpt>
      <trkpt lat="47.13114" lon="-1.59394">
        <ele>14.22</ele>
        <time>2020-01-19T13:04:27Z</time>
      </trkpt>
      <trkpt lat="47.13103" lon="-1.59386">
        <ele>13.85</ele>
        <time>2020-01-19T13:04:29Z</time>
      </trkpt>
      <trkpt lat="47.13092" lon="-1.59378">
        <ele>13.09</ele>
        <time>2020-01-19T13:04:31Z</time>
      </trkpt>
      <trkpt lat="47.13083" lon="-1.59369">
        <ele>12.16</ele>
        <time>2020-01-19T13:04:33Z</time>
      </trkpt>
      <trkpt lat="47.13083" lon="-1.5935">
        <ele>12.91</ele>
        <time>2020-01-19T13:04:35Z</time>
      </trkpt>
      <trkpt lat="47.13087" lon="-1.59333">
        <ele>13.21</ele>
        <time>2020-01-19T13:04:37Z</time>
      </trkpt>
      <trkpt lat="47.13089" lon="-1.59317">
        <ele>13.07</ele>
        <time>2020-01-19T13:04:39Z</time>
      </trkpt>
      <trkpt lat="47.1309" lon="-1.59298">
        <ele>12.18</ele>
        <time>2020-01-19T13:04:41Z</time>
      </trkpt>
      <trkpt lat="47.1309" lon="-1.59282">
        <ele>12.25</ele>
        <time>2020-01-19T13:04:43Z</time>
      </trkpt>
      <trkpt lat="47.1309" lon="-1.59265">
        <ele>12</ele>
        <time>2020-01-19T13:04:45Z</time>
      </trkpt>
      <trkpt lat="47.13091" lon="-1.59247">
        <ele>11.49</ele>
        <time>2020-01-19T13:04:47Z</time>
      </trkpt>
      <trkpt lat="47.13091" lon="-1.5923">
        <ele>10.93</ele>
        <time>2020-01-19T13:04:49Z</time>
      </trkpt>
      <trkpt lat="47.13091" lon="-1.59213">
        <ele>10.8</ele>
        <time>2020-01-19T13:04:51Z</time>
      </trkpt>
      <trkpt lat="47.1309" lon="-1.59194">
        <ele>10.65</ele>
        <time>2020-01-19T13:04:53Z</time>
      </trkpt>
      <trkpt lat="47.13089" lon="-1.59177">
        <ele>10.59</ele>
        <time>2020-01-19T13:04:55Z</time>
      </trkpt>
      <trkpt lat="47.13088" lon="-1.59157">
        <ele>11.19</ele>
        <time>2020-01-19T13:04:57Z</time>
      </trkpt>
      <trkpt lat="47.13086" lon="-1.59141">
        <ele>12.1</ele>
        <time>2020-01-19T13:04:59Z</time>
      </trkpt>
      <trkpt lat="47.13085" lon="-1.59123">
        <ele>12.59</ele>
        <time>2020-01-19T13:05:01Z</time>
      </trkpt>
      <trkpt lat="47.13083" lon="-1.59104">
        <ele>13.52</ele>
        <time>2020-01-19T13:05:03Z</time>
      </trkpt>
      <trkpt lat="47.1308" lon="-1.59085">
        <ele>14.55</ele>
        <time>2020-01-19T13:05:05Z</time>
      </trkpt>
      <trkpt lat="47.13077" lon="-1.59068">
        <ele>15.17</ele>
        <time>2020-01-19T13:05:07Z</time>
      </trkpt>
      <trkpt lat="47.13075" lon="-1.59051">
        <ele>15.36</ele>
        <time>2020-01-19T13:05:09Z</time>
      </trkpt>
      <trkpt lat="47.13072" lon="-1.59032">
        <ele>15.41</ele>
        <time>2020-01-19T13:05:11Z</time>
      </trkpt>
      <trkpt lat="47.13069" lon="-1.59014">
        <ele>15.15</ele>
        <time>2020-01-19T13:05:13Z</time>
      </trkpt>
      <trkpt lat="47.13066" lon="-1.58996">
        <ele>13.91</ele>
        <time>2020-01-19T13:05:15Z</time>
      </trkpt>
      <trkpt lat="47.13063" lon="-1.58978">
        <ele>13.82</ele>
        <time>2020-01-19T13:05:17Z</time>
      </trkpt>
      <trkpt lat="47.1306" lon="-1.58958">
        <ele>13.47</ele>
        <time>2020-01-19T13:05:19Z</time>
      </trkpt>
      <trkpt lat="47.13059" lon="-1.5894">
        <ele>13.63</ele>
        <time>2020-01-19T13:05:21Z</time>
      </trkpt>
      <trkpt lat="47.13058" lon="-1.58922">
        <ele>14.44</ele>
        <time>2020-01-19T13:05:23Z</time>
      </trkpt>
      <trkpt lat="47.13058" lon="-1.58905">
        <ele>14.53</ele>
        <time>2020-01-19T13:05:25Z</time>
      </trkpt>
      <trkpt lat="47.13059" lon="-1.58885">
        <ele>14.92</ele>
        <time>2020-01-19T13:05:27Z</time>
      </trkpt>
      <trkpt lat="47.1306" lon="-1.58865">
        <ele>14.98</ele>
        <time>2020-01-19T13:05:29Z</time>
      </trkpt>
      <trkpt lat="47.13062" lon="-1.58844">
        <ele>14.55</ele>
        <time>2020-01-19T13:05:31Z</time>
      </trkpt>
      <trkpt lat="47.13064" lon="-1.58827">
        <ele>14.13</ele>
        <time>2020-01-19T13:05:33Z</time>
      </trkpt>
      <trkpt lat="47.13065" lon="-1.58809">
        <ele>13.91</ele>
        <time>2020-01-19T13:05:35Z</time>
      </trkpt>
      <trkpt lat="47.13067" lon="-1.58792">
        <ele>13.53</ele>
        <time>2020-01-19T13:05:37Z</time>
      </trkpt>
      <trkpt lat="47.1307" lon="-1.58772">
        <ele>13.74</ele>
        <time>2020-01-19T13:05:39Z</time>
      </trkpt>
      <trkpt lat="47.13072" lon="-1.58751">
        <ele>13.68</ele>
        <time>2020-01-19T13:05:41Z</time>
      </trkpt>
      <trkpt lat="47.13074" lon="-1.58734">
        <ele>13.31</ele>
        <time>2020-01-19T13:05:43Z</time>
      </trkpt>
      <trkpt lat="47.13077" lon="-1.58717">
        <ele>13.72</ele>
        <time>2020-01-19T13:05:45Z</time>
      </trkpt>
      <trkpt lat="47.1308" lon="-1.58697">
        <ele>14.44</ele>
        <time>2020-01-19T13:05:47Z</time>
      </trkpt>
      <trkpt lat="47.13083" lon="-1.58682">
        <ele>14.22</ele>
        <time>2020-01-19T13:05:49Z</time>
      </trkpt>
      <trkpt lat="47.13086" lon="-1.58665">
        <ele>14</ele>
        <time>2020-01-19T13:05:51Z</time>
      </trkpt>
      <trkpt lat="47.1309" lon="-1.58648">
        <ele>13.16</ele>
        <time>2020-01-19T13:05:53Z</time>
      </trkpt>
      <trkpt lat="47.13094" lon="-1.58636">
        <ele>12.31</ele>
        <time>2020-01-19T13:05:55Z</time>
      </trkpt>
      <trkpt lat="47.131" lon="-1.58622">
        <ele>11.95</ele>
        <time>2020-01-19T13:05:57Z</time>
      </trkpt>
      <trkpt lat="47.13107" lon="-1.58605">
        <ele>11.64</ele>
        <time>2020-01-19T13:05:59Z</time>
      </trkpt>
      <trkpt lat="47.13114" lon="-1.58588">
        <ele>10.38</ele>
        <time>2020-01-19T13:06:01Z</time>
      </trkpt>
      <trkpt lat="47.13119" lon="-1.58572">
        <ele>10.44</ele>
        <time>2020-01-19T13:06:03Z</time>
      </trkpt>
      <trkpt lat="47.13124" lon="-1.58557">
        <ele>11.37</ele>
        <time>2020-01-19T13:06:05Z</time>
      </trkpt>
      <trkpt lat="47.1313" lon="-1.5854">
        <ele>11.44</ele>
        <time>2020-01-19T13:06:07Z</time>
      </trkpt>
      <trkpt lat="47.13135" lon="-1.58526">
        <ele>11.98</ele>
        <time>2020-01-19T13:06:09Z</time>
      </trkpt>
      <trkpt lat="47.1314" lon="-1.58509">
        <ele>11.3</ele>
        <time>2020-01-19T13:06:11Z</time>
      </trkpt>
      <trkpt lat="47.13146" lon="-1.58493">
        <ele>11.46</ele>
        <time>2020-01-19T13:06:13Z</time>
      </trkpt>
      <trkpt lat="47.1315" lon="-1.5848">
        <ele>10.68</ele>
        <time>2020-01-19T13:06:15Z</time>
      </trkpt>
      <trkpt lat="47.13154" lon="-1.58467">
        <ele>9.35</ele>
        <time>2020-01-19T13:06:17Z</time>
      </trkpt>
      <trkpt lat="47.13161" lon="-1.58447">
        <ele>9.51</ele>
        <time>2020-01-19T13:06:19Z</time>
      </trkpt>
      <trkpt lat="47.13167" lon="-1.58431">
        <ele>9.31</ele>
        <time>2020-01-19T13:06:21Z</time>
      </trkpt>
      <trkpt lat="47.13172" lon="-1.58414">
        <ele>10.01</ele>
        <time>2020-01-19T13:06:23Z</time>
      </trkpt>
      <trkpt lat="47.13175" lon="-1.584">
        <ele>11.63</ele>
        <time>2020-01-19T13:06:25Z</time>
      </trkpt>
      <trkpt lat="47.13176" lon="-1.58381">
        <ele>12.15</ele>
        <time>2020-01-19T13:06:27Z</time>
      </trkpt>
      <trkpt lat="47.13176" lon="-1.58366">
        <ele>11.77</ele>
        <time>2020-01-19T13:06:29Z</time>
      </trkpt>
      <trkpt lat="47.13176" lon="-1.5835">
        <ele>10.89</ele>
        <time>2020-01-19T13:06:31Z</time>
      </trkpt>
      <trkpt lat="47.13175" lon="-1.5833">
        <ele>9.28</ele>
        <time>2020-01-19T13:06:33Z</time>
      </trkpt>
      <trkpt lat="47.13173" lon="-1.58312">
        <ele>8.8</ele>
        <time>2020-01-19T13:06:35Z</time>
      </trkpt>
      <trkpt lat="47.13172" lon="-1.58293">
        <ele>8.97</ele>
        <time>2020-01-19T13:06:37Z</time>
      </trkpt>
      <trkpt lat="47.13173" lon="-1.58276">
        <ele>10.22</ele>
        <time>2020-01-19T13:06:39Z</time>
      </trkpt>
      <trkpt lat="47.13174" lon="-1.58258">
        <ele>10.12</ele>
        <time>2020-01-19T13:06:41Z</time>
      </trkpt>
      <trkpt lat="47.13175" lon="-1.58242">
        <ele>9.81</ele>
        <time>2020-01-19T13:06:43Z</time>
      </trkpt>
      <trkpt lat="47.13177" lon="-1.58226">
        <ele>9.58</ele>
        <time>2020-01-19T13:06:45Z</time>
      </trkpt>
      <trkpt lat="47.13179" lon="-1.58208">
        <ele>8.12</ele>
        <time>2020-01-19T13:06:47Z</time>
      </trkpt>
      <trkpt lat="47.13181" lon="-1.58193">
        <ele>6.9</ele>
        <time>2020-01-19T13:06:49Z</time>
      </trkpt>
      <trkpt lat="47.13183" lon="-1.58177">
        <ele>7.03</ele>
        <time>2020-01-19T13:06:51Z</time>
      </trkpt>
      <trkpt lat="47.13185" lon="-1.5816">
        <ele>7.15</ele>
        <time>2020-01-19T13:06:53Z</time>
      </trkpt>
      <trkpt lat="47.13185" lon="-1.58144">
        <ele>7.76</ele>
        <time>2020-01-19T13:06:55Z</time>
      </trkpt>
      <trkpt lat="47.13187" lon="-1.58124">
        <ele>7.89</ele>
        <time>2020-01-19T13:06:57Z</time>
      </trkpt>
      <trkpt lat="47.13188" lon="-1.58109">
        <ele>6.41</ele>
        <time>2020-01-19T13:06:59Z</time>
      </trkpt>
      <trkpt lat="47.1319" lon="-1.58094">
        <ele>6.9</ele>
        <time>2020-01-19T13:07:01Z</time>
      </trkpt>
      <trkpt lat="47.13192" lon="-1.58079">
        <ele>6.76</ele>
        <time>2020-01-19T13:07:03Z</time>
      </trkpt>
      <trkpt lat="47.13194" lon="-1.58061">
        <ele>6.32</ele>
        <time>2020-01-19T13:07:05Z</time>
      </trkpt>
      <trkpt lat="47.13196" lon="-1.58045">
        <ele>5.97</ele>
        <time>2020-01-19T13:07:07Z</time>
      </trkpt>
      <trkpt lat="47.13197" lon="-1.58032">
        <ele>5.76</ele>
        <time>2020-01-19T13:07:09Z</time>
      </trkpt>
      <trkpt lat="47.13192" lon="-1.5802">
        <ele>4.72</ele>
        <time>2020-01-19T13:07:12Z</time>
      </trkpt>
      <trkpt lat="47.13176" lon="-1.58017">
        <ele>3.87</ele>
        <time>2020-01-19T13:07:14Z</time>
      </trkpt>
      <trkpt lat="47.13163" lon="-1.58016">
        <ele>4.11</ele>
        <time>2020-01-19T13:07:16Z</time>
      </trkpt>
      <trkpt lat="47.13151" lon="-1.58015">
        <ele>3.94</ele>
        <time>2020-01-19T13:07:18Z</time>
      </trkpt>
      <trkpt lat="47.13137" lon="-1.58013">
        <ele>3.72</ele>
        <time>2020-01-19T13:07:20Z</time>
      </trkpt>
      <trkpt lat="47.13124" lon="-1.58011">
        <ele>4.7</ele>
        <time>2020-01-19T13:07:22Z</time>
      </trkpt>
      <trkpt lat="47.13111" lon="-1.58012">
        <ele>4.98</ele>
        <time>2020-01-19T13:07:24Z</time>
      </trkpt>
      <trkpt lat="47.13098" lon="-1.58017">
        <ele>3.53</ele>
        <time>2020-01-19T13:07:26Z</time>
      </trkpt>
      <trkpt lat="47.13089" lon="-1.58018">
        <ele>3.43</ele>
        <time>2020-01-19T13:07:28Z</time>
      </trkpt>
      <trkpt lat="47.13077" lon="-1.58009">
        <ele>3.47</ele>
        <time>2020-01-19T13:07:30Z</time>
      </trkpt>
      <trkpt lat="47.13065" lon="-1.58">
        <ele>4.02</ele>
        <time>2020-01-19T13:07:32Z</time>
      </trkpt>
      <trkpt lat="47.13055" lon="-1.57994">
        <ele>3.96</ele>
        <time>2020-01-19T13:07:34Z</time>
      </trkpt>
      <trkpt lat="47.13043" lon="-1.5799">
        <ele>4.9</ele>
        <time>2020-01-19T13:07:36Z</time>
      </trkpt>
      <trkpt lat="47.1303" lon="-1.57986">
        <ele>5.56</ele>
        <time>2020-01-19T13:07:38Z</time>
      </trkpt>
      <trkpt lat="47.1302" lon="-1.57983">
        <ele>5.78</ele>
        <time>2020-01-19T13:07:40Z</time>
      </trkpt>
      <trkpt lat="47.1301" lon="-1.57979">
        <ele>4.69</ele>
        <time>2020-01-19T13:07:42Z</time>
      </trkpt>
      <trkpt lat="47.12998" lon="-1.57975">
        <ele>3.74</ele>
        <time>2020-01-19T13:07:44Z</time>
      </trkpt>
      <trkpt lat="47.12985" lon="-1.57973">
        <ele>4.48</ele>
        <time>2020-01-19T13:07:46Z</time>
      </trkpt>
      <trkpt lat="47.12973" lon="-1.57974">
        <ele>4.27</ele>
        <time>2020-01-19T13:07:48Z</time>
      </trkpt>
      <trkpt lat="47.12962" lon="-1.57982">
        <ele>3.8</ele>
        <time>2020-01-19T13:07:50Z</time>
      </trkpt>
      <trkpt lat="47.12952" lon="-1.57989">
        <ele>3.87</ele>
        <time>2020-01-19T13:07:52Z</time>
      </trkpt>
      <trkpt lat="47.12942" lon="-1.57987">
        <ele>5.69</ele>
        <time>2020-01-19T13:07:54Z</time>
      </trkpt>
      <trkpt lat="47.12931" lon="-1.57977">
        <ele>6.36</ele>
        <time>2020-01-19T13:07:56Z</time>
      </trkpt>
      <trkpt lat="47.12922" lon="-1.57968">
        <ele>6.68</ele>
        <time>2020-01-19T13:07:58Z</time>
      </trkpt>
      <trkpt lat="47.12913" lon="-1.57959">
        <ele>7.24</ele>
        <time>2020-01-19T13:08:00Z</time>
      </trkpt>
      <trkpt lat="47.12904" lon="-1.57941">
        <ele>8.36</ele>
        <time>2020-01-19T13:08:02Z</time>
      </trkpt>
      <trkpt lat="47.12898" lon="-1.57922">
        <ele>8.57</ele>
        <time>2020-01-19T13:08:04Z</time>
      </trkpt>
      <trkpt lat="47.12893" lon="-1.57903">
        <ele>8.88</ele>
        <time>2020-01-19T13:08:06Z</time>
      </trkpt>
      <trkpt lat="47.12888" lon="-1.57885">
        <ele>9.21</ele>
        <time>2020-01-19T13:08:08Z</time>
      </trkpt>
      <trkpt lat="47.12883" lon="-1.57866">
        <ele>8.89</ele>
        <time>2020-01-19T13:08:10Z</time>
      </trkpt>
      <trkpt lat="47.12879" lon="-1.57849">
        <ele>8.7</ele>
        <time>2020-01-19T13:08:12Z</time>
      </trkpt>
      <trkpt lat="47.12875" lon="-1.5783">
        <ele>7.16</ele>
        <time>2020-01-19T13:08:14Z</time>
      </trkpt>
      <trkpt lat="47.12872" lon="-1.5781">
        <ele>6.65</ele>
        <time>2020-01-19T13:08:16Z</time>
      </trkpt>
      <trkpt lat="47.12871" lon="-1.57791">
        <ele>5.65</ele>
        <time>2020-01-19T13:08:18Z</time>
      </trkpt>
      <trkpt lat="47.12869" lon="-1.57767">
        <ele>4.62</ele>
        <time>2020-01-19T13:08:20Z</time>
      </trkpt>
      <trkpt lat="47.12868" lon="-1.57748">
        <ele>4.34</ele>
        <time>2020-01-19T13:08:22Z</time>
      </trkpt>
      <trkpt lat="47.12868" lon="-1.57729">
        <ele>4.1</ele>
        <time>2020-01-19T13:08:24Z</time>
      </trkpt>
      <trkpt lat="47.12866" lon="-1.57709">
        <ele>3.5</ele>
        <time>2020-01-19T13:08:26Z</time>
      </trkpt>
      <trkpt lat="47.12863" lon="-1.57688">
        <ele>3.3</ele>
        <time>2020-01-19T13:08:28Z</time>
      </trkpt>
      <trkpt lat="47.12862" lon="-1.5767">
        <ele>2.9</ele>
        <time>2020-01-19T13:08:30Z</time>
      </trkpt>
      <trkpt lat="47.12861" lon="-1.57653">
        <ele>2.5</ele>
        <time>2020-01-19T13:08:32Z</time>
      </trkpt>
      <trkpt lat="47.1286" lon="-1.57633">
        <ele>3.09</ele>
        <time>2020-01-19T13:08:34Z</time>
      </trkpt>
      <trkpt lat="47.12859" lon="-1.57614">
        <ele>4.14</ele>
        <time>2020-01-19T13:08:36Z</time>
      </trkpt>
      <trkpt lat="47.12858" lon="-1.57595">
        <ele>4.81</ele>
        <time>2020-01-19T13:08:38Z</time>
      </trkpt>
      <trkpt lat="47.12858" lon="-1.57579">
        <ele>5.14</ele>
        <time>2020-01-19T13:08:40Z</time>
      </trkpt>
      <trkpt lat="47.12857" lon="-1.57561">
        <ele>4.51</ele>
        <time>2020-01-19T13:08:42Z</time>
      </trkpt>
      <trkpt lat="47.12858" lon="-1.57545">
        <ele>2.53</ele>
        <time>2020-01-19T13:08:44Z</time>
      </trkpt>
      <trkpt lat="47.12858" lon="-1.57525">
        <ele>1.29</ele>
        <time>2020-01-19T13:08:46Z</time>
      </trkpt>
      <trkpt lat="47.12857" lon="-1.57507">
        <ele>1.26</ele>
        <time>2020-01-19T13:08:48Z</time>
      </trkpt>
      <trkpt lat="47.12857" lon="-1.5749">
        <ele>2.46</ele>
        <time>2020-01-19T13:08:50Z</time>
      </trkpt>
      <trkpt lat="47.12857" lon="-1.57474">
        <ele>3.21</ele>
        <time>2020-01-19T13:08:52Z</time>
      </trkpt>
      <trkpt lat="47.12857" lon="-1.57457">
        <ele>3.05</ele>
        <time>2020-01-19T13:08:54Z</time>
      </trkpt>
      <trkpt lat="47.12859" lon="-1.57444">
        <ele>3.48</ele>
        <time>2020-01-19T13:08:56Z</time>
      </trkpt>
      <trkpt lat="47.12861" lon="-1.5743">
        <ele>4.1</ele>
        <time>2020-01-19T13:08:58Z</time>
      </trkpt>
      <trkpt lat="47.12865" lon="-1.57411">
        <ele>4.98</ele>
        <time>2020-01-19T13:09:00Z</time>
      </trkpt>
      <trkpt lat="47.12867" lon="-1.57397">
        <ele>5.56</ele>
        <time>2020-01-19T13:09:02Z</time>
      </trkpt>
      <trkpt lat="47.12869" lon="-1.57381">
        <ele>5.4</ele>
        <time>2020-01-19T13:09:04Z</time>
      </trkpt>
      <trkpt lat="47.12872" lon="-1.57365">
        <ele>5.35</ele>
        <time>2020-01-19T13:09:06Z</time>
      </trkpt>
      <trkpt lat="47.12874" lon="-1.5735">
        <ele>4.97</ele>
        <time>2020-01-19T13:09:08Z</time>
      </trkpt>
      <trkpt lat="47.12876" lon="-1.57333">
        <ele>5.36</ele>
        <time>2020-01-19T13:09:10Z</time>
      </trkpt>
      <trkpt lat="47.12877" lon="-1.57318">
        <ele>6</ele>
        <time>2020-01-19T13:09:12Z</time>
      </trkpt>
      <trkpt lat="47.12879" lon="-1.57303">
        <ele>6.43</ele>
        <time>2020-01-19T13:09:14Z</time>
      </trkpt>
      <trkpt lat="47.12881" lon="-1.57286">
        <ele>6.31</ele>
        <time>2020-01-19T13:09:16Z</time>
      </trkpt>
      <trkpt lat="47.12884" lon="-1.57264">
        <ele>5.72</ele>
        <time>2020-01-19T13:09:19Z</time>
      </trkpt>
      <trkpt lat="47.12887" lon="-1.57245">
        <ele>5.72</ele>
        <time>2020-01-19T13:09:22Z</time>
      </trkpt>
      <trkpt lat="47.1289" lon="-1.57227">
        <ele>6.48</ele>
        <time>2020-01-19T13:09:24Z</time>
      </trkpt>
      <trkpt lat="47.12893" lon="-1.57212">
        <ele>7.03</ele>
        <time>2020-01-19T13:09:26Z</time>
      </trkpt>
      <trkpt lat="47.12895" lon="-1.57196">
        <ele>6.91</ele>
        <time>2020-01-19T13:09:28Z</time>
      </trkpt>
      <trkpt lat="47.12897" lon="-1.57181">
        <ele>6.59</ele>
        <time>2020-01-19T13:09:30Z</time>
      </trkpt>
      <trkpt lat="47.12899" lon="-1.57167">
        <ele>6.35</ele>
        <time>2020-01-19T13:09:32Z</time>
      </trkpt>
      <trkpt lat="47.12901" lon="-1.57153">
        <ele>5.97</ele>
        <time>2020-01-19T13:09:34Z</time>
      </trkpt>
      <trkpt lat="47.12903" lon="-1.57137">
        <ele>6.36</ele>
        <time>2020-01-19T13:09:36Z</time>
      </trkpt>
      <trkpt lat="47.12903" lon="-1.57122">
        <ele>6.88</ele>
        <time>2020-01-19T13:09:38Z</time>
      </trkpt>
      <trkpt lat="47.12902" lon="-1.57107">
        <ele>7.01</ele>
        <time>2020-01-19T13:09:40Z</time>
      </trkpt>
      <trkpt lat="47.129" lon="-1.57093">
        <ele>7.05</ele>
        <time>2020-01-19T13:09:42Z</time>
      </trkpt>
      <trkpt lat="47.12898" lon="-1.57079">
        <ele>7.27</ele>
        <time>2020-01-19T13:09:44Z</time>
      </trkpt>
      <trkpt lat="47.12896" lon="-1.57064">
        <ele>6.87</ele>
        <time>2020-01-19T13:09:46Z</time>
      </trkpt>
      <trkpt lat="47.12892" lon="-1.57045">
        <ele>6.74</ele>
        <time>2020-01-19T13:09:49Z</time>
      </trkpt>
      <trkpt lat="47.1289" lon="-1.57032">
        <ele>6.14</ele>
        <time>2020-01-19T13:09:51Z</time>
      </trkpt>
      <trkpt lat="47.12887" lon="-1.57018">
        <ele>6.25</ele>
        <time>2020-01-19T13:09:53Z</time>
      </trkpt>
      <trkpt lat="47.12885" lon="-1.57002">
        <ele>6.79</ele>
        <time>2020-01-19T13:09:55Z</time>
      </trkpt>
      <trkpt lat="47.12882" lon="-1.56989">
        <ele>7.83</ele>
        <time>2020-01-19T13:09:57Z</time>
      </trkpt>
      <trkpt lat="47.1288" lon="-1.56974">
        <ele>8.67</ele>
        <time>2020-01-19T13:09:59Z</time>
      </trkpt>
      <trkpt lat="47.12877" lon="-1.5696">
        <ele>8.85</ele>
        <time>2020-01-19T13:10:01Z</time>
      </trkpt>
      <trkpt lat="47.12875" lon="-1.56944">
        <ele>8.91</ele>
        <time>2020-01-19T13:10:03Z</time>
      </trkpt>
      <trkpt lat="47.12874" lon="-1.5693">
        <ele>8.8</ele>
        <time>2020-01-19T13:10:05Z</time>
      </trkpt>
      <trkpt lat="47.12871" lon="-1.56913">
        <ele>8.76</ele>
        <time>2020-01-19T13:10:07Z</time>
      </trkpt>
      <trkpt lat="47.12869" lon="-1.56897">
        <ele>9.14</ele>
        <time>2020-01-19T13:10:09Z</time>
      </trkpt>
      <trkpt lat="47.12867" lon="-1.56882">
        <ele>9.72</ele>
        <time>2020-01-19T13:10:11Z</time>
      </trkpt>
      <trkpt lat="47.12866" lon="-1.56865">
        <ele>9.97</ele>
        <time>2020-01-19T13:10:13Z</time>
      </trkpt>
      <trkpt lat="47.12865" lon="-1.56851">
        <ele>10.23</ele>
        <time>2020-01-19T13:10:15Z</time>
      </trkpt>
      <trkpt lat="47.12864" lon="-1.56835">
        <ele>10.3</ele>
        <time>2020-01-19T13:10:17Z</time>
      </trkpt>
      <trkpt lat="47.12864" lon="-1.56819">
        <ele>10.75</ele>
        <time>2020-01-19T13:10:19Z</time>
      </trkpt>
      <trkpt lat="47.12867" lon="-1.56798">
        <ele>9.72</ele>
        <time>2020-01-19T13:10:22Z</time>
      </trkpt>
      <trkpt lat="47.12868" lon="-1.5678">
        <ele>9.45</ele>
        <time>2020-01-19T13:10:24Z</time>
      </trkpt>
      <trkpt lat="47.12871" lon="-1.56765">
        <ele>10.02</ele>
        <time>2020-01-19T13:10:26Z</time>
      </trkpt>
      <trkpt lat="47.12873" lon="-1.5675">
        <ele>10.78</ele>
        <time>2020-01-19T13:10:28Z</time>
      </trkpt>
      <trkpt lat="47.12877" lon="-1.56734">
        <ele>10.72</ele>
        <time>2020-01-19T13:10:30Z</time>
      </trkpt>
      <trkpt lat="47.1288" lon="-1.56722">
        <ele>11.16</ele>
        <time>2020-01-19T13:10:32Z</time>
      </trkpt>
      <trkpt lat="47.12883" lon="-1.56709">
        <ele>11.84</ele>
        <time>2020-01-19T13:10:34Z</time>
      </trkpt>
      <trkpt lat="47.12885" lon="-1.56688">
        <ele>13.19</ele>
        <time>2020-01-19T13:10:37Z</time>
      </trkpt>
      <trkpt lat="47.12886" lon="-1.56672">
        <ele>13.85</ele>
        <time>2020-01-19T13:10:39Z</time>
      </trkpt>
      <trkpt lat="47.12891" lon="-1.56658">
        <ele>13.9</ele>
        <time>2020-01-19T13:10:41Z</time>
      </trkpt>
      <trkpt lat="47.12896" lon="-1.56648">
        <ele>13.28</ele>
        <time>2020-01-19T13:10:43Z</time>
      </trkpt>
      <trkpt lat="47.12903" lon="-1.56634">
        <ele>12.66</ele>
        <time>2020-01-19T13:10:45Z</time>
      </trkpt>
      <trkpt lat="47.12909" lon="-1.56619">
        <ele>11.9</ele>
        <time>2020-01-19T13:10:47Z</time>
      </trkpt>
      <trkpt lat="47.12913" lon="-1.56603">
        <ele>11.93</ele>
        <time>2020-01-19T13:10:49Z</time>
      </trkpt>
      <trkpt lat="47.12916" lon="-1.56585">
        <ele>12.99</ele>
        <time>2020-01-19T13:10:51Z</time>
      </trkpt>
      <trkpt lat="47.12918" lon="-1.56563">
        <ele>12.87</ele>
        <time>2020-01-19T13:10:54Z</time>
      </trkpt>
      <trkpt lat="47.12918" lon="-1.56548">
        <ele>12.23</ele>
        <time>2020-01-19T13:10:56Z</time>
      </trkpt>
      <trkpt lat="47.12918" lon="-1.56529">
        <ele>11.43</ele>
        <time>2020-01-19T13:10:58Z</time>
      </trkpt>
      <trkpt lat="47.12918" lon="-1.56513">
        <ele>12.1</ele>
        <time>2020-01-19T13:11:00Z</time>
      </trkpt>
      <trkpt lat="47.12918" lon="-1.56498">
        <ele>12.96</ele>
        <time>2020-01-19T13:11:02Z</time>
      </trkpt>
      <trkpt lat="47.12918" lon="-1.56482">
        <ele>12.57</ele>
        <time>2020-01-19T13:11:04Z</time>
      </trkpt>
      <trkpt lat="47.12918" lon="-1.56465">
        <ele>12.58</ele>
        <time>2020-01-19T13:11:06Z</time>
      </trkpt>
      <trkpt lat="47.12918" lon="-1.5645">
        <ele>11.89</ele>
        <time>2020-01-19T13:11:08Z</time>
      </trkpt>
      <trkpt lat="47.12918" lon="-1.5643">
        <ele>11.72</ele>
        <time>2020-01-19T13:11:10Z</time>
      </trkpt>
      <trkpt lat="47.12918" lon="-1.56417">
        <ele>12.11</ele>
        <time>2020-01-19T13:11:12Z</time>
      </trkpt>
      <trkpt lat="47.12919" lon="-1.56395">
        <ele>12.42</ele>
        <time>2020-01-19T13:11:15Z</time>
      </trkpt>
      <trkpt lat="47.12919" lon="-1.56378">
        <ele>12.75</ele>
        <time>2020-01-19T13:11:17Z</time>
      </trkpt>
      <trkpt lat="47.12919" lon="-1.56363">
        <ele>12.51</ele>
        <time>2020-01-19T13:11:19Z</time>
      </trkpt>
      <trkpt lat="47.1292" lon="-1.56346">
        <ele>11.26</ele>
        <time>2020-01-19T13:11:21Z</time>
      </trkpt>
      <trkpt lat="47.12919" lon="-1.56328">
        <ele>11.06</ele>
        <time>2020-01-19T13:11:23Z</time>
      </trkpt>
      <trkpt lat="47.12919" lon="-1.56312">
        <ele>11.26</ele>
        <time>2020-01-19T13:11:25Z</time>
      </trkpt>
      <trkpt lat="47.12917" lon="-1.56296">
        <ele>12.1</ele>
        <time>2020-01-19T13:11:27Z</time>
      </trkpt>
      <trkpt lat="47.12915" lon="-1.56279">
        <ele>11.94</ele>
        <time>2020-01-19T13:11:29Z</time>
      </trkpt>
      <trkpt lat="47.12913" lon="-1.56264">
        <ele>12.29</ele>
        <time>2020-01-19T13:11:31Z</time>
      </trkpt>
      <trkpt lat="47.1291" lon="-1.56246">
        <ele>12.75</ele>
        <time>2020-01-19T13:11:33Z</time>
      </trkpt>
      <trkpt lat="47.12907" lon="-1.56231">
        <ele>13.22</ele>
        <time>2020-01-19T13:11:35Z</time>
      </trkpt>
      <trkpt lat="47.12904" lon="-1.56217">
        <ele>13.59</ele>
        <time>2020-01-19T13:11:37Z</time>
      </trkpt>
      <trkpt lat="47.12899" lon="-1.56202">
        <ele>13.22</ele>
        <time>2020-01-19T13:11:39Z</time>
      </trkpt>
      <trkpt lat="47.12894" lon="-1.56186">
        <ele>13.41</ele>
        <time>2020-01-19T13:11:41Z</time>
      </trkpt>
      <trkpt lat="47.12888" lon="-1.5617">
        <ele>12.42</ele>
        <time>2020-01-19T13:11:43Z</time>
      </trkpt>
      <trkpt lat="47.12884" lon="-1.56153">
        <ele>12.09</ele>
        <time>2020-01-19T13:11:45Z</time>
      </trkpt>
      <trkpt lat="47.12881" lon="-1.56137">
        <ele>12.12</ele>
        <time>2020-01-19T13:11:47Z</time>
      </trkpt>
      <trkpt lat="47.12878" lon="-1.56122">
        <ele>11.56</ele>
        <time>2020-01-19T13:11:49Z</time>
      </trkpt>
      <trkpt lat="47.12875" lon="-1.56102">
        <ele>10.74</ele>
        <time>2020-01-19T13:11:51Z</time>
      </trkpt>
      <trkpt lat="47.12872" lon="-1.56085">
        <ele>10.94</ele>
        <time>2020-01-19T13:11:53Z</time>
      </trkpt>
      <trkpt lat="47.1287" lon="-1.56067">
        <ele>11.03</ele>
        <time>2020-01-19T13:11:55Z</time>
      </trkpt>
      <trkpt lat="47.12867" lon="-1.56053">
        <ele>10.76</ele>
        <time>2020-01-19T13:11:57Z</time>
      </trkpt>
      <trkpt lat="47.12863" lon="-1.56035">
        <ele>9.88</ele>
        <time>2020-01-19T13:11:59Z</time>
      </trkpt>
      <trkpt lat="47.12861" lon="-1.56019">
        <ele>9.42</ele>
        <time>2020-01-19T13:12:01Z</time>
      </trkpt>
      <trkpt lat="47.12858" lon="-1.56">
        <ele>9.35</ele>
        <time>2020-01-19T13:12:03Z</time>
      </trkpt>
      <trkpt lat="47.12856" lon="-1.55984">
        <ele>10</ele>
        <time>2020-01-19T13:12:05Z</time>
      </trkpt>
      <trkpt lat="47.12853" lon="-1.55965">
        <ele>10.53</ele>
        <time>2020-01-19T13:12:07Z</time>
      </trkpt>
      <trkpt lat="47.12851" lon="-1.55948">
        <ele>10.79</ele>
        <time>2020-01-19T13:12:09Z</time>
      </trkpt>
      <trkpt lat="47.12849" lon="-1.55935">
        <ele>11.12</ele>
        <time>2020-01-19T13:12:11Z</time>
      </trkpt>
      <trkpt lat="47.12848" lon="-1.55919">
        <ele>11.38</ele>
        <time>2020-01-19T13:12:13Z</time>
      </trkpt>
      <trkpt lat="47.12847" lon="-1.55902">
        <ele>12.05</ele>
        <time>2020-01-19T13:12:15Z</time>
      </trkpt>
      <trkpt lat="47.12846" lon="-1.55885">
        <ele>11.98</ele>
        <time>2020-01-19T13:12:17Z</time>
      </trkpt>
      <trkpt lat="47.12845" lon="-1.55867">
        <ele>12.05</ele>
        <time>2020-01-19T13:12:19Z</time>
      </trkpt>
      <trkpt lat="47.12845" lon="-1.5585">
        <ele>11.17</ele>
        <time>2020-01-19T13:12:21Z</time>
      </trkpt>
      <trkpt lat="47.12844" lon="-1.55835">
        <ele>9.52</ele>
        <time>2020-01-19T13:12:23Z</time>
      </trkpt>
      <trkpt lat="47.12843" lon="-1.55818">
        <ele>8.24</ele>
        <time>2020-01-19T13:12:25Z</time>
      </trkpt>
      <trkpt lat="47.12842" lon="-1.55803">
        <ele>7.47</ele>
        <time>2020-01-19T13:12:27Z</time>
      </trkpt>
      <trkpt lat="47.1284" lon="-1.55788">
        <ele>7.36</ele>
        <time>2020-01-19T13:12:29Z</time>
      </trkpt>
      <trkpt lat="47.12837" lon="-1.55771">
        <ele>7.7</ele>
        <time>2020-01-19T13:12:31Z</time>
      </trkpt>
      <trkpt lat="47.12835" lon="-1.55751">
        <ele>7.71</ele>
        <time>2020-01-19T13:12:32Z</time>
      </trkpt>
      <trkpt lat="47.12832" lon="-1.55733">
        <ele>7.61</ele>
        <time>2020-01-19T13:12:34Z</time>
      </trkpt>
      <trkpt lat="47.12829" lon="-1.55717">
        <ele>6.68</ele>
        <time>2020-01-19T13:12:36Z</time>
      </trkpt>
      <trkpt lat="47.12825" lon="-1.557">
        <ele>6.04</ele>
        <time>2020-01-19T13:12:38Z</time>
      </trkpt>
      <trkpt lat="47.12819" lon="-1.55685">
        <ele>5.84</ele>
        <time>2020-01-19T13:12:40Z</time>
      </trkpt>
      <trkpt lat="47.12813" lon="-1.55671">
        <ele>5.83</ele>
        <time>2020-01-19T13:12:42Z</time>
      </trkpt>
      <trkpt lat="47.12807" lon="-1.55655">
        <ele>6.03</ele>
        <time>2020-01-19T13:12:44Z</time>
      </trkpt>
      <trkpt lat="47.12801" lon="-1.55641">
        <ele>5.59</ele>
        <time>2020-01-19T13:12:46Z</time>
      </trkpt>
      <trkpt lat="47.12794" lon="-1.55626">
        <ele>5.02</ele>
        <time>2020-01-19T13:12:48Z</time>
      </trkpt>
      <trkpt lat="47.12788" lon="-1.55612">
        <ele>5.73</ele>
        <time>2020-01-19T13:12:50Z</time>
      </trkpt>
      <trkpt lat="47.12782" lon="-1.55598">
        <ele>6.07</ele>
        <time>2020-01-19T13:12:52Z</time>
      </trkpt>
      <trkpt lat="47.12776" lon="-1.55583">
        <ele>6.76</ele>
        <time>2020-01-19T13:12:54Z</time>
      </trkpt>
      <trkpt lat="47.1277" lon="-1.55569">
        <ele>7.17</ele>
        <time>2020-01-19T13:12:56Z</time>
      </trkpt>
      <trkpt lat="47.12765" lon="-1.55556">
        <ele>7.66</ele>
        <time>2020-01-19T13:12:58Z</time>
      </trkpt>
      <trkpt lat="47.12759" lon="-1.5554">
        <ele>8.72</ele>
        <time>2020-01-19T13:13:00Z</time>
      </trkpt>
      <trkpt lat="47.12753" lon="-1.55525">
        <ele>9.01</ele>
        <time>2020-01-19T13:13:02Z</time>
      </trkpt>
      <trkpt lat="47.12748" lon="-1.55511">
        <ele>8.9</ele>
        <time>2020-01-19T13:13:04Z</time>
      </trkpt>
      <trkpt lat="47.12743" lon="-1.55496">
        <ele>8.39</ele>
        <time>2020-01-19T13:13:06Z</time>
      </trkpt>
      <trkpt lat="47.12739" lon="-1.55484">
        <ele>8.36</ele>
        <time>2020-01-19T13:13:08Z</time>
      </trkpt>
      <trkpt lat="47.12734" lon="-1.55469">
        <ele>8.4</ele>
        <time>2020-01-19T13:13:10Z</time>
      </trkpt>
      <trkpt lat="47.12729" lon="-1.55454">
        <ele>8.43</ele>
        <time>2020-01-19T13:13:12Z</time>
      </trkpt>
      <trkpt lat="47.12726" lon="-1.55441">
        <ele>8.59</ele>
        <time>2020-01-19T13:13:14Z</time>
      </trkpt>
      <trkpt lat="47.12723" lon="-1.55427">
        <ele>8.49</ele>
        <time>2020-01-19T13:13:16Z</time>
      </trkpt>
      <trkpt lat="47.12722" lon="-1.55413">
        <ele>8.21</ele>
        <time>2020-01-19T13:13:18Z</time>
      </trkpt>
      <trkpt lat="47.12721" lon="-1.55392">
        <ele>8</ele>
        <time>2020-01-19T13:13:21Z</time>
      </trkpt>
      <trkpt lat="47.12721" lon="-1.55378">
        <ele>8.06</ele>
        <time>2020-01-19T13:13:23Z</time>
      </trkpt>
      <trkpt lat="47.1272" lon="-1.55365">
        <ele>7.76</ele>
        <time>2020-01-19T13:13:25Z</time>
      </trkpt>
      <trkpt lat="47.12722" lon="-1.55351">
        <ele>7.17</ele>
        <time>2020-01-19T13:13:27Z</time>
      </trkpt>
      <trkpt lat="47.12724" lon="-1.55335">
        <ele>7.2</ele>
        <time>2020-01-19T13:13:29Z</time>
      </trkpt>
      <trkpt lat="47.12727" lon="-1.55317">
        <ele>6.86</ele>
        <time>2020-01-19T13:13:32Z</time>
      </trkpt>
      <trkpt lat="47.12729" lon="-1.55303">
        <ele>6.58</ele>
        <time>2020-01-19T13:13:34Z</time>
      </trkpt>
      <trkpt lat="47.12733" lon="-1.55282">
        <ele>6.82</ele>
        <time>2020-01-19T13:13:37Z</time>
      </trkpt>
      <trkpt lat="47.12735" lon="-1.55269">
        <ele>7.18</ele>
        <time>2020-01-19T13:13:39Z</time>
      </trkpt>
      <trkpt lat="47.12737" lon="-1.55249">
        <ele>6.88</ele>
        <time>2020-01-19T13:13:42Z</time>
      </trkpt>
      <trkpt lat="47.12738" lon="-1.55234">
        <ele>7.39</ele>
        <time>2020-01-19T13:13:44Z</time>
      </trkpt>
      <trkpt lat="47.12741" lon="-1.5522">
        <ele>7.78</ele>
        <time>2020-01-19T13:13:46Z</time>
      </trkpt>
      <trkpt lat="47.12744" lon="-1.552">
        <ele>7.28</ele>
        <time>2020-01-19T13:13:49Z</time>
      </trkpt>
      <trkpt lat="47.12745" lon="-1.55187">
        <ele>7.24</ele>
        <time>2020-01-19T13:13:51Z</time>
      </trkpt>
      <trkpt lat="47.12747" lon="-1.55167">
        <ele>8.28</ele>
        <time>2020-01-19T13:13:54Z</time>
      </trkpt>
      <trkpt lat="47.1275" lon="-1.5515">
        <ele>8.85</ele>
        <time>2020-01-19T13:13:56Z</time>
      </trkpt>
      <trkpt lat="47.12752" lon="-1.55134">
        <ele>9.51</ele>
        <time>2020-01-19T13:13:58Z</time>
      </trkpt>
      <trkpt lat="47.12754" lon="-1.55119">
        <ele>9.71</ele>
        <time>2020-01-19T13:14:00Z</time>
      </trkpt>
      <trkpt lat="47.12756" lon="-1.55104">
        <ele>9.86</ele>
        <time>2020-01-19T13:14:02Z</time>
      </trkpt>
      <trkpt lat="47.12758" lon="-1.55084">
        <ele>10.4</ele>
        <time>2020-01-19T13:14:05Z</time>
      </trkpt>
      <trkpt lat="47.1276" lon="-1.55069">
        <ele>10.94</ele>
        <time>2020-01-19T13:14:07Z</time>
      </trkpt>
      <trkpt lat="47.12762" lon="-1.55056">
        <ele>10.93</ele>
        <time>2020-01-19T13:14:09Z</time>
      </trkpt>
      <trkpt lat="47.12764" lon="-1.55037">
        <ele>11.02</ele>
        <time>2020-01-19T13:14:12Z</time>
      </trkpt>
      <trkpt lat="47.12766" lon="-1.55023">
        <ele>11.52</ele>
        <time>2020-01-19T13:14:14Z</time>
      </trkpt>
      <trkpt lat="47.12768" lon="-1.55008">
        <ele>11.57</ele>
        <time>2020-01-19T13:14:16Z</time>
      </trkpt>
      <trkpt lat="47.12772" lon="-1.5499">
        <ele>11.51</ele>
        <time>2020-01-19T13:14:19Z</time>
      </trkpt>
      <trkpt lat="47.12776" lon="-1.5497">
        <ele>11.81</ele>
        <time>2020-01-19T13:14:22Z</time>
      </trkpt>
      <trkpt lat="47.1278" lon="-1.54957">
        <ele>11.43</ele>
        <time>2020-01-19T13:14:24Z</time>
      </trkpt>
      <trkpt lat="47.12784" lon="-1.54944">
        <ele>11.4</ele>
        <time>2020-01-19T13:14:26Z</time>
      </trkpt>
      <trkpt lat="47.12788" lon="-1.54932">
        <ele>11.39</ele>
        <time>2020-01-19T13:14:28Z</time>
      </trkpt>
      <trkpt lat="47.12792" lon="-1.54919">
        <ele>11.82</ele>
        <time>2020-01-19T13:14:30Z</time>
      </trkpt>
      <trkpt lat="47.12797" lon="-1.54907">
        <ele>12.8</ele>
        <time>2020-01-19T13:14:32Z</time>
      </trkpt>
      <trkpt lat="47.12804" lon="-1.5489">
        <ele>13.32</ele>
        <time>2020-01-19T13:14:35Z</time>
      </trkpt>
      <trkpt lat="47.12808" lon="-1.54878">
        <ele>13.31</ele>
        <time>2020-01-19T13:14:37Z</time>
      </trkpt>
      <trkpt lat="47.12813" lon="-1.54865">
        <ele>13.42</ele>
        <time>2020-01-19T13:14:39Z</time>
      </trkpt>
      <trkpt lat="47.12819" lon="-1.54849">
        <ele>12.97</ele>
        <time>2020-01-19T13:14:42Z</time>
      </trkpt>
      <trkpt lat="47.12824" lon="-1.54838">
        <ele>12.7</ele>
        <time>2020-01-19T13:14:44Z</time>
      </trkpt>
      <trkpt lat="47.12829" lon="-1.54826">
        <ele>12.37</ele>
        <time>2020-01-19T13:14:46Z</time>
      </trkpt>
      <trkpt lat="47.12836" lon="-1.54808">
        <ele>12.13</ele>
        <time>2020-01-19T13:14:49Z</time>
      </trkpt>
      <trkpt lat="47.1284" lon="-1.54796">
        <ele>12.24</ele>
        <time>2020-01-19T13:14:51Z</time>
      </trkpt>
      <trkpt lat="47.12846" lon="-1.5478">
        <ele>11.75</ele>
        <time>2020-01-19T13:14:54Z</time>
      </trkpt>
      <trkpt lat="47.12852" lon="-1.54767">
        <ele>11.68</ele>
        <time>2020-01-19T13:14:56Z</time>
      </trkpt>
      <trkpt lat="47.12858" lon="-1.54756">
        <ele>12.05</ele>
        <time>2020-01-19T13:14:58Z</time>
      </trkpt>
      <trkpt lat="47.12867" lon="-1.54741">
        <ele>12.21</ele>
        <time>2020-01-19T13:15:01Z</time>
      </trkpt>
      <trkpt lat="47.12873" lon="-1.54728">
        <ele>11.92</ele>
        <time>2020-01-19T13:15:03Z</time>
      </trkpt>
      <trkpt lat="47.12879" lon="-1.54717">
        <ele>11.97</ele>
        <time>2020-01-19T13:15:05Z</time>
      </trkpt>
      <trkpt lat="47.12883" lon="-1.54703">
        <ele>12.54</ele>
        <time>2020-01-19T13:15:07Z</time>
      </trkpt>
      <trkpt lat="47.12885" lon="-1.54689">
        <ele>13.11</ele>
        <time>2020-01-19T13:15:09Z</time>
      </trkpt>
      <trkpt lat="47.12885" lon="-1.54671">
        <ele>14.08</ele>
        <time>2020-01-19T13:15:12Z</time>
      </trkpt>
      <trkpt lat="47.12885" lon="-1.54654">
        <ele>14.52</ele>
        <time>2020-01-19T13:15:14Z</time>
      </trkpt>
      <trkpt lat="47.12885" lon="-1.54639">
        <ele>14.74</ele>
        <time>2020-01-19T13:15:16Z</time>
      </trkpt>
      <trkpt lat="47.12886" lon="-1.54622">
        <ele>14.93</ele>
        <time>2020-01-19T13:15:18Z</time>
      </trkpt>
      <trkpt lat="47.12888" lon="-1.54603">
        <ele>14.92</ele>
        <time>2020-01-19T13:15:21Z</time>
      </trkpt>
      <trkpt lat="47.12889" lon="-1.54589">
        <ele>14.55</ele>
        <time>2020-01-19T13:15:23Z</time>
      </trkpt>
      <trkpt lat="47.1289" lon="-1.54574">
        <ele>14.14</ele>
        <time>2020-01-19T13:15:25Z</time>
      </trkpt>
      <trkpt lat="47.12894" lon="-1.54556">
        <ele>15.09</ele>
        <time>2020-01-19T13:15:28Z</time>
      </trkpt>
      <trkpt lat="47.12901" lon="-1.54539">
        <ele>15.43</ele>
        <time>2020-01-19T13:15:31Z</time>
      </trkpt>
      <trkpt lat="47.12909" lon="-1.54526">
        <ele>13.8</ele>
        <time>2020-01-19T13:15:34Z</time>
      </trkpt>
      <trkpt lat="47.12916" lon="-1.54515">
        <ele>13.57</ele>
        <time>2020-01-19T13:15:36Z</time>
      </trkpt>
      <trkpt lat="47.12925" lon="-1.54503">
        <ele>13.64</ele>
        <time>2020-01-19T13:15:39Z</time>
      </trkpt>
      <trkpt lat="47.12933" lon="-1.54495">
        <ele>13.74</ele>
        <time>2020-01-19T13:15:41Z</time>
      </trkpt>
      <trkpt lat="47.12946" lon="-1.54488">
        <ele>13.89</ele>
        <time>2020-01-19T13:15:44Z</time>
      </trkpt>
      <trkpt lat="47.12955" lon="-1.54485">
        <ele>15.11</ele>
        <time>2020-01-19T13:15:46Z</time>
      </trkpt>
      <trkpt lat="47.12963" lon="-1.54482">
        <ele>16.54</ele>
        <time>2020-01-19T13:15:48Z</time>
      </trkpt>
      <trkpt lat="47.12973" lon="-1.54479">
        <ele>16.29</ele>
        <time>2020-01-19T13:15:50Z</time>
      </trkpt>
      <trkpt lat="47.12983" lon="-1.54476">
        <ele>16.42</ele>
        <time>2020-01-19T13:15:52Z</time>
      </trkpt>
      <trkpt lat="47.12992" lon="-1.54473">
        <ele>17.26</ele>
        <time>2020-01-19T13:15:54Z</time>
      </trkpt>
      <trkpt lat="47.13001" lon="-1.54471">
        <ele>18.16</ele>
        <time>2020-01-19T13:15:56Z</time>
      </trkpt>
      <trkpt lat="47.13011" lon="-1.54469">
        <ele>18.31</ele>
        <time>2020-01-19T13:15:58Z</time>
      </trkpt>
      <trkpt lat="47.13021" lon="-1.54468">
        <ele>18.55</ele>
        <time>2020-01-19T13:16:00Z</time>
      </trkpt>
      <trkpt lat="47.13033" lon="-1.54465">
        <ele>18.78</ele>
        <time>2020-01-19T13:16:03Z</time>
      </trkpt>
      <trkpt lat="47.13043" lon="-1.54462">
        <ele>18.14</ele>
        <time>2020-01-19T13:16:05Z</time>
      </trkpt>
      <trkpt lat="47.13054" lon="-1.54458">
        <ele>16.77</ele>
        <time>2020-01-19T13:16:07Z</time>
      </trkpt>
      <trkpt lat="47.13065" lon="-1.54454">
        <ele>16.69</ele>
        <time>2020-01-19T13:16:09Z</time>
      </trkpt>
      <trkpt lat="47.13074" lon="-1.54449">
        <ele>16.54</ele>
        <time>2020-01-19T13:16:11Z</time>
      </trkpt>
      <trkpt lat="47.13086" lon="-1.54443">
        <ele>16.68</ele>
        <time>2020-01-19T13:16:14Z</time>
      </trkpt>
      <trkpt lat="47.13097" lon="-1.54437">
        <ele>15.75</ele>
        <time>2020-01-19T13:16:17Z</time>
      </trkpt>
      <trkpt lat="47.13107" lon="-1.54428">
        <ele>16.48</ele>
        <time>2020-01-19T13:16:20Z</time>
      </trkpt>
      <trkpt lat="47.13115" lon="-1.5442">
        <ele>17.44</ele>
        <time>2020-01-19T13:16:22Z</time>
      </trkpt>
      <trkpt lat="47.13124" lon="-1.54413">
        <ele>17.27</ele>
        <time>2020-01-19T13:16:24Z</time>
      </trkpt>
      <trkpt lat="47.13132" lon="-1.54405">
        <ele>17.48</ele>
        <time>2020-01-19T13:16:26Z</time>
      </trkpt>
      <trkpt lat="47.13141" lon="-1.54398">
        <ele>16.05</ele>
        <time>2020-01-19T13:16:29Z</time>
      </trkpt>
      <trkpt lat="47.13149" lon="-1.54391">
        <ele>15.88</ele>
        <time>2020-01-19T13:16:31Z</time>
      </trkpt>
      <trkpt lat="47.1316" lon="-1.54382">
        <ele>16.38</ele>
        <time>2020-01-19T13:16:34Z</time>
      </trkpt>
      <trkpt lat="47.13172" lon="-1.54371">
        <ele>17.74</ele>
        <time>2020-01-19T13:16:37Z</time>
      </trkpt>
      <trkpt lat="47.13182" lon="-1.54364">
        <ele>17.41</ele>
        <time>2020-01-19T13:16:40Z</time>
      </trkpt>
      <trkpt lat="47.13194" lon="-1.54355">
        <ele>16.75</ele>
        <time>2020-01-19T13:16:43Z</time>
      </trkpt>
      <trkpt lat="47.13204" lon="-1.54346">
        <ele>16.75</ele>
        <time>2020-01-19T13:16:46Z</time>
      </trkpt>
      <trkpt lat="47.13213" lon="-1.54338">
        <ele>16.39</ele>
        <time>2020-01-19T13:16:49Z</time>
      </trkpt>
      <trkpt lat="47.13224" lon="-1.54329">
        <ele>16.13</ele>
        <time>2020-01-19T13:16:52Z</time>
      </trkpt>
      <trkpt lat="47.13233" lon="-1.54322">
        <ele>15.35</ele>
        <time>2020-01-19T13:16:55Z</time>
      </trkpt>
      <trkpt lat="47.13243" lon="-1.54315">
        <ele>15.79</ele>
        <time>2020-01-19T13:16:58Z</time>
      </trkpt>
      <trkpt lat="47.13254" lon="-1.54308">
        <ele>16.37</ele>
        <time>2020-01-19T13:17:01Z</time>
      </trkpt>
      <trkpt lat="47.13267" lon="-1.54301">
        <ele>17.05</ele>
        <time>2020-01-19T13:17:04Z</time>
      </trkpt>
      <trkpt lat="47.13276" lon="-1.54296">
        <ele>17.99</ele>
        <time>2020-01-19T13:17:06Z</time>
      </trkpt>
      <trkpt lat="47.13286" lon="-1.54291">
        <ele>17.7</ele>
        <time>2020-01-19T13:17:09Z</time>
      </trkpt>
      <trkpt lat="47.13296" lon="-1.54285">
        <ele>17.97</ele>
        <time>2020-01-19T13:17:12Z</time>
      </trkpt>
      <trkpt lat="47.13306" lon="-1.54277">
        <ele>18.15</ele>
        <time>2020-01-19T13:17:15Z</time>
      </trkpt>
      <trkpt lat="47.13317" lon="-1.5427">
        <ele>18.18</ele>
        <time>2020-01-19T13:17:18Z</time>
      </trkpt>
      <trkpt lat="47.13327" lon="-1.54262">
        <ele>18.19</ele>
        <time>2020-01-19T13:17:21Z</time>
      </trkpt>
      <trkpt lat="47.13336" lon="-1.54255">
        <ele>18.05</ele>
        <time>2020-01-19T13:17:24Z</time>
      </trkpt>
      <trkpt lat="47.13344" lon="-1.54248">
        <ele>18.19</ele>
        <time>2020-01-19T13:17:26Z</time>
      </trkpt>
      <trkpt lat="47.13354" lon="-1.54241">
        <ele>17.78</ele>
        <time>2020-01-19T13:17:29Z</time>
      </trkpt>
      <trkpt lat="47.13363" lon="-1.54236">
        <ele>17.03</ele>
        <time>2020-01-19T13:17:31Z</time>
      </trkpt>
      <trkpt lat="47.13376" lon="-1.54227">
        <ele>17.54</ele>
        <time>2020-01-19T13:17:34Z</time>
      </trkpt>
      <trkpt lat="47.13384" lon="-1.54222">
        <ele>18.2</ele>
        <time>2020-01-19T13:17:36Z</time>
      </trkpt>
      <trkpt lat="47.13392" lon="-1.54216">
        <ele>19.11</ele>
        <time>2020-01-19T13:17:38Z</time>
      </trkpt>
      <trkpt lat="47.13403" lon="-1.54209">
        <ele>19.13</ele>
        <time>2020-01-19T13:17:41Z</time>
      </trkpt>
      <trkpt lat="47.13416" lon="-1.54201">
        <ele>20.34</ele>
        <time>2020-01-19T13:17:44Z</time>
      </trkpt>
      <trkpt lat="47.13428" lon="-1.54195">
        <ele>21.64</ele>
        <time>2020-01-19T13:17:47Z</time>
      </trkpt>
      <trkpt lat="47.13442" lon="-1.5419">
        <ele>20.85</ele>
        <time>2020-01-19T13:17:50Z</time>
      </trkpt>
      <trkpt lat="47.13454" lon="-1.54186">
        <ele>21.75</ele>
        <time>2020-01-19T13:17:53Z</time>
      </trkpt>
      <trkpt lat="47.13463" lon="-1.54183">
        <ele>22.57</ele>
        <time>2020-01-19T13:17:55Z</time>
      </trkpt>
      <trkpt lat="47.13472" lon="-1.5418">
        <ele>23.32</ele>
        <time>2020-01-19T13:17:57Z</time>
      </trkpt>
      <trkpt lat="47.13483" lon="-1.54178">
        <ele>24.33</ele>
        <time>2020-01-19T13:18:00Z</time>
      </trkpt>
      <trkpt lat="47.13495" lon="-1.54174">
        <ele>23.33</ele>
        <time>2020-01-19T13:18:03Z</time>
      </trkpt>
      <trkpt lat="47.13507" lon="-1.54171">
        <ele>23.47</ele>
        <time>2020-01-19T13:18:06Z</time>
      </trkpt>
      <trkpt lat="47.13518" lon="-1.54169">
        <ele>23.61</ele>
        <time>2020-01-19T13:18:09Z</time>
      </trkpt>
      <trkpt lat="47.13529" lon="-1.54166">
        <ele>23.68</ele>
        <time>2020-01-19T13:18:12Z</time>
      </trkpt>
      <trkpt lat="47.13541" lon="-1.54164">
        <ele>23.57</ele>
        <time>2020-01-19T13:18:15Z</time>
      </trkpt>
      <trkpt lat="47.13553" lon="-1.54162">
        <ele>23.52</ele>
        <time>2020-01-19T13:18:18Z</time>
      </trkpt>
      <trkpt lat="47.13557" lon="-1.5415">
        <ele>23.3</ele>
        <time>2020-01-19T13:18:21Z</time>
      </trkpt>
      <trkpt lat="47.13551" lon="-1.54138">
        <ele>22.4</ele>
        <time>2020-01-19T13:18:23Z</time>
      </trkpt>
      <trkpt lat="47.13544" lon="-1.54127">
        <ele>22.14</ele>
        <time>2020-01-19T13:18:25Z</time>
      </trkpt>
      <trkpt lat="47.13537" lon="-1.54117">
        <ele>22.43</ele>
        <time>2020-01-19T13:18:27Z</time>
      </trkpt>
      <trkpt lat="47.13527" lon="-1.54103">
        <ele>22.15</ele>
        <time>2020-01-19T13:18:30Z</time>
      </trkpt>
      <trkpt lat="47.1352" lon="-1.54091">
        <ele>22.15</ele>
        <time>2020-01-19T13:18:32Z</time>
      </trkpt>
      <trkpt lat="47.13513" lon="-1.54081">
        <ele>22.04</ele>
        <time>2020-01-19T13:18:34Z</time>
      </trkpt>
      <trkpt lat="47.13504" lon="-1.54069">
        <ele>21.93</ele>
        <time>2020-01-19T13:18:36Z</time>
      </trkpt>
      <trkpt lat="47.13496" lon="-1.54059">
        <ele>21.17</ele>
        <time>2020-01-19T13:18:38Z</time>
      </trkpt>
      <trkpt lat="47.13488" lon="-1.54049">
        <ele>21.07</ele>
        <time>2020-01-19T13:18:40Z</time>
      </trkpt>
      <trkpt lat="47.1348" lon="-1.54038">
        <ele>21.85</ele>
        <time>2020-01-19T13:18:42Z</time>
      </trkpt>
      <trkpt lat="47.13473" lon="-1.54027">
        <ele>22.18</ele>
        <time>2020-01-19T13:18:44Z</time>
      </trkpt>
      <trkpt lat="47.13465" lon="-1.54014">
        <ele>21.94</ele>
        <time>2020-01-19T13:18:46Z</time>
      </trkpt>
      <trkpt lat="47.13458" lon="-1.54">
        <ele>21.58</ele>
        <time>2020-01-19T13:18:48Z</time>
      </trkpt>
      <trkpt lat="47.13449" lon="-1.53986">
        <ele>21.53</ele>
        <time>2020-01-19T13:18:50Z</time>
      </trkpt>
      <trkpt lat="47.13442" lon="-1.53971">
        <ele>21.6</ele>
        <time>2020-01-19T13:18:52Z</time>
      </trkpt>
      <trkpt lat="47.13435" lon="-1.53959">
        <ele>21.05</ele>
        <time>2020-01-19T13:18:54Z</time>
      </trkpt>
      <trkpt lat="47.13428" lon="-1.53945">
        <ele>20.76</ele>
        <time>2020-01-19T13:18:56Z</time>
      </trkpt>
      <trkpt lat="47.13421" lon="-1.53932">
        <ele>21.5</ele>
        <time>2020-01-19T13:18:58Z</time>
      </trkpt>
      <trkpt lat="47.13412" lon="-1.53917">
        <ele>21.47</ele>
        <time>2020-01-19T13:19:00Z</time>
      </trkpt>
      <trkpt lat="47.13405" lon="-1.53904">
        <ele>21.26</ele>
        <time>2020-01-19T13:19:02Z</time>
      </trkpt>
      <trkpt lat="47.13399" lon="-1.53891">
        <ele>20.54</ele>
        <time>2020-01-19T13:19:04Z</time>
      </trkpt>
      <trkpt lat="47.13392" lon="-1.53878">
        <ele>19.93</ele>
        <time>2020-01-19T13:19:06Z</time>
      </trkpt>
      <trkpt lat="47.13384" lon="-1.53863">
        <ele>19.55</ele>
        <time>2020-01-19T13:19:08Z</time>
      </trkpt>
      <trkpt lat="47.13375" lon="-1.53847">
        <ele>19.63</ele>
        <time>2020-01-19T13:19:10Z</time>
      </trkpt>
      <trkpt lat="47.1337" lon="-1.53835">
        <ele>20.28</ele>
        <time>2020-01-19T13:19:12Z</time>
      </trkpt>
      <trkpt lat="47.13362" lon="-1.53817">
        <ele>19.84</ele>
        <time>2020-01-19T13:19:15Z</time>
      </trkpt>
      <trkpt lat="47.13355" lon="-1.53806">
        <ele>19.94</ele>
        <time>2020-01-19T13:19:17Z</time>
      </trkpt>
      <trkpt lat="47.13349" lon="-1.53796">
        <ele>19.96</ele>
        <time>2020-01-19T13:19:19Z</time>
      </trkpt>
      <trkpt lat="47.13342" lon="-1.53782">
        <ele>20.46</ele>
        <time>2020-01-19T13:19:21Z</time>
      </trkpt>
      <trkpt lat="47.13335" lon="-1.53769">
        <ele>20.51</ele>
        <time>2020-01-19T13:19:23Z</time>
      </trkpt>
      <trkpt lat="47.13329" lon="-1.53759">
        <ele>22.01</ele>
        <time>2020-01-19T13:19:25Z</time>
      </trkpt>
      <trkpt lat="47.13323" lon="-1.53747">
        <ele>23.08</ele>
        <time>2020-01-19T13:19:27Z</time>
      </trkpt>
      <trkpt lat="47.13317" lon="-1.53735">
        <ele>22.79</ele>
        <time>2020-01-19T13:19:29Z</time>
      </trkpt>
      <trkpt lat="47.13311" lon="-1.53723">
        <ele>22.81</ele>
        <time>2020-01-19T13:19:31Z</time>
      </trkpt>
      <trkpt lat="47.13306" lon="-1.53711">
        <ele>23.08</ele>
        <time>2020-01-19T13:19:33Z</time>
      </trkpt>
      <trkpt lat="47.13301" lon="-1.53698">
        <ele>22.75</ele>
        <time>2020-01-19T13:19:35Z</time>
      </trkpt>
      <trkpt lat="47.13297" lon="-1.53685">
        <ele>22.58</ele>
        <time>2020-01-19T13:19:37Z</time>
      </trkpt>
      <trkpt lat="47.1329" lon="-1.53665">
        <ele>21.46</ele>
        <time>2020-01-19T13:19:40Z</time>
      </trkpt>
      <trkpt lat="47.13287" lon="-1.53652">
        <ele>21.6</ele>
        <time>2020-01-19T13:19:42Z</time>
      </trkpt>
      <trkpt lat="47.13283" lon="-1.53638">
        <ele>22.41</ele>
        <time>2020-01-19T13:19:44Z</time>
      </trkpt>
      <trkpt lat="47.13278" lon="-1.53622">
        <ele>22.6</ele>
        <time>2020-01-19T13:19:46Z</time>
      </trkpt>
      <trkpt lat="47.13271" lon="-1.53602">
        <ele>22.27</ele>
        <time>2020-01-19T13:19:49Z</time>
      </trkpt>
      <trkpt lat="47.13266" lon="-1.53589">
        <ele>23.05</ele>
        <time>2020-01-19T13:19:51Z</time>
      </trkpt>
      <trkpt lat="47.13262" lon="-1.53576">
        <ele>23.63</ele>
        <time>2020-01-19T13:19:53Z</time>
      </trkpt>
      <trkpt lat="47.13258" lon="-1.53561">
        <ele>23.92</ele>
        <time>2020-01-19T13:19:55Z</time>
      </trkpt>
      <trkpt lat="47.13254" lon="-1.53547">
        <ele>24.08</ele>
        <time>2020-01-19T13:19:57Z</time>
      </trkpt>
      <trkpt lat="47.13249" lon="-1.53533">
        <ele>23.97</ele>
        <time>2020-01-19T13:19:59Z</time>
      </trkpt>
      <trkpt lat="47.13244" lon="-1.53518">
        <ele>23.75</ele>
        <time>2020-01-19T13:20:01Z</time>
      </trkpt>
      <trkpt lat="47.13239" lon="-1.53503">
        <ele>23.06</ele>
        <time>2020-01-19T13:20:03Z</time>
      </trkpt>
      <trkpt lat="47.13235" lon="-1.5349">
        <ele>21.98</ele>
        <time>2020-01-19T13:20:05Z</time>
      </trkpt>
      <trkpt lat="47.13231" lon="-1.53478">
        <ele>22</ele>
        <time>2020-01-19T13:20:07Z</time>
      </trkpt>
      <trkpt lat="47.13226" lon="-1.53462">
        <ele>22.15</ele>
        <time>2020-01-19T13:20:09Z</time>
      </trkpt>
      <trkpt lat="47.13222" lon="-1.53449">
        <ele>22.06</ele>
        <time>2020-01-19T13:20:11Z</time>
      </trkpt>
      <trkpt lat="47.13218" lon="-1.53434">
        <ele>20.98</ele>
        <time>2020-01-19T13:20:13Z</time>
      </trkpt>
      <trkpt lat="47.13214" lon="-1.53419">
        <ele>20.14</ele>
        <time>2020-01-19T13:20:15Z</time>
      </trkpt>
      <trkpt lat="47.13209" lon="-1.53407">
        <ele>20.4</ele>
        <time>2020-01-19T13:20:17Z</time>
      </trkpt>
      <trkpt lat="47.13204" lon="-1.5339">
        <ele>20.63</ele>
        <time>2020-01-19T13:20:19Z</time>
      </trkpt>
      <trkpt lat="47.13198" lon="-1.53372">
        <ele>21.11</ele>
        <time>2020-01-19T13:20:22Z</time>
      </trkpt>
      <trkpt lat="47.13194" lon="-1.53358">
        <ele>20.95</ele>
        <time>2020-01-19T13:20:24Z</time>
      </trkpt>
      <trkpt lat="47.13189" lon="-1.53343">
        <ele>20.71</ele>
        <time>2020-01-19T13:20:26Z</time>
      </trkpt>
      <trkpt lat="47.13185" lon="-1.53327">
        <ele>20.46</ele>
        <time>2020-01-19T13:20:28Z</time>
      </trkpt>
      <trkpt lat="47.1318" lon="-1.53313">
        <ele>20.41</ele>
        <time>2020-01-19T13:20:30Z</time>
      </trkpt>
      <trkpt lat="47.13176" lon="-1.53298">
        <ele>20.41</ele>
        <time>2020-01-19T13:20:32Z</time>
      </trkpt>
      <trkpt lat="47.13171" lon="-1.53284">
        <ele>20.67</ele>
        <time>2020-01-19T13:20:34Z</time>
      </trkpt>
      <trkpt lat="47.13167" lon="-1.53271">
        <ele>21.79</ele>
        <time>2020-01-19T13:20:36Z</time>
      </trkpt>
      <trkpt lat="47.13163" lon="-1.53259">
        <ele>22.26</ele>
        <time>2020-01-19T13:20:38Z</time>
      </trkpt>
      <trkpt lat="47.13159" lon="-1.53246">
        <ele>22.25</ele>
        <time>2020-01-19T13:20:40Z</time>
      </trkpt>
      <trkpt lat="47.13155" lon="-1.53233">
        <ele>21.88</ele>
        <time>2020-01-19T13:20:42Z</time>
      </trkpt>
      <trkpt lat="47.13154" lon="-1.53216">
        <ele>22.12</ele>
        <time>2020-01-19T13:20:50Z</time>
      </trkpt>
      <trkpt lat="47.13166" lon="-1.53207">
        <ele>21.92</ele>
        <time>2020-01-19T13:20:53Z</time>
      </trkpt>
      <trkpt lat="47.13175" lon="-1.53205">
        <ele>22.61</ele>
        <time>2020-01-19T13:20:55Z</time>
      </trkpt>
      <trkpt lat="47.13185" lon="-1.53203">
        <ele>22.73</ele>
        <time>2020-01-19T13:20:57Z</time>
      </trkpt>
      <trkpt lat="47.13195" lon="-1.532">
        <ele>23.65</ele>
        <time>2020-01-19T13:20:59Z</time>
      </trkpt>
      <trkpt lat="47.13205" lon="-1.53196">
        <ele>24.86</ele>
        <time>2020-01-19T13:21:01Z</time>
      </trkpt>
      <trkpt lat="47.13219" lon="-1.53191">
        <ele>25.53</ele>
        <time>2020-01-19T13:21:04Z</time>
      </trkpt>
      <trkpt lat="47.13229" lon="-1.53188">
        <ele>25.2</ele>
        <time>2020-01-19T13:21:06Z</time>
      </trkpt>
      <trkpt lat="47.1324" lon="-1.53184">
        <ele>25.07</ele>
        <time>2020-01-19T13:21:08Z</time>
      </trkpt>
      <trkpt lat="47.1325" lon="-1.5318">
        <ele>25.1</ele>
        <time>2020-01-19T13:21:10Z</time>
      </trkpt>
      <trkpt lat="47.13262" lon="-1.53173">
        <ele>25.36</ele>
        <time>2020-01-19T13:21:13Z</time>
      </trkpt>
      <trkpt lat="47.13275" lon="-1.53168">
        <ele>25.27</ele>
        <time>2020-01-19T13:21:16Z</time>
      </trkpt>
      <trkpt lat="47.13285" lon="-1.53165">
        <ele>25.94</ele>
        <time>2020-01-19T13:21:18Z</time>
      </trkpt>
      <trkpt lat="47.13294" lon="-1.53162">
        <ele>26.4</ele>
        <time>2020-01-19T13:21:20Z</time>
      </trkpt>
      <trkpt lat="47.13303" lon="-1.53157">
        <ele>25.67</ele>
        <time>2020-01-19T13:21:22Z</time>
      </trkpt>
      <trkpt lat="47.13312" lon="-1.53154">
        <ele>26.46</ele>
        <time>2020-01-19T13:21:24Z</time>
      </trkpt>
      <trkpt lat="47.13322" lon="-1.53151">
        <ele>26.69</ele>
        <time>2020-01-19T13:21:26Z</time>
      </trkpt>
      <trkpt lat="47.13335" lon="-1.53147">
        <ele>27.41</ele>
        <time>2020-01-19T13:21:29Z</time>
      </trkpt>
      <trkpt lat="47.13344" lon="-1.53144">
        <ele>28.27</ele>
        <time>2020-01-19T13:21:31Z</time>
      </trkpt>
      <trkpt lat="47.13354" lon="-1.53141">
        <ele>28.76</ele>
        <time>2020-01-19T13:21:33Z</time>
      </trkpt>
      <trkpt lat="47.13364" lon="-1.5314">
        <ele>29.49</ele>
        <time>2020-01-19T13:21:35Z</time>
      </trkpt>
      <trkpt lat="47.13374" lon="-1.53138">
        <ele>29.71</ele>
        <time>2020-01-19T13:21:37Z</time>
      </trkpt>
      <trkpt lat="47.13386" lon="-1.53137">
        <ele>30.85</ele>
        <time>2020-01-19T13:21:39Z</time>
      </trkpt>
      <trkpt lat="47.13399" lon="-1.53136">
        <ele>31.94</ele>
        <time>2020-01-19T13:21:42Z</time>
      </trkpt>
      <trkpt lat="47.13409" lon="-1.53138">
        <ele>31.44</ele>
        <time>2020-01-19T13:21:44Z</time>
      </trkpt>
      <trkpt lat="47.13418" lon="-1.53139">
        <ele>31.4</ele>
        <time>2020-01-19T13:21:46Z</time>
      </trkpt>
      <trkpt lat="47.13427" lon="-1.53138">
        <ele>32.54</ele>
        <time>2020-01-19T13:21:48Z</time>
      </trkpt>
      <trkpt lat="47.13434" lon="-1.53124">
        <ele>32.89</ele>
        <time>2020-01-19T13:21:51Z</time>
      </trkpt>
      <trkpt lat="47.13439" lon="-1.53111">
        <ele>31.79</ele>
        <time>2020-01-19T13:21:53Z</time>
      </trkpt>
      <trkpt lat="47.13445" lon="-1.53095">
        <ele>29.12</ele>
        <time>2020-01-19T13:21:56Z</time>
      </trkpt>
      <trkpt lat="47.1345" lon="-1.53084">
        <ele>28.52</ele>
        <time>2020-01-19T13:21:58Z</time>
      </trkpt>
      <trkpt lat="47.13457" lon="-1.53068">
        <ele>27.93</ele>
        <time>2020-01-19T13:22:01Z</time>
      </trkpt>
      <trkpt lat="47.13465" lon="-1.53051">
        <ele>27.56</ele>
        <time>2020-01-19T13:22:04Z</time>
      </trkpt>
      <trkpt lat="47.1347" lon="-1.5304">
        <ele>28.78</ele>
        <time>2020-01-19T13:22:06Z</time>
      </trkpt>
      <trkpt lat="47.13476" lon="-1.53024">
        <ele>29.74</ele>
        <time>2020-01-19T13:22:09Z</time>
      </trkpt>
      <trkpt lat="47.13484" lon="-1.53008">
        <ele>29.86</ele>
        <time>2020-01-19T13:22:12Z</time>
      </trkpt>
      <trkpt lat="47.13491" lon="-1.52993">
        <ele>28.24</ele>
        <time>2020-01-19T13:22:15Z</time>
      </trkpt>
      <trkpt lat="47.13496" lon="-1.52981">
        <ele>27.49</ele>
        <time>2020-01-19T13:22:17Z</time>
      </trkpt>
      <trkpt lat="47.13503" lon="-1.52967">
        <ele>27.4</ele>
        <time>2020-01-19T13:22:20Z</time>
      </trkpt>
      <trkpt lat="47.13509" lon="-1.52954">
        <ele>27.45</ele>
        <time>2020-01-19T13:22:22Z</time>
      </trkpt>
      <trkpt lat="47.13514" lon="-1.52941">
        <ele>26.96</ele>
        <time>2020-01-19T13:22:24Z</time>
      </trkpt>
      <trkpt lat="47.13521" lon="-1.52924">
        <ele>27.6</ele>
        <time>2020-01-19T13:22:27Z</time>
      </trkpt>
      <trkpt lat="47.13528" lon="-1.52908">
        <ele>27.41</ele>
        <time>2020-01-19T13:22:30Z</time>
      </trkpt>
      <trkpt lat="47.13533" lon="-1.52896">
        <ele>27.16</ele>
        <time>2020-01-19T13:22:32Z</time>
      </trkpt>
      <trkpt lat="47.1354" lon="-1.52881">
        <ele>28.59</ele>
        <time>2020-01-19T13:22:35Z</time>
      </trkpt>
      <trkpt lat="47.13546" lon="-1.52869">
        <ele>29.59</ele>
        <time>2020-01-19T13:22:37Z</time>
      </trkpt>
      <trkpt lat="47.13552" lon="-1.52857">
        <ele>29.61</ele>
        <time>2020-01-19T13:22:39Z</time>
      </trkpt>
      <trkpt lat="47.13559" lon="-1.52843">
        <ele>28.31</ele>
        <time>2020-01-19T13:22:42Z</time>
      </trkpt>
      <trkpt lat="47.13565" lon="-1.5283">
        <ele>27.33</ele>
        <time>2020-01-19T13:22:44Z</time>
      </trkpt>
      <trkpt lat="47.13572" lon="-1.52813">
        <ele>28.07</ele>
        <time>2020-01-19T13:22:47Z</time>
      </trkpt>
      <trkpt lat="47.13579" lon="-1.528">
        <ele>28.67</ele>
        <time>2020-01-19T13:22:50Z</time>
      </trkpt>
      <trkpt lat="47.13585" lon="-1.52787">
        <ele>28.69</ele>
        <time>2020-01-19T13:22:52Z</time>
      </trkpt>
      <trkpt lat="47.13592" lon="-1.52771">
        <ele>30.15</ele>
        <time>2020-01-19T13:22:55Z</time>
      </trkpt>
      <trkpt lat="47.136" lon="-1.52757">
        <ele>30.89</ele>
        <time>2020-01-19T13:22:58Z</time>
      </trkpt>
      <trkpt lat="47.13606" lon="-1.52746">
        <ele>30.39</ele>
        <time>2020-01-19T13:23:01Z</time>
      </trkpt>
      <trkpt lat="47.13613" lon="-1.52734">
        <ele>30.84</ele>
        <time>2020-01-19T13:23:04Z</time>
      </trkpt>
      <trkpt lat="47.13619" lon="-1.52722">
        <ele>31.23</ele>
        <time>2020-01-19T13:23:06Z</time>
      </trkpt>
      <trkpt lat="47.13628" lon="-1.52708">
        <ele>31.87</ele>
        <time>2020-01-19T13:23:09Z</time>
      </trkpt>
      <trkpt lat="47.13637" lon="-1.52693">
        <ele>31.99</ele>
        <time>2020-01-19T13:23:12Z</time>
      </trkpt>
      <trkpt lat="47.13643" lon="-1.52682">
        <ele>31.78</ele>
        <time>2020-01-19T13:23:15Z</time>
      </trkpt>
      <trkpt lat="47.13652" lon="-1.52668">
        <ele>32.03</ele>
        <time>2020-01-19T13:23:18Z</time>
      </trkpt>
      <trkpt lat="47.13659" lon="-1.52657">
        <ele>31.73</ele>
        <time>2020-01-19T13:23:20Z</time>
      </trkpt>
      <trkpt lat="47.13666" lon="-1.52646">
        <ele>32.65</ele>
        <time>2020-01-19T13:23:23Z</time>
      </trkpt>
      <trkpt lat="47.13673" lon="-1.52636">
        <ele>33.44</ele>
        <time>2020-01-19T13:23:25Z</time>
      </trkpt>
      <trkpt lat="47.13679" lon="-1.52624">
        <ele>33.12</ele>
        <time>2020-01-19T13:23:27Z</time>
      </trkpt>
      <trkpt lat="47.13686" lon="-1.52613">
        <ele>33.18</ele>
        <time>2020-01-19T13:23:30Z</time>
      </trkpt>
      <trkpt lat="47.13692" lon="-1.52603">
        <ele>33.02</ele>
        <time>2020-01-19T13:23:32Z</time>
      </trkpt>
      <trkpt lat="47.137" lon="-1.52591">
        <ele>32.38</ele>
        <time>2020-01-19T13:23:34Z</time>
      </trkpt>
      <trkpt lat="47.13709" lon="-1.52576">
        <ele>32.19</ele>
        <time>2020-01-19T13:23:37Z</time>
      </trkpt>
      <trkpt lat="47.13717" lon="-1.52564">
        <ele>32.77</ele>
        <time>2020-01-19T13:23:40Z</time>
      </trkpt>
      <trkpt lat="47.13723" lon="-1.52553">
        <ele>33.12</ele>
        <time>2020-01-19T13:23:42Z</time>
      </trkpt>
      <trkpt lat="47.1373" lon="-1.52541">
        <ele>33.32</ele>
        <time>2020-01-19T13:23:45Z</time>
      </trkpt>
      <trkpt lat="47.13738" lon="-1.52527">
        <ele>32.26</ele>
        <time>2020-01-19T13:23:48Z</time>
      </trkpt>
      <trkpt lat="47.13746" lon="-1.52515">
        <ele>31.89</ele>
        <time>2020-01-19T13:23:51Z</time>
      </trkpt>
      <trkpt lat="47.13754" lon="-1.52503">
        <ele>33.06</ele>
        <time>2020-01-19T13:23:53Z</time>
      </trkpt>
      <trkpt lat="47.13765" lon="-1.52488">
        <ele>32.81</ele>
        <time>2020-01-19T13:23:56Z</time>
      </trkpt>
      <trkpt lat="47.13771" lon="-1.52477">
        <ele>31.87</ele>
        <time>2020-01-19T13:23:58Z</time>
      </trkpt>
      <trkpt lat="47.13781" lon="-1.52465">
        <ele>31.77</ele>
        <time>2020-01-19T13:24:01Z</time>
      </trkpt>
      <trkpt lat="47.1379" lon="-1.52452">
        <ele>29.99</ele>
        <time>2020-01-19T13:24:04Z</time>
      </trkpt>
      <trkpt lat="47.13797" lon="-1.52443">
        <ele>29.6</ele>
        <time>2020-01-19T13:24:06Z</time>
      </trkpt>
      <trkpt lat="47.13805" lon="-1.52432">
        <ele>29.84</ele>
        <time>2020-01-19T13:24:08Z</time>
      </trkpt>
      <trkpt lat="47.13813" lon="-1.52418">
        <ele>30.76</ele>
        <time>2020-01-19T13:24:11Z</time>
      </trkpt>
      <trkpt lat="47.13821" lon="-1.52406">
        <ele>31.37</ele>
        <time>2020-01-19T13:24:14Z</time>
      </trkpt>
      <trkpt lat="47.13828" lon="-1.52397">
        <ele>32.3</ele>
        <time>2020-01-19T13:24:16Z</time>
      </trkpt>
      <trkpt lat="47.13834" lon="-1.52387">
        <ele>33.12</ele>
        <time>2020-01-19T13:24:18Z</time>
      </trkpt>
      <trkpt lat="47.13843" lon="-1.52373">
        <ele>33.04</ele>
        <time>2020-01-19T13:24:21Z</time>
      </trkpt>
      <trkpt lat="47.13849" lon="-1.52363">
        <ele>32.1</ele>
        <time>2020-01-19T13:24:23Z</time>
      </trkpt>
      <trkpt lat="47.13854" lon="-1.52353">
        <ele>32.43</ele>
        <time>2020-01-19T13:24:25Z</time>
      </trkpt>
      <trkpt lat="47.13859" lon="-1.52337">
        <ele>31.94</ele>
        <time>2020-01-19T13:24:28Z</time>
      </trkpt>
      <trkpt lat="47.13862" lon="-1.52325">
        <ele>31.29</ele>
        <time>2020-01-19T13:24:30Z</time>
      </trkpt>
      <trkpt lat="47.13872" lon="-1.52312">
        <ele>31.05</ele>
        <time>2020-01-19T13:24:33Z</time>
      </trkpt>
      <trkpt lat="47.13884" lon="-1.52304">
        <ele>31.97</ele>
        <time>2020-01-19T13:24:36Z</time>
      </trkpt>
      <trkpt lat="47.13892" lon="-1.52297">
        <ele>31.51</ele>
        <time>2020-01-19T13:24:38Z</time>
      </trkpt>
      <trkpt lat="47.13898" lon="-1.52287">
        <ele>31.28</ele>
        <time>2020-01-19T13:24:40Z</time>
      </trkpt>
      <trkpt lat="47.13907" lon="-1.52274">
        <ele>30.86</ele>
        <time>2020-01-19T13:24:43Z</time>
      </trkpt>
      <trkpt lat="47.13916" lon="-1.52263">
        <ele>31.39</ele>
        <time>2020-01-19T13:24:46Z</time>
      </trkpt>
      <trkpt lat="47.13924" lon="-1.52253">
        <ele>32.19</ele>
        <time>2020-01-19T13:24:48Z</time>
      </trkpt>
      <trkpt lat="47.13932" lon="-1.52242">
        <ele>31.76</ele>
        <time>2020-01-19T13:24:51Z</time>
      </trkpt>
      <trkpt lat="47.1394" lon="-1.52229">
        <ele>31.33</ele>
        <time>2020-01-19T13:24:54Z</time>
      </trkpt>
      <trkpt lat="47.13949" lon="-1.52216">
        <ele>31.3</ele>
        <time>2020-01-19T13:24:57Z</time>
      </trkpt>
      <trkpt lat="47.13958" lon="-1.52203">
        <ele>31.92</ele>
        <time>2020-01-19T13:25:00Z</time>
      </trkpt>
      <trkpt lat="47.13966" lon="-1.52192">
        <ele>31.65</ele>
        <time>2020-01-19T13:25:03Z</time>
      </trkpt>
      <trkpt lat="47.13975" lon="-1.5218">
        <ele>31.95</ele>
        <time>2020-01-19T13:25:06Z</time>
      </trkpt>
      <trkpt lat="47.13983" lon="-1.52168">
        <ele>31.93</ele>
        <time>2020-01-19T13:25:09Z</time>
      </trkpt>
      <trkpt lat="47.13992" lon="-1.52158">
        <ele>32.08</ele>
        <time>2020-01-19T13:25:12Z</time>
      </trkpt>
      <trkpt lat="47.14003" lon="-1.52148">
        <ele>33.77</ele>
        <time>2020-01-19T13:25:15Z</time>
      </trkpt>
      <trkpt lat="47.14012" lon="-1.52142">
        <ele>33.63</ele>
        <time>2020-01-19T13:25:17Z</time>
      </trkpt>
      <trkpt lat="47.14021" lon="-1.52129">
        <ele>33.24</ele>
        <time>2020-01-19T13:25:20Z</time>
      </trkpt>
      <trkpt lat="47.14028" lon="-1.52115">
        <ele>33.28</ele>
        <time>2020-01-19T13:25:23Z</time>
      </trkpt>
      <trkpt lat="47.14037" lon="-1.52103">
        <ele>33.79</ele>
        <time>2020-01-19T13:25:28Z</time>
      </trkpt>
      <trkpt lat="47.14045" lon="-1.52095">
        <ele>35.46</ele>
        <time>2020-01-19T13:25:30Z</time>
      </trkpt>
      <trkpt lat="47.14057" lon="-1.52085">
        <ele>36.81</ele>
        <time>2020-01-19T13:25:33Z</time>
      </trkpt>
      <trkpt lat="47.14067" lon="-1.52074">
        <ele>36.3</ele>
        <time>2020-01-19T13:25:36Z</time>
      </trkpt>
      <trkpt lat="47.14076" lon="-1.52064">
        <ele>35.71</ele>
        <time>2020-01-19T13:25:38Z</time>
      </trkpt>
      <trkpt lat="47.14085" lon="-1.52055">
        <ele>34.22</ele>
        <time>2020-01-19T13:25:40Z</time>
      </trkpt>
      <trkpt lat="47.14094" lon="-1.52046">
        <ele>34.01</ele>
        <time>2020-01-19T13:25:43Z</time>
      </trkpt>
      <trkpt lat="47.14105" lon="-1.52034">
        <ele>34.05</ele>
        <time>2020-01-19T13:25:46Z</time>
      </trkpt>
      <trkpt lat="47.14117" lon="-1.52024">
        <ele>34.3</ele>
        <time>2020-01-19T13:25:49Z</time>
      </trkpt>
      <trkpt lat="47.14127" lon="-1.52014">
        <ele>33.33</ele>
        <time>2020-01-19T13:25:52Z</time>
      </trkpt>
      <trkpt lat="47.14135" lon="-1.52006">
        <ele>33.04</ele>
        <time>2020-01-19T13:25:54Z</time>
      </trkpt>
      <trkpt lat="47.14143" lon="-1.51999">
        <ele>32.17</ele>
        <time>2020-01-19T13:25:56Z</time>
      </trkpt>
      <trkpt lat="47.14151" lon="-1.51992">
        <ele>31.96</ele>
        <time>2020-01-19T13:25:58Z</time>
      </trkpt>
      <trkpt lat="47.14162" lon="-1.51981">
        <ele>32.53</ele>
        <time>2020-01-19T13:26:01Z</time>
      </trkpt>
      <trkpt lat="47.14171" lon="-1.51974">
        <ele>31.92</ele>
        <time>2020-01-19T13:26:03Z</time>
      </trkpt>
      <trkpt lat="47.14179" lon="-1.51967">
        <ele>32.32</ele>
        <time>2020-01-19T13:26:05Z</time>
      </trkpt>
      <trkpt lat="47.14187" lon="-1.51959">
        <ele>32.47</ele>
        <time>2020-01-19T13:26:07Z</time>
      </trkpt>
      <trkpt lat="47.14198" lon="-1.51948">
        <ele>32.25</ele>
        <time>2020-01-19T13:26:10Z</time>
      </trkpt>
      <trkpt lat="47.14206" lon="-1.51939">
        <ele>32.74</ele>
        <time>2020-01-19T13:26:12Z</time>
      </trkpt>
      <trkpt lat="47.14215" lon="-1.51931">
        <ele>33.64</ele>
        <time>2020-01-19T13:26:14Z</time>
      </trkpt>
      <trkpt lat="47.14222" lon="-1.51924">
        <ele>33.72</ele>
        <time>2020-01-19T13:26:16Z</time>
      </trkpt>
      <trkpt lat="47.14231" lon="-1.51917">
        <ele>35.23</ele>
        <time>2020-01-19T13:26:18Z</time>
      </trkpt>
      <trkpt lat="47.14241" lon="-1.51907">
        <ele>35.29</ele>
        <time>2020-01-19T13:26:20Z</time>
      </trkpt>
      <trkpt lat="47.14249" lon="-1.519">
        <ele>35.08</ele>
        <time>2020-01-19T13:26:22Z</time>
      </trkpt>
      <trkpt lat="47.14257" lon="-1.51892">
        <ele>34.27</ele>
        <time>2020-01-19T13:26:24Z</time>
      </trkpt>
      <trkpt lat="47.14267" lon="-1.51882">
        <ele>34.28</ele>
        <time>2020-01-19T13:26:26Z</time>
      </trkpt>
      <trkpt lat="47.14275" lon="-1.51874">
        <ele>33.45</ele>
        <time>2020-01-19T13:26:28Z</time>
      </trkpt>
      <trkpt lat="47.14282" lon="-1.51866">
        <ele>33.32</ele>
        <time>2020-01-19T13:26:30Z</time>
      </trkpt>
      <trkpt lat="47.14291" lon="-1.51856">
        <ele>33.56</ele>
        <time>2020-01-19T13:26:32Z</time>
      </trkpt>
      <trkpt lat="47.14299" lon="-1.51848">
        <ele>33.56</ele>
        <time>2020-01-19T13:26:34Z</time>
      </trkpt>
      <trkpt lat="47.14307" lon="-1.51839">
        <ele>33.49</ele>
        <time>2020-01-19T13:26:36Z</time>
      </trkpt>
      <trkpt lat="47.14316" lon="-1.5183">
        <ele>33.48</ele>
        <time>2020-01-19T13:26:38Z</time>
      </trkpt>
      <trkpt lat="47.14324" lon="-1.51821">
        <ele>34.86</ele>
        <time>2020-01-19T13:26:40Z</time>
      </trkpt>
      <trkpt lat="47.14333" lon="-1.5181">
        <ele>35.71</ele>
        <time>2020-01-19T13:26:42Z</time>
      </trkpt>
      <trkpt lat="47.14341" lon="-1.51803">
        <ele>36.47</ele>
        <time>2020-01-19T13:26:44Z</time>
      </trkpt>
      <trkpt lat="47.1435" lon="-1.51793">
        <ele>37.41</ele>
        <time>2020-01-19T13:26:46Z</time>
      </trkpt>
      <trkpt lat="47.14359" lon="-1.51785">
        <ele>37.03</ele>
        <time>2020-01-19T13:26:48Z</time>
      </trkpt>
      <trkpt lat="47.1437" lon="-1.51774">
        <ele>37.7</ele>
        <time>2020-01-19T13:26:51Z</time>
      </trkpt>
      <trkpt lat="47.14381" lon="-1.51763">
        <ele>37.25</ele>
        <time>2020-01-19T13:26:54Z</time>
      </trkpt>
      <trkpt lat="47.14389" lon="-1.51755">
        <ele>37.57</ele>
        <time>2020-01-19T13:26:56Z</time>
      </trkpt>
      <trkpt lat="47.14397" lon="-1.51747">
        <ele>36.98</ele>
        <time>2020-01-19T13:26:58Z</time>
      </trkpt>
      <trkpt lat="47.14405" lon="-1.51738">
        <ele>35.37</ele>
        <time>2020-01-19T13:27:00Z</time>
      </trkpt>
      <trkpt lat="47.14413" lon="-1.5173">
        <ele>34.59</ele>
        <time>2020-01-19T13:27:02Z</time>
      </trkpt>
      <trkpt lat="47.1442" lon="-1.51722">
        <ele>35.19</ele>
        <time>2020-01-19T13:27:04Z</time>
      </trkpt>
      <trkpt lat="47.14429" lon="-1.51714">
        <ele>35.5</ele>
        <time>2020-01-19T13:27:06Z</time>
      </trkpt>
      <trkpt lat="47.14436" lon="-1.51706">
        <ele>34.96</ele>
        <time>2020-01-19T13:27:08Z</time>
      </trkpt>
      <trkpt lat="47.14444" lon="-1.51697">
        <ele>34.12</ele>
        <time>2020-01-19T13:27:10Z</time>
      </trkpt>
      <trkpt lat="47.14455" lon="-1.51686">
        <ele>34.12</ele>
        <time>2020-01-19T13:27:13Z</time>
      </trkpt>
      <trkpt lat="47.14465" lon="-1.51677">
        <ele>35.03</ele>
        <time>2020-01-19T13:27:15Z</time>
      </trkpt>
      <trkpt lat="47.14473" lon="-1.51669">
        <ele>36.14</ele>
        <time>2020-01-19T13:27:17Z</time>
      </trkpt>
      <trkpt lat="47.14481" lon="-1.51661">
        <ele>36.66</ele>
        <time>2020-01-19T13:27:19Z</time>
      </trkpt>
      <trkpt lat="47.14489" lon="-1.51652">
        <ele>36.13</ele>
        <time>2020-01-19T13:27:21Z</time>
      </trkpt>
      <trkpt lat="47.145" lon="-1.5164">
        <ele>34.02</ele>
        <time>2020-01-19T13:27:24Z</time>
      </trkpt>
      <trkpt lat="47.14508" lon="-1.5163">
        <ele>34.14</ele>
        <time>2020-01-19T13:27:26Z</time>
      </trkpt>
      <trkpt lat="47.14516" lon="-1.51622">
        <ele>34.18</ele>
        <time>2020-01-19T13:27:28Z</time>
      </trkpt>
      <trkpt lat="47.14525" lon="-1.51611">
        <ele>35.32</ele>
        <time>2020-01-19T13:27:30Z</time>
      </trkpt>
      <trkpt lat="47.14535" lon="-1.51597">
        <ele>34.57</ele>
        <time>2020-01-19T13:27:33Z</time>
      </trkpt>
      <trkpt lat="47.14544" lon="-1.51588">
        <ele>32.99</ele>
        <time>2020-01-19T13:27:35Z</time>
      </trkpt>
      <trkpt lat="47.14554" lon="-1.51576">
        <ele>30.89</ele>
        <time>2020-01-19T13:27:38Z</time>
      </trkpt>
      <trkpt lat="47.14564" lon="-1.51561">
        <ele>29.85</ele>
        <time>2020-01-19T13:27:41Z</time>
      </trkpt>
      <trkpt lat="47.14571" lon="-1.5155">
        <ele>30.15</ele>
        <time>2020-01-19T13:27:43Z</time>
      </trkpt>
      <trkpt lat="47.14577" lon="-1.51538">
        <ele>31.83</ele>
        <time>2020-01-19T13:27:45Z</time>
      </trkpt>
      <trkpt lat="47.14584" lon="-1.51525">
        <ele>31.51</ele>
        <time>2020-01-19T13:27:48Z</time>
      </trkpt>
      <trkpt lat="47.14593" lon="-1.5151">
        <ele>33.42</ele>
        <time>2020-01-19T13:27:51Z</time>
      </trkpt>
      <trkpt lat="47.14599" lon="-1.51499">
        <ele>33.92</ele>
        <time>2020-01-19T13:27:53Z</time>
      </trkpt>
      <trkpt lat="47.14604" lon="-1.51487">
        <ele>33.47</ele>
        <time>2020-01-19T13:27:55Z</time>
      </trkpt>
      <trkpt lat="47.1461" lon="-1.51474">
        <ele>31.18</ele>
        <time>2020-01-19T13:27:58Z</time>
      </trkpt>
      <trkpt lat="47.14617" lon="-1.51459">
        <ele>30.69</ele>
        <time>2020-01-19T13:28:01Z</time>
      </trkpt>
      <trkpt lat="47.14622" lon="-1.51447">
        <ele>31.39</ele>
        <time>2020-01-19T13:28:03Z</time>
      </trkpt>
      <trkpt lat="47.14629" lon="-1.51431">
        <ele>31.74</ele>
        <time>2020-01-19T13:28:06Z</time>
      </trkpt>
      <trkpt lat="47.14635" lon="-1.51419">
        <ele>31.45</ele>
        <time>2020-01-19T13:28:08Z</time>
      </trkpt>
      <trkpt lat="47.14641" lon="-1.51408">
        <ele>30.44</ele>
        <time>2020-01-19T13:28:10Z</time>
      </trkpt>
      <trkpt lat="47.14649" lon="-1.51393">
        <ele>30.49</ele>
        <time>2020-01-19T13:28:13Z</time>
      </trkpt>
      <trkpt lat="47.14656" lon="-1.5138">
        <ele>29.75</ele>
        <time>2020-01-19T13:28:15Z</time>
      </trkpt>
      <trkpt lat="47.14662" lon="-1.51368">
        <ele>28.22</ele>
        <time>2020-01-19T13:28:17Z</time>
      </trkpt>
      <trkpt lat="47.1467" lon="-1.51354">
        <ele>27.7</ele>
        <time>2020-01-19T13:28:19Z</time>
      </trkpt>
      <trkpt lat="47.14677" lon="-1.5134">
        <ele>26.75</ele>
        <time>2020-01-19T13:28:21Z</time>
      </trkpt>
      <trkpt lat="47.14685" lon="-1.51326">
        <ele>26.84</ele>
        <time>2020-01-19T13:28:23Z</time>
      </trkpt>
      <trkpt lat="47.14692" lon="-1.51309">
        <ele>27.99</ele>
        <time>2020-01-19T13:28:26Z</time>
      </trkpt>
      <trkpt lat="47.14698" lon="-1.51296">
        <ele>27.79</ele>
        <time>2020-01-19T13:28:28Z</time>
      </trkpt>
      <trkpt lat="47.14704" lon="-1.51284">
        <ele>27.39</ele>
        <time>2020-01-19T13:28:30Z</time>
      </trkpt>
      <trkpt lat="47.1471" lon="-1.51271">
        <ele>27.02</ele>
        <time>2020-01-19T13:28:32Z</time>
      </trkpt>
      <trkpt lat="47.14716" lon="-1.51258">
        <ele>27.66</ele>
        <time>2020-01-19T13:28:34Z</time>
      </trkpt>
      <trkpt lat="47.14723" lon="-1.51246">
        <ele>28.74</ele>
        <time>2020-01-19T13:28:36Z</time>
      </trkpt>
      <trkpt lat="47.14728" lon="-1.51235">
        <ele>28.71</ele>
        <time>2020-01-19T13:28:38Z</time>
      </trkpt>
      <trkpt lat="47.14736" lon="-1.51218">
        <ele>29.55</ele>
        <time>2020-01-19T13:28:41Z</time>
      </trkpt>
      <trkpt lat="47.14743" lon="-1.51207">
        <ele>29.28</ele>
        <time>2020-01-19T13:28:43Z</time>
      </trkpt>
      <trkpt lat="47.14749" lon="-1.51196">
        <ele>28.23</ele>
        <time>2020-01-19T13:28:45Z</time>
      </trkpt>
      <trkpt lat="47.14754" lon="-1.51185">
        <ele>27.58</ele>
        <time>2020-01-19T13:28:47Z</time>
      </trkpt>
      <trkpt lat="47.14761" lon="-1.51173">
        <ele>26.52</ele>
        <time>2020-01-19T13:28:49Z</time>
      </trkpt>
      <trkpt lat="47.14767" lon="-1.51162">
        <ele>25.79</ele>
        <time>2020-01-19T13:28:51Z</time>
      </trkpt>
      <trkpt lat="47.14775" lon="-1.51149">
        <ele>26.15</ele>
        <time>2020-01-19T13:28:53Z</time>
      </trkpt>
      <trkpt lat="47.1478" lon="-1.51138">
        <ele>26.65</ele>
        <time>2020-01-19T13:28:55Z</time>
      </trkpt>
      <trkpt lat="47.14786" lon="-1.51127">
        <ele>26.92</ele>
        <time>2020-01-19T13:28:57Z</time>
      </trkpt>
      <trkpt lat="47.14792" lon="-1.51116">
        <ele>27.17</ele>
        <time>2020-01-19T13:28:59Z</time>
      </trkpt>
      <trkpt lat="47.14798" lon="-1.51105">
        <ele>27.03</ele>
        <time>2020-01-19T13:29:01Z</time>
      </trkpt>
      <trkpt lat="47.14806" lon="-1.51088">
        <ele>26.93</ele>
        <time>2020-01-19T13:29:04Z</time>
      </trkpt>
      <trkpt lat="47.14812" lon="-1.51078">
        <ele>26.17</ele>
        <time>2020-01-19T13:29:06Z</time>
      </trkpt>
      <trkpt lat="47.1482" lon="-1.51064">
        <ele>25.13</ele>
        <time>2020-01-19T13:29:09Z</time>
      </trkpt>
      <trkpt lat="47.14826" lon="-1.51053">
        <ele>25.09</ele>
        <time>2020-01-19T13:29:11Z</time>
      </trkpt>
      <trkpt lat="47.14833" lon="-1.51042">
        <ele>25.85</ele>
        <time>2020-01-19T13:29:13Z</time>
      </trkpt>
      <trkpt lat="47.14839" lon="-1.5103">
        <ele>26.18</ele>
        <time>2020-01-19T13:29:15Z</time>
      </trkpt>
      <trkpt lat="47.14849" lon="-1.51014">
        <ele>26.7</ele>
        <time>2020-01-19T13:29:18Z</time>
      </trkpt>
      <trkpt lat="47.14859" lon="-1.51">
        <ele>27.45</ele>
        <time>2020-01-19T13:29:21Z</time>
      </trkpt>
      <trkpt lat="47.14867" lon="-1.5099">
        <ele>26.31</ele>
        <time>2020-01-19T13:29:23Z</time>
      </trkpt>
      <trkpt lat="47.14874" lon="-1.50978">
        <ele>25.74</ele>
        <time>2020-01-19T13:29:25Z</time>
      </trkpt>
      <trkpt lat="47.14882" lon="-1.50966">
        <ele>25.69</ele>
        <time>2020-01-19T13:29:27Z</time>
      </trkpt>
      <trkpt lat="47.1489" lon="-1.50955">
        <ele>25.13</ele>
        <time>2020-01-19T13:29:29Z</time>
      </trkpt>
      <trkpt lat="47.14898" lon="-1.50941">
        <ele>24.48</ele>
        <time>2020-01-19T13:29:32Z</time>
      </trkpt>
      <trkpt lat="47.14906" lon="-1.50929">
        <ele>23.12</ele>
        <time>2020-01-19T13:29:34Z</time>
      </trkpt>
      <trkpt lat="47.14914" lon="-1.50917">
        <ele>22.05</ele>
        <time>2020-01-19T13:29:36Z</time>
      </trkpt>
      <trkpt lat="47.14922" lon="-1.50906">
        <ele>21.49</ele>
        <time>2020-01-19T13:29:38Z</time>
      </trkpt>
      <trkpt lat="47.1493" lon="-1.50896">
        <ele>22.35</ele>
        <time>2020-01-19T13:29:40Z</time>
      </trkpt>
      <trkpt lat="47.14939" lon="-1.50884">
        <ele>23.56</ele>
        <time>2020-01-19T13:29:42Z</time>
      </trkpt>
      <trkpt lat="47.14948" lon="-1.5087">
        <ele>26.76</ele>
        <time>2020-01-19T13:29:45Z</time>
      </trkpt>
      <trkpt lat="47.14956" lon="-1.50859">
        <ele>27.76</ele>
        <time>2020-01-19T13:29:48Z</time>
      </trkpt>
      <trkpt lat="47.14964" lon="-1.50847">
        <ele>27.9</ele>
        <time>2020-01-19T13:29:51Z</time>
      </trkpt>
      <trkpt lat="47.14972" lon="-1.50835">
        <ele>27.36</ele>
        <time>2020-01-19T13:29:54Z</time>
      </trkpt>
      <trkpt lat="47.1498" lon="-1.50824">
        <ele>26.71</ele>
        <time>2020-01-19T13:29:56Z</time>
      </trkpt>
      <trkpt lat="47.14987" lon="-1.50814">
        <ele>25.81</ele>
        <time>2020-01-19T13:29:58Z</time>
      </trkpt>
      <trkpt lat="47.14994" lon="-1.50804">
        <ele>24.89</ele>
        <time>2020-01-19T13:30:00Z</time>
      </trkpt>
      <trkpt lat="47.15002" lon="-1.50793">
        <ele>24.2</ele>
        <time>2020-01-19T13:30:02Z</time>
      </trkpt>
      <trkpt lat="47.15012" lon="-1.50781">
        <ele>23.6</ele>
        <time>2020-01-19T13:30:05Z</time>
      </trkpt>
      <trkpt lat="47.15023" lon="-1.50767">
        <ele>23.58</ele>
        <time>2020-01-19T13:30:08Z</time>
      </trkpt>
      <trkpt lat="47.15033" lon="-1.50755">
        <ele>23.25</ele>
        <time>2020-01-19T13:30:11Z</time>
      </trkpt>
      <trkpt lat="47.15042" lon="-1.50742">
        <ele>22.58</ele>
        <time>2020-01-19T13:30:13Z</time>
      </trkpt>
      <trkpt lat="47.15049" lon="-1.50733">
        <ele>22.59</ele>
        <time>2020-01-19T13:30:15Z</time>
      </trkpt>
      <trkpt lat="47.15057" lon="-1.50723">
        <ele>22.77</ele>
        <time>2020-01-19T13:30:17Z</time>
      </trkpt>
      <trkpt lat="47.15065" lon="-1.50713">
        <ele>22.12</ele>
        <time>2020-01-19T13:30:19Z</time>
      </trkpt>
      <trkpt lat="47.15073" lon="-1.50705">
        <ele>21.74</ele>
        <time>2020-01-19T13:30:21Z</time>
      </trkpt>
      <trkpt lat="47.15083" lon="-1.50693">
        <ele>21.72</ele>
        <time>2020-01-19T13:30:24Z</time>
      </trkpt>
      <trkpt lat="47.1509" lon="-1.50684">
        <ele>20.59</ele>
        <time>2020-01-19T13:30:26Z</time>
      </trkpt>
      <trkpt lat="47.15098" lon="-1.50676">
        <ele>19.99</ele>
        <time>2020-01-19T13:30:28Z</time>
      </trkpt>
      <trkpt lat="47.15106" lon="-1.50667">
        <ele>20.4</ele>
        <time>2020-01-19T13:30:30Z</time>
      </trkpt>
      <trkpt lat="47.15117" lon="-1.50654">
        <ele>20.41</ele>
        <time>2020-01-19T13:30:33Z</time>
      </trkpt>
      <trkpt lat="47.15128" lon="-1.50643">
        <ele>19.65</ele>
        <time>2020-01-19T13:30:36Z</time>
      </trkpt>
      <trkpt lat="47.15138" lon="-1.50631">
        <ele>21.42</ele>
        <time>2020-01-19T13:30:39Z</time>
      </trkpt>
      <trkpt lat="47.15146" lon="-1.50621">
        <ele>22.62</ele>
        <time>2020-01-19T13:30:41Z</time>
      </trkpt>
      <trkpt lat="47.15157" lon="-1.50608">
        <ele>23.89</ele>
        <time>2020-01-19T13:30:44Z</time>
      </trkpt>
      <trkpt lat="47.15164" lon="-1.50599">
        <ele>23.19</ele>
        <time>2020-01-19T13:30:46Z</time>
      </trkpt>
      <trkpt lat="47.15174" lon="-1.50587">
        <ele>22.12</ele>
        <time>2020-01-19T13:30:49Z</time>
      </trkpt>
      <trkpt lat="47.15183" lon="-1.50576">
        <ele>21.2</ele>
        <time>2020-01-19T13:30:52Z</time>
      </trkpt>
      <trkpt lat="47.15192" lon="-1.50566">
        <ele>21.95</ele>
        <time>2020-01-19T13:30:54Z</time>
      </trkpt>
      <trkpt lat="47.15201" lon="-1.50557">
        <ele>22.52</ele>
        <time>2020-01-19T13:30:57Z</time>
      </trkpt>
      <trkpt lat="47.15209" lon="-1.50546">
        <ele>23.11</ele>
        <time>2020-01-19T13:31:00Z</time>
      </trkpt>
      <trkpt lat="47.15219" lon="-1.50535">
        <ele>24.12</ele>
        <time>2020-01-19T13:31:03Z</time>
      </trkpt>
      <trkpt lat="47.15226" lon="-1.50526">
        <ele>24.31</ele>
        <time>2020-01-19T13:31:05Z</time>
      </trkpt>
      <trkpt lat="47.15236" lon="-1.50514">
        <ele>22.91</ele>
        <time>2020-01-19T13:31:08Z</time>
      </trkpt>
      <trkpt lat="47.15245" lon="-1.50504">
        <ele>23.63</ele>
        <time>2020-01-19T13:31:11Z</time>
      </trkpt>
      <trkpt lat="47.15254" lon="-1.50495">
        <ele>24.97</ele>
        <time>2020-01-19T13:31:14Z</time>
      </trkpt>
      <trkpt lat="47.15262" lon="-1.50485">
        <ele>25.41</ele>
        <time>2020-01-19T13:31:17Z</time>
      </trkpt>
      <trkpt lat="47.15272" lon="-1.50474">
        <ele>24.53</ele>
        <time>2020-01-19T13:31:20Z</time>
      </trkpt>
      <trkpt lat="47.15282" lon="-1.50462">
        <ele>23.69</ele>
        <time>2020-01-19T13:31:23Z</time>
      </trkpt>
      <trkpt lat="47.15291" lon="-1.50453">
        <ele>22.63</ele>
        <time>2020-01-19T13:31:26Z</time>
      </trkpt>
      <trkpt lat="47.15301" lon="-1.5044">
        <ele>21.94</ele>
        <time>2020-01-19T13:31:29Z</time>
      </trkpt>
      <trkpt lat="47.1531" lon="-1.50429">
        <ele>22.68</ele>
        <time>2020-01-19T13:31:32Z</time>
      </trkpt>
      <trkpt lat="47.15321" lon="-1.50418">
        <ele>24.48</ele>
        <time>2020-01-19T13:31:35Z</time>
      </trkpt>
      <trkpt lat="47.15328" lon="-1.5041">
        <ele>26.11</ele>
        <time>2020-01-19T13:31:37Z</time>
      </trkpt>
      <trkpt lat="47.15338" lon="-1.50399">
        <ele>26.8</ele>
        <time>2020-01-19T13:31:40Z</time>
      </trkpt>
      <trkpt lat="47.15347" lon="-1.50387">
        <ele>25.43</ele>
        <time>2020-01-19T13:31:43Z</time>
      </trkpt>
      <trkpt lat="47.15354" lon="-1.50378">
        <ele>24.2</ele>
        <time>2020-01-19T13:31:45Z</time>
      </trkpt>
      <trkpt lat="47.15365" lon="-1.50367">
        <ele>22.38</ele>
        <time>2020-01-19T13:31:48Z</time>
      </trkpt>
      <trkpt lat="47.15375" lon="-1.50358">
        <ele>23.56</ele>
        <time>2020-01-19T13:31:51Z</time>
      </trkpt>
      <trkpt lat="47.15385" lon="-1.50346">
        <ele>23.86</ele>
        <time>2020-01-19T13:31:54Z</time>
      </trkpt>
      <trkpt lat="47.15393" lon="-1.50337">
        <ele>24.03</ele>
        <time>2020-01-19T13:31:56Z</time>
      </trkpt>
      <trkpt lat="47.15403" lon="-1.50327">
        <ele>25.17</ele>
        <time>2020-01-19T13:31:58Z</time>
      </trkpt>
      <trkpt lat="47.15413" lon="-1.50317">
        <ele>26.32</ele>
        <time>2020-01-19T13:32:00Z</time>
      </trkpt>
      <trkpt lat="47.15423" lon="-1.50311">
        <ele>27.61</ele>
        <time>2020-01-19T13:32:02Z</time>
      </trkpt>
      <trkpt lat="47.15433" lon="-1.50304">
        <ele>28.84</ele>
        <time>2020-01-19T13:32:04Z</time>
      </trkpt>
      <trkpt lat="47.15445" lon="-1.50295">
        <ele>30.25</ele>
        <time>2020-01-19T13:32:07Z</time>
      </trkpt>
      <trkpt lat="47.15454" lon="-1.50291">
        <ele>29.21</ele>
        <time>2020-01-19T13:32:09Z</time>
      </trkpt>
      <trkpt lat="47.15465" lon="-1.50285">
        <ele>28.69</ele>
        <time>2020-01-19T13:32:11Z</time>
      </trkpt>
      <trkpt lat="47.15476" lon="-1.50282">
        <ele>27.94</ele>
        <time>2020-01-19T13:32:13Z</time>
      </trkpt>
      <trkpt lat="47.15487" lon="-1.50278">
        <ele>27.5</ele>
        <time>2020-01-19T13:32:15Z</time>
      </trkpt>
      <trkpt lat="47.15497" lon="-1.50272">
        <ele>26.33</ele>
        <time>2020-01-19T13:32:17Z</time>
      </trkpt>
      <trkpt lat="47.15506" lon="-1.50268">
        <ele>25.91</ele>
        <time>2020-01-19T13:32:19Z</time>
      </trkpt>
      <trkpt lat="47.15516" lon="-1.50263">
        <ele>26.39</ele>
        <time>2020-01-19T13:32:21Z</time>
      </trkpt>
      <trkpt lat="47.15528" lon="-1.50257">
        <ele>26.79</ele>
        <time>2020-01-19T13:32:24Z</time>
      </trkpt>
      <trkpt lat="47.15539" lon="-1.5025">
        <ele>26.54</ele>
        <time>2020-01-19T13:32:27Z</time>
      </trkpt>
      <trkpt lat="47.15551" lon="-1.50241">
        <ele>27.06</ele>
        <time>2020-01-19T13:32:30Z</time>
      </trkpt>
      <trkpt lat="47.15559" lon="-1.50233">
        <ele>26.98</ele>
        <time>2020-01-19T13:32:32Z</time>
      </trkpt>
      <trkpt lat="47.15568" lon="-1.50226">
        <ele>27.71</ele>
        <time>2020-01-19T13:32:34Z</time>
      </trkpt>
      <trkpt lat="47.1558" lon="-1.50215">
        <ele>27.24</ele>
        <time>2020-01-19T13:32:37Z</time>
      </trkpt>
      <trkpt lat="47.15588" lon="-1.50206">
        <ele>26.08</ele>
        <time>2020-01-19T13:32:39Z</time>
      </trkpt>
      <trkpt lat="47.15597" lon="-1.50197">
        <ele>25.23</ele>
        <time>2020-01-19T13:32:41Z</time>
      </trkpt>
      <trkpt lat="47.15605" lon="-1.50189">
        <ele>24.55</ele>
        <time>2020-01-19T13:32:43Z</time>
      </trkpt>
      <trkpt lat="47.15614" lon="-1.5018">
        <ele>24.13</ele>
        <time>2020-01-19T13:32:45Z</time>
      </trkpt>
      <trkpt lat="47.15622" lon="-1.50174">
        <ele>24.49</ele>
        <time>2020-01-19T13:32:47Z</time>
      </trkpt>
      <trkpt lat="47.15631" lon="-1.50165">
        <ele>24.22</ele>
        <time>2020-01-19T13:32:49Z</time>
      </trkpt>
      <trkpt lat="47.15643" lon="-1.50154">
        <ele>25.18</ele>
        <time>2020-01-19T13:32:52Z</time>
      </trkpt>
      <trkpt lat="47.15652" lon="-1.50147">
        <ele>25.95</ele>
        <time>2020-01-19T13:32:54Z</time>
      </trkpt>
      <trkpt lat="47.15659" lon="-1.50139">
        <ele>26.31</ele>
        <time>2020-01-19T13:32:56Z</time>
      </trkpt>
      <trkpt lat="47.15667" lon="-1.5013">
        <ele>26.67</ele>
        <time>2020-01-19T13:32:58Z</time>
      </trkpt>
      <trkpt lat="47.15678" lon="-1.50118">
        <ele>27.04</ele>
        <time>2020-01-19T13:33:01Z</time>
      </trkpt>
      <trkpt lat="47.15687" lon="-1.50108">
        <ele>27.04</ele>
        <time>2020-01-19T13:33:03Z</time>
      </trkpt>
      <trkpt lat="47.15694" lon="-1.50097">
        <ele>25.45</ele>
        <time>2020-01-19T13:33:05Z</time>
      </trkpt>
      <trkpt lat="47.15703" lon="-1.50082">
        <ele>24.73</ele>
        <time>2020-01-19T13:33:08Z</time>
      </trkpt>
      <trkpt lat="47.15708" lon="-1.5007">
        <ele>25.9</ele>
        <time>2020-01-19T13:33:10Z</time>
      </trkpt>
      <trkpt lat="47.15713" lon="-1.50058">
        <ele>26.41</ele>
        <time>2020-01-19T13:33:12Z</time>
      </trkpt>
      <trkpt lat="47.15721" lon="-1.50042">
        <ele>27.13</ele>
        <time>2020-01-19T13:33:15Z</time>
      </trkpt>
      <trkpt lat="47.15727" lon="-1.50029">
        <ele>25.95</ele>
        <time>2020-01-19T13:33:17Z</time>
      </trkpt>
      <trkpt lat="47.15733" lon="-1.50019">
        <ele>26.57</ele>
        <time>2020-01-19T13:33:19Z</time>
      </trkpt>
      <trkpt lat="47.15739" lon="-1.50006">
        <ele>26.64</ele>
        <time>2020-01-19T13:33:21Z</time>
      </trkpt>
      <trkpt lat="47.15748" lon="-1.49989">
        <ele>27.29</ele>
        <time>2020-01-19T13:33:24Z</time>
      </trkpt>
      <trkpt lat="47.15756" lon="-1.49974">
        <ele>26.7</ele>
        <time>2020-01-19T13:33:27Z</time>
      </trkpt>
      <trkpt lat="47.15763" lon="-1.4996">
        <ele>27.05</ele>
        <time>2020-01-19T13:33:29Z</time>
      </trkpt>
      <trkpt lat="47.1577" lon="-1.49947">
        <ele>27.81</ele>
        <time>2020-01-19T13:33:31Z</time>
      </trkpt>
      <trkpt lat="47.15779" lon="-1.49932">
        <ele>28.49</ele>
        <time>2020-01-19T13:33:34Z</time>
      </trkpt>
      <trkpt lat="47.15784" lon="-1.49917">
        <ele>25.77</ele>
        <time>2020-01-19T13:33:37Z</time>
      </trkpt>
      <trkpt lat="47.1579" lon="-1.49905">
        <ele>24.65</ele>
        <time>2020-01-19T13:33:39Z</time>
      </trkpt>
      <trkpt lat="47.15795" lon="-1.49894">
        <ele>23.99</ele>
        <time>2020-01-19T13:33:41Z</time>
      </trkpt>
      <trkpt lat="47.15802" lon="-1.49882">
        <ele>24.01</ele>
        <time>2020-01-19T13:33:43Z</time>
      </trkpt>
      <trkpt lat="47.15807" lon="-1.49871">
        <ele>23.44</ele>
        <time>2020-01-19T13:33:45Z</time>
      </trkpt>
      <trkpt lat="47.15812" lon="-1.49859">
        <ele>22.74</ele>
        <time>2020-01-19T13:33:47Z</time>
      </trkpt>
      <trkpt lat="47.15818" lon="-1.49849">
        <ele>22.45</ele>
        <time>2020-01-19T13:33:49Z</time>
      </trkpt>
      <trkpt lat="47.15825" lon="-1.49835">
        <ele>22.76</ele>
        <time>2020-01-19T13:33:51Z</time>
      </trkpt>
      <trkpt lat="47.1583" lon="-1.49824">
        <ele>21.85</ele>
        <time>2020-01-19T13:33:53Z</time>
      </trkpt>
      <trkpt lat="47.15835" lon="-1.49813">
        <ele>20.91</ele>
        <time>2020-01-19T13:33:55Z</time>
      </trkpt>
      <trkpt lat="47.15841" lon="-1.49802">
        <ele>19.83</ele>
        <time>2020-01-19T13:33:57Z</time>
      </trkpt>
      <trkpt lat="47.15848" lon="-1.49788">
        <ele>20.22</ele>
        <time>2020-01-19T13:33:59Z</time>
      </trkpt>
      <trkpt lat="47.15857" lon="-1.49772">
        <ele>20.29</ele>
        <time>2020-01-19T13:34:01Z</time>
      </trkpt>
      <trkpt lat="47.15866" lon="-1.49756">
        <ele>20.88</ele>
        <time>2020-01-19T13:34:03Z</time>
      </trkpt>
      <trkpt lat="47.15873" lon="-1.49742">
        <ele>21.23</ele>
        <time>2020-01-19T13:34:05Z</time>
      </trkpt>
      <trkpt lat="47.1588" lon="-1.49728">
        <ele>21.66</ele>
        <time>2020-01-19T13:34:07Z</time>
      </trkpt>
      <trkpt lat="47.15887" lon="-1.49714">
        <ele>23.56</ele>
        <time>2020-01-19T13:34:09Z</time>
      </trkpt>
      <trkpt lat="47.15894" lon="-1.49698">
        <ele>24.28</ele>
        <time>2020-01-19T13:34:11Z</time>
      </trkpt>
      <trkpt lat="47.15902" lon="-1.49684">
        <ele>22.61</ele>
        <time>2020-01-19T13:34:13Z</time>
      </trkpt>
      <trkpt lat="47.1591" lon="-1.49667">
        <ele>21.56</ele>
        <time>2020-01-19T13:34:15Z</time>
      </trkpt>
      <trkpt lat="47.15918" lon="-1.49654">
        <ele>22.21</ele>
        <time>2020-01-19T13:34:17Z</time>
      </trkpt>
      <trkpt lat="47.15927" lon="-1.49639">
        <ele>21.56</ele>
        <time>2020-01-19T13:34:19Z</time>
      </trkpt>
      <trkpt lat="47.15934" lon="-1.49625">
        <ele>21.24</ele>
        <time>2020-01-19T13:34:21Z</time>
      </trkpt>
      <trkpt lat="47.15941" lon="-1.49611">
        <ele>20.71</ele>
        <time>2020-01-19T13:34:23Z</time>
      </trkpt>
      <trkpt lat="47.15948" lon="-1.49597">
        <ele>18.43</ele>
        <time>2020-01-19T13:34:25Z</time>
      </trkpt>
      <trkpt lat="47.15955" lon="-1.49583">
        <ele>16.54</ele>
        <time>2020-01-19T13:34:27Z</time>
      </trkpt>
      <trkpt lat="47.15962" lon="-1.4957">
        <ele>14.36</ele>
        <time>2020-01-19T13:34:29Z</time>
      </trkpt>
      <trkpt lat="47.15969" lon="-1.49555">
        <ele>13.73</ele>
        <time>2020-01-19T13:34:31Z</time>
      </trkpt>
      <trkpt lat="47.15975" lon="-1.49544">
        <ele>13.76</ele>
        <time>2020-01-19T13:34:33Z</time>
      </trkpt>
      <trkpt lat="47.15984" lon="-1.49529">
        <ele>13.23</ele>
        <time>2020-01-19T13:34:35Z</time>
      </trkpt>
      <trkpt lat="47.15991" lon="-1.49515">
        <ele>13.31</ele>
        <time>2020-01-19T13:34:37Z</time>
      </trkpt>
      <trkpt lat="47.15998" lon="-1.49502">
        <ele>14.17</ele>
        <time>2020-01-19T13:34:39Z</time>
      </trkpt>
      <trkpt lat="47.16005" lon="-1.49488">
        <ele>14.02</ele>
        <time>2020-01-19T13:34:41Z</time>
      </trkpt>
      <trkpt lat="47.16012" lon="-1.49474">
        <ele>15.02</ele>
        <time>2020-01-19T13:34:43Z</time>
      </trkpt>
      <trkpt lat="47.16018" lon="-1.49462">
        <ele>15</ele>
        <time>2020-01-19T13:34:45Z</time>
      </trkpt>
      <trkpt lat="47.16025" lon="-1.49451">
        <ele>15.66</ele>
        <time>2020-01-19T13:34:47Z</time>
      </trkpt>
      <trkpt lat="47.16033" lon="-1.49437">
        <ele>15.88</ele>
        <time>2020-01-19T13:34:49Z</time>
      </trkpt>
      <trkpt lat="47.16039" lon="-1.49425">
        <ele>16.17</ele>
        <time>2020-01-19T13:34:51Z</time>
      </trkpt>
      <trkpt lat="47.16045" lon="-1.49412">
        <ele>16</ele>
        <time>2020-01-19T13:34:53Z</time>
      </trkpt>
      <trkpt lat="47.1605" lon="-1.494">
        <ele>16.09</ele>
        <time>2020-01-19T13:34:55Z</time>
      </trkpt>
      <trkpt lat="47.16058" lon="-1.49388">
        <ele>17.21</ele>
        <time>2020-01-19T13:34:57Z</time>
      </trkpt>
      <trkpt lat="47.16066" lon="-1.49381">
        <ele>18.85</ele>
        <time>2020-01-19T13:34:59Z</time>
      </trkpt>
      <trkpt lat="47.16074" lon="-1.49373">
        <ele>20.06</ele>
        <time>2020-01-19T13:35:01Z</time>
      </trkpt>
      <trkpt lat="47.16084" lon="-1.49358">
        <ele>20.13</ele>
        <time>2020-01-19T13:35:04Z</time>
      </trkpt>
      <trkpt lat="47.16094" lon="-1.49348">
        <ele>20.53</ele>
        <time>2020-01-19T13:35:06Z</time>
      </trkpt>
      <trkpt lat="47.16102" lon="-1.49339">
        <ele>21.39</ele>
        <time>2020-01-19T13:35:08Z</time>
      </trkpt>
      <trkpt lat="47.16113" lon="-1.49324">
        <ele>21.53</ele>
        <time>2020-01-19T13:35:11Z</time>
      </trkpt>
      <trkpt lat="47.16124" lon="-1.49312">
        <ele>20.7</ele>
        <time>2020-01-19T13:35:14Z</time>
      </trkpt>
      <trkpt lat="47.16134" lon="-1.49298">
        <ele>19.62</ele>
        <time>2020-01-19T13:35:17Z</time>
      </trkpt>
      <trkpt lat="47.16141" lon="-1.49287">
        <ele>19.23</ele>
        <time>2020-01-19T13:35:19Z</time>
      </trkpt>
      <trkpt lat="47.1615" lon="-1.4927">
        <ele>19.65</ele>
        <time>2020-01-19T13:35:22Z</time>
      </trkpt>
      <trkpt lat="47.16156" lon="-1.49258">
        <ele>19.39</ele>
        <time>2020-01-19T13:35:24Z</time>
      </trkpt>
      <trkpt lat="47.16162" lon="-1.49244">
        <ele>19.74</ele>
        <time>2020-01-19T13:35:26Z</time>
      </trkpt>
      <trkpt lat="47.1617" lon="-1.4923">
        <ele>20.87</ele>
        <time>2020-01-19T13:35:29Z</time>
      </trkpt>
      <trkpt lat="47.16178" lon="-1.49216">
        <ele>22.48</ele>
        <time>2020-01-19T13:35:32Z</time>
      </trkpt>
      <trkpt lat="47.16187" lon="-1.49204">
        <ele>23.42</ele>
        <time>2020-01-19T13:35:35Z</time>
      </trkpt>
      <trkpt lat="47.16195" lon="-1.49196">
        <ele>23.55</ele>
        <time>2020-01-19T13:35:37Z</time>
      </trkpt>
      <trkpt lat="47.16203" lon="-1.49187">
        <ele>23.04</ele>
        <time>2020-01-19T13:35:39Z</time>
      </trkpt>
      <trkpt lat="47.16213" lon="-1.49177">
        <ele>23.2</ele>
        <time>2020-01-19T13:35:42Z</time>
      </trkpt>
      <trkpt lat="47.16223" lon="-1.49167">
        <ele>23.46</ele>
        <time>2020-01-19T13:35:45Z</time>
      </trkpt>
      <trkpt lat="47.16232" lon="-1.49159">
        <ele>24.22</ele>
        <time>2020-01-19T13:35:47Z</time>
      </trkpt>
      <trkpt lat="47.16241" lon="-1.4915">
        <ele>23.75</ele>
        <time>2020-01-19T13:35:49Z</time>
      </trkpt>
      <trkpt lat="47.16249" lon="-1.49141">
        <ele>21.78</ele>
        <time>2020-01-19T13:35:51Z</time>
      </trkpt>
      <trkpt lat="47.16259" lon="-1.49131">
        <ele>21.5</ele>
        <time>2020-01-19T13:35:54Z</time>
      </trkpt>
      <trkpt lat="47.16267" lon="-1.49123">
        <ele>21.65</ele>
        <time>2020-01-19T13:35:56Z</time>
      </trkpt>
      <trkpt lat="47.16276" lon="-1.49113">
        <ele>21.91</ele>
        <time>2020-01-19T13:35:58Z</time>
      </trkpt>
      <trkpt lat="47.16287" lon="-1.49103">
        <ele>21.29</ele>
        <time>2020-01-19T13:36:00Z</time>
      </trkpt>
      <trkpt lat="47.16296" lon="-1.49094">
        <ele>21.01</ele>
        <time>2020-01-19T13:36:02Z</time>
      </trkpt>
      <trkpt lat="47.16304" lon="-1.49086">
        <ele>21.8</ele>
        <time>2020-01-19T13:36:04Z</time>
      </trkpt>
      <trkpt lat="47.16315" lon="-1.49076">
        <ele>22.53</ele>
        <time>2020-01-19T13:36:06Z</time>
      </trkpt>
      <trkpt lat="47.16328" lon="-1.49063">
        <ele>22.51</ele>
        <time>2020-01-19T13:36:08Z</time>
      </trkpt>
      <trkpt lat="47.16338" lon="-1.49052">
        <ele>22.83</ele>
        <time>2020-01-19T13:36:10Z</time>
      </trkpt>
      <trkpt lat="47.1635" lon="-1.4904">
        <ele>23.08</ele>
        <time>2020-01-19T13:36:12Z</time>
      </trkpt>
      <trkpt lat="47.16359" lon="-1.49029">
        <ele>22.51</ele>
        <time>2020-01-19T13:36:14Z</time>
      </trkpt>
      <trkpt lat="47.16367" lon="-1.49018">
        <ele>21.53</ele>
        <time>2020-01-19T13:36:16Z</time>
      </trkpt>
      <trkpt lat="47.16373" lon="-1.49006">
        <ele>20.21</ele>
        <time>2020-01-19T13:36:18Z</time>
      </trkpt>
      <trkpt lat="47.16382" lon="-1.48992">
        <ele>18.11</ele>
        <time>2020-01-19T13:36:20Z</time>
      </trkpt>
      <trkpt lat="47.16389" lon="-1.48978">
        <ele>17.05</ele>
        <time>2020-01-19T13:36:22Z</time>
      </trkpt>
      <trkpt lat="47.16397" lon="-1.48966">
        <ele>16.98</ele>
        <time>2020-01-19T13:36:24Z</time>
      </trkpt>
      <trkpt lat="47.16406" lon="-1.48954">
        <ele>16.98</ele>
        <time>2020-01-19T13:36:26Z</time>
      </trkpt>
      <trkpt lat="47.16414" lon="-1.48944">
        <ele>16.17</ele>
        <time>2020-01-19T13:36:28Z</time>
      </trkpt>
      <trkpt lat="47.16426" lon="-1.4893">
        <ele>17.31</ele>
        <time>2020-01-19T13:36:31Z</time>
      </trkpt>
      <trkpt lat="47.16434" lon="-1.48921">
        <ele>17.96</ele>
        <time>2020-01-19T13:36:33Z</time>
      </trkpt>
      <trkpt lat="47.16442" lon="-1.48913">
        <ele>18.27</ele>
        <time>2020-01-19T13:36:35Z</time>
      </trkpt>
      <trkpt lat="47.16451" lon="-1.48901">
        <ele>18.81</ele>
        <time>2020-01-19T13:36:37Z</time>
      </trkpt>
      <trkpt lat="47.16459" lon="-1.4889">
        <ele>18.41</ele>
        <time>2020-01-19T13:36:39Z</time>
      </trkpt>
      <trkpt lat="47.16465" lon="-1.4888">
        <ele>18.81</ele>
        <time>2020-01-19T13:36:41Z</time>
      </trkpt>
      <trkpt lat="47.16471" lon="-1.48865">
        <ele>17.38</ele>
        <time>2020-01-19T13:36:43Z</time>
      </trkpt>
      <trkpt lat="47.16476" lon="-1.4885">
        <ele>15.75</ele>
        <time>2020-01-19T13:36:45Z</time>
      </trkpt>
      <trkpt lat="47.16482" lon="-1.48832">
        <ele>14.98</ele>
        <time>2020-01-19T13:36:48Z</time>
      </trkpt>
      <trkpt lat="47.16488" lon="-1.48817">
        <ele>14.74</ele>
        <time>2020-01-19T13:36:50Z</time>
      </trkpt>
      <trkpt lat="47.16496" lon="-1.48801">
        <ele>15.49</ele>
        <time>2020-01-19T13:36:52Z</time>
      </trkpt>
      <trkpt lat="47.16502" lon="-1.48787">
        <ele>14.24</ele>
        <time>2020-01-19T13:36:54Z</time>
      </trkpt>
      <trkpt lat="47.16507" lon="-1.48772">
        <ele>12.64</ele>
        <time>2020-01-19T13:36:56Z</time>
      </trkpt>
      <trkpt lat="47.16511" lon="-1.48757">
        <ele>11.8</ele>
        <time>2020-01-19T13:36:58Z</time>
      </trkpt>
      <trkpt lat="47.16515" lon="-1.48741">
        <ele>11.12</ele>
        <time>2020-01-19T13:37:00Z</time>
      </trkpt>
      <trkpt lat="47.16518" lon="-1.48728">
        <ele>11.75</ele>
        <time>2020-01-19T13:37:02Z</time>
      </trkpt>
      <trkpt lat="47.16522" lon="-1.48712">
        <ele>12.55</ele>
        <time>2020-01-19T13:37:04Z</time>
      </trkpt>
      <trkpt lat="47.16524" lon="-1.48697">
        <ele>11.89</ele>
        <time>2020-01-19T13:37:06Z</time>
      </trkpt>
      <trkpt lat="47.16527" lon="-1.4868">
        <ele>11.67</ele>
        <time>2020-01-19T13:37:08Z</time>
      </trkpt>
      <trkpt lat="47.1653" lon="-1.48666">
        <ele>11.91</ele>
        <time>2020-01-19T13:37:10Z</time>
      </trkpt>
      <trkpt lat="47.16534" lon="-1.48644">
        <ele>12.92</ele>
        <time>2020-01-19T13:37:13Z</time>
      </trkpt>
      <trkpt lat="47.16536" lon="-1.48623">
        <ele>12.6</ele>
        <time>2020-01-19T13:37:16Z</time>
      </trkpt>
      <trkpt lat="47.16539" lon="-1.48602">
        <ele>13.27</ele>
        <time>2020-01-19T13:37:18Z</time>
      </trkpt>
      <trkpt lat="47.1654" lon="-1.48588">
        <ele>12.87</ele>
        <time>2020-01-19T13:37:20Z</time>
      </trkpt>
      <trkpt lat="47.16541" lon="-1.48573">
        <ele>11.98</ele>
        <time>2020-01-19T13:37:22Z</time>
      </trkpt>
      <trkpt lat="47.1654" lon="-1.48554">
        <ele>11.92</ele>
        <time>2020-01-19T13:37:24Z</time>
      </trkpt>
      <trkpt lat="47.16539" lon="-1.48538">
        <ele>12.15</ele>
        <time>2020-01-19T13:37:26Z</time>
      </trkpt>
      <trkpt lat="47.16536" lon="-1.48521">
        <ele>11.94</ele>
        <time>2020-01-19T13:37:28Z</time>
      </trkpt>
      <trkpt lat="47.16534" lon="-1.48505">
        <ele>12.14</ele>
        <time>2020-01-19T13:37:30Z</time>
      </trkpt>
      <trkpt lat="47.16532" lon="-1.48491">
        <ele>10.86</ele>
        <time>2020-01-19T13:37:32Z</time>
      </trkpt>
      <trkpt lat="47.16529" lon="-1.48473">
        <ele>10.28</ele>
        <time>2020-01-19T13:37:34Z</time>
      </trkpt>
      <trkpt lat="47.16527" lon="-1.48457">
        <ele>10.31</ele>
        <time>2020-01-19T13:37:36Z</time>
      </trkpt>
      <trkpt lat="47.16524" lon="-1.48439">
        <ele>10.55</ele>
        <time>2020-01-19T13:37:38Z</time>
      </trkpt>
      <trkpt lat="47.16521" lon="-1.48423">
        <ele>10.53</ele>
        <time>2020-01-19T13:37:40Z</time>
      </trkpt>
      <trkpt lat="47.16518" lon="-1.48409">
        <ele>10.85</ele>
        <time>2020-01-19T13:37:42Z</time>
      </trkpt>
      <trkpt lat="47.16512" lon="-1.48395">
        <ele>10.67</ele>
        <time>2020-01-19T13:37:44Z</time>
      </trkpt>
      <trkpt lat="47.1651" lon="-1.48377">
        <ele>10.33</ele>
        <time>2020-01-19T13:37:49Z</time>
      </trkpt>
      <trkpt lat="47.16508" lon="-1.4836">
        <ele>11.07</ele>
        <time>2020-01-19T13:37:51Z</time>
      </trkpt>
      <trkpt lat="47.16508" lon="-1.48342">
        <ele>11.13</ele>
        <time>2020-01-19T13:37:53Z</time>
      </trkpt>
      <trkpt lat="47.16512" lon="-1.48323">
        <ele>10.15</ele>
        <time>2020-01-19T13:37:55Z</time>
      </trkpt>
      <trkpt lat="47.16513" lon="-1.48306">
        <ele>9.54</ele>
        <time>2020-01-19T13:37:57Z</time>
      </trkpt>
      <trkpt lat="47.16515" lon="-1.48289">
        <ele>8.89</ele>
        <time>2020-01-19T13:37:59Z</time>
      </trkpt>
      <trkpt lat="47.16517" lon="-1.48273">
        <ele>8.59</ele>
        <time>2020-01-19T13:38:01Z</time>
      </trkpt>
      <trkpt lat="47.16518" lon="-1.4826">
        <ele>9.17</ele>
        <time>2020-01-19T13:38:03Z</time>
      </trkpt>
      <trkpt lat="47.16518" lon="-1.4824">
        <ele>10.34</ele>
        <time>2020-01-19T13:38:06Z</time>
      </trkpt>
      <trkpt lat="47.16515" lon="-1.48223">
        <ele>9.95</ele>
        <time>2020-01-19T13:38:08Z</time>
      </trkpt>
      <trkpt lat="47.16511" lon="-1.4821">
        <ele>9.25</ele>
        <time>2020-01-19T13:38:10Z</time>
      </trkpt>
      <trkpt lat="47.16507" lon="-1.48194">
        <ele>8.66</ele>
        <time>2020-01-19T13:38:12Z</time>
      </trkpt>
      <trkpt lat="47.16504" lon="-1.48181">
        <ele>8.03</ele>
        <time>2020-01-19T13:38:14Z</time>
      </trkpt>
      <trkpt lat="47.16501" lon="-1.48165">
        <ele>7.05</ele>
        <time>2020-01-19T13:38:16Z</time>
      </trkpt>
      <trkpt lat="47.16497" lon="-1.4815">
        <ele>7.22</ele>
        <time>2020-01-19T13:38:18Z</time>
      </trkpt>
      <trkpt lat="47.16493" lon="-1.48135">
        <ele>6.52</ele>
        <time>2020-01-19T13:38:20Z</time>
      </trkpt>
      <trkpt lat="47.16489" lon="-1.48119">
        <ele>6.98</ele>
        <time>2020-01-19T13:38:22Z</time>
      </trkpt>
      <trkpt lat="47.16485" lon="-1.48104">
        <ele>6.02</ele>
        <time>2020-01-19T13:38:24Z</time>
      </trkpt>
      <trkpt lat="47.16481" lon="-1.48089">
        <ele>5.54</ele>
        <time>2020-01-19T13:38:26Z</time>
      </trkpt>
      <trkpt lat="47.16476" lon="-1.48073">
        <ele>4.32</ele>
        <time>2020-01-19T13:38:28Z</time>
      </trkpt>
      <trkpt lat="47.16471" lon="-1.48055">
        <ele>2.84</ele>
        <time>2020-01-19T13:38:30Z</time>
      </trkpt>
      <trkpt lat="47.16466" lon="-1.48036">
        <ele>2.36</ele>
        <time>2020-01-19T13:38:32Z</time>
      </trkpt>
      <trkpt lat="47.16461" lon="-1.48018">
        <ele>2.67</ele>
        <time>2020-01-19T13:38:34Z</time>
      </trkpt>
      <trkpt lat="47.16458" lon="-1.48002">
        <ele>3.85</ele>
        <time>2020-01-19T13:38:36Z</time>
      </trkpt>
      <trkpt lat="47.16454" lon="-1.47987">
        <ele>4.45</ele>
        <time>2020-01-19T13:38:38Z</time>
      </trkpt>
      <trkpt lat="47.1645" lon="-1.47973">
        <ele>5.37</ele>
        <time>2020-01-19T13:38:40Z</time>
      </trkpt>
      <trkpt lat="47.16445" lon="-1.47958">
        <ele>6.29</ele>
        <time>2020-01-19T13:38:42Z</time>
      </trkpt>
      <trkpt lat="47.16442" lon="-1.47941">
        <ele>6.17</ele>
        <time>2020-01-19T13:38:44Z</time>
      </trkpt>
      <trkpt lat="47.16439" lon="-1.47925">
        <ele>5.95</ele>
        <time>2020-01-19T13:38:46Z</time>
      </trkpt>
      <trkpt lat="47.16436" lon="-1.47909">
        <ele>6.5</ele>
        <time>2020-01-19T13:38:48Z</time>
      </trkpt>
      <trkpt lat="47.16433" lon="-1.47893">
        <ele>7.09</ele>
        <time>2020-01-19T13:38:50Z</time>
      </trkpt>
      <trkpt lat="47.1643" lon="-1.47874">
        <ele>6.67</ele>
        <time>2020-01-19T13:38:53Z</time>
      </trkpt>
      <trkpt lat="47.16427" lon="-1.47858">
        <ele>6.62</ele>
        <time>2020-01-19T13:38:55Z</time>
      </trkpt>
      <trkpt lat="47.16424" lon="-1.47843">
        <ele>6.63</ele>
        <time>2020-01-19T13:38:57Z</time>
      </trkpt>
      <trkpt lat="47.16421" lon="-1.47826">
        <ele>7.7</ele>
        <time>2020-01-19T13:38:59Z</time>
      </trkpt>
      <trkpt lat="47.16418" lon="-1.47813">
        <ele>8.63</ele>
        <time>2020-01-19T13:39:01Z</time>
      </trkpt>
      <trkpt lat="47.16415" lon="-1.47798">
        <ele>8.14</ele>
        <time>2020-01-19T13:39:03Z</time>
      </trkpt>
      <trkpt lat="47.16411" lon="-1.47783">
        <ele>8.24</ele>
        <time>2020-01-19T13:39:05Z</time>
      </trkpt>
      <trkpt lat="47.16409" lon="-1.4777">
        <ele>9.12</ele>
        <time>2020-01-19T13:39:07Z</time>
      </trkpt>
      <trkpt lat="47.16406" lon="-1.4775">
        <ele>9.53</ele>
        <time>2020-01-19T13:39:10Z</time>
      </trkpt>
      <trkpt lat="47.16403" lon="-1.47737">
        <ele>8.59</ele>
        <time>2020-01-19T13:39:12Z</time>
      </trkpt>
      <trkpt lat="47.164" lon="-1.4772">
        <ele>7.97</ele>
        <time>2020-01-19T13:39:14Z</time>
      </trkpt>
      <trkpt lat="47.16395" lon="-1.47699">
        <ele>8.94</ele>
        <time>2020-01-19T13:39:17Z</time>
      </trkpt>
      <trkpt lat="47.16391" lon="-1.47681">
        <ele>9.15</ele>
        <time>2020-01-19T13:39:19Z</time>
      </trkpt>
      <trkpt lat="47.16386" lon="-1.47663">
        <ele>9.77</ele>
        <time>2020-01-19T13:39:22Z</time>
      </trkpt>
      <trkpt lat="47.16383" lon="-1.47649">
        <ele>9.28</ele>
        <time>2020-01-19T13:39:24Z</time>
      </trkpt>
      <trkpt lat="47.16381" lon="-1.47635">
        <ele>8.97</ele>
        <time>2020-01-19T13:39:26Z</time>
      </trkpt>
      <trkpt lat="47.16378" lon="-1.47621">
        <ele>7.15</ele>
        <time>2020-01-19T13:39:28Z</time>
      </trkpt>
      <trkpt lat="47.16376" lon="-1.47608">
        <ele>7.73</ele>
        <time>2020-01-19T13:39:30Z</time>
      </trkpt>
      <trkpt lat="47.16372" lon="-1.4759">
        <ele>10.83</ele>
        <time>2020-01-19T13:39:33Z</time>
      </trkpt>
      <trkpt lat="47.16368" lon="-1.47574">
        <ele>11.98</ele>
        <time>2020-01-19T13:39:35Z</time>
      </trkpt>
      <trkpt lat="47.16364" lon="-1.47557">
        <ele>12.94</ele>
        <time>2020-01-19T13:39:37Z</time>
      </trkpt>
      <trkpt lat="47.1636" lon="-1.47545">
        <ele>13.26</ele>
        <time>2020-01-19T13:39:39Z</time>
      </trkpt>
      <trkpt lat="47.16357" lon="-1.47532">
        <ele>13.46</ele>
        <time>2020-01-19T13:39:41Z</time>
      </trkpt>
      <trkpt lat="47.16353" lon="-1.47516">
        <ele>14.02</ele>
        <time>2020-01-19T13:39:43Z</time>
      </trkpt>
      <trkpt lat="47.16349" lon="-1.47503">
        <ele>13.29</ele>
        <time>2020-01-19T13:39:45Z</time>
      </trkpt>
      <trkpt lat="47.16344" lon="-1.47489">
        <ele>12.96</ele>
        <time>2020-01-19T13:39:47Z</time>
      </trkpt>
      <trkpt lat="47.1634" lon="-1.47475">
        <ele>12.43</ele>
        <time>2020-01-19T13:39:49Z</time>
      </trkpt>
      <trkpt lat="47.16336" lon="-1.47459">
        <ele>11.14</ele>
        <time>2020-01-19T13:39:51Z</time>
      </trkpt>
      <trkpt lat="47.1633" lon="-1.47441">
        <ele>8.99</ele>
        <time>2020-01-19T13:39:54Z</time>
      </trkpt>
      <trkpt lat="47.16327" lon="-1.47426">
        <ele>8.43</ele>
        <time>2020-01-19T13:39:56Z</time>
      </trkpt>
      <trkpt lat="47.16324" lon="-1.47412">
        <ele>9.05</ele>
        <time>2020-01-19T13:39:58Z</time>
      </trkpt>
      <trkpt lat="47.16321" lon="-1.47395">
        <ele>9.27</ele>
        <time>2020-01-19T13:40:00Z</time>
      </trkpt>
      <trkpt lat="47.16319" lon="-1.47376">
        <ele>11.09</ele>
        <time>2020-01-19T13:40:03Z</time>
      </trkpt>
      <trkpt lat="47.16318" lon="-1.47361">
        <ele>11.38</ele>
        <time>2020-01-19T13:40:05Z</time>
      </trkpt>
      <trkpt lat="47.16316" lon="-1.47348">
        <ele>11.29</ele>
        <time>2020-01-19T13:40:07Z</time>
      </trkpt>
      <trkpt lat="47.16317" lon="-1.47333">
        <ele>12.22</ele>
        <time>2020-01-19T13:40:09Z</time>
      </trkpt>
      <trkpt lat="47.16319" lon="-1.47319">
        <ele>13.05</ele>
        <time>2020-01-19T13:40:11Z</time>
      </trkpt>
      <trkpt lat="47.16317" lon="-1.473">
        <ele>12.95</ele>
        <time>2020-01-19T13:40:14Z</time>
      </trkpt>
      <trkpt lat="47.16313" lon="-1.47287">
        <ele>12.98</ele>
        <time>2020-01-19T13:40:16Z</time>
      </trkpt>
      <trkpt lat="47.1631" lon="-1.47274">
        <ele>12</ele>
        <time>2020-01-19T13:40:18Z</time>
      </trkpt>
      <trkpt lat="47.16305" lon="-1.47261">
        <ele>11.8</ele>
        <time>2020-01-19T13:40:20Z</time>
      </trkpt>
      <trkpt lat="47.163" lon="-1.47245">
        <ele>11.46</ele>
        <time>2020-01-19T13:40:23Z</time>
      </trkpt>
      <trkpt lat="47.16296" lon="-1.47233">
        <ele>10.25</ele>
        <time>2020-01-19T13:40:25Z</time>
      </trkpt>
      <trkpt lat="47.1629" lon="-1.47215">
        <ele>11.34</ele>
        <time>2020-01-19T13:40:28Z</time>
      </trkpt>
      <trkpt lat="47.16286" lon="-1.47203">
        <ele>12.04</ele>
        <time>2020-01-19T13:40:30Z</time>
      </trkpt>
      <trkpt lat="47.16282" lon="-1.4719">
        <ele>12.35</ele>
        <time>2020-01-19T13:40:33Z</time>
      </trkpt>
      <trkpt lat="47.16276" lon="-1.47173">
        <ele>12.27</ele>
        <time>2020-01-19T13:40:36Z</time>
      </trkpt>
      <trkpt lat="47.16271" lon="-1.47158">
        <ele>12.38</ele>
        <time>2020-01-19T13:40:39Z</time>
      </trkpt>
      <trkpt lat="47.16268" lon="-1.4714">
        <ele>12.75</ele>
        <time>2020-01-19T13:40:42Z</time>
      </trkpt>
      <trkpt lat="47.16264" lon="-1.47124">
        <ele>12.68</ele>
        <time>2020-01-19T13:40:45Z</time>
      </trkpt>
      <trkpt lat="47.16261" lon="-1.47108">
        <ele>12.54</ele>
        <time>2020-01-19T13:40:48Z</time>
      </trkpt>
      <trkpt lat="47.16259" lon="-1.4709">
        <ele>14.53</ele>
        <time>2020-01-19T13:40:51Z</time>
      </trkpt>
      <trkpt lat="47.16258" lon="-1.47073">
        <ele>17.38</ele>
        <time>2020-01-19T13:40:54Z</time>
      </trkpt>
      <trkpt lat="47.16256" lon="-1.47057">
        <ele>16.99</ele>
        <time>2020-01-19T13:40:57Z</time>
      </trkpt>
      <trkpt lat="47.16255" lon="-1.47043">
        <ele>17.7</ele>
        <time>2020-01-19T13:40:59Z</time>
      </trkpt>
      <trkpt lat="47.16253" lon="-1.47027">
        <ele>17.71</ele>
        <time>2020-01-19T13:41:02Z</time>
      </trkpt>
      <trkpt lat="47.16252" lon="-1.47014">
        <ele>18.62</ele>
        <time>2020-01-19T13:41:04Z</time>
      </trkpt>
      <trkpt lat="47.16252" lon="-1.46997">
        <ele>19.59</ele>
        <time>2020-01-19T13:41:07Z</time>
      </trkpt>
      <trkpt lat="47.16252" lon="-1.4698">
        <ele>20.05</ele>
        <time>2020-01-19T13:41:10Z</time>
      </trkpt>
      <trkpt lat="47.16253" lon="-1.46962">
        <ele>20.66</ele>
        <time>2020-01-19T13:41:13Z</time>
      </trkpt>
      <trkpt lat="47.16254" lon="-1.46943">
        <ele>20.26</ele>
        <time>2020-01-19T13:41:16Z</time>
      </trkpt>
      <trkpt lat="47.16255" lon="-1.46929">
        <ele>19.22</ele>
        <time>2020-01-19T13:41:19Z</time>
      </trkpt>
      <trkpt lat="47.16255" lon="-1.46916">
        <ele>20.07</ele>
        <time>2020-01-19T13:41:21Z</time>
      </trkpt>
      <trkpt lat="47.16256" lon="-1.46899">
        <ele>21.92</ele>
        <time>2020-01-19T13:41:24Z</time>
      </trkpt>
      <trkpt lat="47.16256" lon="-1.46883">
        <ele>22.29</ele>
        <time>2020-01-19T13:41:27Z</time>
      </trkpt>
      <trkpt lat="47.16256" lon="-1.46865">
        <ele>21.85</ele>
        <time>2020-01-19T13:41:30Z</time>
      </trkpt>
      <trkpt lat="47.16256" lon="-1.46852">
        <ele>21.6</ele>
        <time>2020-01-19T13:41:32Z</time>
      </trkpt>
      <trkpt lat="47.16255" lon="-1.46837">
        <ele>21.6</ele>
        <time>2020-01-19T13:41:35Z</time>
      </trkpt>
      <trkpt lat="47.1625" lon="-1.4682">
        <ele>23.2</ele>
        <time>2020-01-19T13:41:38Z</time>
      </trkpt>
      <trkpt lat="47.16253" lon="-1.46802">
        <ele>24.11</ele>
        <time>2020-01-19T13:41:41Z</time>
      </trkpt>
      <trkpt lat="47.1626" lon="-1.46787">
        <ele>24.39</ele>
        <time>2020-01-19T13:41:44Z</time>
      </trkpt>
      <trkpt lat="47.16265" lon="-1.46769">
        <ele>24.57</ele>
        <time>2020-01-19T13:41:47Z</time>
      </trkpt>
      <trkpt lat="47.16268" lon="-1.46754">
        <ele>25.79</ele>
        <time>2020-01-19T13:41:50Z</time>
      </trkpt>
      <trkpt lat="47.16269" lon="-1.46741">
        <ele>25.92</ele>
        <time>2020-01-19T13:41:52Z</time>
      </trkpt>
      <trkpt lat="47.1627" lon="-1.46728">
        <ele>25.6</ele>
        <time>2020-01-19T13:41:54Z</time>
      </trkpt>
      <trkpt lat="47.16272" lon="-1.46715">
        <ele>25.41</ele>
        <time>2020-01-19T13:41:56Z</time>
      </trkpt>
      <trkpt lat="47.16273" lon="-1.46699">
        <ele>23.35</ele>
        <time>2020-01-19T13:41:59Z</time>
      </trkpt>
      <trkpt lat="47.16275" lon="-1.46685">
        <ele>23.57</ele>
        <time>2020-01-19T13:42:01Z</time>
      </trkpt>
      <trkpt lat="47.16276" lon="-1.46668">
        <ele>23.91</ele>
        <time>2020-01-19T13:42:04Z</time>
      </trkpt>
      <trkpt lat="47.16277" lon="-1.4665">
        <ele>23.41</ele>
        <time>2020-01-19T13:42:07Z</time>
      </trkpt>
      <trkpt lat="47.16278" lon="-1.46635">
        <ele>23.14</ele>
        <time>2020-01-19T13:42:10Z</time>
      </trkpt>
      <trkpt lat="47.16279" lon="-1.46619">
        <ele>23.28</ele>
        <time>2020-01-19T13:42:13Z</time>
      </trkpt>
      <trkpt lat="47.1628" lon="-1.46605">
        <ele>24.54</ele>
        <time>2020-01-19T13:42:15Z</time>
      </trkpt>
      <trkpt lat="47.16281" lon="-1.46588">
        <ele>24.8</ele>
        <time>2020-01-19T13:42:18Z</time>
      </trkpt>
      <trkpt lat="47.16282" lon="-1.4657">
        <ele>25.28</ele>
        <time>2020-01-19T13:42:21Z</time>
      </trkpt>
      <trkpt lat="47.16285" lon="-1.46555">
        <ele>25.99</ele>
        <time>2020-01-19T13:42:24Z</time>
      </trkpt>
      <trkpt lat="47.16287" lon="-1.46535">
        <ele>26.52</ele>
        <time>2020-01-19T13:42:27Z</time>
      </trkpt>
      <trkpt lat="47.16289" lon="-1.46516">
        <ele>27.23</ele>
        <time>2020-01-19T13:42:30Z</time>
      </trkpt>
      <trkpt lat="47.16291" lon="-1.46499">
        <ele>29.32</ele>
        <time>2020-01-19T13:42:33Z</time>
      </trkpt>
      <trkpt lat="47.16294" lon="-1.46484">
        <ele>30.09</ele>
        <time>2020-01-19T13:42:36Z</time>
      </trkpt>
      <trkpt lat="47.16296" lon="-1.46466">
        <ele>31.28</ele>
        <time>2020-01-19T13:42:39Z</time>
      </trkpt>
      <trkpt lat="47.163" lon="-1.46449">
        <ele>30.76</ele>
        <time>2020-01-19T13:42:42Z</time>
      </trkpt>
      <trkpt lat="47.16303" lon="-1.46436">
        <ele>30.98</ele>
        <time>2020-01-19T13:42:44Z</time>
      </trkpt>
      <trkpt lat="47.16306" lon="-1.46422">
        <ele>30.6</ele>
        <time>2020-01-19T13:42:47Z</time>
      </trkpt>
      <trkpt lat="47.1631" lon="-1.46405">
        <ele>31.77</ele>
        <time>2020-01-19T13:42:50Z</time>
      </trkpt>
      <trkpt lat="47.16315" lon="-1.46388">
        <ele>33.72</ele>
        <time>2020-01-19T13:42:53Z</time>
      </trkpt>
      <trkpt lat="47.1632" lon="-1.4637">
        <ele>35.84</ele>
        <time>2020-01-19T13:42:56Z</time>
      </trkpt>
      <trkpt lat="47.16326" lon="-1.46355">
        <ele>36.36</ele>
        <time>2020-01-19T13:42:59Z</time>
      </trkpt>
      <trkpt lat="47.16331" lon="-1.46341">
        <ele>36.5</ele>
        <time>2020-01-19T13:43:01Z</time>
      </trkpt>
      <trkpt lat="47.16337" lon="-1.46326">
        <ele>36.3</ele>
        <time>2020-01-19T13:43:04Z</time>
      </trkpt>
      <trkpt lat="47.16343" lon="-1.46308">
        <ele>34.88</ele>
        <time>2020-01-19T13:43:07Z</time>
      </trkpt>
      <trkpt lat="47.16347" lon="-1.46296">
        <ele>33.84</ele>
        <time>2020-01-19T13:43:09Z</time>
      </trkpt>
      <trkpt lat="47.16354" lon="-1.46283">
        <ele>34.74</ele>
        <time>2020-01-19T13:43:12Z</time>
      </trkpt>
      <trkpt lat="47.1636" lon="-1.46272">
        <ele>35.89</ele>
        <time>2020-01-19T13:43:14Z</time>
      </trkpt>
      <trkpt lat="47.16366" lon="-1.46261">
        <ele>36.65</ele>
        <time>2020-01-19T13:43:16Z</time>
      </trkpt>
      <trkpt lat="47.16372" lon="-1.46251">
        <ele>36.68</ele>
        <time>2020-01-19T13:43:18Z</time>
      </trkpt>
      <trkpt lat="47.16378" lon="-1.4624">
        <ele>36.52</ele>
        <time>2020-01-19T13:43:20Z</time>
      </trkpt>
      <trkpt lat="47.16388" lon="-1.46226">
        <ele>37.03</ele>
        <time>2020-01-19T13:43:23Z</time>
      </trkpt>
      <trkpt lat="47.16397" lon="-1.46213">
        <ele>34.2</ele>
        <time>2020-01-19T13:43:26Z</time>
      </trkpt>
      <trkpt lat="47.16404" lon="-1.46205">
        <ele>33.86</ele>
        <time>2020-01-19T13:43:28Z</time>
      </trkpt>
      <trkpt lat="47.16412" lon="-1.46195">
        <ele>34.42</ele>
        <time>2020-01-19T13:43:30Z</time>
      </trkpt>
      <trkpt lat="47.1642" lon="-1.46186">
        <ele>34.42</ele>
        <time>2020-01-19T13:43:32Z</time>
      </trkpt>
      <trkpt lat="47.1643" lon="-1.46175">
        <ele>33.21</ele>
        <time>2020-01-19T13:43:35Z</time>
      </trkpt>
      <trkpt lat="47.16441" lon="-1.46163">
        <ele>33.05</ele>
        <time>2020-01-19T13:43:38Z</time>
      </trkpt>
      <trkpt lat="47.16449" lon="-1.46155">
        <ele>33.9</ele>
        <time>2020-01-19T13:43:40Z</time>
      </trkpt>
      <trkpt lat="47.16456" lon="-1.46144">
        <ele>34.55</ele>
        <time>2020-01-19T13:43:42Z</time>
      </trkpt>
      <trkpt lat="47.16463" lon="-1.46135">
        <ele>35.34</ele>
        <time>2020-01-19T13:43:44Z</time>
      </trkpt>
      <trkpt lat="47.16473" lon="-1.46123">
        <ele>37.78</ele>
        <time>2020-01-19T13:43:47Z</time>
      </trkpt>
      <trkpt lat="47.16483" lon="-1.46112">
        <ele>38.14</ele>
        <time>2020-01-19T13:43:50Z</time>
      </trkpt>
      <trkpt lat="47.1649" lon="-1.46102">
        <ele>37.34</ele>
        <time>2020-01-19T13:43:53Z</time>
      </trkpt>
      <trkpt lat="47.165" lon="-1.4609">
        <ele>36.9</ele>
        <time>2020-01-19T13:43:56Z</time>
      </trkpt>
      <trkpt lat="47.16505" lon="-1.46078">
        <ele>35.65</ele>
        <time>2020-01-19T13:43:58Z</time>
      </trkpt>
      <trkpt lat="47.16507" lon="-1.46063">
        <ele>34.88</ele>
        <time>2020-01-19T13:44:00Z</time>
      </trkpt>
      <trkpt lat="47.16509" lon="-1.46049">
        <ele>34.62</ele>
        <time>2020-01-19T13:44:03Z</time>
      </trkpt>
      <trkpt lat="47.1651" lon="-1.46028">
        <ele>35.35</ele>
        <time>2020-01-19T13:44:06Z</time>
      </trkpt>
      <trkpt lat="47.16506" lon="-1.46014">
        <ele>35.32</ele>
        <time>2020-01-19T13:44:08Z</time>
      </trkpt>
      <trkpt lat="47.16502" lon="-1.45999">
        <ele>35.29</ele>
        <time>2020-01-19T13:44:10Z</time>
      </trkpt>
      <trkpt lat="47.16498" lon="-1.45987">
        <ele>34.2</ele>
        <time>2020-01-19T13:44:12Z</time>
      </trkpt>
      <trkpt lat="47.16493" lon="-1.45971">
        <ele>33.48</ele>
        <time>2020-01-19T13:44:14Z</time>
      </trkpt>
      <trkpt lat="47.16488" lon="-1.45952">
        <ele>32.52</ele>
        <time>2020-01-19T13:44:16Z</time>
      </trkpt>
      <trkpt lat="47.16483" lon="-1.45936">
        <ele>31.43</ele>
        <time>2020-01-19T13:44:18Z</time>
      </trkpt>
      <trkpt lat="47.16477" lon="-1.45917">
        <ele>30.59</ele>
        <time>2020-01-19T13:44:20Z</time>
      </trkpt>
      <trkpt lat="47.16472" lon="-1.45902">
        <ele>29.55</ele>
        <time>2020-01-19T13:44:22Z</time>
      </trkpt>
      <trkpt lat="47.16467" lon="-1.45885">
        <ele>28.82</ele>
        <time>2020-01-19T13:44:24Z</time>
      </trkpt>
      <trkpt lat="47.16462" lon="-1.45869">
        <ele>29.35</ele>
        <time>2020-01-19T13:44:26Z</time>
      </trkpt>
      <trkpt lat="47.16455" lon="-1.45849">
        <ele>30.37</ele>
        <time>2020-01-19T13:44:28Z</time>
      </trkpt>
      <trkpt lat="47.16451" lon="-1.4583">
        <ele>30.88</ele>
        <time>2020-01-19T13:44:30Z</time>
      </trkpt>
      <trkpt lat="47.16446" lon="-1.45812">
        <ele>31.72</ele>
        <time>2020-01-19T13:44:32Z</time>
      </trkpt>
      <trkpt lat="47.16442" lon="-1.45795">
        <ele>32.62</ele>
        <time>2020-01-19T13:44:34Z</time>
      </trkpt>
      <trkpt lat="47.16438" lon="-1.45777">
        <ele>32.93</ele>
        <time>2020-01-19T13:44:36Z</time>
      </trkpt>
      <trkpt lat="47.16434" lon="-1.45758">
        <ele>32.38</ele>
        <time>2020-01-19T13:44:38Z</time>
      </trkpt>
      <trkpt lat="47.16431" lon="-1.45742">
        <ele>31.85</ele>
        <time>2020-01-19T13:44:40Z</time>
      </trkpt>
      <trkpt lat="47.16426" lon="-1.45721">
        <ele>31.54</ele>
        <time>2020-01-19T13:44:42Z</time>
      </trkpt>
      <trkpt lat="47.16423" lon="-1.45705">
        <ele>31.21</ele>
        <time>2020-01-19T13:44:44Z</time>
      </trkpt>
      <trkpt lat="47.16419" lon="-1.45688">
        <ele>30.79</ele>
        <time>2020-01-19T13:44:46Z</time>
      </trkpt>
      <trkpt lat="47.16415" lon="-1.45671">
        <ele>30.63</ele>
        <time>2020-01-19T13:44:48Z</time>
      </trkpt>
      <trkpt lat="47.16411" lon="-1.45655">
        <ele>29.99</ele>
        <time>2020-01-19T13:44:50Z</time>
      </trkpt>
      <trkpt lat="47.16407" lon="-1.45639">
        <ele>28.84</ele>
        <time>2020-01-19T13:44:52Z</time>
      </trkpt>
      <trkpt lat="47.16401" lon="-1.45624">
        <ele>28.41</ele>
        <time>2020-01-19T13:44:54Z</time>
      </trkpt>
      <trkpt lat="47.16395" lon="-1.45608">
        <ele>27.94</ele>
        <time>2020-01-19T13:44:56Z</time>
      </trkpt>
      <trkpt lat="47.16388" lon="-1.45593">
        <ele>28.01</ele>
        <time>2020-01-19T13:44:58Z</time>
      </trkpt>
      <trkpt lat="47.16382" lon="-1.45582">
        <ele>27.87</ele>
        <time>2020-01-19T13:45:00Z</time>
      </trkpt>
      <trkpt lat="47.16375" lon="-1.45567">
        <ele>29.28</ele>
        <time>2020-01-19T13:45:02Z</time>
      </trkpt>
      <trkpt lat="47.16367" lon="-1.45552">
        <ele>29.49</ele>
        <time>2020-01-19T13:45:04Z</time>
      </trkpt>
      <trkpt lat="47.16359" lon="-1.4554">
        <ele>29.69</ele>
        <time>2020-01-19T13:45:06Z</time>
      </trkpt>
      <trkpt lat="47.16352" lon="-1.45529">
        <ele>29.71</ele>
        <time>2020-01-19T13:45:08Z</time>
      </trkpt>
      <trkpt lat="47.16345" lon="-1.45519">
        <ele>27.9</ele>
        <time>2020-01-19T13:45:10Z</time>
      </trkpt>
      <trkpt lat="47.16338" lon="-1.45509">
        <ele>26.91</ele>
        <time>2020-01-19T13:45:12Z</time>
      </trkpt>
      <trkpt lat="47.1633" lon="-1.45497">
        <ele>26.63</ele>
        <time>2020-01-19T13:45:14Z</time>
      </trkpt>
      <trkpt lat="47.16324" lon="-1.45484">
        <ele>27.3</ele>
        <time>2020-01-19T13:45:16Z</time>
      </trkpt>
      <trkpt lat="47.16319" lon="-1.45471">
        <ele>27.01</ele>
        <time>2020-01-19T13:45:18Z</time>
      </trkpt>
      <trkpt lat="47.16312" lon="-1.45458">
        <ele>26.8</ele>
        <time>2020-01-19T13:45:20Z</time>
      </trkpt>
      <trkpt lat="47.16306" lon="-1.45443">
        <ele>27.22</ele>
        <time>2020-01-19T13:45:23Z</time>
      </trkpt>
      <trkpt lat="47.16298" lon="-1.45426">
        <ele>27.55</ele>
        <time>2020-01-19T13:45:26Z</time>
      </trkpt>
      <trkpt lat="47.16294" lon="-1.4541">
        <ele>27.51</ele>
        <time>2020-01-19T13:45:29Z</time>
      </trkpt>
      <trkpt lat="47.16289" lon="-1.45391">
        <ele>28.34</ele>
        <time>2020-01-19T13:45:32Z</time>
      </trkpt>
      <trkpt lat="47.16288" lon="-1.45374">
        <ele>30.45</ele>
        <time>2020-01-19T13:45:35Z</time>
      </trkpt>
      <trkpt lat="47.16286" lon="-1.45359">
        <ele>30.92</ele>
        <time>2020-01-19T13:45:38Z</time>
      </trkpt>
      <trkpt lat="47.16284" lon="-1.45342">
        <ele>31.7</ele>
        <time>2020-01-19T13:45:41Z</time>
      </trkpt>
      <trkpt lat="47.16282" lon="-1.45327">
        <ele>33.49</ele>
        <time>2020-01-19T13:45:44Z</time>
      </trkpt>
      <trkpt lat="47.16276" lon="-1.45312">
        <ele>34.8</ele>
        <time>2020-01-19T13:45:47Z</time>
      </trkpt>
      <trkpt lat="47.16272" lon="-1.45299">
        <ele>36.22</ele>
        <time>2020-01-19T13:45:49Z</time>
      </trkpt>
      <trkpt lat="47.16267" lon="-1.45284">
        <ele>36.88</ele>
        <time>2020-01-19T13:45:52Z</time>
      </trkpt>
      <trkpt lat="47.16263" lon="-1.45268">
        <ele>37.01</ele>
        <time>2020-01-19T13:45:55Z</time>
      </trkpt>
      <trkpt lat="47.16258" lon="-1.45252">
        <ele>36.5</ele>
        <time>2020-01-19T13:45:58Z</time>
      </trkpt>
      <trkpt lat="47.16254" lon="-1.45237">
        <ele>37.43</ele>
        <time>2020-01-19T13:46:01Z</time>
      </trkpt>
      <trkpt lat="47.1625" lon="-1.45222">
        <ele>37.5</ele>
        <time>2020-01-19T13:46:04Z</time>
      </trkpt>
      <trkpt lat="47.16251" lon="-1.45205">
        <ele>37.22</ele>
        <time>2020-01-19T13:46:07Z</time>
      </trkpt>
      <trkpt lat="47.16251" lon="-1.45187">
        <ele>36.7</ele>
        <time>2020-01-19T13:46:10Z</time>
      </trkpt>
      <trkpt lat="47.1625" lon="-1.45171">
        <ele>36.33</ele>
        <time>2020-01-19T13:46:13Z</time>
      </trkpt>
      <trkpt lat="47.16251" lon="-1.45156">
        <ele>36.17</ele>
        <time>2020-01-19T13:46:15Z</time>
      </trkpt>
      <trkpt lat="47.1625" lon="-1.45138">
        <ele>36.08</ele>
        <time>2020-01-19T13:46:18Z</time>
      </trkpt>
      <trkpt lat="47.1625" lon="-1.45125">
        <ele>36</ele>
        <time>2020-01-19T13:46:20Z</time>
      </trkpt>
      <trkpt lat="47.16249" lon="-1.45112">
        <ele>36.11</ele>
        <time>2020-01-19T13:46:22Z</time>
      </trkpt>
      <trkpt lat="47.16249" lon="-1.45098">
        <ele>36.49</ele>
        <time>2020-01-19T13:46:24Z</time>
      </trkpt>
      <trkpt lat="47.16248" lon="-1.45084">
        <ele>36.5</ele>
        <time>2020-01-19T13:46:26Z</time>
      </trkpt>
      <trkpt lat="47.16248" lon="-1.45068">
        <ele>36.07</ele>
        <time>2020-01-19T13:46:28Z</time>
      </trkpt>
      <trkpt lat="47.16247" lon="-1.45054">
        <ele>35.86</ele>
        <time>2020-01-19T13:46:30Z</time>
      </trkpt>
      <trkpt lat="47.16247" lon="-1.45037">
        <ele>35.92</ele>
        <time>2020-01-19T13:46:32Z</time>
      </trkpt>
      <trkpt lat="47.16247" lon="-1.45024">
        <ele>35.95</ele>
        <time>2020-01-19T13:46:34Z</time>
      </trkpt>
      <trkpt lat="47.16247" lon="-1.45004">
        <ele>35.12</ele>
        <time>2020-01-19T13:46:37Z</time>
      </trkpt>
      <trkpt lat="47.16246" lon="-1.44988">
        <ele>35.57</ele>
        <time>2020-01-19T13:46:39Z</time>
      </trkpt>
      <trkpt lat="47.16246" lon="-1.44973">
        <ele>34.75</ele>
        <time>2020-01-19T13:46:41Z</time>
      </trkpt>
      <trkpt lat="47.16245" lon="-1.44959">
        <ele>33.87</ele>
        <time>2020-01-19T13:46:43Z</time>
      </trkpt>
      <trkpt lat="47.16245" lon="-1.44941">
        <ele>33.56</ele>
        <time>2020-01-19T13:46:45Z</time>
      </trkpt>
      <trkpt lat="47.16245" lon="-1.44927">
        <ele>33.59</ele>
        <time>2020-01-19T13:46:47Z</time>
      </trkpt>
      <trkpt lat="47.16244" lon="-1.44911">
        <ele>34.39</ele>
        <time>2020-01-19T13:46:49Z</time>
      </trkpt>
      <trkpt lat="47.16244" lon="-1.44894">
        <ele>35.02</ele>
        <time>2020-01-19T13:46:51Z</time>
      </trkpt>
      <trkpt lat="47.16244" lon="-1.44878">
        <ele>34.85</ele>
        <time>2020-01-19T13:46:53Z</time>
      </trkpt>
      <trkpt lat="47.16242" lon="-1.44863">
        <ele>34.99</ele>
        <time>2020-01-19T13:46:55Z</time>
      </trkpt>
      <trkpt lat="47.16241" lon="-1.44845">
        <ele>35.69</ele>
        <time>2020-01-19T13:46:57Z</time>
      </trkpt>
      <trkpt lat="47.16241" lon="-1.44828">
        <ele>36.29</ele>
        <time>2020-01-19T13:46:59Z</time>
      </trkpt>
      <trkpt lat="47.16241" lon="-1.44814">
        <ele>36.09</ele>
        <time>2020-01-19T13:47:01Z</time>
      </trkpt>
      <trkpt lat="47.1624" lon="-1.44796">
        <ele>33.72</ele>
        <time>2020-01-19T13:47:04Z</time>
      </trkpt>
      <trkpt lat="47.16239" lon="-1.44779">
        <ele>33.39</ele>
        <time>2020-01-19T13:47:06Z</time>
      </trkpt>
      <trkpt lat="47.16239" lon="-1.44762">
        <ele>33.53</ele>
        <time>2020-01-19T13:47:08Z</time>
      </trkpt>
      <trkpt lat="47.16238" lon="-1.44743">
        <ele>32.99</ele>
        <time>2020-01-19T13:47:11Z</time>
      </trkpt>
      <trkpt lat="47.16237" lon="-1.44727">
        <ele>33.39</ele>
        <time>2020-01-19T13:47:13Z</time>
      </trkpt>
      <trkpt lat="47.16237" lon="-1.44712">
        <ele>33.42</ele>
        <time>2020-01-19T13:47:15Z</time>
      </trkpt>
      <trkpt lat="47.16237" lon="-1.44694">
        <ele>34.31</ele>
        <time>2020-01-19T13:47:18Z</time>
      </trkpt>
      <trkpt lat="47.16236" lon="-1.44678">
        <ele>34.52</ele>
        <time>2020-01-19T13:47:20Z</time>
      </trkpt>
      <trkpt lat="47.16235" lon="-1.44664">
        <ele>33.78</ele>
        <time>2020-01-19T13:47:22Z</time>
      </trkpt>
      <trkpt lat="47.16234" lon="-1.44642">
        <ele>33.28</ele>
        <time>2020-01-19T13:47:25Z</time>
      </trkpt>
      <trkpt lat="47.16234" lon="-1.44628">
        <ele>32.34</ele>
        <time>2020-01-19T13:47:27Z</time>
      </trkpt>
      <trkpt lat="47.16234" lon="-1.44613">
        <ele>31.75</ele>
        <time>2020-01-19T13:47:29Z</time>
      </trkpt>
      <trkpt lat="47.16234" lon="-1.44598">
        <ele>31.63</ele>
        <time>2020-01-19T13:47:31Z</time>
      </trkpt>
      <trkpt lat="47.16234" lon="-1.44583">
        <ele>32.14</ele>
        <time>2020-01-19T13:47:33Z</time>
      </trkpt>
      <trkpt lat="47.16234" lon="-1.44565">
        <ele>32.59</ele>
        <time>2020-01-19T13:47:36Z</time>
      </trkpt>
      <trkpt lat="47.16232" lon="-1.44546">
        <ele>32.75</ele>
        <time>2020-01-19T13:47:39Z</time>
      </trkpt>
      <trkpt lat="47.16231" lon="-1.44527">
        <ele>33.88</ele>
        <time>2020-01-19T13:47:42Z</time>
      </trkpt>
      <trkpt lat="47.16231" lon="-1.4451">
        <ele>34.18</ele>
        <time>2020-01-19T13:47:44Z</time>
      </trkpt>
      <trkpt lat="47.16231" lon="-1.44492">
        <ele>33.22</ele>
        <time>2020-01-19T13:47:47Z</time>
      </trkpt>
      <trkpt lat="47.16231" lon="-1.44477">
        <ele>33.54</ele>
        <time>2020-01-19T13:47:49Z</time>
      </trkpt>
      <trkpt lat="47.1623" lon="-1.44463">
        <ele>33.89</ele>
        <time>2020-01-19T13:47:51Z</time>
      </trkpt>
      <trkpt lat="47.16229" lon="-1.44445">
        <ele>34.25</ele>
        <time>2020-01-19T13:47:53Z</time>
      </trkpt>
      <trkpt lat="47.16228" lon="-1.44424">
        <ele>34.5</ele>
        <time>2020-01-19T13:47:56Z</time>
      </trkpt>
      <trkpt lat="47.16228" lon="-1.44405">
        <ele>33.4</ele>
        <time>2020-01-19T13:47:59Z</time>
      </trkpt>
      <trkpt lat="47.16227" lon="-1.4439">
        <ele>32.92</ele>
        <time>2020-01-19T13:48:01Z</time>
      </trkpt>
      <trkpt lat="47.16227" lon="-1.44373">
        <ele>33.1</ele>
        <time>2020-01-19T13:48:03Z</time>
      </trkpt>
      <trkpt lat="47.16226" lon="-1.44358">
        <ele>34.38</ele>
        <time>2020-01-19T13:48:05Z</time>
      </trkpt>
      <trkpt lat="47.16226" lon="-1.44341">
        <ele>33.67</ele>
        <time>2020-01-19T13:48:07Z</time>
      </trkpt>
      <trkpt lat="47.16225" lon="-1.44327">
        <ele>33.36</ele>
        <time>2020-01-19T13:48:09Z</time>
      </trkpt>
      <trkpt lat="47.16224" lon="-1.44307">
        <ele>33.59</ele>
        <time>2020-01-19T13:48:12Z</time>
      </trkpt>
      <trkpt lat="47.16224" lon="-1.44291">
        <ele>33.78</ele>
        <time>2020-01-19T13:48:14Z</time>
      </trkpt>
      <trkpt lat="47.16224" lon="-1.44274">
        <ele>33.6</ele>
        <time>2020-01-19T13:48:16Z</time>
      </trkpt>
      <trkpt lat="47.16224" lon="-1.44257">
        <ele>32.39</ele>
        <time>2020-01-19T13:48:18Z</time>
      </trkpt>
      <trkpt lat="47.16224" lon="-1.44242">
        <ele>31.87</ele>
        <time>2020-01-19T13:48:20Z</time>
      </trkpt>
      <trkpt lat="47.16223" lon="-1.44228">
        <ele>31.73</ele>
        <time>2020-01-19T13:48:22Z</time>
      </trkpt>
      <trkpt lat="47.16222" lon="-1.44214">
        <ele>31.39</ele>
        <time>2020-01-19T13:48:24Z</time>
      </trkpt>
      <trkpt lat="47.16222" lon="-1.44199">
        <ele>31.54</ele>
        <time>2020-01-19T13:48:26Z</time>
      </trkpt>
      <trkpt lat="47.16221" lon="-1.44182">
        <ele>31.87</ele>
        <time>2020-01-19T13:48:28Z</time>
      </trkpt>
      <trkpt lat="47.1622" lon="-1.44168">
        <ele>31.48</ele>
        <time>2020-01-19T13:48:30Z</time>
      </trkpt>
      <trkpt lat="47.16219" lon="-1.44155">
        <ele>31.13</ele>
        <time>2020-01-19T13:48:32Z</time>
      </trkpt>
      <trkpt lat="47.16219" lon="-1.44139">
        <ele>30.97</ele>
        <time>2020-01-19T13:48:34Z</time>
      </trkpt>
      <trkpt lat="47.16219" lon="-1.44125">
        <ele>31.49</ele>
        <time>2020-01-19T13:48:36Z</time>
      </trkpt>
      <trkpt lat="47.16218" lon="-1.44112">
        <ele>31.93</ele>
        <time>2020-01-19T13:48:38Z</time>
      </trkpt>
      <trkpt lat="47.16218" lon="-1.44096">
        <ele>31.66</ele>
        <time>2020-01-19T13:48:40Z</time>
      </trkpt>
      <trkpt lat="47.16218" lon="-1.44079">
        <ele>32.4</ele>
        <time>2020-01-19T13:48:42Z</time>
      </trkpt>
      <trkpt lat="47.16217" lon="-1.44065">
        <ele>33.5</ele>
        <time>2020-01-19T13:48:44Z</time>
      </trkpt>
      <trkpt lat="47.16217" lon="-1.44051">
        <ele>33.37</ele>
        <time>2020-01-19T13:48:46Z</time>
      </trkpt>
      <trkpt lat="47.16217" lon="-1.44036">
        <ele>33.41</ele>
        <time>2020-01-19T13:48:48Z</time>
      </trkpt>
      <trkpt lat="47.16217" lon="-1.44023">
        <ele>33.46</ele>
        <time>2020-01-19T13:48:50Z</time>
      </trkpt>
      <trkpt lat="47.16216" lon="-1.44007">
        <ele>33.97</ele>
        <time>2020-01-19T13:48:52Z</time>
      </trkpt>
      <trkpt lat="47.16215" lon="-1.4399">
        <ele>34.17</ele>
        <time>2020-01-19T13:48:54Z</time>
      </trkpt>
      <trkpt lat="47.16215" lon="-1.43976">
        <ele>34.06</ele>
        <time>2020-01-19T13:48:56Z</time>
      </trkpt>
      <trkpt lat="47.16214" lon="-1.43961">
        <ele>33.35</ele>
        <time>2020-01-19T13:48:58Z</time>
      </trkpt>
      <trkpt lat="47.16214" lon="-1.43948">
        <ele>31.7</ele>
        <time>2020-01-19T13:49:00Z</time>
      </trkpt>
      <trkpt lat="47.16213" lon="-1.43931">
        <ele>32.12</ele>
        <time>2020-01-19T13:49:02Z</time>
      </trkpt>
      <trkpt lat="47.16212" lon="-1.43916">
        <ele>32.64</ele>
        <time>2020-01-19T13:49:04Z</time>
      </trkpt>
      <trkpt lat="47.16211" lon="-1.43901">
        <ele>32.92</ele>
        <time>2020-01-19T13:49:06Z</time>
      </trkpt>
      <trkpt lat="47.16211" lon="-1.43879">
        <ele>33.53</ele>
        <time>2020-01-19T13:49:09Z</time>
      </trkpt>
      <trkpt lat="47.16211" lon="-1.43862">
        <ele>33.08</ele>
        <time>2020-01-19T13:49:11Z</time>
      </trkpt>
      <trkpt lat="47.16211" lon="-1.43848">
        <ele>33.66</ele>
        <time>2020-01-19T13:49:13Z</time>
      </trkpt>
      <trkpt lat="47.1621" lon="-1.43829">
        <ele>33.55</ele>
        <time>2020-01-19T13:49:16Z</time>
      </trkpt>
      <trkpt lat="47.16209" lon="-1.43812">
        <ele>34.35</ele>
        <time>2020-01-19T13:49:18Z</time>
      </trkpt>
      <trkpt lat="47.16209" lon="-1.43799">
        <ele>35.28</ele>
        <time>2020-01-19T13:49:20Z</time>
      </trkpt>
      <trkpt lat="47.16208" lon="-1.4378">
        <ele>35.14</ele>
        <time>2020-01-19T13:49:23Z</time>
      </trkpt>
      <trkpt lat="47.16208" lon="-1.4376">
        <ele>34.8</ele>
        <time>2020-01-19T13:49:26Z</time>
      </trkpt>
      <trkpt lat="47.16207" lon="-1.43745">
        <ele>34.84</ele>
        <time>2020-01-19T13:49:28Z</time>
      </trkpt>
      <trkpt lat="47.16207" lon="-1.43731">
        <ele>34.89</ele>
        <time>2020-01-19T13:49:30Z</time>
      </trkpt>
      <trkpt lat="47.16207" lon="-1.43715">
        <ele>33.49</ele>
        <time>2020-01-19T13:49:32Z</time>
      </trkpt>
      <trkpt lat="47.16206" lon="-1.43695">
        <ele>33.44</ele>
        <time>2020-01-19T13:49:35Z</time>
      </trkpt>
      <trkpt lat="47.16205" lon="-1.43681">
        <ele>33.86</ele>
        <time>2020-01-19T13:49:37Z</time>
      </trkpt>
      <trkpt lat="47.16204" lon="-1.43664">
        <ele>34.34</ele>
        <time>2020-01-19T13:49:39Z</time>
      </trkpt>
      <trkpt lat="47.16204" lon="-1.43648">
        <ele>35.01</ele>
        <time>2020-01-19T13:49:41Z</time>
      </trkpt>
      <trkpt lat="47.16204" lon="-1.43633">
        <ele>34.68</ele>
        <time>2020-01-19T13:49:43Z</time>
      </trkpt>
      <trkpt lat="47.16203" lon="-1.43614">
        <ele>33.71</ele>
        <time>2020-01-19T13:49:45Z</time>
      </trkpt>
      <trkpt lat="47.16203" lon="-1.43596">
        <ele>33.67</ele>
        <time>2020-01-19T13:49:47Z</time>
      </trkpt>
      <trkpt lat="47.16202" lon="-1.43578">
        <ele>34.6</ele>
        <time>2020-01-19T13:49:49Z</time>
      </trkpt>
      <trkpt lat="47.16202" lon="-1.43559">
        <ele>34.16</ele>
        <time>2020-01-19T13:49:51Z</time>
      </trkpt>
      <trkpt lat="47.16202" lon="-1.43537">
        <ele>33.52</ele>
        <time>2020-01-19T13:49:53Z</time>
      </trkpt>
      <trkpt lat="47.162" lon="-1.4352">
        <ele>32.48</ele>
        <time>2020-01-19T13:49:55Z</time>
      </trkpt>
      <trkpt lat="47.16198" lon="-1.435">
        <ele>31.52</ele>
        <time>2020-01-19T13:49:57Z</time>
      </trkpt>
      <trkpt lat="47.16196" lon="-1.43481">
        <ele>30.23</ele>
        <time>2020-01-19T13:49:59Z</time>
      </trkpt>
      <trkpt lat="47.16193" lon="-1.43458">
        <ele>28.85</ele>
        <time>2020-01-19T13:50:01Z</time>
      </trkpt>
      <trkpt lat="47.16189" lon="-1.43438">
        <ele>28.77</ele>
        <time>2020-01-19T13:50:03Z</time>
      </trkpt>
      <trkpt lat="47.16184" lon="-1.43418">
        <ele>28.39</ele>
        <time>2020-01-19T13:50:05Z</time>
      </trkpt>
      <trkpt lat="47.16179" lon="-1.43399">
        <ele>27.63</ele>
        <time>2020-01-19T13:50:07Z</time>
      </trkpt>
      <trkpt lat="47.16171" lon="-1.43377">
        <ele>26.66</ele>
        <time>2020-01-19T13:50:09Z</time>
      </trkpt>
      <trkpt lat="47.16163" lon="-1.43356">
        <ele>25.88</ele>
        <time>2020-01-19T13:50:11Z</time>
      </trkpt>
      <trkpt lat="47.16156" lon="-1.43337">
        <ele>25.32</ele>
        <time>2020-01-19T13:50:13Z</time>
      </trkpt>
      <trkpt lat="47.16147" lon="-1.43317">
        <ele>24.09</ele>
        <time>2020-01-19T13:50:15Z</time>
      </trkpt>
      <trkpt lat="47.16137" lon="-1.43297">
        <ele>23.28</ele>
        <time>2020-01-19T13:50:17Z</time>
      </trkpt>
      <trkpt lat="47.16128" lon="-1.43279">
        <ele>22.32</ele>
        <time>2020-01-19T13:50:19Z</time>
      </trkpt>
      <trkpt lat="47.1612" lon="-1.43261">
        <ele>21.78</ele>
        <time>2020-01-19T13:50:21Z</time>
      </trkpt>
      <trkpt lat="47.16115" lon="-1.43251">
        <ele>21.98</ele>
        <time>2020-01-19T13:50:22Z</time>
      </trkpt>
      <trkpt lat="47.16106" lon="-1.43232">
        <ele>21.93</ele>
        <time>2020-01-19T13:50:24Z</time>
      </trkpt>
      <trkpt lat="47.16097" lon="-1.43214">
        <ele>21.32</ele>
        <time>2020-01-19T13:50:26Z</time>
      </trkpt>
      <trkpt lat="47.16089" lon="-1.43195">
        <ele>21.03</ele>
        <time>2020-01-19T13:50:28Z</time>
      </trkpt>
      <trkpt lat="47.1608" lon="-1.43174">
        <ele>19.45</ele>
        <time>2020-01-19T13:50:30Z</time>
      </trkpt>
      <trkpt lat="47.16075" lon="-1.43162">
        <ele>18.54</ele>
        <time>2020-01-19T13:50:31Z</time>
      </trkpt>
      <trkpt lat="47.16067" lon="-1.43144">
        <ele>17.82</ele>
        <time>2020-01-19T13:50:33Z</time>
      </trkpt>
      <trkpt lat="47.16055" lon="-1.43125">
        <ele>17.09</ele>
        <time>2020-01-19T13:50:35Z</time>
      </trkpt>
      <trkpt lat="47.16048" lon="-1.43102">
        <ele>15.8</ele>
        <time>2020-01-19T13:50:37Z</time>
      </trkpt>
      <trkpt lat="47.16038" lon="-1.43081">
        <ele>14.34</ele>
        <time>2020-01-19T13:50:39Z</time>
      </trkpt>
      <trkpt lat="47.16027" lon="-1.43061">
        <ele>13.14</ele>
        <time>2020-01-19T13:50:41Z</time>
      </trkpt>
      <trkpt lat="47.16018" lon="-1.43039">
        <ele>12.23</ele>
        <time>2020-01-19T13:50:43Z</time>
      </trkpt>
      <trkpt lat="47.16008" lon="-1.43018">
        <ele>11.97</ele>
        <time>2020-01-19T13:50:45Z</time>
      </trkpt>
      <trkpt lat="47.16002" lon="-1.43006">
        <ele>11.81</ele>
        <time>2020-01-19T13:50:46Z</time>
      </trkpt>
      <trkpt lat="47.15993" lon="-1.42986">
        <ele>11.12</ele>
        <time>2020-01-19T13:50:48Z</time>
      </trkpt>
      <trkpt lat="47.15982" lon="-1.42966">
        <ele>10.91</ele>
        <time>2020-01-19T13:50:50Z</time>
      </trkpt>
      <trkpt lat="47.15977" lon="-1.42955">
        <ele>10.52</ele>
        <time>2020-01-19T13:50:51Z</time>
      </trkpt>
      <trkpt lat="47.15968" lon="-1.42934">
        <ele>10.43</ele>
        <time>2020-01-19T13:50:53Z</time>
      </trkpt>
      <trkpt lat="47.15959" lon="-1.42914">
        <ele>9.59</ele>
        <time>2020-01-19T13:50:55Z</time>
      </trkpt>
      <trkpt lat="47.15954" lon="-1.42903">
        <ele>10</ele>
        <time>2020-01-19T13:50:56Z</time>
      </trkpt>
      <trkpt lat="47.15948" lon="-1.4289">
        <ele>11.02</ele>
        <time>2020-01-19T13:50:58Z</time>
      </trkpt>
      <trkpt lat="47.1594" lon="-1.42872">
        <ele>12.55</ele>
        <time>2020-01-19T13:51:00Z</time>
      </trkpt>
      <trkpt lat="47.15932" lon="-1.42854">
        <ele>10.99</ele>
        <time>2020-01-19T13:51:03Z</time>
      </trkpt>
      <trkpt lat="47.15927" lon="-1.42842">
        <ele>10.83</ele>
        <time>2020-01-19T13:51:05Z</time>
      </trkpt>
      <trkpt lat="47.15922" lon="-1.4283">
        <ele>10.9</ele>
        <time>2020-01-19T13:51:07Z</time>
      </trkpt>
      <trkpt lat="47.15915" lon="-1.42813">
        <ele>9.56</ele>
        <time>2020-01-19T13:51:10Z</time>
      </trkpt>
      <trkpt lat="47.15909" lon="-1.42802">
        <ele>8.65</ele>
        <time>2020-01-19T13:51:12Z</time>
      </trkpt>
      <trkpt lat="47.15903" lon="-1.42788">
        <ele>8.3</ele>
        <time>2020-01-19T13:51:15Z</time>
      </trkpt>
      <trkpt lat="47.15896" lon="-1.42773">
        <ele>9.15</ele>
        <time>2020-01-19T13:51:18Z</time>
      </trkpt>
      <trkpt lat="47.15891" lon="-1.42761">
        <ele>9.74</ele>
        <time>2020-01-19T13:51:20Z</time>
      </trkpt>
      <trkpt lat="47.15884" lon="-1.42746">
        <ele>10.94</ele>
        <time>2020-01-19T13:51:23Z</time>
      </trkpt>
      <trkpt lat="47.15878" lon="-1.42733">
        <ele>12.34</ele>
        <time>2020-01-19T13:51:26Z</time>
      </trkpt>
      <trkpt lat="47.15872" lon="-1.4272">
        <ele>13.22</ele>
        <time>2020-01-19T13:51:29Z</time>
      </trkpt>
      <trkpt lat="47.15866" lon="-1.42706">
        <ele>13.99</ele>
        <time>2020-01-19T13:51:32Z</time>
      </trkpt>
      <trkpt lat="47.15859" lon="-1.42689">
        <ele>14.81</ele>
        <time>2020-01-19T13:51:35Z</time>
      </trkpt>
      <trkpt lat="47.15855" lon="-1.42677">
        <ele>14.96</ele>
        <time>2020-01-19T13:51:38Z</time>
      </trkpt>
      <trkpt lat="47.15849" lon="-1.4266">
        <ele>14.97</ele>
        <time>2020-01-19T13:51:41Z</time>
      </trkpt>
      <trkpt lat="47.15844" lon="-1.42647">
        <ele>14.85</ele>
        <time>2020-01-19T13:51:44Z</time>
      </trkpt>
      <trkpt lat="47.1584" lon="-1.4263">
        <ele>14.85</ele>
        <time>2020-01-19T13:51:47Z</time>
      </trkpt>
      <trkpt lat="47.15838" lon="-1.42615">
        <ele>15.02</ele>
        <time>2020-01-19T13:51:50Z</time>
      </trkpt>
      <trkpt lat="47.15835" lon="-1.426">
        <ele>15.13</ele>
        <time>2020-01-19T13:51:53Z</time>
      </trkpt>
      <trkpt lat="47.15833" lon="-1.42585">
        <ele>15.33</ele>
        <time>2020-01-19T13:51:56Z</time>
      </trkpt>
      <trkpt lat="47.15832" lon="-1.4257">
        <ele>15.59</ele>
        <time>2020-01-19T13:51:59Z</time>
      </trkpt>
      <trkpt lat="47.1583" lon="-1.42556">
        <ele>16.02</ele>
        <time>2020-01-19T13:52:02Z</time>
      </trkpt>
      <trkpt lat="47.15828" lon="-1.42542">
        <ele>16.39</ele>
        <time>2020-01-19T13:52:05Z</time>
      </trkpt>
      <trkpt lat="47.15827" lon="-1.42527">
        <ele>16.74</ele>
        <time>2020-01-19T13:52:08Z</time>
      </trkpt>
      <trkpt lat="47.15826" lon="-1.42511">
        <ele>17.06</ele>
        <time>2020-01-19T13:52:11Z</time>
      </trkpt>
      <trkpt lat="47.15826" lon="-1.42496">
        <ele>17.4</ele>
        <time>2020-01-19T13:52:14Z</time>
      </trkpt>
      <trkpt lat="47.15826" lon="-1.42479">
        <ele>17.77</ele>
        <time>2020-01-19T13:52:17Z</time>
      </trkpt>
      <trkpt lat="47.15826" lon="-1.42463">
        <ele>18.08</ele>
        <time>2020-01-19T13:52:20Z</time>
      </trkpt>
      <trkpt lat="47.15826" lon="-1.42447">
        <ele>18.42</ele>
        <time>2020-01-19T13:52:24Z</time>
      </trkpt>
      <trkpt lat="47.15827" lon="-1.42432">
        <ele>18.83</ele>
        <time>2020-01-19T13:52:27Z</time>
      </trkpt>
      <trkpt lat="47.15827" lon="-1.42417">
        <ele>19.18</ele>
        <time>2020-01-19T13:52:30Z</time>
      </trkpt>
      <trkpt lat="47.15826" lon="-1.42403">
        <ele>19.68</ele>
        <time>2020-01-19T13:52:33Z</time>
      </trkpt>
      <trkpt lat="47.15827" lon="-1.42388">
        <ele>20.07</ele>
        <time>2020-01-19T13:52:36Z</time>
      </trkpt>
      <trkpt lat="47.15828" lon="-1.42373">
        <ele>20.52</ele>
        <time>2020-01-19T13:52:39Z</time>
      </trkpt>
      <trkpt lat="47.15829" lon="-1.4236">
        <ele>20.9</ele>
        <time>2020-01-19T13:52:42Z</time>
      </trkpt>
      <trkpt lat="47.1583" lon="-1.42346">
        <ele>21.2</ele>
        <time>2020-01-19T13:52:44Z</time>
      </trkpt>
      <trkpt lat="47.1583" lon="-1.42328">
        <ele>21.87</ele>
        <time>2020-01-19T13:52:48Z</time>
      </trkpt>
      <trkpt lat="47.1583" lon="-1.42313">
        <ele>22.34</ele>
        <time>2020-01-19T13:52:51Z</time>
      </trkpt>
      <trkpt lat="47.15831" lon="-1.42297">
        <ele>22.62</ele>
        <time>2020-01-19T13:52:54Z</time>
      </trkpt>
      <trkpt lat="47.15831" lon="-1.4228">
        <ele>23.43</ele>
        <time>2020-01-19T13:52:58Z</time>
      </trkpt>
      <trkpt lat="47.15831" lon="-1.42265">
        <ele>23.96</ele>
        <time>2020-01-19T13:53:02Z</time>
      </trkpt>
      <trkpt lat="47.15831" lon="-1.42248">
        <ele>24.77</ele>
        <time>2020-01-19T13:53:06Z</time>
      </trkpt>
      <trkpt lat="47.15832" lon="-1.42233">
        <ele>25.34</ele>
        <time>2020-01-19T13:53:09Z</time>
      </trkpt>
      <trkpt lat="47.15833" lon="-1.42216">
        <ele>25.9</ele>
        <time>2020-01-19T13:53:13Z</time>
      </trkpt>
      <trkpt lat="47.15832" lon="-1.42198">
        <ele>26.7</ele>
        <time>2020-01-19T13:53:17Z</time>
      </trkpt>
      <trkpt lat="47.15833" lon="-1.42185">
        <ele>27.1</ele>
        <time>2020-01-19T13:53:20Z</time>
      </trkpt>
      <trkpt lat="47.15833" lon="-1.42169">
        <ele>27.69</ele>
        <time>2020-01-19T13:53:24Z</time>
      </trkpt>
      <trkpt lat="47.15833" lon="-1.42153">
        <ele>28.2</ele>
        <time>2020-01-19T13:53:27Z</time>
      </trkpt>
      <trkpt lat="47.15834" lon="-1.42137">
        <ele>28.79</ele>
        <time>2020-01-19T13:53:31Z</time>
      </trkpt>
      <trkpt lat="47.15834" lon="-1.42121">
        <ele>29.45</ele>
        <time>2020-01-19T13:53:35Z</time>
      </trkpt>
      <trkpt lat="47.15835" lon="-1.42108">
        <ele>29.99</ele>
        <time>2020-01-19T13:53:38Z</time>
      </trkpt>
      <trkpt lat="47.15836" lon="-1.42092">
        <ele>30.5</ele>
        <time>2020-01-19T13:53:41Z</time>
      </trkpt>
      <trkpt lat="47.15837" lon="-1.42076">
        <ele>31.3</ele>
        <time>2020-01-19T13:53:45Z</time>
      </trkpt>
      <trkpt lat="47.15837" lon="-1.42063">
        <ele>31.84</ele>
        <time>2020-01-19T13:53:48Z</time>
      </trkpt>
      <trkpt lat="47.15838" lon="-1.42049">
        <ele>32.57</ele>
        <time>2020-01-19T13:53:51Z</time>
      </trkpt>
      <trkpt lat="47.15838" lon="-1.42035">
        <ele>33.07</ele>
        <time>2020-01-19T13:53:54Z</time>
      </trkpt>
      <trkpt lat="47.15838" lon="-1.42018">
        <ele>34.59</ele>
        <time>2020-01-19T13:53:57Z</time>
      </trkpt>
      <trkpt lat="47.15838" lon="-1.42001">
        <ele>35.21</ele>
        <time>2020-01-19T13:54:00Z</time>
      </trkpt>
      <trkpt lat="47.15839" lon="-1.41987">
        <ele>35.61</ele>
        <time>2020-01-19T13:54:03Z</time>
      </trkpt>
      <trkpt lat="47.15838" lon="-1.41973">
        <ele>35.89</ele>
        <time>2020-01-19T13:54:05Z</time>
      </trkpt>
      <trkpt lat="47.15839" lon="-1.41954">
        <ele>36.53</ele>
        <time>2020-01-19T13:54:09Z</time>
      </trkpt>
      <trkpt lat="47.15839" lon="-1.41939">
        <ele>36.85</ele>
        <time>2020-01-19T13:54:12Z</time>
      </trkpt>
      <trkpt lat="47.15839" lon="-1.41926">
        <ele>37.17</ele>
        <time>2020-01-19T13:54:15Z</time>
      </trkpt>
      <trkpt lat="47.15838" lon="-1.41911">
        <ele>37.7</ele>
        <time>2020-01-19T13:54:18Z</time>
      </trkpt>
      <trkpt lat="47.15838" lon="-1.41893">
        <ele>38.02</ele>
        <time>2020-01-19T13:54:21Z</time>
      </trkpt>
      <trkpt lat="47.15837" lon="-1.4188">
        <ele>38.26</ele>
        <time>2020-01-19T13:54:24Z</time>
      </trkpt>
      <trkpt lat="47.15836" lon="-1.41862">
        <ele>38.7</ele>
        <time>2020-01-19T13:54:27Z</time>
      </trkpt>
      <trkpt lat="47.15835" lon="-1.41843">
        <ele>39.03</ele>
        <time>2020-01-19T13:54:31Z</time>
      </trkpt>
      <trkpt lat="47.15835" lon="-1.41827">
        <ele>39.39</ele>
        <time>2020-01-19T13:54:33Z</time>
      </trkpt>
      <trkpt lat="47.15833" lon="-1.41811">
        <ele>39.78</ele>
        <time>2020-01-19T13:54:36Z</time>
      </trkpt>
      <trkpt lat="47.15832" lon="-1.41796">
        <ele>40.06</ele>
        <time>2020-01-19T13:54:39Z</time>
      </trkpt>
      <trkpt lat="47.1583" lon="-1.41779">
        <ele>40.26</ele>
        <time>2020-01-19T13:54:42Z</time>
      </trkpt>
      <trkpt lat="47.15828" lon="-1.41765">
        <ele>40.63</ele>
        <time>2020-01-19T13:54:44Z</time>
      </trkpt>
      <trkpt lat="47.15826" lon="-1.41751">
        <ele>41.91</ele>
        <time>2020-01-19T13:54:46Z</time>
      </trkpt>
      <trkpt lat="47.15825" lon="-1.41735">
        <ele>42.57</ele>
        <time>2020-01-19T13:54:49Z</time>
      </trkpt>
      <trkpt lat="47.15824" lon="-1.41717">
        <ele>44.31</ele>
        <time>2020-01-19T13:54:52Z</time>
      </trkpt>
      <trkpt lat="47.15821" lon="-1.417">
        <ele>46.01</ele>
        <time>2020-01-19T13:54:55Z</time>
      </trkpt>
      <trkpt lat="47.1582" lon="-1.41686">
        <ele>46.86</ele>
        <time>2020-01-19T13:54:57Z</time>
      </trkpt>
      <trkpt lat="47.15818" lon="-1.4167">
        <ele>47.68</ele>
        <time>2020-01-19T13:55:00Z</time>
      </trkpt>
      <trkpt lat="47.15815" lon="-1.41649">
        <ele>47.47</ele>
        <time>2020-01-19T13:55:03Z</time>
      </trkpt>
      <trkpt lat="47.15811" lon="-1.41633">
        <ele>47.7</ele>
        <time>2020-01-19T13:55:06Z</time>
      </trkpt>
      <trkpt lat="47.15808" lon="-1.41616">
        <ele>49.96</ele>
        <time>2020-01-19T13:55:09Z</time>
      </trkpt>
      <trkpt lat="47.15805" lon="-1.41601">
        <ele>49.19</ele>
        <time>2020-01-19T13:55:11Z</time>
      </trkpt>
      <trkpt lat="47.15801" lon="-1.41587">
        <ele>48.68</ele>
        <time>2020-01-19T13:55:13Z</time>
      </trkpt>
      <trkpt lat="47.15797" lon="-1.41569">
        <ele>49.62</ele>
        <time>2020-01-19T13:55:16Z</time>
      </trkpt>
      <trkpt lat="47.15792" lon="-1.41551">
        <ele>47.48</ele>
        <time>2020-01-19T13:55:19Z</time>
      </trkpt>
      <trkpt lat="47.15789" lon="-1.41537">
        <ele>46.83</ele>
        <time>2020-01-19T13:55:21Z</time>
      </trkpt>
      <trkpt lat="47.15783" lon="-1.41516">
        <ele>46.34</ele>
        <time>2020-01-19T13:55:24Z</time>
      </trkpt>
      <trkpt lat="47.15779" lon="-1.41497">
        <ele>45.35</ele>
        <time>2020-01-19T13:55:27Z</time>
      </trkpt>
      <trkpt lat="47.15775" lon="-1.41482">
        <ele>46.39</ele>
        <time>2020-01-19T13:55:29Z</time>
      </trkpt>
      <trkpt lat="47.15771" lon="-1.41466">
        <ele>47.55</ele>
        <time>2020-01-19T13:55:31Z</time>
      </trkpt>
      <trkpt lat="47.15766" lon="-1.41453">
        <ele>47.22</ele>
        <time>2020-01-19T13:55:33Z</time>
      </trkpt>
      <trkpt lat="47.15763" lon="-1.41439">
        <ele>46.93</ele>
        <time>2020-01-19T13:55:35Z</time>
      </trkpt>
      <trkpt lat="47.15757" lon="-1.41423">
        <ele>47.92</ele>
        <time>2020-01-19T13:55:37Z</time>
      </trkpt>
      <trkpt lat="47.15752" lon="-1.41407">
        <ele>48.07</ele>
        <time>2020-01-19T13:55:39Z</time>
      </trkpt>
      <trkpt lat="47.15747" lon="-1.41393">
        <ele>47.61</ele>
        <time>2020-01-19T13:55:41Z</time>
      </trkpt>
      <trkpt lat="47.15742" lon="-1.41378">
        <ele>45.85</ele>
        <time>2020-01-19T13:55:43Z</time>
      </trkpt>
      <trkpt lat="47.15737" lon="-1.4136">
        <ele>45.09</ele>
        <time>2020-01-19T13:55:45Z</time>
      </trkpt>
      <trkpt lat="47.1573" lon="-1.41342">
        <ele>43.47</ele>
        <time>2020-01-19T13:55:47Z</time>
      </trkpt>
      <trkpt lat="47.15725" lon="-1.41328">
        <ele>43.32</ele>
        <time>2020-01-19T13:55:49Z</time>
      </trkpt>
      <trkpt lat="47.1572" lon="-1.41311">
        <ele>44.03</ele>
        <time>2020-01-19T13:55:51Z</time>
      </trkpt>
      <trkpt lat="47.15715" lon="-1.41294">
        <ele>45.17</ele>
        <time>2020-01-19T13:55:53Z</time>
      </trkpt>
      <trkpt lat="47.15709" lon="-1.41276">
        <ele>45.91</ele>
        <time>2020-01-19T13:55:55Z</time>
      </trkpt>
      <trkpt lat="47.15703" lon="-1.41259">
        <ele>44.9</ele>
        <time>2020-01-19T13:55:57Z</time>
      </trkpt>
      <trkpt lat="47.15698" lon="-1.41243">
        <ele>44.28</ele>
        <time>2020-01-19T13:55:59Z</time>
      </trkpt>
      <trkpt lat="47.15693" lon="-1.41227">
        <ele>44.55</ele>
        <time>2020-01-19T13:56:01Z</time>
      </trkpt>
      <trkpt lat="47.15688" lon="-1.41213">
        <ele>43.69</ele>
        <time>2020-01-19T13:56:03Z</time>
      </trkpt>
      <trkpt lat="47.15683" lon="-1.41199">
        <ele>42.92</ele>
        <time>2020-01-19T13:56:05Z</time>
      </trkpt>
      <trkpt lat="47.15677" lon="-1.41183">
        <ele>43.3</ele>
        <time>2020-01-19T13:56:07Z</time>
      </trkpt>
      <trkpt lat="47.15674" lon="-1.41168">
        <ele>43</ele>
        <time>2020-01-19T13:56:09Z</time>
      </trkpt>
      <trkpt lat="47.1567" lon="-1.41152">
        <ele>44.17</ele>
        <time>2020-01-19T13:56:11Z</time>
      </trkpt>
      <trkpt lat="47.15665" lon="-1.41136">
        <ele>44.02</ele>
        <time>2020-01-19T13:56:13Z</time>
      </trkpt>
      <trkpt lat="47.1566" lon="-1.41119">
        <ele>43.32</ele>
        <time>2020-01-19T13:56:15Z</time>
      </trkpt>
      <trkpt lat="47.15656" lon="-1.41103">
        <ele>43.06</ele>
        <time>2020-01-19T13:56:17Z</time>
      </trkpt>
      <trkpt lat="47.15651" lon="-1.41083">
        <ele>43.15</ele>
        <time>2020-01-19T13:56:19Z</time>
      </trkpt>
      <trkpt lat="47.15648" lon="-1.41069">
        <ele>44.17</ele>
        <time>2020-01-19T13:56:21Z</time>
      </trkpt>
      <trkpt lat="47.15644" lon="-1.41052">
        <ele>43.63</ele>
        <time>2020-01-19T13:56:23Z</time>
      </trkpt>
      <trkpt lat="47.1564" lon="-1.41034">
        <ele>44.02</ele>
        <time>2020-01-19T13:56:25Z</time>
      </trkpt>
      <trkpt lat="47.15636" lon="-1.41018">
        <ele>43.87</ele>
        <time>2020-01-19T13:56:27Z</time>
      </trkpt>
      <trkpt lat="47.15632" lon="-1.40999">
        <ele>43.25</ele>
        <time>2020-01-19T13:56:29Z</time>
      </trkpt>
      <trkpt lat="47.15629" lon="-1.40982">
        <ele>43.04</ele>
        <time>2020-01-19T13:56:31Z</time>
      </trkpt>
      <trkpt lat="47.15624" lon="-1.40963">
        <ele>43.44</ele>
        <time>2020-01-19T13:56:33Z</time>
      </trkpt>
      <trkpt lat="47.1562" lon="-1.40947">
        <ele>43.99</ele>
        <time>2020-01-19T13:56:35Z</time>
      </trkpt>
      <trkpt lat="47.15617" lon="-1.40933">
        <ele>43.59</ele>
        <time>2020-01-19T13:56:37Z</time>
      </trkpt>
      <trkpt lat="47.15612" lon="-1.40916">
        <ele>43.01</ele>
        <time>2020-01-19T13:56:39Z</time>
      </trkpt>
      <trkpt lat="47.15607" lon="-1.40897">
        <ele>41.96</ele>
        <time>2020-01-19T13:56:41Z</time>
      </trkpt>
      <trkpt lat="47.15602" lon="-1.40877">
        <ele>40.52</ele>
        <time>2020-01-19T13:56:43Z</time>
      </trkpt>
      <trkpt lat="47.15598" lon="-1.4086">
        <ele>39.52</ele>
        <time>2020-01-19T13:56:45Z</time>
      </trkpt>
      <trkpt lat="47.15594" lon="-1.40845">
        <ele>39.34</ele>
        <time>2020-01-19T13:56:47Z</time>
      </trkpt>
      <trkpt lat="47.15589" lon="-1.40827">
        <ele>38.96</ele>
        <time>2020-01-19T13:56:49Z</time>
      </trkpt>
      <trkpt lat="47.15585" lon="-1.4081">
        <ele>37.46</ele>
        <time>2020-01-19T13:56:51Z</time>
      </trkpt>
      <trkpt lat="47.15582" lon="-1.40797">
        <ele>37.44</ele>
        <time>2020-01-19T13:56:53Z</time>
      </trkpt>
      <trkpt lat="47.15577" lon="-1.40778">
        <ele>37.54</ele>
        <time>2020-01-19T13:56:55Z</time>
      </trkpt>
      <trkpt lat="47.15573" lon="-1.40759">
        <ele>38.89</ele>
        <time>2020-01-19T13:56:57Z</time>
      </trkpt>
      <trkpt lat="47.1557" lon="-1.40743">
        <ele>38.44</ele>
        <time>2020-01-19T13:56:59Z</time>
      </trkpt>
      <trkpt lat="47.15568" lon="-1.40729">
        <ele>38.1</ele>
        <time>2020-01-19T13:57:01Z</time>
      </trkpt>
      <trkpt lat="47.15565" lon="-1.40712">
        <ele>37.95</ele>
        <time>2020-01-19T13:57:03Z</time>
      </trkpt>
      <trkpt lat="47.15564" lon="-1.40697">
        <ele>38.7</ele>
        <time>2020-01-19T13:57:05Z</time>
      </trkpt>
      <trkpt lat="47.15564" lon="-1.40681">
        <ele>38.38</ele>
        <time>2020-01-19T13:57:07Z</time>
      </trkpt>
      <trkpt lat="47.15563" lon="-1.40662">
        <ele>39.17</ele>
        <time>2020-01-19T13:57:10Z</time>
      </trkpt>
      <trkpt lat="47.15563" lon="-1.40644">
        <ele>38.89</ele>
        <time>2020-01-19T13:57:12Z</time>
      </trkpt>
      <trkpt lat="47.15563" lon="-1.40629">
        <ele>38.78</ele>
        <time>2020-01-19T13:57:14Z</time>
      </trkpt>
      <trkpt lat="47.15564" lon="-1.40615">
        <ele>37.73</ele>
        <time>2020-01-19T13:57:16Z</time>
      </trkpt>
      <trkpt lat="47.15564" lon="-1.40597">
        <ele>38.26</ele>
        <time>2020-01-19T13:57:18Z</time>
      </trkpt>
      <trkpt lat="47.15564" lon="-1.40582">
        <ele>38.67</ele>
        <time>2020-01-19T13:57:20Z</time>
      </trkpt>
      <trkpt lat="47.15565" lon="-1.40567">
        <ele>38.62</ele>
        <time>2020-01-19T13:57:22Z</time>
      </trkpt>
      <trkpt lat="47.15566" lon="-1.40549">
        <ele>38.24</ele>
        <time>2020-01-19T13:57:24Z</time>
      </trkpt>
      <trkpt lat="47.15566" lon="-1.40534">
        <ele>37.47</ele>
        <time>2020-01-19T13:57:26Z</time>
      </trkpt>
      <trkpt lat="47.15567" lon="-1.40516">
        <ele>38.43</ele>
        <time>2020-01-19T13:57:28Z</time>
      </trkpt>
      <trkpt lat="47.15566" lon="-1.40496">
        <ele>38.83</ele>
        <time>2020-01-19T13:57:30Z</time>
      </trkpt>
      <trkpt lat="47.15567" lon="-1.40475">
        <ele>39.37</ele>
        <time>2020-01-19T13:57:33Z</time>
      </trkpt>
      <trkpt lat="47.15568" lon="-1.4046">
        <ele>38.87</ele>
        <time>2020-01-19T13:57:35Z</time>
      </trkpt>
      <trkpt lat="47.15569" lon="-1.40444">
        <ele>38.05</ele>
        <time>2020-01-19T13:57:37Z</time>
      </trkpt>
      <trkpt lat="47.15568" lon="-1.40427">
        <ele>36.44</ele>
        <time>2020-01-19T13:57:39Z</time>
      </trkpt>
      <trkpt lat="47.15569" lon="-1.40411">
        <ele>36.2</ele>
        <time>2020-01-19T13:57:41Z</time>
      </trkpt>
      <trkpt lat="47.15568" lon="-1.40397">
        <ele>35.65</ele>
        <time>2020-01-19T13:57:43Z</time>
      </trkpt>
      <trkpt lat="47.15569" lon="-1.40383">
        <ele>36.53</ele>
        <time>2020-01-19T13:57:45Z</time>
      </trkpt>
      <trkpt lat="47.1557" lon="-1.40365">
        <ele>36.87</ele>
        <time>2020-01-19T13:57:47Z</time>
      </trkpt>
      <trkpt lat="47.15571" lon="-1.40346">
        <ele>36.33</ele>
        <time>2020-01-19T13:57:49Z</time>
      </trkpt>
      <trkpt lat="47.15573" lon="-1.40329">
        <ele>36.59</ele>
        <time>2020-01-19T13:57:51Z</time>
      </trkpt>
      <trkpt lat="47.15573" lon="-1.40311">
        <ele>36.99</ele>
        <time>2020-01-19T13:57:53Z</time>
      </trkpt>
      <trkpt lat="47.15574" lon="-1.40295">
        <ele>36.55</ele>
        <time>2020-01-19T13:57:55Z</time>
      </trkpt>
      <trkpt lat="47.15574" lon="-1.40278">
        <ele>36.2</ele>
        <time>2020-01-19T13:57:57Z</time>
      </trkpt>
      <trkpt lat="47.15575" lon="-1.40256">
        <ele>34.95</ele>
        <time>2020-01-19T13:57:59Z</time>
      </trkpt>
      <trkpt lat="47.15576" lon="-1.40235">
        <ele>33.74</ele>
        <time>2020-01-19T13:58:01Z</time>
      </trkpt>
      <trkpt lat="47.15578" lon="-1.40214">
        <ele>33.32</ele>
        <time>2020-01-19T13:58:03Z</time>
      </trkpt>
      <trkpt lat="47.15576" lon="-1.40195">
        <ele>32.74</ele>
        <time>2020-01-19T13:58:05Z</time>
      </trkpt>
      <trkpt lat="47.15573" lon="-1.40175">
        <ele>32.33</ele>
        <time>2020-01-19T13:58:07Z</time>
      </trkpt>
      <trkpt lat="47.15569" lon="-1.40158">
        <ele>32.33</ele>
        <time>2020-01-19T13:58:09Z</time>
      </trkpt>
      <trkpt lat="47.15565" lon="-1.40138">
        <ele>32.81</ele>
        <time>2020-01-19T13:58:11Z</time>
      </trkpt>
      <trkpt lat="47.1556" lon="-1.40125">
        <ele>34.68</ele>
        <time>2020-01-19T13:58:13Z</time>
      </trkpt>
      <trkpt lat="47.15552" lon="-1.40111">
        <ele>34.42</ele>
        <time>2020-01-19T13:58:15Z</time>
      </trkpt>
      <trkpt lat="47.15543" lon="-1.40099">
        <ele>33.4</ele>
        <time>2020-01-19T13:58:17Z</time>
      </trkpt>
      <trkpt lat="47.15532" lon="-1.40086">
        <ele>31.63</ele>
        <time>2020-01-19T13:58:19Z</time>
      </trkpt>
      <trkpt lat="47.15525" lon="-1.4007">
        <ele>30.61</ele>
        <time>2020-01-19T13:58:21Z</time>
      </trkpt>
      <trkpt lat="47.15518" lon="-1.40059">
        <ele>29.21</ele>
        <time>2020-01-19T13:58:23Z</time>
      </trkpt>
      <trkpt lat="47.15509" lon="-1.40051">
        <ele>29.1</ele>
        <time>2020-01-19T13:58:25Z</time>
      </trkpt>
      <trkpt lat="47.15499" lon="-1.40044">
        <ele>29.65</ele>
        <time>2020-01-19T13:58:27Z</time>
      </trkpt>
      <trkpt lat="47.1549" lon="-1.40031">
        <ele>28.36</ele>
        <time>2020-01-19T13:58:29Z</time>
      </trkpt>
      <trkpt lat="47.15486" lon="-1.40017">
        <ele>27.87</ele>
        <time>2020-01-19T13:58:31Z</time>
      </trkpt>
      <trkpt lat="47.15481" lon="-1.40005">
        <ele>27.94</ele>
        <time>2020-01-19T13:58:33Z</time>
      </trkpt>
      <trkpt lat="47.15477" lon="-1.3999">
        <ele>28.23</ele>
        <time>2020-01-19T13:58:36Z</time>
      </trkpt>
      <trkpt lat="47.1548" lon="-1.39974">
        <ele>28.85</ele>
        <time>2020-01-19T13:58:41Z</time>
      </trkpt>
      <trkpt lat="47.15488" lon="-1.39964">
        <ele>29.42</ele>
        <time>2020-01-19T13:58:43Z</time>
      </trkpt>
      <trkpt lat="47.15498" lon="-1.39954">
        <ele>29.48</ele>
        <time>2020-01-19T13:58:45Z</time>
      </trkpt>
      <trkpt lat="47.15509" lon="-1.39946">
        <ele>30.06</ele>
        <time>2020-01-19T13:58:48Z</time>
      </trkpt>
      <trkpt lat="47.15517" lon="-1.39939">
        <ele>30.86</ele>
        <time>2020-01-19T13:58:50Z</time>
      </trkpt>
      <trkpt lat="47.15527" lon="-1.39933">
        <ele>32.39</ele>
        <time>2020-01-19T13:58:52Z</time>
      </trkpt>
      <trkpt lat="47.15536" lon="-1.39927">
        <ele>33.84</ele>
        <time>2020-01-19T13:58:54Z</time>
      </trkpt>
      <trkpt lat="47.15545" lon="-1.39921">
        <ele>34.93</ele>
        <time>2020-01-19T13:58:56Z</time>
      </trkpt>
      <trkpt lat="47.15555" lon="-1.39914">
        <ele>35.5</ele>
        <time>2020-01-19T13:58:58Z</time>
      </trkpt>
      <trkpt lat="47.15563" lon="-1.39907">
        <ele>35.64</ele>
        <time>2020-01-19T13:59:00Z</time>
      </trkpt>
      <trkpt lat="47.15573" lon="-1.399">
        <ele>35.47</ele>
        <time>2020-01-19T13:59:02Z</time>
      </trkpt>
      <trkpt lat="47.15583" lon="-1.39891">
        <ele>34.58</ele>
        <time>2020-01-19T13:59:04Z</time>
      </trkpt>
      <trkpt lat="47.15593" lon="-1.39883">
        <ele>33.63</ele>
        <time>2020-01-19T13:59:06Z</time>
      </trkpt>
      <trkpt lat="47.15603" lon="-1.39876">
        <ele>33.69</ele>
        <time>2020-01-19T13:59:09Z</time>
      </trkpt>
      <trkpt lat="47.15613" lon="-1.39869">
        <ele>33.83</ele>
        <time>2020-01-19T13:59:11Z</time>
      </trkpt>
      <trkpt lat="47.15624" lon="-1.39862">
        <ele>34.1</ele>
        <time>2020-01-19T13:59:13Z</time>
      </trkpt>
      <trkpt lat="47.15632" lon="-1.39854">
        <ele>34.18</ele>
        <time>2020-01-19T13:59:15Z</time>
      </trkpt>
      <trkpt lat="47.15644" lon="-1.39845">
        <ele>32.97</ele>
        <time>2020-01-19T13:59:18Z</time>
      </trkpt>
      <trkpt lat="47.15653" lon="-1.39839">
        <ele>32.94</ele>
        <time>2020-01-19T13:59:21Z</time>
      </trkpt>
      <trkpt lat="47.15662" lon="-1.39834">
        <ele>32.94</ele>
        <time>2020-01-19T13:59:24Z</time>
      </trkpt>
      <trkpt lat="47.15671" lon="-1.39827">
        <ele>32.86</ele>
        <time>2020-01-19T13:59:26Z</time>
      </trkpt>
      <trkpt lat="47.15679" lon="-1.39819">
        <ele>32.21</ele>
        <time>2020-01-19T13:59:28Z</time>
      </trkpt>
      <trkpt lat="47.15691" lon="-1.39813">
        <ele>30.56</ele>
        <time>2020-01-19T13:59:31Z</time>
      </trkpt>
      <trkpt lat="47.15703" lon="-1.39804">
        <ele>30.77</ele>
        <time>2020-01-19T13:59:34Z</time>
      </trkpt>
      <trkpt lat="47.15713" lon="-1.39799">
        <ele>31.3</ele>
        <time>2020-01-19T13:59:37Z</time>
      </trkpt>
      <trkpt lat="47.15724" lon="-1.39792">
        <ele>31.36</ele>
        <time>2020-01-19T13:59:40Z</time>
      </trkpt>
      <trkpt lat="47.15733" lon="-1.39787">
        <ele>31.52</ele>
        <time>2020-01-19T13:59:42Z</time>
      </trkpt>
      <trkpt lat="47.15741" lon="-1.39781">
        <ele>32.31</ele>
        <time>2020-01-19T13:59:44Z</time>
      </trkpt>
      <trkpt lat="47.15751" lon="-1.39775">
        <ele>34.97</ele>
        <time>2020-01-19T13:59:47Z</time>
      </trkpt>
      <trkpt lat="47.15761" lon="-1.39769">
        <ele>35.09</ele>
        <time>2020-01-19T13:59:50Z</time>
      </trkpt>
      <trkpt lat="47.15773" lon="-1.3976">
        <ele>34.38</ele>
        <time>2020-01-19T13:59:53Z</time>
      </trkpt>
      <trkpt lat="47.15781" lon="-1.39753">
        <ele>33.96</ele>
        <time>2020-01-19T13:59:55Z</time>
      </trkpt>
      <trkpt lat="47.15791" lon="-1.39746">
        <ele>33.83</ele>
        <time>2020-01-19T13:59:58Z</time>
      </trkpt>
      <trkpt lat="47.15801" lon="-1.39738">
        <ele>34.9</ele>
        <time>2020-01-19T14:00:01Z</time>
      </trkpt>
      <trkpt lat="47.15812" lon="-1.39734">
        <ele>35.09</ele>
        <time>2020-01-19T14:00:04Z</time>
      </trkpt>
      <trkpt lat="47.15822" lon="-1.39729">
        <ele>35.24</ele>
        <time>2020-01-19T14:00:07Z</time>
      </trkpt>
      <trkpt lat="47.15831" lon="-1.39723">
        <ele>35.32</ele>
        <time>2020-01-19T14:00:09Z</time>
      </trkpt>
      <trkpt lat="47.15843" lon="-1.39715">
        <ele>35.04</ele>
        <time>2020-01-19T14:00:12Z</time>
      </trkpt>
      <trkpt lat="47.15854" lon="-1.39709">
        <ele>34.68</ele>
        <time>2020-01-19T14:00:15Z</time>
      </trkpt>
      <trkpt lat="47.15865" lon="-1.397">
        <ele>34.08</ele>
        <time>2020-01-19T14:00:18Z</time>
      </trkpt>
      <trkpt lat="47.15876" lon="-1.39692">
        <ele>33.43</ele>
        <time>2020-01-19T14:00:21Z</time>
      </trkpt>
      <trkpt lat="47.15886" lon="-1.39687">
        <ele>34.29</ele>
        <time>2020-01-19T14:00:24Z</time>
      </trkpt>
      <trkpt lat="47.15899" lon="-1.3968">
        <ele>34.92</ele>
        <time>2020-01-19T14:00:27Z</time>
      </trkpt>
      <trkpt lat="47.15908" lon="-1.39674">
        <ele>35.37</ele>
        <time>2020-01-19T14:00:29Z</time>
      </trkpt>
      <trkpt lat="47.15921" lon="-1.39668">
        <ele>34.36</ele>
        <time>2020-01-19T14:00:32Z</time>
      </trkpt>
      <trkpt lat="47.1593" lon="-1.39664">
        <ele>33.88</ele>
        <time>2020-01-19T14:00:34Z</time>
      </trkpt>
      <trkpt lat="47.1594" lon="-1.39662">
        <ele>32.65</ele>
        <time>2020-01-19T14:00:36Z</time>
      </trkpt>
      <trkpt lat="47.1595" lon="-1.39658">
        <ele>32.24</ele>
        <time>2020-01-19T14:00:38Z</time>
      </trkpt>
      <trkpt lat="47.15959" lon="-1.39653">
        <ele>31.08</ele>
        <time>2020-01-19T14:00:40Z</time>
      </trkpt>
      <trkpt lat="47.15969" lon="-1.3965">
        <ele>30.97</ele>
        <time>2020-01-19T14:00:42Z</time>
      </trkpt>
      <trkpt lat="47.15979" lon="-1.39644">
        <ele>30.17</ele>
        <time>2020-01-19T14:00:44Z</time>
      </trkpt>
      <trkpt lat="47.15989" lon="-1.39638">
        <ele>31.23</ele>
        <time>2020-01-19T14:00:46Z</time>
      </trkpt>
      <trkpt lat="47.16001" lon="-1.3963">
        <ele>30.94</ele>
        <time>2020-01-19T14:00:48Z</time>
      </trkpt>
      <trkpt lat="47.16012" lon="-1.39621">
        <ele>29.93</ele>
        <time>2020-01-19T14:00:50Z</time>
      </trkpt>
      <trkpt lat="47.16021" lon="-1.39614">
        <ele>26.77</ele>
        <time>2020-01-19T14:00:52Z</time>
      </trkpt>
      <trkpt lat="47.16032" lon="-1.39605">
        <ele>24.73</ele>
        <time>2020-01-19T14:00:54Z</time>
      </trkpt>
      <trkpt lat="47.16044" lon="-1.39595">
        <ele>23.96</ele>
        <time>2020-01-19T14:00:56Z</time>
      </trkpt>
      <trkpt lat="47.16056" lon="-1.39587">
        <ele>23.08</ele>
        <time>2020-01-19T14:00:58Z</time>
      </trkpt>
      <trkpt lat="47.16068" lon="-1.39581">
        <ele>23.77</ele>
        <time>2020-01-19T14:01:00Z</time>
      </trkpt>
      <trkpt lat="47.16081" lon="-1.39573">
        <ele>25.33</ele>
        <time>2020-01-19T14:01:02Z</time>
      </trkpt>
      <trkpt lat="47.16094" lon="-1.39567">
        <ele>26.92</ele>
        <time>2020-01-19T14:01:04Z</time>
      </trkpt>
      <trkpt lat="47.16107" lon="-1.39561">
        <ele>26.42</ele>
        <time>2020-01-19T14:01:06Z</time>
      </trkpt>
      <trkpt lat="47.16119" lon="-1.39555">
        <ele>25.83</ele>
        <time>2020-01-19T14:01:08Z</time>
      </trkpt>
      <trkpt lat="47.16131" lon="-1.39548">
        <ele>25.56</ele>
        <time>2020-01-19T14:01:10Z</time>
      </trkpt>
      <trkpt lat="47.16142" lon="-1.39544">
        <ele>25.16</ele>
        <time>2020-01-19T14:01:12Z</time>
      </trkpt>
      <trkpt lat="47.16154" lon="-1.39536">
        <ele>23.95</ele>
        <time>2020-01-19T14:01:14Z</time>
      </trkpt>
      <trkpt lat="47.16166" lon="-1.39529">
        <ele>23.35</ele>
        <time>2020-01-19T14:01:16Z</time>
      </trkpt>
      <trkpt lat="47.16178" lon="-1.39521">
        <ele>22.41</ele>
        <time>2020-01-19T14:01:18Z</time>
      </trkpt>
      <trkpt lat="47.16188" lon="-1.39516">
        <ele>21.74</ele>
        <time>2020-01-19T14:01:20Z</time>
      </trkpt>
      <trkpt lat="47.16198" lon="-1.3951">
        <ele>21.64</ele>
        <time>2020-01-19T14:01:22Z</time>
      </trkpt>
      <trkpt lat="47.16208" lon="-1.39506">
        <ele>21.95</ele>
        <time>2020-01-19T14:01:24Z</time>
      </trkpt>
      <trkpt lat="47.1622" lon="-1.395">
        <ele>22.2</ele>
        <time>2020-01-19T14:01:26Z</time>
      </trkpt>
      <trkpt lat="47.16233" lon="-1.39492">
        <ele>21.2</ele>
        <time>2020-01-19T14:01:28Z</time>
      </trkpt>
      <trkpt lat="47.16246" lon="-1.39485">
        <ele>21.1</ele>
        <time>2020-01-19T14:01:30Z</time>
      </trkpt>
      <trkpt lat="47.16256" lon="-1.39481">
        <ele>21.58</ele>
        <time>2020-01-19T14:01:32Z</time>
      </trkpt>
      <trkpt lat="47.1627" lon="-1.39474">
        <ele>22.59</ele>
        <time>2020-01-19T14:01:34Z</time>
      </trkpt>
      <trkpt lat="47.16282" lon="-1.39468">
        <ele>22.42</ele>
        <time>2020-01-19T14:01:36Z</time>
      </trkpt>
      <trkpt lat="47.16291" lon="-1.39461">
        <ele>21.94</ele>
        <time>2020-01-19T14:01:38Z</time>
      </trkpt>
      <trkpt lat="47.16305" lon="-1.39455">
        <ele>22.52</ele>
        <time>2020-01-19T14:01:40Z</time>
      </trkpt>
      <trkpt lat="47.16314" lon="-1.39449">
        <ele>22.95</ele>
        <time>2020-01-19T14:01:42Z</time>
      </trkpt>
      <trkpt lat="47.16325" lon="-1.39442">
        <ele>22.88</ele>
        <time>2020-01-19T14:01:44Z</time>
      </trkpt>
      <trkpt lat="47.16335" lon="-1.39437">
        <ele>22.03</ele>
        <time>2020-01-19T14:01:46Z</time>
      </trkpt>
      <trkpt lat="47.16347" lon="-1.39431">
        <ele>22.06</ele>
        <time>2020-01-19T14:01:48Z</time>
      </trkpt>
      <trkpt lat="47.16356" lon="-1.39427">
        <ele>21.41</ele>
        <time>2020-01-19T14:01:50Z</time>
      </trkpt>
      <trkpt lat="47.16367" lon="-1.39421">
        <ele>20.76</ele>
        <time>2020-01-19T14:01:52Z</time>
      </trkpt>
      <trkpt lat="47.16377" lon="-1.39416">
        <ele>20.34</ele>
        <time>2020-01-19T14:01:54Z</time>
      </trkpt>
      <trkpt lat="47.16387" lon="-1.39408">
        <ele>20.1</ele>
        <time>2020-01-19T14:01:56Z</time>
      </trkpt>
      <trkpt lat="47.16398" lon="-1.39403">
        <ele>20.31</ele>
        <time>2020-01-19T14:01:58Z</time>
      </trkpt>
      <trkpt lat="47.16408" lon="-1.39397">
        <ele>21.25</ele>
        <time>2020-01-19T14:02:00Z</time>
      </trkpt>
      <trkpt lat="47.16417" lon="-1.39392">
        <ele>21.79</ele>
        <time>2020-01-19T14:02:02Z</time>
      </trkpt>
      <trkpt lat="47.16428" lon="-1.39388">
        <ele>21.53</ele>
        <time>2020-01-19T14:02:04Z</time>
      </trkpt>
      <trkpt lat="47.16438" lon="-1.39383">
        <ele>22.07</ele>
        <time>2020-01-19T14:02:06Z</time>
      </trkpt>
      <trkpt lat="47.16448" lon="-1.39377">
        <ele>21.51</ele>
        <time>2020-01-19T14:02:08Z</time>
      </trkpt>
      <trkpt lat="47.16459" lon="-1.39371">
        <ele>21.55</ele>
        <time>2020-01-19T14:02:10Z</time>
      </trkpt>
      <trkpt lat="47.1647" lon="-1.39366">
        <ele>20.4</ele>
        <time>2020-01-19T14:02:12Z</time>
      </trkpt>
      <trkpt lat="47.16481" lon="-1.3936">
        <ele>18.45</ele>
        <time>2020-01-19T14:02:14Z</time>
      </trkpt>
      <trkpt lat="47.16491" lon="-1.39354">
        <ele>17.79</ele>
        <time>2020-01-19T14:02:16Z</time>
      </trkpt>
      <trkpt lat="47.16503" lon="-1.39348">
        <ele>17.69</ele>
        <time>2020-01-19T14:02:18Z</time>
      </trkpt>
      <trkpt lat="47.16514" lon="-1.39342">
        <ele>18.41</ele>
        <time>2020-01-19T14:02:20Z</time>
      </trkpt>
      <trkpt lat="47.16525" lon="-1.39335">
        <ele>17.81</ele>
        <time>2020-01-19T14:02:22Z</time>
      </trkpt>
      <trkpt lat="47.16537" lon="-1.3933">
        <ele>16.6</ele>
        <time>2020-01-19T14:02:24Z</time>
      </trkpt>
      <trkpt lat="47.16548" lon="-1.39324">
        <ele>16.1</ele>
        <time>2020-01-19T14:02:26Z</time>
      </trkpt>
      <trkpt lat="47.16558" lon="-1.39319">
        <ele>15.65</ele>
        <time>2020-01-19T14:02:28Z</time>
      </trkpt>
      <trkpt lat="47.16568" lon="-1.39313">
        <ele>15.55</ele>
        <time>2020-01-19T14:02:30Z</time>
      </trkpt>
      <trkpt lat="47.1658" lon="-1.39306">
        <ele>14.25</ele>
        <time>2020-01-19T14:02:32Z</time>
      </trkpt>
      <trkpt lat="47.16589" lon="-1.393">
        <ele>13.06</ele>
        <time>2020-01-19T14:02:34Z</time>
      </trkpt>
      <trkpt lat="47.16601" lon="-1.39293">
        <ele>13.5</ele>
        <time>2020-01-19T14:02:36Z</time>
      </trkpt>
      <trkpt lat="47.16611" lon="-1.39291">
        <ele>13.51</ele>
        <time>2020-01-19T14:02:38Z</time>
      </trkpt>
      <trkpt lat="47.1662" lon="-1.39287">
        <ele>13.19</ele>
        <time>2020-01-19T14:02:40Z</time>
      </trkpt>
      <trkpt lat="47.1663" lon="-1.39275">
        <ele>15.28</ele>
        <time>2020-01-19T14:02:42Z</time>
      </trkpt>
      <trkpt lat="47.16636" lon="-1.39263">
        <ele>16.09</ele>
        <time>2020-01-19T14:02:44Z</time>
      </trkpt>
      <trkpt lat="47.16644" lon="-1.39257">
        <ele>16.15</ele>
        <time>2020-01-19T14:02:46Z</time>
      </trkpt>
      <trkpt lat="47.16655" lon="-1.39256">
        <ele>17.01</ele>
        <time>2020-01-19T14:02:48Z</time>
      </trkpt>
      <trkpt lat="47.16666" lon="-1.3926">
        <ele>17.72</ele>
        <time>2020-01-19T14:02:50Z</time>
      </trkpt>
      <trkpt lat="47.16676" lon="-1.39262">
        <ele>17.67</ele>
        <time>2020-01-19T14:02:52Z</time>
      </trkpt>
      <trkpt lat="47.16689" lon="-1.39262">
        <ele>15.94</ele>
        <time>2020-01-19T14:02:54Z</time>
      </trkpt>
      <trkpt lat="47.16699" lon="-1.39262">
        <ele>14</ele>
        <time>2020-01-19T14:02:56Z</time>
      </trkpt>
      <trkpt lat="47.16711" lon="-1.39261">
        <ele>13.72</ele>
        <time>2020-01-19T14:02:58Z</time>
      </trkpt>
      <trkpt lat="47.16723" lon="-1.39258">
        <ele>13.09</ele>
        <time>2020-01-19T14:03:00Z</time>
      </trkpt>
      <trkpt lat="47.16737" lon="-1.39256">
        <ele>12.19</ele>
        <time>2020-01-19T14:03:02Z</time>
      </trkpt>
      <trkpt lat="47.16746" lon="-1.39255">
        <ele>11.93</ele>
        <time>2020-01-19T14:03:04Z</time>
      </trkpt>
      <trkpt lat="47.16758" lon="-1.39252">
        <ele>10.2</ele>
        <time>2020-01-19T14:03:06Z</time>
      </trkpt>
      <trkpt lat="47.1677" lon="-1.3925">
        <ele>8.91</ele>
        <time>2020-01-19T14:03:08Z</time>
      </trkpt>
      <trkpt lat="47.16779" lon="-1.39248">
        <ele>8.21</ele>
        <time>2020-01-19T14:03:10Z</time>
      </trkpt>
      <trkpt lat="47.16793" lon="-1.39246">
        <ele>6.76</ele>
        <time>2020-01-19T14:03:12Z</time>
      </trkpt>
      <trkpt lat="47.16803" lon="-1.39244">
        <ele>6.23</ele>
        <time>2020-01-19T14:03:14Z</time>
      </trkpt>
      <trkpt lat="47.16814" lon="-1.39242">
        <ele>6.53</ele>
        <time>2020-01-19T14:03:16Z</time>
      </trkpt>
      <trkpt lat="47.16825" lon="-1.39239">
        <ele>6.84</ele>
        <time>2020-01-19T14:03:18Z</time>
      </trkpt>
      <trkpt lat="47.16836" lon="-1.39237">
        <ele>7.96</ele>
        <time>2020-01-19T14:03:20Z</time>
      </trkpt>
      <trkpt lat="47.16847" lon="-1.39236">
        <ele>8.75</ele>
        <time>2020-01-19T14:03:22Z</time>
      </trkpt>
      <trkpt lat="47.16861" lon="-1.39233">
        <ele>9.09</ele>
        <time>2020-01-19T14:03:24Z</time>
      </trkpt>
      <trkpt lat="47.1687" lon="-1.3923">
        <ele>7.69</ele>
        <time>2020-01-19T14:03:26Z</time>
      </trkpt>
      <trkpt lat="47.16881" lon="-1.39228">
        <ele>7.01</ele>
        <time>2020-01-19T14:03:28Z</time>
      </trkpt>
      <trkpt lat="47.1689" lon="-1.39227">
        <ele>6.96</ele>
        <time>2020-01-19T14:03:30Z</time>
      </trkpt>
      <trkpt lat="47.16901" lon="-1.39223">
        <ele>5.98</ele>
        <time>2020-01-19T14:03:32Z</time>
      </trkpt>
      <trkpt lat="47.16911" lon="-1.3922">
        <ele>5.44</ele>
        <time>2020-01-19T14:03:34Z</time>
      </trkpt>
      <trkpt lat="47.16923" lon="-1.39218">
        <ele>7.03</ele>
        <time>2020-01-19T14:03:36Z</time>
      </trkpt>
      <trkpt lat="47.16934" lon="-1.39216">
        <ele>7.89</ele>
        <time>2020-01-19T14:03:38Z</time>
      </trkpt>
      <trkpt lat="47.16943" lon="-1.39214">
        <ele>7.71</ele>
        <time>2020-01-19T14:03:40Z</time>
      </trkpt>
      <trkpt lat="47.16952" lon="-1.39213">
        <ele>8.36</ele>
        <time>2020-01-19T14:03:42Z</time>
      </trkpt>
      <trkpt lat="47.16965" lon="-1.39213">
        <ele>7.67</ele>
        <time>2020-01-19T14:03:44Z</time>
      </trkpt>
      <trkpt lat="47.16978" lon="-1.39213">
        <ele>9.14</ele>
        <time>2020-01-19T14:03:47Z</time>
      </trkpt>
      <trkpt lat="47.16988" lon="-1.39212">
        <ele>10.34</ele>
        <time>2020-01-19T14:03:49Z</time>
      </trkpt>
      <trkpt lat="47.17" lon="-1.39211">
        <ele>9.48</ele>
        <time>2020-01-19T14:03:51Z</time>
      </trkpt>
      <trkpt lat="47.1701" lon="-1.39211">
        <ele>8.45</ele>
        <time>2020-01-19T14:03:53Z</time>
      </trkpt>
      <trkpt lat="47.17021" lon="-1.39214">
        <ele>7.15</ele>
        <time>2020-01-19T14:03:56Z</time>
      </trkpt>
      <trkpt lat="47.17031" lon="-1.39213">
        <ele>6.72</ele>
        <time>2020-01-19T14:03:58Z</time>
      </trkpt>
      <trkpt lat="47.17042" lon="-1.39216">
        <ele>5.89</ele>
        <time>2020-01-19T14:04:01Z</time>
      </trkpt>
      <trkpt lat="47.17055" lon="-1.39218">
        <ele>6.23</ele>
        <time>2020-01-19T14:04:03Z</time>
      </trkpt>
      <trkpt lat="47.17068" lon="-1.39219">
        <ele>6.45</ele>
        <time>2020-01-19T14:04:06Z</time>
      </trkpt>
      <trkpt lat="47.17081" lon="-1.39221">
        <ele>6.84</ele>
        <time>2020-01-19T14:04:09Z</time>
      </trkpt>
      <trkpt lat="47.17091" lon="-1.39221">
        <ele>8.15</ele>
        <time>2020-01-19T14:04:12Z</time>
      </trkpt>
      <trkpt lat="47.17104" lon="-1.39223">
        <ele>8.9</ele>
        <time>2020-01-19T14:04:15Z</time>
      </trkpt>
      <trkpt lat="47.17116" lon="-1.39223">
        <ele>9.31</ele>
        <time>2020-01-19T14:04:18Z</time>
      </trkpt>
      <trkpt lat="47.17128" lon="-1.39224">
        <ele>9.82</ele>
        <time>2020-01-19T14:04:21Z</time>
      </trkpt>
      <trkpt lat="47.17139" lon="-1.39225">
        <ele>11.54</ele>
        <time>2020-01-19T14:04:24Z</time>
      </trkpt>
      <trkpt lat="47.1715" lon="-1.39227">
        <ele>13.59</ele>
        <time>2020-01-19T14:04:27Z</time>
      </trkpt>
      <trkpt lat="47.17162" lon="-1.39226">
        <ele>16.02</ele>
        <time>2020-01-19T14:04:30Z</time>
      </trkpt>
      <trkpt lat="47.17174" lon="-1.39225">
        <ele>17.26</ele>
        <time>2020-01-19T14:04:33Z</time>
      </trkpt>
      <trkpt lat="47.17186" lon="-1.39226">
        <ele>18.91</ele>
        <time>2020-01-19T14:04:36Z</time>
      </trkpt>
      <trkpt lat="47.17198" lon="-1.39225">
        <ele>16.27</ele>
        <time>2020-01-19T14:04:39Z</time>
      </trkpt>
      <trkpt lat="47.1721" lon="-1.39224">
        <ele>14.59</ele>
        <time>2020-01-19T14:04:42Z</time>
      </trkpt>
      <trkpt lat="47.17222" lon="-1.39222">
        <ele>13.17</ele>
        <time>2020-01-19T14:04:45Z</time>
      </trkpt>
      <trkpt lat="47.17234" lon="-1.39221">
        <ele>12.77</ele>
        <time>2020-01-19T14:04:48Z</time>
      </trkpt>
      <trkpt lat="47.17246" lon="-1.39218">
        <ele>13.31</ele>
        <time>2020-01-19T14:04:51Z</time>
      </trkpt>
      <trkpt lat="47.17255" lon="-1.39217">
        <ele>14.13</ele>
        <time>2020-01-19T14:04:53Z</time>
      </trkpt>
      <trkpt lat="47.17268" lon="-1.39216">
        <ele>16.85</ele>
        <time>2020-01-19T14:04:56Z</time>
      </trkpt>
      <trkpt lat="47.17278" lon="-1.39214">
        <ele>19.71</ele>
        <time>2020-01-19T14:04:59Z</time>
      </trkpt>
      <trkpt lat="47.17292" lon="-1.39212">
        <ele>20.18</ele>
        <time>2020-01-19T14:05:03Z</time>
      </trkpt>
      <trkpt lat="47.17302" lon="-1.39211">
        <ele>19.83</ele>
        <time>2020-01-19T14:05:05Z</time>
      </trkpt>
      <trkpt lat="47.17312" lon="-1.3921">
        <ele>19.86</ele>
        <time>2020-01-19T14:05:07Z</time>
      </trkpt>
      <trkpt lat="47.17321" lon="-1.39209">
        <ele>19.15</ele>
        <time>2020-01-19T14:05:09Z</time>
      </trkpt>
      <trkpt lat="47.17334" lon="-1.39207">
        <ele>17.64</ele>
        <time>2020-01-19T14:05:12Z</time>
      </trkpt>
      <trkpt lat="47.17343" lon="-1.39205">
        <ele>16.95</ele>
        <time>2020-01-19T14:05:14Z</time>
      </trkpt>
      <trkpt lat="47.17352" lon="-1.39201">
        <ele>16.32</ele>
        <time>2020-01-19T14:05:16Z</time>
      </trkpt>
      <trkpt lat="47.17363" lon="-1.39197">
        <ele>15.84</ele>
        <time>2020-01-19T14:05:18Z</time>
      </trkpt>
      <trkpt lat="47.17372" lon="-1.39194">
        <ele>15.28</ele>
        <time>2020-01-19T14:05:20Z</time>
      </trkpt>
      <trkpt lat="47.17383" lon="-1.39187">
        <ele>14.44</ele>
        <time>2020-01-19T14:05:22Z</time>
      </trkpt>
      <trkpt lat="47.17394" lon="-1.39183">
        <ele>14.64</ele>
        <time>2020-01-19T14:05:24Z</time>
      </trkpt>
      <trkpt lat="47.17403" lon="-1.39177">
        <ele>15.89</ele>
        <time>2020-01-19T14:05:26Z</time>
      </trkpt>
      <trkpt lat="47.17416" lon="-1.3917">
        <ele>16.95</ele>
        <time>2020-01-19T14:05:28Z</time>
      </trkpt>
      <trkpt lat="47.17429" lon="-1.39162">
        <ele>16.7</ele>
        <time>2020-01-19T14:05:30Z</time>
      </trkpt>
      <trkpt lat="47.1744" lon="-1.39154">
        <ele>15.27</ele>
        <time>2020-01-19T14:05:32Z</time>
      </trkpt>
      <trkpt lat="47.1745" lon="-1.39146">
        <ele>14.96</ele>
        <time>2020-01-19T14:05:34Z</time>
      </trkpt>
      <trkpt lat="47.17461" lon="-1.39135">
        <ele>13.29</ele>
        <time>2020-01-19T14:05:36Z</time>
      </trkpt>
      <trkpt lat="47.1747" lon="-1.39127">
        <ele>11.92</ele>
        <time>2020-01-19T14:05:38Z</time>
      </trkpt>
      <trkpt lat="47.17482" lon="-1.39118">
        <ele>10.3</ele>
        <time>2020-01-19T14:05:40Z</time>
      </trkpt>
      <trkpt lat="47.17491" lon="-1.3911">
        <ele>9.11</ele>
        <time>2020-01-19T14:05:42Z</time>
      </trkpt>
      <trkpt lat="47.175" lon="-1.39101">
        <ele>9.28</ele>
        <time>2020-01-19T14:05:44Z</time>
      </trkpt>
      <trkpt lat="47.17511" lon="-1.39092">
        <ele>9.92</ele>
        <time>2020-01-19T14:05:46Z</time>
      </trkpt>
      <trkpt lat="47.17519" lon="-1.39084">
        <ele>9.03</ele>
        <time>2020-01-19T14:05:48Z</time>
      </trkpt>
      <trkpt lat="47.17531" lon="-1.39074">
        <ele>9.84</ele>
        <time>2020-01-19T14:05:51Z</time>
      </trkpt>
      <trkpt lat="47.17543" lon="-1.39061">
        <ele>10.37</ele>
        <time>2020-01-19T14:05:54Z</time>
      </trkpt>
      <trkpt lat="47.17554" lon="-1.3905">
        <ele>11.03</ele>
        <time>2020-01-19T14:05:56Z</time>
      </trkpt>
      <trkpt lat="47.17561" lon="-1.39037">
        <ele>10.52</ele>
        <time>2020-01-19T14:05:59Z</time>
      </trkpt>
      <trkpt lat="47.17565" lon="-1.39021">
        <ele>9.74</ele>
        <time>2020-01-19T14:06:01Z</time>
      </trkpt>
      <trkpt lat="47.17569" lon="-1.39005">
        <ele>8.75</ele>
        <time>2020-01-19T14:06:03Z</time>
      </trkpt>
      <trkpt lat="47.17573" lon="-1.38986">
        <ele>8.31</ele>
        <time>2020-01-19T14:06:06Z</time>
      </trkpt>
      <trkpt lat="47.17577" lon="-1.38969">
        <ele>9.27</ele>
        <time>2020-01-19T14:06:08Z</time>
      </trkpt>
      <trkpt lat="47.17582" lon="-1.38955">
        <ele>9.98</ele>
        <time>2020-01-19T14:06:11Z</time>
      </trkpt>
      <trkpt lat="47.17588" lon="-1.38944">
        <ele>8.68</ele>
        <time>2020-01-19T14:06:13Z</time>
      </trkpt>
      <trkpt lat="47.17594" lon="-1.38934">
        <ele>7.42</ele>
        <time>2020-01-19T14:06:15Z</time>
      </trkpt>
      <trkpt lat="47.17603" lon="-1.3892">
        <ele>7.29</ele>
        <time>2020-01-19T14:06:17Z</time>
      </trkpt>
      <trkpt lat="47.17612" lon="-1.38907">
        <ele>9.16</ele>
        <time>2020-01-19T14:06:20Z</time>
      </trkpt>
      <trkpt lat="47.17619" lon="-1.38893">
        <ele>9.34</ele>
        <time>2020-01-19T14:06:22Z</time>
      </trkpt>
      <trkpt lat="47.17626" lon="-1.38878">
        <ele>10</ele>
        <time>2020-01-19T14:06:25Z</time>
      </trkpt>
      <trkpt lat="47.17632" lon="-1.38865">
        <ele>9.86</ele>
        <time>2020-01-19T14:06:28Z</time>
      </trkpt>
      <trkpt lat="47.1764" lon="-1.38856">
        <ele>10.01</ele>
        <time>2020-01-19T14:06:31Z</time>
      </trkpt>
      <trkpt lat="47.17649" lon="-1.38844">
        <ele>9.82</ele>
        <time>2020-01-19T14:06:34Z</time>
      </trkpt>
      <trkpt lat="47.1766" lon="-1.38837">
        <ele>8.99</ele>
        <time>2020-01-19T14:06:36Z</time>
      </trkpt>
      <trkpt lat="47.1767" lon="-1.38835">
        <ele>8.34</ele>
        <time>2020-01-19T14:06:38Z</time>
      </trkpt>
      <trkpt lat="47.17682" lon="-1.38832">
        <ele>8.75</ele>
        <time>2020-01-19T14:06:40Z</time>
      </trkpt>
      <trkpt lat="47.17694" lon="-1.38831">
        <ele>8.4</ele>
        <time>2020-01-19T14:06:42Z</time>
      </trkpt>
      <trkpt lat="47.17705" lon="-1.3883">
        <ele>8.26</ele>
        <time>2020-01-19T14:06:45Z</time>
      </trkpt>
      <trkpt lat="47.17719" lon="-1.38827">
        <ele>10.24</ele>
        <time>2020-01-19T14:06:48Z</time>
      </trkpt>
      <trkpt lat="47.17729" lon="-1.38825">
        <ele>11.16</ele>
        <time>2020-01-19T14:06:50Z</time>
      </trkpt>
      <trkpt lat="47.17742" lon="-1.38823">
        <ele>12.34</ele>
        <time>2020-01-19T14:06:52Z</time>
      </trkpt>
      <trkpt lat="47.17752" lon="-1.38825">
        <ele>13.52</ele>
        <time>2020-01-19T14:06:55Z</time>
      </trkpt>
      <trkpt lat="47.17762" lon="-1.38827">
        <ele>12.78</ele>
        <time>2020-01-19T14:06:57Z</time>
      </trkpt>
      <trkpt lat="47.17771" lon="-1.38829">
        <ele>12.12</ele>
        <time>2020-01-19T14:06:59Z</time>
      </trkpt>
      <trkpt lat="47.17782" lon="-1.38832">
        <ele>11.6</ele>
        <time>2020-01-19T14:07:01Z</time>
      </trkpt>
      <trkpt lat="47.17791" lon="-1.38835">
        <ele>10.67</ele>
        <time>2020-01-19T14:07:03Z</time>
      </trkpt>
      <trkpt lat="47.17804" lon="-1.38838">
        <ele>9.49</ele>
        <time>2020-01-19T14:07:05Z</time>
      </trkpt>
      <trkpt lat="47.17815" lon="-1.3884">
        <ele>8.58</ele>
        <time>2020-01-19T14:07:07Z</time>
      </trkpt>
      <trkpt lat="47.17827" lon="-1.38843">
        <ele>7.39</ele>
        <time>2020-01-19T14:07:09Z</time>
      </trkpt>
      <trkpt lat="47.17837" lon="-1.38846">
        <ele>7.85</ele>
        <time>2020-01-19T14:07:11Z</time>
      </trkpt>
      <trkpt lat="47.17847" lon="-1.3885">
        <ele>8.39</ele>
        <time>2020-01-19T14:07:13Z</time>
      </trkpt>
      <trkpt lat="47.17857" lon="-1.38852">
        <ele>8.89</ele>
        <time>2020-01-19T14:07:15Z</time>
      </trkpt>
      <trkpt lat="47.17868" lon="-1.38856">
        <ele>8.09</ele>
        <time>2020-01-19T14:07:17Z</time>
      </trkpt>
      <trkpt lat="47.17878" lon="-1.3886">
        <ele>8.48</ele>
        <time>2020-01-19T14:07:19Z</time>
      </trkpt>
      <trkpt lat="47.17889" lon="-1.38864">
        <ele>8.37</ele>
        <time>2020-01-19T14:07:21Z</time>
      </trkpt>
      <trkpt lat="47.17898" lon="-1.38867">
        <ele>7.73</ele>
        <time>2020-01-19T14:07:23Z</time>
      </trkpt>
      <trkpt lat="47.17908" lon="-1.38872">
        <ele>7.47</ele>
        <time>2020-01-19T14:07:25Z</time>
      </trkpt>
      <trkpt lat="47.1792" lon="-1.38875">
        <ele>7.78</ele>
        <time>2020-01-19T14:07:27Z</time>
      </trkpt>
      <trkpt lat="47.17932" lon="-1.38878">
        <ele>8.12</ele>
        <time>2020-01-19T14:07:29Z</time>
      </trkpt>
      <trkpt lat="47.17942" lon="-1.38881">
        <ele>7.52</ele>
        <time>2020-01-19T14:07:31Z</time>
      </trkpt>
      <trkpt lat="47.17955" lon="-1.38885">
        <ele>8.79</ele>
        <time>2020-01-19T14:07:33Z</time>
      </trkpt>
      <trkpt lat="47.17967" lon="-1.38889">
        <ele>9.95</ele>
        <time>2020-01-19T14:07:35Z</time>
      </trkpt>
      <trkpt lat="47.17977" lon="-1.38892">
        <ele>10.68</ele>
        <time>2020-01-19T14:07:37Z</time>
      </trkpt>
      <trkpt lat="47.17987" lon="-1.38895">
        <ele>10.79</ele>
        <time>2020-01-19T14:07:39Z</time>
      </trkpt>
      <trkpt lat="47.17996" lon="-1.38898">
        <ele>10.03</ele>
        <time>2020-01-19T14:07:41Z</time>
      </trkpt>
      <trkpt lat="47.18009" lon="-1.38903">
        <ele>10.17</ele>
        <time>2020-01-19T14:07:43Z</time>
      </trkpt>
      <trkpt lat="47.18021" lon="-1.38908">
        <ele>9.13</ele>
        <time>2020-01-19T14:07:45Z</time>
      </trkpt>
      <trkpt lat="47.18034" lon="-1.38915">
        <ele>7.6</ele>
        <time>2020-01-19T14:07:47Z</time>
      </trkpt>
      <trkpt lat="47.18043" lon="-1.38921">
        <ele>5.56</ele>
        <time>2020-01-19T14:07:49Z</time>
      </trkpt>
      <trkpt lat="47.18053" lon="-1.38927">
        <ele>5.08</ele>
        <time>2020-01-19T14:07:51Z</time>
      </trkpt>
      <trkpt lat="47.18063" lon="-1.38933">
        <ele>5.56</ele>
        <time>2020-01-19T14:07:53Z</time>
      </trkpt>
      <trkpt lat="47.18075" lon="-1.3894">
        <ele>5.02</ele>
        <time>2020-01-19T14:07:55Z</time>
      </trkpt>
      <trkpt lat="47.18083" lon="-1.38944">
        <ele>4.57</ele>
        <time>2020-01-19T14:07:57Z</time>
      </trkpt>
      <trkpt lat="47.18094" lon="-1.38952">
        <ele>4.04</ele>
        <time>2020-01-19T14:07:59Z</time>
      </trkpt>
      <trkpt lat="47.18106" lon="-1.38958">
        <ele>4.21</ele>
        <time>2020-01-19T14:08:01Z</time>
      </trkpt>
      <trkpt lat="47.18115" lon="-1.38963">
        <ele>4.52</ele>
        <time>2020-01-19T14:08:03Z</time>
      </trkpt>
      <trkpt lat="47.18126" lon="-1.3897">
        <ele>4.55</ele>
        <time>2020-01-19T14:08:05Z</time>
      </trkpt>
      <trkpt lat="47.18136" lon="-1.38976">
        <ele>4.49</ele>
        <time>2020-01-19T14:08:07Z</time>
      </trkpt>
      <trkpt lat="47.18147" lon="-1.38982">
        <ele>4.38</ele>
        <time>2020-01-19T14:08:09Z</time>
      </trkpt>
      <trkpt lat="47.18156" lon="-1.38988">
        <ele>3.44</ele>
        <time>2020-01-19T14:08:11Z</time>
      </trkpt>
      <trkpt lat="47.18166" lon="-1.38995">
        <ele>3.05</ele>
        <time>2020-01-19T14:08:13Z</time>
      </trkpt>
      <trkpt lat="47.18177" lon="-1.39">
        <ele>2.76</ele>
        <time>2020-01-19T14:08:15Z</time>
      </trkpt>
      <trkpt lat="47.18188" lon="-1.39006">
        <ele>2.27</ele>
        <time>2020-01-19T14:08:17Z</time>
      </trkpt>
      <trkpt lat="47.18196" lon="-1.39011">
        <ele>1.13</ele>
        <time>2020-01-19T14:08:19Z</time>
      </trkpt>
      <trkpt lat="47.18207" lon="-1.39017">
        <ele>0.95</ele>
        <time>2020-01-19T14:08:21Z</time>
      </trkpt>
      <trkpt lat="47.18218" lon="-1.39024">
        <ele>2.06</ele>
        <time>2020-01-19T14:08:23Z</time>
      </trkpt>
      <trkpt lat="47.18228" lon="-1.3903">
        <ele>3.21</ele>
        <time>2020-01-19T14:08:25Z</time>
      </trkpt>
      <trkpt lat="47.1824" lon="-1.39038">
        <ele>3.57</ele>
        <time>2020-01-19T14:08:27Z</time>
      </trkpt>
      <trkpt lat="47.18252" lon="-1.39044">
        <ele>3.71</ele>
        <time>2020-01-19T14:08:29Z</time>
      </trkpt>
      <trkpt lat="47.18262" lon="-1.3905">
        <ele>3.36</ele>
        <time>2020-01-19T14:08:31Z</time>
      </trkpt>
      <trkpt lat="47.18272" lon="-1.39057">
        <ele>3.06</ele>
        <time>2020-01-19T14:08:33Z</time>
      </trkpt>
      <trkpt lat="47.18282" lon="-1.39061">
        <ele>2.26</ele>
        <time>2020-01-19T14:08:35Z</time>
      </trkpt>
      <trkpt lat="47.18293" lon="-1.39068">
        <ele>2.09</ele>
        <time>2020-01-19T14:08:37Z</time>
      </trkpt>
      <trkpt lat="47.18305" lon="-1.39076">
        <ele>0.63</ele>
        <time>2020-01-19T14:08:39Z</time>
      </trkpt>
      <trkpt lat="47.18317" lon="-1.39084">
        <ele>0.33</ele>
        <time>2020-01-19T14:08:41Z</time>
      </trkpt>
      <trkpt lat="47.18326" lon="-1.39089">
        <ele>-0.49</ele>
        <time>2020-01-19T14:08:43Z</time>
      </trkpt>
      <trkpt lat="47.18337" lon="-1.39096">
        <ele>-0.07</ele>
        <time>2020-01-19T14:08:45Z</time>
      </trkpt>
      <trkpt lat="47.18347" lon="-1.39101">
        <ele>1.87</ele>
        <time>2020-01-19T14:08:47Z</time>
      </trkpt>
      <trkpt lat="47.18356" lon="-1.39108">
        <ele>1.98</ele>
        <time>2020-01-19T14:08:49Z</time>
      </trkpt>
      <trkpt lat="47.18369" lon="-1.39115">
        <ele>0.75</ele>
        <time>2020-01-19T14:08:51Z</time>
      </trkpt>
      <trkpt lat="47.1838" lon="-1.39122">
        <ele>0.73</ele>
        <time>2020-01-19T14:08:53Z</time>
      </trkpt>
      <trkpt lat="47.18392" lon="-1.3913">
        <ele>0.78</ele>
        <time>2020-01-19T14:08:55Z</time>
      </trkpt>
      <trkpt lat="47.18403" lon="-1.39135">
        <ele>1.17</ele>
        <time>2020-01-19T14:08:57Z</time>
      </trkpt>
      <trkpt lat="47.18412" lon="-1.3914">
        <ele>0.81</ele>
        <time>2020-01-19T14:08:59Z</time>
      </trkpt>
      <trkpt lat="47.18423" lon="-1.39146">
        <ele>-0.34</ele>
        <time>2020-01-19T14:09:01Z</time>
      </trkpt>
      <trkpt lat="47.18432" lon="-1.39152">
        <ele>-0.88</ele>
        <time>2020-01-19T14:09:03Z</time>
      </trkpt>
      <trkpt lat="47.18442" lon="-1.39159">
        <ele>0.49</ele>
        <time>2020-01-19T14:09:05Z</time>
      </trkpt>
      <trkpt lat="47.18451" lon="-1.39167">
        <ele>1.36</ele>
        <time>2020-01-19T14:09:07Z</time>
      </trkpt>
      <trkpt lat="47.1846" lon="-1.39178">
        <ele>3.31</ele>
        <time>2020-01-19T14:09:09Z</time>
      </trkpt>
      <trkpt lat="47.18467" lon="-1.3919">
        <ele>5.94</ele>
        <time>2020-01-19T14:09:11Z</time>
      </trkpt>
      <trkpt lat="47.18473" lon="-1.39202">
        <ele>7.31</ele>
        <time>2020-01-19T14:09:13Z</time>
      </trkpt>
      <trkpt lat="47.18479" lon="-1.39216">
        <ele>8.6</ele>
        <time>2020-01-19T14:09:16Z</time>
      </trkpt>
      <trkpt lat="47.18484" lon="-1.39232">
        <ele>9.55</ele>
        <time>2020-01-19T14:09:18Z</time>
      </trkpt>
      <trkpt lat="47.18488" lon="-1.39245">
        <ele>9.63</ele>
        <time>2020-01-19T14:09:20Z</time>
      </trkpt>
      <trkpt lat="47.18491" lon="-1.39259">
        <ele>9.96</ele>
        <time>2020-01-19T14:09:22Z</time>
      </trkpt>
      <trkpt lat="47.18495" lon="-1.39272">
        <ele>10.09</ele>
        <time>2020-01-19T14:09:24Z</time>
      </trkpt>
      <trkpt lat="47.18499" lon="-1.39285">
        <ele>10.48</ele>
        <time>2020-01-19T14:09:26Z</time>
      </trkpt>
      <trkpt lat="47.18505" lon="-1.39303">
        <ele>10.65</ele>
        <time>2020-01-19T14:09:29Z</time>
      </trkpt>
      <trkpt lat="47.18511" lon="-1.39316">
        <ele>10.08</ele>
        <time>2020-01-19T14:09:31Z</time>
      </trkpt>
      <trkpt lat="47.18516" lon="-1.39328">
        <ele>9.42</ele>
        <time>2020-01-19T14:09:33Z</time>
      </trkpt>
      <trkpt lat="47.18522" lon="-1.39341">
        <ele>9.9</ele>
        <time>2020-01-19T14:09:35Z</time>
      </trkpt>
      <trkpt lat="47.1853" lon="-1.39358">
        <ele>9.5</ele>
        <time>2020-01-19T14:09:38Z</time>
      </trkpt>
      <trkpt lat="47.18535" lon="-1.3937">
        <ele>9.34</ele>
        <time>2020-01-19T14:09:40Z</time>
      </trkpt>
      <trkpt lat="47.18542" lon="-1.39383">
        <ele>8.93</ele>
        <time>2020-01-19T14:09:42Z</time>
      </trkpt>
      <trkpt lat="47.18549" lon="-1.39393">
        <ele>7.1</ele>
        <time>2020-01-19T14:09:44Z</time>
      </trkpt>
      <trkpt lat="47.1856" lon="-1.39406">
        <ele>6.68</ele>
        <time>2020-01-19T14:09:47Z</time>
      </trkpt>
      <trkpt lat="47.18568" lon="-1.39413">
        <ele>6.48</ele>
        <time>2020-01-19T14:09:49Z</time>
      </trkpt>
      <trkpt lat="47.18578" lon="-1.39421">
        <ele>8.31</ele>
        <time>2020-01-19T14:09:52Z</time>
      </trkpt>
      <trkpt lat="47.18589" lon="-1.39428">
        <ele>8.99</ele>
        <time>2020-01-19T14:09:54Z</time>
      </trkpt>
      <trkpt lat="47.18597" lon="-1.39433">
        <ele>9.58</ele>
        <time>2020-01-19T14:09:56Z</time>
      </trkpt>
      <trkpt lat="47.1861" lon="-1.39443">
        <ele>9.45</ele>
        <time>2020-01-19T14:09:59Z</time>
      </trkpt>
      <trkpt lat="47.18621" lon="-1.39453">
        <ele>10.35</ele>
        <time>2020-01-19T14:10:02Z</time>
      </trkpt>
      <trkpt lat="47.1863" lon="-1.39461">
        <ele>9.96</ele>
        <time>2020-01-19T14:10:04Z</time>
      </trkpt>
      <trkpt lat="47.1864" lon="-1.39468">
        <ele>9.81</ele>
        <time>2020-01-19T14:10:06Z</time>
      </trkpt>
      <trkpt lat="47.18649" lon="-1.39474">
        <ele>9.21</ele>
        <time>2020-01-19T14:10:08Z</time>
      </trkpt>
      <trkpt lat="47.18659" lon="-1.39481">
        <ele>7.94</ele>
        <time>2020-01-19T14:10:10Z</time>
      </trkpt>
      <trkpt lat="47.18668" lon="-1.39488">
        <ele>6.61</ele>
        <time>2020-01-19T14:10:12Z</time>
      </trkpt>
      <trkpt lat="47.18677" lon="-1.39495">
        <ele>6.24</ele>
        <time>2020-01-19T14:10:14Z</time>
      </trkpt>
      <trkpt lat="47.18687" lon="-1.39503">
        <ele>5.3</ele>
        <time>2020-01-19T14:10:16Z</time>
      </trkpt>
      <trkpt lat="47.18699" lon="-1.39512">
        <ele>6.23</ele>
        <time>2020-01-19T14:10:19Z</time>
      </trkpt>
      <trkpt lat="47.18707" lon="-1.39519">
        <ele>6.14</ele>
        <time>2020-01-19T14:10:21Z</time>
      </trkpt>
      <trkpt lat="47.18716" lon="-1.39526">
        <ele>5.71</ele>
        <time>2020-01-19T14:10:23Z</time>
      </trkpt>
      <trkpt lat="47.18725" lon="-1.39537">
        <ele>5.44</ele>
        <time>2020-01-19T14:10:25Z</time>
      </trkpt>
      <trkpt lat="47.18732" lon="-1.39546">
        <ele>7.06</ele>
        <time>2020-01-19T14:10:27Z</time>
      </trkpt>
      <trkpt lat="47.18741" lon="-1.39558">
        <ele>8.17</ele>
        <time>2020-01-19T14:10:30Z</time>
      </trkpt>
      <trkpt lat="47.18748" lon="-1.3957">
        <ele>8.23</ele>
        <time>2020-01-19T14:10:32Z</time>
      </trkpt>
      <trkpt lat="47.18756" lon="-1.39584">
        <ele>8.15</ele>
        <time>2020-01-19T14:10:35Z</time>
      </trkpt>
      <trkpt lat="47.18763" lon="-1.39595">
        <ele>8.9</ele>
        <time>2020-01-19T14:10:37Z</time>
      </trkpt>
      <trkpt lat="47.18769" lon="-1.39607">
        <ele>10.61</ele>
        <time>2020-01-19T14:10:39Z</time>
      </trkpt>
      <trkpt lat="47.18775" lon="-1.39619">
        <ele>11.13</ele>
        <time>2020-01-19T14:10:42Z</time>
      </trkpt>
      <trkpt lat="47.18781" lon="-1.39632">
        <ele>11.28</ele>
        <time>2020-01-19T14:10:45Z</time>
      </trkpt>
      <trkpt lat="47.18788" lon="-1.39645">
        <ele>11.64</ele>
        <time>2020-01-19T14:10:48Z</time>
      </trkpt>
      <trkpt lat="47.18794" lon="-1.39659">
        <ele>11.94</ele>
        <time>2020-01-19T14:10:51Z</time>
      </trkpt>
      <trkpt lat="47.18799" lon="-1.3967">
        <ele>12.15</ele>
        <time>2020-01-19T14:10:54Z</time>
      </trkpt>
      <trkpt lat="47.18806" lon="-1.39682">
        <ele>12.34</ele>
        <time>2020-01-19T14:10:57Z</time>
      </trkpt>
      <trkpt lat="47.18813" lon="-1.39697">
        <ele>12.71</ele>
        <time>2020-01-19T14:11:01Z</time>
      </trkpt>
      <trkpt lat="47.18819" lon="-1.39711">
        <ele>12.96</ele>
        <time>2020-01-19T14:11:04Z</time>
      </trkpt>
      <trkpt lat="47.18825" lon="-1.39723">
        <ele>13.32</ele>
        <time>2020-01-19T14:11:08Z</time>
      </trkpt>
      <trkpt lat="47.18831" lon="-1.39735">
        <ele>13.72</ele>
        <time>2020-01-19T14:11:11Z</time>
      </trkpt>
      <trkpt lat="47.18837" lon="-1.39746">
        <ele>14.05</ele>
        <time>2020-01-19T14:11:14Z</time>
      </trkpt>
      <trkpt lat="47.18845" lon="-1.39762">
        <ele>14.83</ele>
        <time>2020-01-19T14:11:18Z</time>
      </trkpt>
      <trkpt lat="47.18851" lon="-1.39773">
        <ele>15.41</ele>
        <time>2020-01-19T14:11:21Z</time>
      </trkpt>
      <trkpt lat="47.18857" lon="-1.39785">
        <ele>16.13</ele>
        <time>2020-01-19T14:11:25Z</time>
      </trkpt>
      <trkpt lat="47.18865" lon="-1.39798">
        <ele>16.67</ele>
        <time>2020-01-19T14:11:28Z</time>
      </trkpt>
      <trkpt lat="47.18872" lon="-1.39811">
        <ele>17.23</ele>
        <time>2020-01-19T14:11:32Z</time>
      </trkpt>
      <trkpt lat="47.1888" lon="-1.39821">
        <ele>17.49</ele>
        <time>2020-01-19T14:11:35Z</time>
      </trkpt>
      <trkpt lat="47.18889" lon="-1.39832">
        <ele>17.81</ele>
        <time>2020-01-19T14:11:39Z</time>
      </trkpt>
      <trkpt lat="47.18898" lon="-1.39843">
        <ele>17.94</ele>
        <time>2020-01-19T14:11:42Z</time>
      </trkpt>
      <trkpt lat="47.18908" lon="-1.39854">
        <ele>18.14</ele>
        <time>2020-01-19T14:11:46Z</time>
      </trkpt>
      <trkpt lat="47.18916" lon="-1.39862">
        <ele>18.36</ele>
        <time>2020-01-19T14:11:49Z</time>
      </trkpt>
      <trkpt lat="47.18925" lon="-1.39872">
        <ele>18.6</ele>
        <time>2020-01-19T14:11:52Z</time>
      </trkpt>
      <trkpt lat="47.18934" lon="-1.39881">
        <ele>19.23</ele>
        <time>2020-01-19T14:11:56Z</time>
      </trkpt>
      <trkpt lat="47.18943" lon="-1.39891">
        <ele>19.77</ele>
        <time>2020-01-19T14:11:59Z</time>
      </trkpt>
      <trkpt lat="47.18951" lon="-1.39899">
        <ele>20.26</ele>
        <time>2020-01-19T14:12:02Z</time>
      </trkpt>
      <trkpt lat="47.18958" lon="-1.39908">
        <ele>20.63</ele>
        <time>2020-01-19T14:12:05Z</time>
      </trkpt>
      <trkpt lat="47.18966" lon="-1.3992">
        <ele>21.21</ele>
        <time>2020-01-19T14:12:08Z</time>
      </trkpt>
      <trkpt lat="47.18975" lon="-1.39933">
        <ele>21.83</ele>
        <time>2020-01-19T14:12:12Z</time>
      </trkpt>
      <trkpt lat="47.18984" lon="-1.39947">
        <ele>24.04</ele>
        <time>2020-01-19T14:12:15Z</time>
      </trkpt>
      <trkpt lat="47.18991" lon="-1.3996">
        <ele>23.67</ele>
        <time>2020-01-19T14:12:18Z</time>
      </trkpt>
      <trkpt lat="47.18998" lon="-1.39971">
        <ele>23.47</ele>
        <time>2020-01-19T14:12:21Z</time>
      </trkpt>
      <trkpt lat="47.19005" lon="-1.39984">
        <ele>23.59</ele>
        <time>2020-01-19T14:12:24Z</time>
      </trkpt>
      <trkpt lat="47.19012" lon="-1.39996">
        <ele>24.43</ele>
        <time>2020-01-19T14:12:27Z</time>
      </trkpt>
      <trkpt lat="47.1902" lon="-1.40008">
        <ele>25.59</ele>
        <time>2020-01-19T14:12:30Z</time>
      </trkpt>
      <trkpt lat="47.19028" lon="-1.40023">
        <ele>26.08</ele>
        <time>2020-01-19T14:12:33Z</time>
      </trkpt>
      <trkpt lat="47.19036" lon="-1.40034">
        <ele>25.51</ele>
        <time>2020-01-19T14:12:36Z</time>
      </trkpt>
      <trkpt lat="47.19042" lon="-1.40044">
        <ele>25.03</ele>
        <time>2020-01-19T14:12:38Z</time>
      </trkpt>
      <trkpt lat="47.19052" lon="-1.40059">
        <ele>27.46</ele>
        <time>2020-01-19T14:12:42Z</time>
      </trkpt>
      <trkpt lat="47.19061" lon="-1.40074">
        <ele>27.75</ele>
        <time>2020-01-19T14:12:45Z</time>
      </trkpt>
      <trkpt lat="47.19067" lon="-1.40085">
        <ele>27.36</ele>
        <time>2020-01-19T14:12:47Z</time>
      </trkpt>
      <trkpt lat="47.19075" lon="-1.40098">
        <ele>28.81</ele>
        <time>2020-01-19T14:12:50Z</time>
      </trkpt>
      <trkpt lat="47.19081" lon="-1.40109">
        <ele>29.55</ele>
        <time>2020-01-19T14:12:52Z</time>
      </trkpt>
      <trkpt lat="47.19086" lon="-1.4012">
        <ele>29.42</ele>
        <time>2020-01-19T14:12:54Z</time>
      </trkpt>
      <trkpt lat="47.19091" lon="-1.40133">
        <ele>28.59</ele>
        <time>2020-01-19T14:12:56Z</time>
      </trkpt>
      <trkpt lat="47.19096" lon="-1.40149">
        <ele>27.22</ele>
        <time>2020-01-19T14:12:58Z</time>
      </trkpt>
      <trkpt lat="47.19102" lon="-1.40162">
        <ele>25.33</ele>
        <time>2020-01-19T14:13:00Z</time>
      </trkpt>
      <trkpt lat="47.19107" lon="-1.40175">
        <ele>24.63</ele>
        <time>2020-01-19T14:13:02Z</time>
      </trkpt>
      <trkpt lat="47.19112" lon="-1.4019">
        <ele>24.69</ele>
        <time>2020-01-19T14:13:04Z</time>
      </trkpt>
      <trkpt lat="47.19118" lon="-1.40208">
        <ele>24.56</ele>
        <time>2020-01-19T14:13:06Z</time>
      </trkpt>
      <trkpt lat="47.19125" lon="-1.40229">
        <ele>23.15</ele>
        <time>2020-01-19T14:13:08Z</time>
      </trkpt>
      <trkpt lat="47.19131" lon="-1.40245">
        <ele>22.54</ele>
        <time>2020-01-19T14:13:10Z</time>
      </trkpt>
      <trkpt lat="47.19139" lon="-1.40265">
        <ele>21.88</ele>
        <time>2020-01-19T14:13:12Z</time>
      </trkpt>
      <trkpt lat="47.19147" lon="-1.40287">
        <ele>21.46</ele>
        <time>2020-01-19T14:13:14Z</time>
      </trkpt>
      <trkpt lat="47.19153" lon="-1.40306">
        <ele>21.56</ele>
        <time>2020-01-19T14:13:16Z</time>
      </trkpt>
      <trkpt lat="47.1916" lon="-1.40327">
        <ele>21.36</ele>
        <time>2020-01-19T14:13:18Z</time>
      </trkpt>
      <trkpt lat="47.19166" lon="-1.40344">
        <ele>21.79</ele>
        <time>2020-01-19T14:13:20Z</time>
      </trkpt>
      <trkpt lat="47.19173" lon="-1.40361">
        <ele>22.57</ele>
        <time>2020-01-19T14:13:22Z</time>
      </trkpt>
      <trkpt lat="47.19179" lon="-1.40379">
        <ele>22.89</ele>
        <time>2020-01-19T14:13:24Z</time>
      </trkpt>
      <trkpt lat="47.19186" lon="-1.40399">
        <ele>22.83</ele>
        <time>2020-01-19T14:13:26Z</time>
      </trkpt>
      <trkpt lat="47.19193" lon="-1.40418">
        <ele>22.09</ele>
        <time>2020-01-19T14:13:28Z</time>
      </trkpt>
      <trkpt lat="47.19198" lon="-1.40437">
        <ele>21.28</ele>
        <time>2020-01-19T14:13:30Z</time>
      </trkpt>
      <trkpt lat="47.19203" lon="-1.40458">
        <ele>20.95</ele>
        <time>2020-01-19T14:13:32Z</time>
      </trkpt>
      <trkpt lat="47.19206" lon="-1.40481">
        <ele>20.3</ele>
        <time>2020-01-19T14:13:34Z</time>
      </trkpt>
      <trkpt lat="47.1921" lon="-1.40504">
        <ele>19.24</ele>
        <time>2020-01-19T14:13:36Z</time>
      </trkpt>
      <trkpt lat="47.19213" lon="-1.40525">
        <ele>17.35</ele>
        <time>2020-01-19T14:13:38Z</time>
      </trkpt>
      <trkpt lat="47.19217" lon="-1.40548">
        <ele>16.5</ele>
        <time>2020-01-19T14:13:40Z</time>
      </trkpt>
      <trkpt lat="47.1922" lon="-1.40569">
        <ele>15.23</ele>
        <time>2020-01-19T14:13:42Z</time>
      </trkpt>
      <trkpt lat="47.19223" lon="-1.40588">
        <ele>13.6</ele>
        <time>2020-01-19T14:13:44Z</time>
      </trkpt>
      <trkpt lat="47.19225" lon="-1.40606">
        <ele>13.26</ele>
        <time>2020-01-19T14:13:46Z</time>
      </trkpt>
      <trkpt lat="47.19229" lon="-1.40626">
        <ele>13.42</ele>
        <time>2020-01-19T14:13:48Z</time>
      </trkpt>
      <trkpt lat="47.19233" lon="-1.40643">
        <ele>13.55</ele>
        <time>2020-01-19T14:13:50Z</time>
      </trkpt>
      <trkpt lat="47.19236" lon="-1.40661">
        <ele>13.77</ele>
        <time>2020-01-19T14:13:52Z</time>
      </trkpt>
      <trkpt lat="47.19239" lon="-1.4068">
        <ele>13.6</ele>
        <time>2020-01-19T14:13:54Z</time>
      </trkpt>
      <trkpt lat="47.19242" lon="-1.40697">
        <ele>13.02</ele>
        <time>2020-01-19T14:13:56Z</time>
      </trkpt>
      <trkpt lat="47.19244" lon="-1.40712">
        <ele>14.07</ele>
        <time>2020-01-19T14:13:58Z</time>
      </trkpt>
      <trkpt lat="47.19247" lon="-1.40726">
        <ele>15.76</ele>
        <time>2020-01-19T14:14:00Z</time>
      </trkpt>
      <trkpt lat="47.19249" lon="-1.4074">
        <ele>17.87</ele>
        <time>2020-01-19T14:14:02Z</time>
      </trkpt>
      <trkpt lat="47.19252" lon="-1.40754">
        <ele>18.73</ele>
        <time>2020-01-19T14:14:04Z</time>
      </trkpt>
      <trkpt lat="47.19254" lon="-1.40772">
        <ele>18.41</ele>
        <time>2020-01-19T14:14:06Z</time>
      </trkpt>
      <trkpt lat="47.19258" lon="-1.40794">
        <ele>18.86</ele>
        <time>2020-01-19T14:14:09Z</time>
      </trkpt>
      <trkpt lat="47.19259" lon="-1.40812">
        <ele>17.91</ele>
        <time>2020-01-19T14:14:11Z</time>
      </trkpt>
      <trkpt lat="47.19261" lon="-1.40827">
        <ele>17.44</ele>
        <time>2020-01-19T14:14:13Z</time>
      </trkpt>
      <trkpt lat="47.19262" lon="-1.4084">
        <ele>18.76</ele>
        <time>2020-01-19T14:14:15Z</time>
      </trkpt>
      <trkpt lat="47.19264" lon="-1.40857">
        <ele>20.55</ele>
        <time>2020-01-19T14:14:17Z</time>
      </trkpt>
      <trkpt lat="47.19266" lon="-1.40875">
        <ele>21.37</ele>
        <time>2020-01-19T14:14:19Z</time>
      </trkpt>
      <trkpt lat="47.19268" lon="-1.40893">
        <ele>21.96</ele>
        <time>2020-01-19T14:14:21Z</time>
      </trkpt>
      <trkpt lat="47.19268" lon="-1.4091">
        <ele>22.54</ele>
        <time>2020-01-19T14:14:23Z</time>
      </trkpt>
      <trkpt lat="47.19268" lon="-1.40925">
        <ele>21.83</ele>
        <time>2020-01-19T14:14:25Z</time>
      </trkpt>
      <trkpt lat="47.19267" lon="-1.40944">
        <ele>22.11</ele>
        <time>2020-01-19T14:14:27Z</time>
      </trkpt>
      <trkpt lat="47.19266" lon="-1.40962">
        <ele>21.61</ele>
        <time>2020-01-19T14:14:29Z</time>
      </trkpt>
      <trkpt lat="47.19265" lon="-1.40979">
        <ele>21.75</ele>
        <time>2020-01-19T14:14:31Z</time>
      </trkpt>
      <trkpt lat="47.19265" lon="-1.40997">
        <ele>21.31</ele>
        <time>2020-01-19T14:14:33Z</time>
      </trkpt>
      <trkpt lat="47.19266" lon="-1.41012">
        <ele>20.18</ele>
        <time>2020-01-19T14:14:35Z</time>
      </trkpt>
      <trkpt lat="47.19269" lon="-1.41028">
        <ele>19.04</ele>
        <time>2020-01-19T14:14:37Z</time>
      </trkpt>
      <trkpt lat="47.19273" lon="-1.41042">
        <ele>18.02</ele>
        <time>2020-01-19T14:14:39Z</time>
      </trkpt>
      <trkpt lat="47.19278" lon="-1.41059">
        <ele>17.58</ele>
        <time>2020-01-19T14:14:41Z</time>
      </trkpt>
      <trkpt lat="47.19284" lon="-1.41073">
        <ele>17.53</ele>
        <time>2020-01-19T14:14:43Z</time>
      </trkpt>
      <trkpt lat="47.1929" lon="-1.41086">
        <ele>16.45</ele>
        <time>2020-01-19T14:14:45Z</time>
      </trkpt>
      <trkpt lat="47.19296" lon="-1.41099">
        <ele>15.02</ele>
        <time>2020-01-19T14:14:47Z</time>
      </trkpt>
      <trkpt lat="47.19303" lon="-1.41112">
        <ele>14.52</ele>
        <time>2020-01-19T14:14:49Z</time>
      </trkpt>
      <trkpt lat="47.19309" lon="-1.41125">
        <ele>14.93</ele>
        <time>2020-01-19T14:14:51Z</time>
      </trkpt>
      <trkpt lat="47.19318" lon="-1.4114">
        <ele>16.89</ele>
        <time>2020-01-19T14:14:54Z</time>
      </trkpt>
      <trkpt lat="47.19325" lon="-1.41154">
        <ele>18.18</ele>
        <time>2020-01-19T14:14:56Z</time>
      </trkpt>
      <trkpt lat="47.19334" lon="-1.41167">
        <ele>19.47</ele>
        <time>2020-01-19T14:14:58Z</time>
      </trkpt>
      <trkpt lat="47.19343" lon="-1.41183">
        <ele>20.28</ele>
        <time>2020-01-19T14:15:01Z</time>
      </trkpt>
      <trkpt lat="47.19349" lon="-1.41196">
        <ele>19.85</ele>
        <time>2020-01-19T14:15:03Z</time>
      </trkpt>
      <trkpt lat="47.19357" lon="-1.41212">
        <ele>19.17</ele>
        <time>2020-01-19T14:15:06Z</time>
      </trkpt>
      <trkpt lat="47.19366" lon="-1.41229">
        <ele>19.19</ele>
        <time>2020-01-19T14:15:09Z</time>
      </trkpt>
      <trkpt lat="47.19373" lon="-1.41241">
        <ele>19.48</ele>
        <time>2020-01-19T14:15:12Z</time>
      </trkpt>
      <trkpt lat="47.19382" lon="-1.41257">
        <ele>21.22</ele>
        <time>2020-01-19T14:15:15Z</time>
      </trkpt>
      <trkpt lat="47.1939" lon="-1.41273">
        <ele>23.31</ele>
        <time>2020-01-19T14:15:18Z</time>
      </trkpt>
      <trkpt lat="47.19395" lon="-1.41285">
        <ele>22.52</ele>
        <time>2020-01-19T14:15:20Z</time>
      </trkpt>
      <trkpt lat="47.19401" lon="-1.41295">
        <ele>21.94</ele>
        <time>2020-01-19T14:15:22Z</time>
      </trkpt>
      <trkpt lat="47.19407" lon="-1.41308">
        <ele>21.67</ele>
        <time>2020-01-19T14:15:25Z</time>
      </trkpt>
      <trkpt lat="47.19414" lon="-1.41323">
        <ele>22.38</ele>
        <time>2020-01-19T14:15:28Z</time>
      </trkpt>
      <trkpt lat="47.19419" lon="-1.41333">
        <ele>23.64</ele>
        <time>2020-01-19T14:15:30Z</time>
      </trkpt>
      <trkpt lat="47.19426" lon="-1.41346">
        <ele>24.12</ele>
        <time>2020-01-19T14:15:32Z</time>
      </trkpt>
      <trkpt lat="47.19433" lon="-1.41358">
        <ele>23.87</ele>
        <time>2020-01-19T14:15:34Z</time>
      </trkpt>
      <trkpt lat="47.1944" lon="-1.41368">
        <ele>23.52</ele>
        <time>2020-01-19T14:15:36Z</time>
      </trkpt>
      <trkpt lat="47.1945" lon="-1.4138">
        <ele>23.32</ele>
        <time>2020-01-19T14:15:38Z</time>
      </trkpt>
      <trkpt lat="47.19458" lon="-1.41389">
        <ele>22.81</ele>
        <time>2020-01-19T14:15:40Z</time>
      </trkpt>
      <trkpt lat="47.19465" lon="-1.41397">
        <ele>22.99</ele>
        <time>2020-01-19T14:15:42Z</time>
      </trkpt>
      <trkpt lat="47.19476" lon="-1.41408">
        <ele>23.57</ele>
        <time>2020-01-19T14:15:45Z</time>
      </trkpt>
      <trkpt lat="47.19485" lon="-1.41416">
        <ele>23.81</ele>
        <time>2020-01-19T14:15:47Z</time>
      </trkpt>
      <trkpt lat="47.19493" lon="-1.41424">
        <ele>23.95</ele>
        <time>2020-01-19T14:15:49Z</time>
      </trkpt>
      <trkpt lat="47.19504" lon="-1.41436">
        <ele>23.19</ele>
        <time>2020-01-19T14:15:52Z</time>
      </trkpt>
      <trkpt lat="47.19514" lon="-1.41447">
        <ele>24.21</ele>
        <time>2020-01-19T14:15:55Z</time>
      </trkpt>
      <trkpt lat="47.19523" lon="-1.41455">
        <ele>25.01</ele>
        <time>2020-01-19T14:15:57Z</time>
      </trkpt>
      <trkpt lat="47.19531" lon="-1.41464">
        <ele>25.18</ele>
        <time>2020-01-19T14:15:59Z</time>
      </trkpt>
      <trkpt lat="47.19539" lon="-1.41471">
        <ele>24.58</ele>
        <time>2020-01-19T14:16:01Z</time>
      </trkpt>
      <trkpt lat="47.19549" lon="-1.41483">
        <ele>24.05</ele>
        <time>2020-01-19T14:16:04Z</time>
      </trkpt>
      <trkpt lat="47.19558" lon="-1.41493">
        <ele>24.11</ele>
        <time>2020-01-19T14:16:06Z</time>
      </trkpt>
      <trkpt lat="47.19565" lon="-1.41501">
        <ele>24.47</ele>
        <time>2020-01-19T14:16:08Z</time>
      </trkpt>
      <trkpt lat="47.19573" lon="-1.41512">
        <ele>25.31</ele>
        <time>2020-01-19T14:16:10Z</time>
      </trkpt>
      <trkpt lat="47.1958" lon="-1.41524">
        <ele>26.21</ele>
        <time>2020-01-19T14:16:12Z</time>
      </trkpt>
      <trkpt lat="47.19585" lon="-1.41535">
        <ele>25.64</ele>
        <time>2020-01-19T14:16:14Z</time>
      </trkpt>
      <trkpt lat="47.19592" lon="-1.41551">
        <ele>25.25</ele>
        <time>2020-01-19T14:16:16Z</time>
      </trkpt>
      <trkpt lat="47.196" lon="-1.41566">
        <ele>24.99</ele>
        <time>2020-01-19T14:16:18Z</time>
      </trkpt>
      <trkpt lat="47.19606" lon="-1.41581">
        <ele>25.08</ele>
        <time>2020-01-19T14:16:20Z</time>
      </trkpt>
      <trkpt lat="47.19612" lon="-1.41594">
        <ele>24.26</ele>
        <time>2020-01-19T14:16:22Z</time>
      </trkpt>
      <trkpt lat="47.19619" lon="-1.41606">
        <ele>24.27</ele>
        <time>2020-01-19T14:16:24Z</time>
      </trkpt>
      <trkpt lat="47.19627" lon="-1.41621">
        <ele>24.52</ele>
        <time>2020-01-19T14:16:26Z</time>
      </trkpt>
      <trkpt lat="47.19634" lon="-1.41636">
        <ele>24.86</ele>
        <time>2020-01-19T14:16:28Z</time>
      </trkpt>
      <trkpt lat="47.19641" lon="-1.41648">
        <ele>23.87</ele>
        <time>2020-01-19T14:16:30Z</time>
      </trkpt>
      <trkpt lat="47.19647" lon="-1.4166">
        <ele>23.88</ele>
        <time>2020-01-19T14:16:32Z</time>
      </trkpt>
      <trkpt lat="47.19654" lon="-1.41676">
        <ele>24.74</ele>
        <time>2020-01-19T14:16:34Z</time>
      </trkpt>
      <trkpt lat="47.1966" lon="-1.4169">
        <ele>25.48</ele>
        <time>2020-01-19T14:16:36Z</time>
      </trkpt>
      <trkpt lat="47.19667" lon="-1.41705">
        <ele>24.64</ele>
        <time>2020-01-19T14:16:38Z</time>
      </trkpt>
      <trkpt lat="47.19673" lon="-1.41717">
        <ele>24.03</ele>
        <time>2020-01-19T14:16:40Z</time>
      </trkpt>
      <trkpt lat="47.19679" lon="-1.4173">
        <ele>23.62</ele>
        <time>2020-01-19T14:16:42Z</time>
      </trkpt>
      <trkpt lat="47.19685" lon="-1.41744">
        <ele>23.22</ele>
        <time>2020-01-19T14:16:44Z</time>
      </trkpt>
      <trkpt lat="47.19691" lon="-1.41758">
        <ele>23.32</ele>
        <time>2020-01-19T14:16:46Z</time>
      </trkpt>
      <trkpt lat="47.19698" lon="-1.41771">
        <ele>23.39</ele>
        <time>2020-01-19T14:16:48Z</time>
      </trkpt>
      <trkpt lat="47.19705" lon="-1.41785">
        <ele>23.27</ele>
        <time>2020-01-19T14:16:50Z</time>
      </trkpt>
      <trkpt lat="47.19711" lon="-1.41799">
        <ele>23.32</ele>
        <time>2020-01-19T14:16:52Z</time>
      </trkpt>
      <trkpt lat="47.19718" lon="-1.4181">
        <ele>22.61</ele>
        <time>2020-01-19T14:16:54Z</time>
      </trkpt>
      <trkpt lat="47.19726" lon="-1.41826">
        <ele>22.81</ele>
        <time>2020-01-19T14:16:57Z</time>
      </trkpt>
      <trkpt lat="47.19732" lon="-1.41838">
        <ele>23.75</ele>
        <time>2020-01-19T14:16:59Z</time>
      </trkpt>
      <trkpt lat="47.19739" lon="-1.41853">
        <ele>25.46</ele>
        <time>2020-01-19T14:17:02Z</time>
      </trkpt>
      <trkpt lat="47.19745" lon="-1.41867">
        <ele>26.44</ele>
        <time>2020-01-19T14:17:05Z</time>
      </trkpt>
      <trkpt lat="47.19752" lon="-1.41884">
        <ele>26.36</ele>
        <time>2020-01-19T14:17:08Z</time>
      </trkpt>
      <trkpt lat="47.1976" lon="-1.41898">
        <ele>26.25</ele>
        <time>2020-01-19T14:17:11Z</time>
      </trkpt>
      <trkpt lat="47.19767" lon="-1.41909">
        <ele>26.39</ele>
        <time>2020-01-19T14:17:14Z</time>
      </trkpt>
      <trkpt lat="47.19774" lon="-1.41919">
        <ele>26.95</ele>
        <time>2020-01-19T14:17:16Z</time>
      </trkpt>
      <trkpt lat="47.19784" lon="-1.41932">
        <ele>28</ele>
        <time>2020-01-19T14:17:19Z</time>
      </trkpt>
      <trkpt lat="47.19792" lon="-1.41942">
        <ele>28.77</ele>
        <time>2020-01-19T14:17:21Z</time>
      </trkpt>
      <trkpt lat="47.198" lon="-1.41955">
        <ele>30.2</ele>
        <time>2020-01-19T14:17:24Z</time>
      </trkpt>
      <trkpt lat="47.19808" lon="-1.41968">
        <ele>30.82</ele>
        <time>2020-01-19T14:17:27Z</time>
      </trkpt>
      <trkpt lat="47.19814" lon="-1.4198">
        <ele>31.36</ele>
        <time>2020-01-19T14:17:29Z</time>
      </trkpt>
      <trkpt lat="47.19822" lon="-1.41996">
        <ele>31.37</ele>
        <time>2020-01-19T14:17:32Z</time>
      </trkpt>
      <trkpt lat="47.19827" lon="-1.42007">
        <ele>31.76</ele>
        <time>2020-01-19T14:17:34Z</time>
      </trkpt>
      <trkpt lat="47.19834" lon="-1.42025">
        <ele>33.62</ele>
        <time>2020-01-19T14:17:37Z</time>
      </trkpt>
      <trkpt lat="47.19839" lon="-1.42041">
        <ele>33.83</ele>
        <time>2020-01-19T14:17:39Z</time>
      </trkpt>
      <trkpt lat="47.19842" lon="-1.42058">
        <ele>32.03</ele>
        <time>2020-01-19T14:17:42Z</time>
      </trkpt>
      <trkpt lat="47.19842" lon="-1.42079">
        <ele>31.4</ele>
        <time>2020-01-19T14:17:45Z</time>
      </trkpt>
      <trkpt lat="47.19843" lon="-1.42097">
        <ele>30.75</ele>
        <time>2020-01-19T14:17:47Z</time>
      </trkpt>
      <trkpt lat="47.19842" lon="-1.42111">
        <ele>30.73</ele>
        <time>2020-01-19T14:17:49Z</time>
      </trkpt>
      <trkpt lat="47.1984" lon="-1.42127">
        <ele>30.68</ele>
        <time>2020-01-19T14:17:51Z</time>
      </trkpt>
      <trkpt lat="47.19838" lon="-1.42145">
        <ele>30.54</ele>
        <time>2020-01-19T14:17:54Z</time>
      </trkpt>
      <trkpt lat="47.19836" lon="-1.42161">
        <ele>31.05</ele>
        <time>2020-01-19T14:17:56Z</time>
      </trkpt>
      <trkpt lat="47.19835" lon="-1.42175">
        <ele>31.5</ele>
        <time>2020-01-19T14:17:58Z</time>
      </trkpt>
      <trkpt lat="47.19833" lon="-1.42193">
        <ele>30.33</ele>
        <time>2020-01-19T14:18:01Z</time>
      </trkpt>
      <trkpt lat="47.19832" lon="-1.42209">
        <ele>30.88</ele>
        <time>2020-01-19T14:18:03Z</time>
      </trkpt>
      <trkpt lat="47.1983" lon="-1.42225">
        <ele>30.51</ele>
        <time>2020-01-19T14:18:05Z</time>
      </trkpt>
      <trkpt lat="47.19829" lon="-1.42243">
        <ele>29.07</ele>
        <time>2020-01-19T14:18:07Z</time>
      </trkpt>
      <trkpt lat="47.19828" lon="-1.42261">
        <ele>29.92</ele>
        <time>2020-01-19T14:18:10Z</time>
      </trkpt>
      <trkpt lat="47.19827" lon="-1.42274">
        <ele>30.27</ele>
        <time>2020-01-19T14:18:12Z</time>
      </trkpt>
      <trkpt lat="47.19828" lon="-1.42289">
        <ele>29.98</ele>
        <time>2020-01-19T14:18:14Z</time>
      </trkpt>
      <trkpt lat="47.19827" lon="-1.42303">
        <ele>30.54</ele>
        <time>2020-01-19T14:18:16Z</time>
      </trkpt>
      <trkpt lat="47.19828" lon="-1.42321">
        <ele>31.65</ele>
        <time>2020-01-19T14:18:19Z</time>
      </trkpt>
      <trkpt lat="47.19828" lon="-1.42336">
        <ele>31.64</ele>
        <time>2020-01-19T14:18:21Z</time>
      </trkpt>
      <trkpt lat="47.19828" lon="-1.42351">
        <ele>30.89</ele>
        <time>2020-01-19T14:18:23Z</time>
      </trkpt>
      <trkpt lat="47.19829" lon="-1.42365">
        <ele>31.64</ele>
        <time>2020-01-19T14:18:25Z</time>
      </trkpt>
      <trkpt lat="47.1983" lon="-1.42381">
        <ele>31.85</ele>
        <time>2020-01-19T14:18:27Z</time>
      </trkpt>
      <trkpt lat="47.1983" lon="-1.42395">
        <ele>31.74</ele>
        <time>2020-01-19T14:18:29Z</time>
      </trkpt>
      <trkpt lat="47.19831" lon="-1.4241">
        <ele>31.62</ele>
        <time>2020-01-19T14:18:31Z</time>
      </trkpt>
      <trkpt lat="47.19831" lon="-1.42425">
        <ele>32.12</ele>
        <time>2020-01-19T14:18:33Z</time>
      </trkpt>
      <trkpt lat="47.19831" lon="-1.42445">
        <ele>33.97</ele>
        <time>2020-01-19T14:18:36Z</time>
      </trkpt>
      <trkpt lat="47.19832" lon="-1.42461">
        <ele>33.96</ele>
        <time>2020-01-19T14:18:38Z</time>
      </trkpt>
      <trkpt lat="47.19832" lon="-1.42476">
        <ele>33.28</ele>
        <time>2020-01-19T14:18:40Z</time>
      </trkpt>
      <trkpt lat="47.19833" lon="-1.42492">
        <ele>33.05</ele>
        <time>2020-01-19T14:18:42Z</time>
      </trkpt>
      <trkpt lat="47.19834" lon="-1.42506">
        <ele>32.61</ele>
        <time>2020-01-19T14:18:44Z</time>
      </trkpt>
      <trkpt lat="47.19836" lon="-1.42522">
        <ele>32.78</ele>
        <time>2020-01-19T14:18:46Z</time>
      </trkpt>
      <trkpt lat="47.19838" lon="-1.42535">
        <ele>33.16</ele>
        <time>2020-01-19T14:18:48Z</time>
      </trkpt>
      <trkpt lat="47.1984" lon="-1.42551">
        <ele>33.62</ele>
        <time>2020-01-19T14:18:50Z</time>
      </trkpt>
      <trkpt lat="47.19842" lon="-1.42566">
        <ele>34.19</ele>
        <time>2020-01-19T14:18:52Z</time>
      </trkpt>
      <trkpt lat="47.19844" lon="-1.4258">
        <ele>33.95</ele>
        <time>2020-01-19T14:18:54Z</time>
      </trkpt>
      <trkpt lat="47.19846" lon="-1.42596">
        <ele>34.17</ele>
        <time>2020-01-19T14:18:56Z</time>
      </trkpt>
      <trkpt lat="47.19846" lon="-1.42612">
        <ele>33.34</ele>
        <time>2020-01-19T14:18:58Z</time>
      </trkpt>
      <trkpt lat="47.19847" lon="-1.42625">
        <ele>32.57</ele>
        <time>2020-01-19T14:19:00Z</time>
      </trkpt>
      <trkpt lat="47.19848" lon="-1.4264">
        <ele>31.92</ele>
        <time>2020-01-19T14:19:02Z</time>
      </trkpt>
      <trkpt lat="47.19849" lon="-1.42656">
        <ele>31.8</ele>
        <time>2020-01-19T14:19:04Z</time>
      </trkpt>
      <trkpt lat="47.19851" lon="-1.42674">
        <ele>31.82</ele>
        <time>2020-01-19T14:19:06Z</time>
      </trkpt>
      <trkpt lat="47.19852" lon="-1.4269">
        <ele>30.06</ele>
        <time>2020-01-19T14:19:08Z</time>
      </trkpt>
      <trkpt lat="47.19853" lon="-1.42705">
        <ele>28.85</ele>
        <time>2020-01-19T14:19:10Z</time>
      </trkpt>
      <trkpt lat="47.19854" lon="-1.42723">
        <ele>29.22</ele>
        <time>2020-01-19T14:19:13Z</time>
      </trkpt>
      <trkpt lat="47.19854" lon="-1.42739">
        <ele>31.06</ele>
        <time>2020-01-19T14:19:15Z</time>
      </trkpt>
      <trkpt lat="47.19856" lon="-1.42757">
        <ele>31.92</ele>
        <time>2020-01-19T14:19:17Z</time>
      </trkpt>
      <trkpt lat="47.19858" lon="-1.42773">
        <ele>32.02</ele>
        <time>2020-01-19T14:19:19Z</time>
      </trkpt>
      <trkpt lat="47.19862" lon="-1.42792">
        <ele>31.04</ele>
        <time>2020-01-19T14:19:21Z</time>
      </trkpt>
      <trkpt lat="47.19869" lon="-1.4281">
        <ele>29.94</ele>
        <time>2020-01-19T14:19:23Z</time>
      </trkpt>
      <trkpt lat="47.19874" lon="-1.42822">
        <ele>30.48</ele>
        <time>2020-01-19T14:19:25Z</time>
      </trkpt>
      <trkpt lat="47.19881" lon="-1.42842">
        <ele>30.4</ele>
        <time>2020-01-19T14:19:27Z</time>
      </trkpt>
      <trkpt lat="47.19887" lon="-1.42857">
        <ele>29.67</ele>
        <time>2020-01-19T14:19:29Z</time>
      </trkpt>
      <trkpt lat="47.19893" lon="-1.42875">
        <ele>28.97</ele>
        <time>2020-01-19T14:19:31Z</time>
      </trkpt>
      <trkpt lat="47.19895" lon="-1.42892">
        <ele>27.92</ele>
        <time>2020-01-19T14:19:33Z</time>
      </trkpt>
      <trkpt lat="47.19898" lon="-1.42912">
        <ele>26.31</ele>
        <time>2020-01-19T14:19:35Z</time>
      </trkpt>
      <trkpt lat="47.19904" lon="-1.42924">
        <ele>24.88</ele>
        <time>2020-01-19T14:19:37Z</time>
      </trkpt>
      <trkpt lat="47.19916" lon="-1.42924">
        <ele>24.01</ele>
        <time>2020-01-19T14:19:40Z</time>
      </trkpt>
      <trkpt lat="47.19926" lon="-1.42921">
        <ele>23.75</ele>
        <time>2020-01-19T14:19:43Z</time>
      </trkpt>
      <trkpt lat="47.19936" lon="-1.42913">
        <ele>25.34</ele>
        <time>2020-01-19T14:19:46Z</time>
      </trkpt>
      <trkpt lat="47.19945" lon="-1.42904">
        <ele>27.5</ele>
        <time>2020-01-19T14:19:48Z</time>
      </trkpt>
      <trkpt lat="47.19955" lon="-1.42894">
        <ele>31.53</ele>
        <time>2020-01-19T14:19:51Z</time>
      </trkpt>
      <trkpt lat="47.19965" lon="-1.42889">
        <ele>33.4</ele>
        <time>2020-01-19T14:19:53Z</time>
      </trkpt>
      <trkpt lat="47.19977" lon="-1.4288">
        <ele>33.43</ele>
        <time>2020-01-19T14:19:55Z</time>
      </trkpt>
      <trkpt lat="47.19986" lon="-1.42868">
        <ele>32.88</ele>
        <time>2020-01-19T14:19:57Z</time>
      </trkpt>
      <trkpt lat="47.19997" lon="-1.42859">
        <ele>33.34</ele>
        <time>2020-01-19T14:20:00Z</time>
      </trkpt>
      <trkpt lat="47.20009" lon="-1.42853">
        <ele>34.42</ele>
        <time>2020-01-19T14:20:02Z</time>
      </trkpt>
      <trkpt lat="47.2002" lon="-1.42849">
        <ele>33.85</ele>
        <time>2020-01-19T14:20:04Z</time>
      </trkpt>
      <trkpt lat="47.2003" lon="-1.42845">
        <ele>31.75</ele>
        <time>2020-01-19T14:20:06Z</time>
      </trkpt>
      <trkpt lat="47.20039" lon="-1.4284">
        <ele>28.7</ele>
        <time>2020-01-19T14:20:08Z</time>
      </trkpt>
      <trkpt lat="47.2005" lon="-1.42834">
        <ele>28.13</ele>
        <time>2020-01-19T14:20:10Z</time>
      </trkpt>
      <trkpt lat="47.20059" lon="-1.4283">
        <ele>28.91</ele>
        <time>2020-01-19T14:20:12Z</time>
      </trkpt>
      <trkpt lat="47.2007" lon="-1.42825">
        <ele>28.82</ele>
        <time>2020-01-19T14:20:14Z</time>
      </trkpt>
      <trkpt lat="47.20081" lon="-1.4282">
        <ele>28.51</ele>
        <time>2020-01-19T14:20:16Z</time>
      </trkpt>
      <trkpt lat="47.20091" lon="-1.42816">
        <ele>28.36</ele>
        <time>2020-01-19T14:20:18Z</time>
      </trkpt>
      <trkpt lat="47.20103" lon="-1.42812">
        <ele>26.69</ele>
        <time>2020-01-19T14:20:21Z</time>
      </trkpt>
      <trkpt lat="47.20114" lon="-1.42808">
        <ele>26.97</ele>
        <time>2020-01-19T14:20:23Z</time>
      </trkpt>
      <trkpt lat="47.20123" lon="-1.42802">
        <ele>27.57</ele>
        <time>2020-01-19T14:20:25Z</time>
      </trkpt>
      <trkpt lat="47.20135" lon="-1.42796">
        <ele>29.29</ele>
        <time>2020-01-19T14:20:28Z</time>
      </trkpt>
      <trkpt lat="47.20145" lon="-1.42791">
        <ele>29.53</ele>
        <time>2020-01-19T14:20:30Z</time>
      </trkpt>
      <trkpt lat="47.20155" lon="-1.42786">
        <ele>28.72</ele>
        <time>2020-01-19T14:20:32Z</time>
      </trkpt>
      <trkpt lat="47.20166" lon="-1.42783">
        <ele>28.46</ele>
        <time>2020-01-19T14:20:34Z</time>
      </trkpt>
      <trkpt lat="47.20175" lon="-1.4278">
        <ele>27.88</ele>
        <time>2020-01-19T14:20:36Z</time>
      </trkpt>
      <trkpt lat="47.20187" lon="-1.42778">
        <ele>25.78</ele>
        <time>2020-01-19T14:20:39Z</time>
      </trkpt>
      <trkpt lat="47.20201" lon="-1.42777">
        <ele>26.42</ele>
        <time>2020-01-19T14:20:42Z</time>
      </trkpt>
      <trkpt lat="47.20212" lon="-1.42778">
        <ele>26.95</ele>
        <time>2020-01-19T14:20:44Z</time>
      </trkpt>
      <trkpt lat="47.20227" lon="-1.4278">
        <ele>25.94</ele>
        <time>2020-01-19T14:20:47Z</time>
      </trkpt>
      <trkpt lat="47.20238" lon="-1.42783">
        <ele>25.72</ele>
        <time>2020-01-19T14:20:49Z</time>
      </trkpt>
      <trkpt lat="47.20247" lon="-1.42786">
        <ele>23.93</ele>
        <time>2020-01-19T14:20:51Z</time>
      </trkpt>
      <trkpt lat="47.2026" lon="-1.4279">
        <ele>23</ele>
        <time>2020-01-19T14:20:54Z</time>
      </trkpt>
      <trkpt lat="47.2027" lon="-1.42791">
        <ele>22.69</ele>
        <time>2020-01-19T14:20:56Z</time>
      </trkpt>
      <trkpt lat="47.2028" lon="-1.42794">
        <ele>23.27</ele>
        <time>2020-01-19T14:20:58Z</time>
      </trkpt>
      <trkpt lat="47.2029" lon="-1.42795">
        <ele>23.21</ele>
        <time>2020-01-19T14:21:00Z</time>
      </trkpt>
      <trkpt lat="47.20301" lon="-1.42796">
        <ele>23.32</ele>
        <time>2020-01-19T14:21:02Z</time>
      </trkpt>
      <trkpt lat="47.20312" lon="-1.42796">
        <ele>22.96</ele>
        <time>2020-01-19T14:21:04Z</time>
      </trkpt>
      <trkpt lat="47.20321" lon="-1.42799">
        <ele>23.24</ele>
        <time>2020-01-19T14:21:06Z</time>
      </trkpt>
      <trkpt lat="47.20335" lon="-1.42803">
        <ele>21.82</ele>
        <time>2020-01-19T14:21:09Z</time>
      </trkpt>
      <trkpt lat="47.20349" lon="-1.42808">
        <ele>18.98</ele>
        <time>2020-01-19T14:21:12Z</time>
      </trkpt>
      <trkpt lat="47.2036" lon="-1.42811">
        <ele>17.92</ele>
        <time>2020-01-19T14:21:14Z</time>
      </trkpt>
      <trkpt lat="47.20372" lon="-1.42816">
        <ele>19.3</ele>
        <time>2020-01-19T14:21:17Z</time>
      </trkpt>
      <trkpt lat="47.20382" lon="-1.42814">
        <ele>19.68</ele>
        <time>2020-01-19T14:21:19Z</time>
      </trkpt>
      <trkpt lat="47.20393" lon="-1.42818">
        <ele>20.49</ele>
        <time>2020-01-19T14:21:21Z</time>
      </trkpt>
      <trkpt lat="47.20402" lon="-1.42826">
        <ele>21.27</ele>
        <time>2020-01-19T14:21:23Z</time>
      </trkpt>
      <trkpt lat="47.20415" lon="-1.42832">
        <ele>22.91</ele>
        <time>2020-01-19T14:21:26Z</time>
      </trkpt>
      <trkpt lat="47.20425" lon="-1.42837">
        <ele>24.67</ele>
        <time>2020-01-19T14:21:28Z</time>
      </trkpt>
      <trkpt lat="47.20435" lon="-1.42842">
        <ele>24.9</ele>
        <time>2020-01-19T14:21:30Z</time>
      </trkpt>
      <trkpt lat="47.20446" lon="-1.42848">
        <ele>24.04</ele>
        <time>2020-01-19T14:21:32Z</time>
      </trkpt>
      <trkpt lat="47.2046" lon="-1.42856">
        <ele>24.26</ele>
        <time>2020-01-19T14:21:35Z</time>
      </trkpt>
      <trkpt lat="47.20472" lon="-1.42864">
        <ele>24.69</ele>
        <time>2020-01-19T14:21:37Z</time>
      </trkpt>
      <trkpt lat="47.20482" lon="-1.4287">
        <ele>23.2</ele>
        <time>2020-01-19T14:21:39Z</time>
      </trkpt>
      <trkpt lat="47.2049" lon="-1.42876">
        <ele>21.98</ele>
        <time>2020-01-19T14:21:41Z</time>
      </trkpt>
      <trkpt lat="47.20502" lon="-1.42881">
        <ele>22.23</ele>
        <time>2020-01-19T14:21:43Z</time>
      </trkpt>
      <trkpt lat="47.20514" lon="-1.42885">
        <ele>22.59</ele>
        <time>2020-01-19T14:21:45Z</time>
      </trkpt>
      <trkpt lat="47.20526" lon="-1.42889">
        <ele>22.85</ele>
        <time>2020-01-19T14:21:47Z</time>
      </trkpt>
      <trkpt lat="47.20536" lon="-1.42891">
        <ele>22.01</ele>
        <time>2020-01-19T14:21:49Z</time>
      </trkpt>
      <trkpt lat="47.20548" lon="-1.42893">
        <ele>21.76</ele>
        <time>2020-01-19T14:21:51Z</time>
      </trkpt>
      <trkpt lat="47.20559" lon="-1.42895">
        <ele>22.23</ele>
        <time>2020-01-19T14:21:53Z</time>
      </trkpt>
      <trkpt lat="47.2057" lon="-1.42897">
        <ele>22.96</ele>
        <time>2020-01-19T14:21:55Z</time>
      </trkpt>
      <trkpt lat="47.20581" lon="-1.42899">
        <ele>24.07</ele>
        <time>2020-01-19T14:21:57Z</time>
      </trkpt>
      <trkpt lat="47.20593" lon="-1.42902">
        <ele>24.74</ele>
        <time>2020-01-19T14:21:59Z</time>
      </trkpt>
      <trkpt lat="47.20604" lon="-1.42905">
        <ele>24.05</ele>
        <time>2020-01-19T14:22:01Z</time>
      </trkpt>
      <trkpt lat="47.20616" lon="-1.42907">
        <ele>23.4</ele>
        <time>2020-01-19T14:22:03Z</time>
      </trkpt>
      <trkpt lat="47.20628" lon="-1.42907">
        <ele>23.16</ele>
        <time>2020-01-19T14:22:05Z</time>
      </trkpt>
      <trkpt lat="47.20638" lon="-1.42909">
        <ele>21.71</ele>
        <time>2020-01-19T14:22:07Z</time>
      </trkpt>
      <trkpt lat="47.20649" lon="-1.4291">
        <ele>20.42</ele>
        <time>2020-01-19T14:22:09Z</time>
      </trkpt>
      <trkpt lat="47.20662" lon="-1.42912">
        <ele>19.68</ele>
        <time>2020-01-19T14:22:11Z</time>
      </trkpt>
      <trkpt lat="47.20673" lon="-1.42912">
        <ele>20.99</ele>
        <time>2020-01-19T14:22:13Z</time>
      </trkpt>
      <trkpt lat="47.20685" lon="-1.42915">
        <ele>20.88</ele>
        <time>2020-01-19T14:22:15Z</time>
      </trkpt>
      <trkpt lat="47.20696" lon="-1.42916">
        <ele>19.98</ele>
        <time>2020-01-19T14:22:17Z</time>
      </trkpt>
      <trkpt lat="47.20707" lon="-1.42918">
        <ele>18.85</ele>
        <time>2020-01-19T14:22:19Z</time>
      </trkpt>
      <trkpt lat="47.20719" lon="-1.42922">
        <ele>18.9</ele>
        <time>2020-01-19T14:22:21Z</time>
      </trkpt>
      <trkpt lat="47.20728" lon="-1.42924">
        <ele>18.92</ele>
        <time>2020-01-19T14:22:23Z</time>
      </trkpt>
      <trkpt lat="47.20739" lon="-1.42929">
        <ele>18.69</ele>
        <time>2020-01-19T14:22:25Z</time>
      </trkpt>
      <trkpt lat="47.20748" lon="-1.4293">
        <ele>18.57</ele>
        <time>2020-01-19T14:22:27Z</time>
      </trkpt>
      <trkpt lat="47.20758" lon="-1.42934">
        <ele>17.89</ele>
        <time>2020-01-19T14:22:29Z</time>
      </trkpt>
      <trkpt lat="47.20769" lon="-1.42937">
        <ele>18.9</ele>
        <time>2020-01-19T14:22:31Z</time>
      </trkpt>
      <trkpt lat="47.20778" lon="-1.42939">
        <ele>19.64</ele>
        <time>2020-01-19T14:22:33Z</time>
      </trkpt>
      <trkpt lat="47.2079" lon="-1.42942">
        <ele>19.83</ele>
        <time>2020-01-19T14:22:35Z</time>
      </trkpt>
      <trkpt lat="47.20801" lon="-1.42942">
        <ele>20.64</ele>
        <time>2020-01-19T14:22:37Z</time>
      </trkpt>
      <trkpt lat="47.20811" lon="-1.42942">
        <ele>21.49</ele>
        <time>2020-01-19T14:22:39Z</time>
      </trkpt>
      <trkpt lat="47.20824" lon="-1.4294">
        <ele>21.56</ele>
        <time>2020-01-19T14:22:41Z</time>
      </trkpt>
      <trkpt lat="47.20833" lon="-1.42941">
        <ele>21.44</ele>
        <time>2020-01-19T14:22:43Z</time>
      </trkpt>
      <trkpt lat="47.20845" lon="-1.42941">
        <ele>24.18</ele>
        <time>2020-01-19T14:22:46Z</time>
      </trkpt>
      <trkpt lat="47.20858" lon="-1.42942">
        <ele>24.86</ele>
        <time>2020-01-19T14:22:49Z</time>
      </trkpt>
      <trkpt lat="47.20867" lon="-1.42944">
        <ele>24.84</ele>
        <time>2020-01-19T14:22:51Z</time>
      </trkpt>
      <trkpt lat="47.2088" lon="-1.42949">
        <ele>22.07</ele>
        <time>2020-01-19T14:22:54Z</time>
      </trkpt>
      <trkpt lat="47.20892" lon="-1.42954">
        <ele>20.88</ele>
        <time>2020-01-19T14:22:57Z</time>
      </trkpt>
      <trkpt lat="47.20902" lon="-1.4296">
        <ele>21.65</ele>
        <time>2020-01-19T14:22:59Z</time>
      </trkpt>
      <trkpt lat="47.20912" lon="-1.42966">
        <ele>21.67</ele>
        <time>2020-01-19T14:23:01Z</time>
      </trkpt>
      <trkpt lat="47.20925" lon="-1.42975">
        <ele>21.36</ele>
        <time>2020-01-19T14:23:04Z</time>
      </trkpt>
      <trkpt lat="47.20937" lon="-1.42985">
        <ele>20.6</ele>
        <time>2020-01-19T14:23:07Z</time>
      </trkpt>
      <trkpt lat="47.20947" lon="-1.42991">
        <ele>21.25</ele>
        <time>2020-01-19T14:23:09Z</time>
      </trkpt>
      <trkpt lat="47.20955" lon="-1.42998">
        <ele>21.93</ele>
        <time>2020-01-19T14:23:11Z</time>
      </trkpt>
      <trkpt lat="47.20964" lon="-1.43005">
        <ele>22.73</ele>
        <time>2020-01-19T14:23:13Z</time>
      </trkpt>
      <trkpt lat="47.20973" lon="-1.43011">
        <ele>22.32</ele>
        <time>2020-01-19T14:23:15Z</time>
      </trkpt>
      <trkpt lat="47.20982" lon="-1.43019">
        <ele>21.49</ele>
        <time>2020-01-19T14:23:17Z</time>
      </trkpt>
      <trkpt lat="47.20991" lon="-1.43026">
        <ele>21.67</ele>
        <time>2020-01-19T14:23:19Z</time>
      </trkpt>
      <trkpt lat="47.21003" lon="-1.43035">
        <ele>22.39</ele>
        <time>2020-01-19T14:23:22Z</time>
      </trkpt>
      <trkpt lat="47.21012" lon="-1.4304">
        <ele>21.89</ele>
        <time>2020-01-19T14:23:24Z</time>
      </trkpt>
      <trkpt lat="47.21021" lon="-1.43045">
        <ele>21.66</ele>
        <time>2020-01-19T14:23:26Z</time>
      </trkpt>
      <trkpt lat="47.21033" lon="-1.43051">
        <ele>20.79</ele>
        <time>2020-01-19T14:23:28Z</time>
      </trkpt>
      <trkpt lat="47.21043" lon="-1.43054">
        <ele>20.36</ele>
        <time>2020-01-19T14:23:30Z</time>
      </trkpt>
      <trkpt lat="47.21052" lon="-1.43057">
        <ele>21.39</ele>
        <time>2020-01-19T14:23:32Z</time>
      </trkpt>
      <trkpt lat="47.21066" lon="-1.4306">
        <ele>22.69</ele>
        <time>2020-01-19T14:23:35Z</time>
      </trkpt>
      <trkpt lat="47.21077" lon="-1.43059">
        <ele>22.33</ele>
        <time>2020-01-19T14:23:38Z</time>
      </trkpt>
      <trkpt lat="47.21086" lon="-1.43059">
        <ele>22.02</ele>
        <time>2020-01-19T14:23:40Z</time>
      </trkpt>
      <trkpt lat="47.21096" lon="-1.4306">
        <ele>22.2</ele>
        <time>2020-01-19T14:23:42Z</time>
      </trkpt>
      <trkpt lat="47.21107" lon="-1.4306">
        <ele>21.91</ele>
        <time>2020-01-19T14:23:45Z</time>
      </trkpt>
      <trkpt lat="47.21121" lon="-1.43059">
        <ele>21.28</ele>
        <time>2020-01-19T14:23:48Z</time>
      </trkpt>
      <trkpt lat="47.2113" lon="-1.4306">
        <ele>21.32</ele>
        <time>2020-01-19T14:23:50Z</time>
      </trkpt>
      <trkpt lat="47.2114" lon="-1.43061">
        <ele>21.4</ele>
        <time>2020-01-19T14:23:52Z</time>
      </trkpt>
      <trkpt lat="47.2115" lon="-1.43063">
        <ele>21.9</ele>
        <time>2020-01-19T14:23:54Z</time>
      </trkpt>
      <trkpt lat="47.2116" lon="-1.43066">
        <ele>22.71</ele>
        <time>2020-01-19T14:23:57Z</time>
      </trkpt>
      <trkpt lat="47.21169" lon="-1.4307">
        <ele>22.97</ele>
        <time>2020-01-19T14:23:59Z</time>
      </trkpt>
      <trkpt lat="47.21184" lon="-1.43076">
        <ele>21.69</ele>
        <time>2020-01-19T14:24:02Z</time>
      </trkpt>
      <trkpt lat="47.21193" lon="-1.43079">
        <ele>21.1</ele>
        <time>2020-01-19T14:24:04Z</time>
      </trkpt>
      <trkpt lat="47.21206" lon="-1.43084">
        <ele>20.65</ele>
        <time>2020-01-19T14:24:07Z</time>
      </trkpt>
      <trkpt lat="47.21215" lon="-1.43084">
        <ele>20.74</ele>
        <time>2020-01-19T14:24:09Z</time>
      </trkpt>
      <trkpt lat="47.21224" lon="-1.43084">
        <ele>20.75</ele>
        <time>2020-01-19T14:24:11Z</time>
      </trkpt>
      <trkpt lat="47.21239" lon="-1.43085">
        <ele>18.84</ele>
        <time>2020-01-19T14:24:14Z</time>
      </trkpt>
      <trkpt lat="47.21249" lon="-1.43085">
        <ele>18.82</ele>
        <time>2020-01-19T14:24:16Z</time>
      </trkpt>
      <trkpt lat="47.21259" lon="-1.43084">
        <ele>19.29</ele>
        <time>2020-01-19T14:24:18Z</time>
      </trkpt>
      <trkpt lat="47.2127" lon="-1.43087">
        <ele>17.91</ele>
        <time>2020-01-19T14:24:20Z</time>
      </trkpt>
      <trkpt lat="47.21279" lon="-1.43091">
        <ele>18.2</ele>
        <time>2020-01-19T14:24:22Z</time>
      </trkpt>
      <trkpt lat="47.21288" lon="-1.43097">
        <ele>18.26</ele>
        <time>2020-01-19T14:24:24Z</time>
      </trkpt>
      <trkpt lat="47.213" lon="-1.43105">
        <ele>18.65</ele>
        <time>2020-01-19T14:24:27Z</time>
      </trkpt>
      <trkpt lat="47.21309" lon="-1.43113">
        <ele>19.07</ele>
        <time>2020-01-19T14:24:29Z</time>
      </trkpt>
      <trkpt lat="47.21319" lon="-1.4312">
        <ele>18.11</ele>
        <time>2020-01-19T14:24:31Z</time>
      </trkpt>
      <trkpt lat="47.2133" lon="-1.43127">
        <ele>17.42</ele>
        <time>2020-01-19T14:24:33Z</time>
      </trkpt>
      <trkpt lat="47.2134" lon="-1.43135">
        <ele>17.24</ele>
        <time>2020-01-19T14:24:35Z</time>
      </trkpt>
      <trkpt lat="47.2135" lon="-1.43143">
        <ele>17.14</ele>
        <time>2020-01-19T14:24:37Z</time>
      </trkpt>
      <trkpt lat="47.21359" lon="-1.43149">
        <ele>16.77</ele>
        <time>2020-01-19T14:24:39Z</time>
      </trkpt>
      <trkpt lat="47.21368" lon="-1.43159">
        <ele>16.26</ele>
        <time>2020-01-19T14:24:41Z</time>
      </trkpt>
      <trkpt lat="47.21376" lon="-1.43175">
        <ele>15.24</ele>
        <time>2020-01-19T14:24:43Z</time>
      </trkpt>
      <trkpt lat="47.21379" lon="-1.4319">
        <ele>14.74</ele>
        <time>2020-01-19T14:24:45Z</time>
      </trkpt>
      <trkpt lat="47.21382" lon="-1.43207">
        <ele>14.21</ele>
        <time>2020-01-19T14:24:47Z</time>
      </trkpt>
      <trkpt lat="47.21384" lon="-1.43226">
        <ele>12.91</ele>
        <time>2020-01-19T14:24:49Z</time>
      </trkpt>
      <trkpt lat="47.21387" lon="-1.43247">
        <ele>12.39</ele>
        <time>2020-01-19T14:24:51Z</time>
      </trkpt>
      <trkpt lat="47.2139" lon="-1.43267">
        <ele>11.88</ele>
        <time>2020-01-19T14:24:53Z</time>
      </trkpt>
      <trkpt lat="47.21393" lon="-1.43286">
        <ele>11.9</ele>
        <time>2020-01-19T14:24:55Z</time>
      </trkpt>
      <trkpt lat="47.21397" lon="-1.43307">
        <ele>11.64</ele>
        <time>2020-01-19T14:24:57Z</time>
      </trkpt>
      <trkpt lat="47.21402" lon="-1.43331">
        <ele>11.32</ele>
        <time>2020-01-19T14:24:59Z</time>
      </trkpt>
      <trkpt lat="47.21408" lon="-1.43352">
        <ele>11.17</ele>
        <time>2020-01-19T14:25:01Z</time>
      </trkpt>
      <trkpt lat="47.21416" lon="-1.43371">
        <ele>10.66</ele>
        <time>2020-01-19T14:25:03Z</time>
      </trkpt>
      <trkpt lat="47.21429" lon="-1.43385">
        <ele>9.98</ele>
        <time>2020-01-19T14:25:05Z</time>
      </trkpt>
      <trkpt lat="47.21443" lon="-1.43394">
        <ele>7.67</ele>
        <time>2020-01-19T14:25:07Z</time>
      </trkpt>
      <trkpt lat="47.21455" lon="-1.43403">
        <ele>5.49</ele>
        <time>2020-01-19T14:25:09Z</time>
      </trkpt>
      <trkpt lat="47.21468" lon="-1.43412">
        <ele>4.36</ele>
        <time>2020-01-19T14:25:11Z</time>
      </trkpt>
      <trkpt lat="47.2148" lon="-1.4342">
        <ele>2.8</ele>
        <time>2020-01-19T14:25:13Z</time>
      </trkpt>
      <trkpt lat="47.21491" lon="-1.43427">
        <ele>1.94</ele>
        <time>2020-01-19T14:25:15Z</time>
      </trkpt>
      <trkpt lat="47.21502" lon="-1.43436">
        <ele>2.23</ele>
        <time>2020-01-19T14:25:17Z</time>
      </trkpt>
      <trkpt lat="47.21509" lon="-1.43445">
        <ele>3.28</ele>
        <time>2020-01-19T14:25:19Z</time>
      </trkpt>
      <trkpt lat="47.21516" lon="-1.43456">
        <ele>5.03</ele>
        <time>2020-01-19T14:25:21Z</time>
      </trkpt>
      <trkpt lat="47.21521" lon="-1.43471">
        <ele>6.54</ele>
        <time>2020-01-19T14:25:23Z</time>
      </trkpt>
      <trkpt lat="47.21526" lon="-1.43489">
        <ele>7.98</ele>
        <time>2020-01-19T14:25:25Z</time>
      </trkpt>
      <trkpt lat="47.21529" lon="-1.43504">
        <ele>8.85</ele>
        <time>2020-01-19T14:25:27Z</time>
      </trkpt>
      <trkpt lat="47.21534" lon="-1.43521">
        <ele>9.59</ele>
        <time>2020-01-19T14:25:29Z</time>
      </trkpt>
      <trkpt lat="47.21539" lon="-1.43538">
        <ele>9.66</ele>
        <time>2020-01-19T14:25:31Z</time>
      </trkpt>
      <trkpt lat="47.21546" lon="-1.43552">
        <ele>9.23</ele>
        <time>2020-01-19T14:25:33Z</time>
      </trkpt>
      <trkpt lat="47.21553" lon="-1.43563">
        <ele>9.05</ele>
        <time>2020-01-19T14:25:35Z</time>
      </trkpt>
      <trkpt lat="47.2156" lon="-1.43575">
        <ele>8.33</ele>
        <time>2020-01-19T14:25:37Z</time>
      </trkpt>
      <trkpt lat="47.21567" lon="-1.43584">
        <ele>8.92</ele>
        <time>2020-01-19T14:25:39Z</time>
      </trkpt>
      <trkpt lat="47.21574" lon="-1.43593">
        <ele>9.23</ele>
        <time>2020-01-19T14:25:41Z</time>
      </trkpt>
      <trkpt lat="47.21583" lon="-1.43603">
        <ele>9.21</ele>
        <time>2020-01-19T14:25:43Z</time>
      </trkpt>
      <trkpt lat="47.21591" lon="-1.43611">
        <ele>8.94</ele>
        <time>2020-01-19T14:25:45Z</time>
      </trkpt>
      <trkpt lat="47.21602" lon="-1.43623">
        <ele>9.01</ele>
        <time>2020-01-19T14:25:48Z</time>
      </trkpt>
      <trkpt lat="47.2161" lon="-1.4363">
        <ele>8.75</ele>
        <time>2020-01-19T14:25:50Z</time>
      </trkpt>
      <trkpt lat="47.2162" lon="-1.43641">
        <ele>8.85</ele>
        <time>2020-01-19T14:25:53Z</time>
      </trkpt>
      <trkpt lat="47.21631" lon="-1.43654">
        <ele>9.92</ele>
        <time>2020-01-19T14:25:56Z</time>
      </trkpt>
      <trkpt lat="47.21632" lon="-1.4367">
        <ele>10.63</ele>
        <time>2020-01-19T14:25:58Z</time>
      </trkpt>
      <trkpt lat="47.21631" lon="-1.43687">
        <ele>11.63</ele>
        <time>2020-01-19T14:26:00Z</time>
      </trkpt>
      <trkpt lat="47.21629" lon="-1.43703">
        <ele>12.37</ele>
        <time>2020-01-19T14:26:02Z</time>
      </trkpt>
      <trkpt lat="47.21627" lon="-1.43718">
        <ele>12.23</ele>
        <time>2020-01-19T14:26:04Z</time>
      </trkpt>
      <trkpt lat="47.21625" lon="-1.43736">
        <ele>11.15</ele>
        <time>2020-01-19T14:26:06Z</time>
      </trkpt>
      <trkpt lat="47.21623" lon="-1.4375">
        <ele>10.5</ele>
        <time>2020-01-19T14:26:07Z</time>
      </trkpt>
      <trkpt lat="47.21621" lon="-1.43772">
        <ele>10.47</ele>
        <time>2020-01-19T14:26:09Z</time>
      </trkpt>
      <trkpt lat="47.21619" lon="-1.43795">
        <ele>9.88</ele>
        <time>2020-01-19T14:26:11Z</time>
      </trkpt>
      <trkpt lat="47.21618" lon="-1.43818">
        <ele>9.65</ele>
        <time>2020-01-19T14:26:14Z</time>
      </trkpt>
      <trkpt lat="47.21616" lon="-1.4384">
        <ele>9.59</ele>
        <time>2020-01-19T14:26:15Z</time>
      </trkpt>
      <trkpt lat="47.21614" lon="-1.43861">
        <ele>9.49</ele>
        <time>2020-01-19T14:26:17Z</time>
      </trkpt>
      <trkpt lat="47.21613" lon="-1.43875">
        <ele>8.63</ele>
        <time>2020-01-19T14:26:18Z</time>
      </trkpt>
      <trkpt lat="47.21611" lon="-1.43894">
        <ele>8.06</ele>
        <time>2020-01-19T14:26:20Z</time>
      </trkpt>
      <trkpt lat="47.2161" lon="-1.43913">
        <ele>6.9</ele>
        <time>2020-01-19T14:26:22Z</time>
      </trkpt>
      <trkpt lat="47.21608" lon="-1.43934">
        <ele>5.47</ele>
        <time>2020-01-19T14:26:24Z</time>
      </trkpt>
      <trkpt lat="47.21606" lon="-1.43957">
        <ele>5.09</ele>
        <time>2020-01-19T14:26:26Z</time>
      </trkpt>
      <trkpt lat="47.21604" lon="-1.43977">
        <ele>5.36</ele>
        <time>2020-01-19T14:26:28Z</time>
      </trkpt>
      <trkpt lat="47.21602" lon="-1.43998">
        <ele>5.65</ele>
        <time>2020-01-19T14:26:30Z</time>
      </trkpt>
      <trkpt lat="47.216" lon="-1.44021">
        <ele>6.67</ele>
        <time>2020-01-19T14:26:33Z</time>
      </trkpt>
      <trkpt lat="47.21597" lon="-1.44042">
        <ele>7.62</ele>
        <time>2020-01-19T14:26:35Z</time>
      </trkpt>
      <trkpt lat="47.21593" lon="-1.44064">
        <ele>8.97</ele>
        <time>2020-01-19T14:26:37Z</time>
      </trkpt>
      <trkpt lat="47.21589" lon="-1.44085">
        <ele>9.33</ele>
        <time>2020-01-19T14:26:39Z</time>
      </trkpt>
      <trkpt lat="47.21586" lon="-1.44107">
        <ele>8.52</ele>
        <time>2020-01-19T14:26:41Z</time>
      </trkpt>
      <trkpt lat="47.21588" lon="-1.44129">
        <ele>8.07</ele>
        <time>2020-01-19T14:26:43Z</time>
      </trkpt>
      <trkpt lat="47.21591" lon="-1.44151">
        <ele>7.52</ele>
        <time>2020-01-19T14:26:45Z</time>
      </trkpt>
      <trkpt lat="47.21598" lon="-1.44169">
        <ele>7.25</ele>
        <time>2020-01-19T14:26:47Z</time>
      </trkpt>
      <trkpt lat="47.21605" lon="-1.44187">
        <ele>6.88</ele>
        <time>2020-01-19T14:26:49Z</time>
      </trkpt>
      <trkpt lat="47.21613" lon="-1.44205">
        <ele>6.09</ele>
        <time>2020-01-19T14:26:51Z</time>
      </trkpt>
      <trkpt lat="47.2162" lon="-1.44222">
        <ele>5.95</ele>
        <time>2020-01-19T14:26:53Z</time>
      </trkpt>
      <trkpt lat="47.21627" lon="-1.44238">
        <ele>6.39</ele>
        <time>2020-01-19T14:26:55Z</time>
      </trkpt>
      <trkpt lat="47.21634" lon="-1.44254">
        <ele>7</ele>
        <time>2020-01-19T14:26:57Z</time>
      </trkpt>
      <trkpt lat="47.21641" lon="-1.44272">
        <ele>7.84</ele>
        <time>2020-01-19T14:26:59Z</time>
      </trkpt>
      <trkpt lat="47.21648" lon="-1.44289">
        <ele>9.04</ele>
        <time>2020-01-19T14:27:01Z</time>
      </trkpt>
      <trkpt lat="47.21657" lon="-1.44306">
        <ele>9.41</ele>
        <time>2020-01-19T14:27:03Z</time>
      </trkpt>
      <trkpt lat="47.21665" lon="-1.44321">
        <ele>9.37</ele>
        <time>2020-01-19T14:27:05Z</time>
      </trkpt>
      <trkpt lat="47.21677" lon="-1.44333">
        <ele>9.48</ele>
        <time>2020-01-19T14:27:07Z</time>
      </trkpt>
      <trkpt lat="47.2169" lon="-1.44346">
        <ele>9.88</ele>
        <time>2020-01-19T14:27:09Z</time>
      </trkpt>
      <trkpt lat="47.217" lon="-1.44356">
        <ele>9.66</ele>
        <time>2020-01-19T14:27:11Z</time>
      </trkpt>
      <trkpt lat="47.21712" lon="-1.44366">
        <ele>9.77</ele>
        <time>2020-01-19T14:27:13Z</time>
      </trkpt>
      <trkpt lat="47.21725" lon="-1.44374">
        <ele>9.44</ele>
        <time>2020-01-19T14:27:15Z</time>
      </trkpt>
      <trkpt lat="47.21737" lon="-1.44384">
        <ele>9</ele>
        <time>2020-01-19T14:27:17Z</time>
      </trkpt>
      <trkpt lat="47.21751" lon="-1.44393">
        <ele>9.08</ele>
        <time>2020-01-19T14:27:19Z</time>
      </trkpt>
      <trkpt lat="47.21763" lon="-1.44404">
        <ele>9.32</ele>
        <time>2020-01-19T14:27:21Z</time>
      </trkpt>
      <trkpt lat="47.21773" lon="-1.44419">
        <ele>9.31</ele>
        <time>2020-01-19T14:27:23Z</time>
      </trkpt>
      <trkpt lat="47.21779" lon="-1.4443">
        <ele>9.22</ele>
        <time>2020-01-19T14:27:24Z</time>
      </trkpt>
      <trkpt lat="47.21788" lon="-1.44445">
        <ele>9.43</ele>
        <time>2020-01-19T14:27:26Z</time>
      </trkpt>
      <trkpt lat="47.21791" lon="-1.44463">
        <ele>8.87</ele>
        <time>2020-01-19T14:27:28Z</time>
      </trkpt>
      <trkpt lat="47.21794" lon="-1.44484">
        <ele>8.18</ele>
        <time>2020-01-19T14:27:30Z</time>
      </trkpt>
      <trkpt lat="47.21794" lon="-1.44502">
        <ele>7.23</ele>
        <time>2020-01-19T14:27:32Z</time>
      </trkpt>
      <trkpt lat="47.21795" lon="-1.44523">
        <ele>6.99</ele>
        <time>2020-01-19T14:27:34Z</time>
      </trkpt>
      <trkpt lat="47.21795" lon="-1.44543">
        <ele>7.09</ele>
        <time>2020-01-19T14:27:36Z</time>
      </trkpt>
      <trkpt lat="47.21795" lon="-1.44563">
        <ele>7.14</ele>
        <time>2020-01-19T14:27:38Z</time>
      </trkpt>
      <trkpt lat="47.21798" lon="-1.44584">
        <ele>6.78</ele>
        <time>2020-01-19T14:27:40Z</time>
      </trkpt>
      <trkpt lat="47.21804" lon="-1.44601">
        <ele>6.39</ele>
        <time>2020-01-19T14:27:42Z</time>
      </trkpt>
      <trkpt lat="47.2181" lon="-1.44617">
        <ele>6.64</ele>
        <time>2020-01-19T14:27:44Z</time>
      </trkpt>
      <trkpt lat="47.21818" lon="-1.44633">
        <ele>7.24</ele>
        <time>2020-01-19T14:27:46Z</time>
      </trkpt>
      <trkpt lat="47.21828" lon="-1.44643">
        <ele>7.62</ele>
        <time>2020-01-19T14:27:48Z</time>
      </trkpt>
      <trkpt lat="47.21841" lon="-1.4465">
        <ele>7.65</ele>
        <time>2020-01-19T14:27:50Z</time>
      </trkpt>
      <trkpt lat="47.21852" lon="-1.44659">
        <ele>7.36</ele>
        <time>2020-01-19T14:27:52Z</time>
      </trkpt>
      <trkpt lat="47.21863" lon="-1.44672">
        <ele>7.22</ele>
        <time>2020-01-19T14:27:54Z</time>
      </trkpt>
      <trkpt lat="47.21874" lon="-1.44682">
        <ele>7.3</ele>
        <time>2020-01-19T14:27:56Z</time>
      </trkpt>
      <trkpt lat="47.21888" lon="-1.44689">
        <ele>7.88</ele>
        <time>2020-01-19T14:27:59Z</time>
      </trkpt>
      <trkpt lat="47.219" lon="-1.44697">
        <ele>8.12</ele>
        <time>2020-01-19T14:28:01Z</time>
      </trkpt>
      <trkpt lat="47.21911" lon="-1.44706">
        <ele>9.11</ele>
        <time>2020-01-19T14:28:03Z</time>
      </trkpt>
      <trkpt lat="47.21923" lon="-1.44714">
        <ele>10.28</ele>
        <time>2020-01-19T14:28:05Z</time>
      </trkpt>
      <trkpt lat="47.21934" lon="-1.44723">
        <ele>10.59</ele>
        <time>2020-01-19T14:28:07Z</time>
      </trkpt>
      <trkpt lat="47.21945" lon="-1.44732">
        <ele>9.89</ele>
        <time>2020-01-19T14:28:09Z</time>
      </trkpt>
      <trkpt lat="47.21954" lon="-1.44738">
        <ele>8.68</ele>
        <time>2020-01-19T14:28:11Z</time>
      </trkpt>
      <trkpt lat="47.21965" lon="-1.44747">
        <ele>8.83</ele>
        <time>2020-01-19T14:28:13Z</time>
      </trkpt>
      <trkpt lat="47.21976" lon="-1.44756">
        <ele>8.69</ele>
        <time>2020-01-19T14:28:15Z</time>
      </trkpt>
      <trkpt lat="47.21988" lon="-1.44768">
        <ele>8.6</ele>
        <time>2020-01-19T14:28:17Z</time>
      </trkpt>
      <trkpt lat="47.21997" lon="-1.44779">
        <ele>8.58</ele>
        <time>2020-01-19T14:28:19Z</time>
      </trkpt>
      <trkpt lat="47.22005" lon="-1.44791">
        <ele>8.72</ele>
        <time>2020-01-19T14:28:21Z</time>
      </trkpt>
      <trkpt lat="47.22013" lon="-1.44806">
        <ele>9.36</ele>
        <time>2020-01-19T14:28:23Z</time>
      </trkpt>
      <trkpt lat="47.2202" lon="-1.44823">
        <ele>10.39</ele>
        <time>2020-01-19T14:28:25Z</time>
      </trkpt>
      <trkpt lat="47.22022" lon="-1.44841">
        <ele>11.1</ele>
        <time>2020-01-19T14:28:27Z</time>
      </trkpt>
      <trkpt lat="47.22024" lon="-1.44861">
        <ele>11.55</ele>
        <time>2020-01-19T14:28:29Z</time>
      </trkpt>
      <trkpt lat="47.22023" lon="-1.44879">
        <ele>10.69</ele>
        <time>2020-01-19T14:28:31Z</time>
      </trkpt>
      <trkpt lat="47.22022" lon="-1.44899">
        <ele>10.46</ele>
        <time>2020-01-19T14:28:33Z</time>
      </trkpt>
      <trkpt lat="47.22019" lon="-1.44917">
        <ele>10.54</ele>
        <time>2020-01-19T14:28:35Z</time>
      </trkpt>
      <trkpt lat="47.22016" lon="-1.44937">
        <ele>9.42</ele>
        <time>2020-01-19T14:28:37Z</time>
      </trkpt>
      <trkpt lat="47.22014" lon="-1.44955">
        <ele>8.66</ele>
        <time>2020-01-19T14:28:39Z</time>
      </trkpt>
      <trkpt lat="47.22012" lon="-1.44972">
        <ele>7.8</ele>
        <time>2020-01-19T14:28:41Z</time>
      </trkpt>
      <trkpt lat="47.2201" lon="-1.44993">
        <ele>7.31</ele>
        <time>2020-01-19T14:28:43Z</time>
      </trkpt>
      <trkpt lat="47.22009" lon="-1.45011">
        <ele>6.42</ele>
        <time>2020-01-19T14:28:45Z</time>
      </trkpt>
      <trkpt lat="47.22009" lon="-1.45026">
        <ele>6.53</ele>
        <time>2020-01-19T14:28:47Z</time>
      </trkpt>
      <trkpt lat="47.22009" lon="-1.45047">
        <ele>7.08</ele>
        <time>2020-01-19T14:28:49Z</time>
      </trkpt>
      <trkpt lat="47.22009" lon="-1.45067">
        <ele>6.71</ele>
        <time>2020-01-19T14:28:51Z</time>
      </trkpt>
      <trkpt lat="47.22009" lon="-1.45086">
        <ele>5.5</ele>
        <time>2020-01-19T14:28:53Z</time>
      </trkpt>
      <trkpt lat="47.22009" lon="-1.45103">
        <ele>5.14</ele>
        <time>2020-01-19T14:28:55Z</time>
      </trkpt>
      <trkpt lat="47.22009" lon="-1.45122">
        <ele>5.21</ele>
        <time>2020-01-19T14:28:57Z</time>
      </trkpt>
      <trkpt lat="47.22009" lon="-1.4514">
        <ele>4.29</ele>
        <time>2020-01-19T14:28:59Z</time>
      </trkpt>
      <trkpt lat="47.22008" lon="-1.45159">
        <ele>3.45</ele>
        <time>2020-01-19T14:29:01Z</time>
      </trkpt>
      <trkpt lat="47.22008" lon="-1.45178">
        <ele>3.66</ele>
        <time>2020-01-19T14:29:03Z</time>
      </trkpt>
      <trkpt lat="47.22007" lon="-1.45197">
        <ele>4.03</ele>
        <time>2020-01-19T14:29:05Z</time>
      </trkpt>
      <trkpt lat="47.22006" lon="-1.45213">
        <ele>4.78</ele>
        <time>2020-01-19T14:29:07Z</time>
      </trkpt>
      <trkpt lat="47.22004" lon="-1.4523">
        <ele>5.93</ele>
        <time>2020-01-19T14:29:09Z</time>
      </trkpt>
      <trkpt lat="47.22001" lon="-1.45247">
        <ele>5.98</ele>
        <time>2020-01-19T14:29:11Z</time>
      </trkpt>
      <trkpt lat="47.21998" lon="-1.45264">
        <ele>6.06</ele>
        <time>2020-01-19T14:29:13Z</time>
      </trkpt>
      <trkpt lat="47.21995" lon="-1.45282">
        <ele>5.5</ele>
        <time>2020-01-19T14:29:15Z</time>
      </trkpt>
      <trkpt lat="47.21991" lon="-1.45297">
        <ele>5.48</ele>
        <time>2020-01-19T14:29:17Z</time>
      </trkpt>
      <trkpt lat="47.21989" lon="-1.45312">
        <ele>5.57</ele>
        <time>2020-01-19T14:29:19Z</time>
      </trkpt>
      <trkpt lat="47.2199" lon="-1.45329">
        <ele>6.2</ele>
        <time>2020-01-19T14:29:21Z</time>
      </trkpt>
      <trkpt lat="47.21994" lon="-1.45344">
        <ele>6.68</ele>
        <time>2020-01-19T14:29:23Z</time>
      </trkpt>
      <trkpt lat="47.21998" lon="-1.45357">
        <ele>8.02</ele>
        <time>2020-01-19T14:29:25Z</time>
      </trkpt>
      <trkpt lat="47.21995" lon="-1.45376">
        <ele>7.74</ele>
        <time>2020-01-19T14:29:27Z</time>
      </trkpt>
      <trkpt lat="47.21988" lon="-1.45387">
        <ele>8.57</ele>
        <time>2020-01-19T14:29:29Z</time>
      </trkpt>
      <trkpt lat="47.21977" lon="-1.45391">
        <ele>9.29</ele>
        <time>2020-01-19T14:29:31Z</time>
      </trkpt>
      <trkpt lat="47.21964" lon="-1.45388">
        <ele>9.92</ele>
        <time>2020-01-19T14:29:33Z</time>
      </trkpt>
      <trkpt lat="47.21952" lon="-1.4538">
        <ele>9.84</ele>
        <time>2020-01-19T14:29:35Z</time>
      </trkpt>
      <trkpt lat="47.2194" lon="-1.45377">
        <ele>10.03</ele>
        <time>2020-01-19T14:29:37Z</time>
      </trkpt>
      <trkpt lat="47.21929" lon="-1.45386">
        <ele>10.73</ele>
        <time>2020-01-19T14:29:39Z</time>
      </trkpt>
      <trkpt lat="47.21918" lon="-1.45395">
        <ele>11.42</ele>
        <time>2020-01-19T14:29:41Z</time>
      </trkpt>
      <trkpt lat="47.21909" lon="-1.45406">
        <ele>12.24</ele>
        <time>2020-01-19T14:29:43Z</time>
      </trkpt>
      <trkpt lat="47.219" lon="-1.45418">
        <ele>12.6</ele>
        <time>2020-01-19T14:29:45Z</time>
      </trkpt>
      <trkpt lat="47.21893" lon="-1.45431">
        <ele>12.51</ele>
        <time>2020-01-19T14:29:47Z</time>
      </trkpt>
      <trkpt lat="47.21886" lon="-1.45443">
        <ele>12.46</ele>
        <time>2020-01-19T14:29:49Z</time>
      </trkpt>
      <trkpt lat="47.21879" lon="-1.45456">
        <ele>13.61</ele>
        <time>2020-01-19T14:29:51Z</time>
      </trkpt>
      <trkpt lat="47.21872" lon="-1.45471">
        <ele>14.82</ele>
        <time>2020-01-19T14:29:53Z</time>
      </trkpt>
      <trkpt lat="47.21865" lon="-1.45484">
        <ele>15.02</ele>
        <time>2020-01-19T14:29:55Z</time>
      </trkpt>
      <trkpt lat="47.21858" lon="-1.45498">
        <ele>15.06</ele>
        <time>2020-01-19T14:29:57Z</time>
      </trkpt>
      <trkpt lat="47.21852" lon="-1.4551">
        <ele>15.53</ele>
        <time>2020-01-19T14:29:59Z</time>
      </trkpt>
      <trkpt lat="47.21844" lon="-1.45524">
        <ele>16.61</ele>
        <time>2020-01-19T14:30:01Z</time>
      </trkpt>
      <trkpt lat="47.21836" lon="-1.45539">
        <ele>16.23</ele>
        <time>2020-01-19T14:30:03Z</time>
      </trkpt>
      <trkpt lat="47.21828" lon="-1.45555">
        <ele>14.7</ele>
        <time>2020-01-19T14:30:05Z</time>
      </trkpt>
      <trkpt lat="47.2182" lon="-1.45571">
        <ele>12.98</ele>
        <time>2020-01-19T14:30:07Z</time>
      </trkpt>
      <trkpt lat="47.2181" lon="-1.45585">
        <ele>12.03</ele>
        <time>2020-01-19T14:30:09Z</time>
      </trkpt>
      <trkpt lat="47.21798" lon="-1.456">
        <ele>11.35</ele>
        <time>2020-01-19T14:30:11Z</time>
      </trkpt>
      <trkpt lat="47.21785" lon="-1.45613">
        <ele>9.9</ele>
        <time>2020-01-19T14:30:13Z</time>
      </trkpt>
      <trkpt lat="47.21773" lon="-1.45625">
        <ele>9.37</ele>
        <time>2020-01-19T14:30:15Z</time>
      </trkpt>
      <trkpt lat="47.21766" lon="-1.45641">
        <ele>9</ele>
        <time>2020-01-19T14:30:17Z</time>
      </trkpt>
      <trkpt lat="47.21758" lon="-1.45659">
        <ele>8.74</ele>
        <time>2020-01-19T14:30:19Z</time>
      </trkpt>
      <trkpt lat="47.21754" lon="-1.45676">
        <ele>8.27</ele>
        <time>2020-01-19T14:30:21Z</time>
      </trkpt>
      <trkpt lat="47.21751" lon="-1.45699">
        <ele>8.32</ele>
        <time>2020-01-19T14:30:23Z</time>
      </trkpt>
      <trkpt lat="47.2175" lon="-1.4572">
        <ele>7.87</ele>
        <time>2020-01-19T14:30:25Z</time>
      </trkpt>
      <trkpt lat="47.21748" lon="-1.4574">
        <ele>8.27</ele>
        <time>2020-01-19T14:30:27Z</time>
      </trkpt>
      <trkpt lat="47.21755" lon="-1.45749">
        <ele>8.12</ele>
        <time>2020-01-19T14:30:29Z</time>
      </trkpt>
      <trkpt lat="47.21761" lon="-1.45761">
        <ele>7.66</ele>
        <time>2020-01-19T14:30:31Z</time>
      </trkpt>
      <trkpt lat="47.2176" lon="-1.45779">
        <ele>6.72</ele>
        <time>2020-01-19T14:30:33Z</time>
      </trkpt>
      <trkpt lat="47.21759" lon="-1.45798">
        <ele>6.32</ele>
        <time>2020-01-19T14:30:35Z</time>
      </trkpt>
      <trkpt lat="47.21758" lon="-1.45816">
        <ele>6.22</ele>
        <time>2020-01-19T14:30:37Z</time>
      </trkpt>
      <trkpt lat="47.21757" lon="-1.45835">
        <ele>6.97</ele>
        <time>2020-01-19T14:30:39Z</time>
      </trkpt>
      <trkpt lat="47.21756" lon="-1.45854">
        <ele>7.43</ele>
        <time>2020-01-19T14:30:41Z</time>
      </trkpt>
      <trkpt lat="47.21755" lon="-1.45872">
        <ele>7.99</ele>
        <time>2020-01-19T14:30:43Z</time>
      </trkpt>
      <trkpt lat="47.21753" lon="-1.45891">
        <ele>9.49</ele>
        <time>2020-01-19T14:30:45Z</time>
      </trkpt>
      <trkpt lat="47.21751" lon="-1.45912">
        <ele>9.68</ele>
        <time>2020-01-19T14:30:47Z</time>
      </trkpt>
      <trkpt lat="47.21749" lon="-1.45932">
        <ele>9.35</ele>
        <time>2020-01-19T14:30:49Z</time>
      </trkpt>
      <trkpt lat="47.21747" lon="-1.45949">
        <ele>9.19</ele>
        <time>2020-01-19T14:30:51Z</time>
      </trkpt>
      <trkpt lat="47.21746" lon="-1.4597">
        <ele>8.4</ele>
        <time>2020-01-19T14:30:53Z</time>
      </trkpt>
      <trkpt lat="47.21743" lon="-1.4599">
        <ele>7.43</ele>
        <time>2020-01-19T14:30:55Z</time>
      </trkpt>
      <trkpt lat="47.2174" lon="-1.46009">
        <ele>6.98</ele>
        <time>2020-01-19T14:30:57Z</time>
      </trkpt>
      <trkpt lat="47.21736" lon="-1.46028">
        <ele>7.11</ele>
        <time>2020-01-19T14:30:59Z</time>
      </trkpt>
      <trkpt lat="47.21733" lon="-1.46048">
        <ele>6.59</ele>
        <time>2020-01-19T14:31:01Z</time>
      </trkpt>
      <trkpt lat="47.2173" lon="-1.46065">
        <ele>6.26</ele>
        <time>2020-01-19T14:31:03Z</time>
      </trkpt>
      <trkpt lat="47.21726" lon="-1.46083">
        <ele>6.1</ele>
        <time>2020-01-19T14:31:05Z</time>
      </trkpt>
      <trkpt lat="47.21722" lon="-1.46097">
        <ele>6.4</ele>
        <time>2020-01-19T14:31:07Z</time>
      </trkpt>
      <trkpt lat="47.21716" lon="-1.46116">
        <ele>6.82</ele>
        <time>2020-01-19T14:31:09Z</time>
      </trkpt>
      <trkpt lat="47.2171" lon="-1.46132">
        <ele>6.7</ele>
        <time>2020-01-19T14:31:11Z</time>
      </trkpt>
      <trkpt lat="47.21705" lon="-1.4615">
        <ele>6.24</ele>
        <time>2020-01-19T14:31:13Z</time>
      </trkpt>
      <trkpt lat="47.217" lon="-1.46166">
        <ele>6.18</ele>
        <time>2020-01-19T14:31:15Z</time>
      </trkpt>
      <trkpt lat="47.21696" lon="-1.46184">
        <ele>7.71</ele>
        <time>2020-01-19T14:31:17Z</time>
      </trkpt>
      <trkpt lat="47.21692" lon="-1.46202">
        <ele>7.86</ele>
        <time>2020-01-19T14:31:19Z</time>
      </trkpt>
      <trkpt lat="47.21691" lon="-1.46218">
        <ele>7.19</ele>
        <time>2020-01-19T14:31:21Z</time>
      </trkpt>
      <trkpt lat="47.2169" lon="-1.46235">
        <ele>6.95</ele>
        <time>2020-01-19T14:31:23Z</time>
      </trkpt>
      <trkpt lat="47.21688" lon="-1.46255">
        <ele>6.12</ele>
        <time>2020-01-19T14:31:25Z</time>
      </trkpt>
      <trkpt lat="47.21688" lon="-1.46277">
        <ele>5.33</ele>
        <time>2020-01-19T14:31:27Z</time>
      </trkpt>
      <trkpt lat="47.21688" lon="-1.46295">
        <ele>5.47</ele>
        <time>2020-01-19T14:31:29Z</time>
      </trkpt>
      <trkpt lat="47.21685" lon="-1.46314">
        <ele>7.01</ele>
        <time>2020-01-19T14:31:31Z</time>
      </trkpt>
      <trkpt lat="47.21681" lon="-1.46332">
        <ele>7.19</ele>
        <time>2020-01-19T14:31:33Z</time>
      </trkpt>
      <trkpt lat="47.21678" lon="-1.4635">
        <ele>7.7</ele>
        <time>2020-01-19T14:31:35Z</time>
      </trkpt>
      <trkpt lat="47.21676" lon="-1.4637">
        <ele>8.23</ele>
        <time>2020-01-19T14:31:37Z</time>
      </trkpt>
      <trkpt lat="47.21674" lon="-1.46387">
        <ele>7.73</ele>
        <time>2020-01-19T14:31:39Z</time>
      </trkpt>
      <trkpt lat="47.21674" lon="-1.46404">
        <ele>7.5</ele>
        <time>2020-01-19T14:31:41Z</time>
      </trkpt>
      <trkpt lat="47.21673" lon="-1.46421">
        <ele>7.15</ele>
        <time>2020-01-19T14:31:43Z</time>
      </trkpt>
      <trkpt lat="47.21673" lon="-1.4644">
        <ele>7.33</ele>
        <time>2020-01-19T14:31:45Z</time>
      </trkpt>
      <trkpt lat="47.21672" lon="-1.46459">
        <ele>8.3</ele>
        <time>2020-01-19T14:31:47Z</time>
      </trkpt>
      <trkpt lat="47.21672" lon="-1.46476">
        <ele>8.57</ele>
        <time>2020-01-19T14:31:49Z</time>
      </trkpt>
      <trkpt lat="47.21672" lon="-1.46498">
        <ele>8.21</ele>
        <time>2020-01-19T14:31:51Z</time>
      </trkpt>
      <trkpt lat="47.21671" lon="-1.46519">
        <ele>7.71</ele>
        <time>2020-01-19T14:31:53Z</time>
      </trkpt>
      <trkpt lat="47.2167" lon="-1.46539">
        <ele>6.79</ele>
        <time>2020-01-19T14:31:55Z</time>
      </trkpt>
      <trkpt lat="47.21665" lon="-1.46558">
        <ele>6.72</ele>
        <time>2020-01-19T14:31:57Z</time>
      </trkpt>
      <trkpt lat="47.21661" lon="-1.46576">
        <ele>7.14</ele>
        <time>2020-01-19T14:31:59Z</time>
      </trkpt>
      <trkpt lat="47.21658" lon="-1.46593">
        <ele>7.79</ele>
        <time>2020-01-19T14:32:01Z</time>
      </trkpt>
      <trkpt lat="47.21655" lon="-1.46612">
        <ele>8.37</ele>
        <time>2020-01-19T14:32:03Z</time>
      </trkpt>
      <trkpt lat="47.21651" lon="-1.46633">
        <ele>7.42</ele>
        <time>2020-01-19T14:32:05Z</time>
      </trkpt>
      <trkpt lat="47.21647" lon="-1.46651">
        <ele>5.69</ele>
        <time>2020-01-19T14:32:07Z</time>
      </trkpt>
      <trkpt lat="47.21644" lon="-1.4667">
        <ele>5.53</ele>
        <time>2020-01-19T14:32:09Z</time>
      </trkpt>
      <trkpt lat="47.2164" lon="-1.46688">
        <ele>6.42</ele>
        <time>2020-01-19T14:32:11Z</time>
      </trkpt>
      <trkpt lat="47.21636" lon="-1.46707">
        <ele>6.86</ele>
        <time>2020-01-19T14:32:13Z</time>
      </trkpt>
      <trkpt lat="47.21633" lon="-1.46726">
        <ele>6.58</ele>
        <time>2020-01-19T14:32:15Z</time>
      </trkpt>
      <trkpt lat="47.2163" lon="-1.46744">
        <ele>6.33</ele>
        <time>2020-01-19T14:32:17Z</time>
      </trkpt>
      <trkpt lat="47.21629" lon="-1.46764">
        <ele>6.38</ele>
        <time>2020-01-19T14:32:19Z</time>
      </trkpt>
      <trkpt lat="47.21629" lon="-1.46781">
        <ele>6.13</ele>
        <time>2020-01-19T14:32:21Z</time>
      </trkpt>
      <trkpt lat="47.21631" lon="-1.46802">
        <ele>6.39</ele>
        <time>2020-01-19T14:32:23Z</time>
      </trkpt>
      <trkpt lat="47.21632" lon="-1.46819">
        <ele>6</ele>
        <time>2020-01-19T14:32:25Z</time>
      </trkpt>
      <trkpt lat="47.21638" lon="-1.46838">
        <ele>5.75</ele>
        <time>2020-01-19T14:32:27Z</time>
      </trkpt>
      <trkpt lat="47.21641" lon="-1.46854">
        <ele>5.59</ele>
        <time>2020-01-19T14:32:29Z</time>
      </trkpt>
      <trkpt lat="47.21644" lon="-1.46874">
        <ele>5.39</ele>
        <time>2020-01-19T14:32:31Z</time>
      </trkpt>
      <trkpt lat="47.21646" lon="-1.46888">
        <ele>5.59</ele>
        <time>2020-01-19T14:32:33Z</time>
      </trkpt>
      <trkpt lat="47.21649" lon="-1.46905">
        <ele>6.5</ele>
        <time>2020-01-19T14:32:35Z</time>
      </trkpt>
      <trkpt lat="47.21652" lon="-1.46921">
        <ele>7.88</ele>
        <time>2020-01-19T14:32:37Z</time>
      </trkpt>
      <trkpt lat="47.21656" lon="-1.46943">
        <ele>8.34</ele>
        <time>2020-01-19T14:32:39Z</time>
      </trkpt>
      <trkpt lat="47.21659" lon="-1.4696">
        <ele>7.6</ele>
        <time>2020-01-19T14:32:41Z</time>
      </trkpt>
      <trkpt lat="47.21659" lon="-1.46977">
        <ele>6.46</ele>
        <time>2020-01-19T14:32:43Z</time>
      </trkpt>
      <trkpt lat="47.21659" lon="-1.46996">
        <ele>6.66</ele>
        <time>2020-01-19T14:32:45Z</time>
      </trkpt>
      <trkpt lat="47.21659" lon="-1.47013">
        <ele>6.21</ele>
        <time>2020-01-19T14:32:47Z</time>
      </trkpt>
      <trkpt lat="47.21658" lon="-1.47031">
        <ele>6.06</ele>
        <time>2020-01-19T14:32:49Z</time>
      </trkpt>
      <trkpt lat="47.21658" lon="-1.47051">
        <ele>5.9</ele>
        <time>2020-01-19T14:32:51Z</time>
      </trkpt>
      <trkpt lat="47.21657" lon="-1.47073">
        <ele>5.97</ele>
        <time>2020-01-19T14:32:53Z</time>
      </trkpt>
      <trkpt lat="47.21655" lon="-1.47088">
        <ele>4.46</ele>
        <time>2020-01-19T14:32:55Z</time>
      </trkpt>
      <trkpt lat="47.21651" lon="-1.47103">
        <ele>3.83</ele>
        <time>2020-01-19T14:32:57Z</time>
      </trkpt>
      <trkpt lat="47.21648" lon="-1.47121">
        <ele>3.2</ele>
        <time>2020-01-19T14:32:59Z</time>
      </trkpt>
      <trkpt lat="47.21645" lon="-1.47141">
        <ele>3.92</ele>
        <time>2020-01-19T14:33:01Z</time>
      </trkpt>
      <trkpt lat="47.21642" lon="-1.47159">
        <ele>4.71</ele>
        <time>2020-01-19T14:33:03Z</time>
      </trkpt>
      <trkpt lat="47.21637" lon="-1.4718">
        <ele>4.76</ele>
        <time>2020-01-19T14:33:05Z</time>
      </trkpt>
      <trkpt lat="47.21633" lon="-1.47198">
        <ele>5.16</ele>
        <time>2020-01-19T14:33:07Z</time>
      </trkpt>
      <trkpt lat="47.2163" lon="-1.47214">
        <ele>5.48</ele>
        <time>2020-01-19T14:33:09Z</time>
      </trkpt>
      <trkpt lat="47.21627" lon="-1.47231">
        <ele>6.11</ele>
        <time>2020-01-19T14:33:11Z</time>
      </trkpt>
      <trkpt lat="47.21621" lon="-1.47249">
        <ele>6.67</ele>
        <time>2020-01-19T14:33:13Z</time>
      </trkpt>
      <trkpt lat="47.21614" lon="-1.47264">
        <ele>7.5</ele>
        <time>2020-01-19T14:33:15Z</time>
      </trkpt>
      <trkpt lat="47.21606" lon="-1.47278">
        <ele>9.06</ele>
        <time>2020-01-19T14:33:17Z</time>
      </trkpt>
      <trkpt lat="47.21599" lon="-1.47294">
        <ele>10.02</ele>
        <time>2020-01-19T14:33:19Z</time>
      </trkpt>
      <trkpt lat="47.21594" lon="-1.47312">
        <ele>10.86</ele>
        <time>2020-01-19T14:33:21Z</time>
      </trkpt>
      <trkpt lat="47.21592" lon="-1.47329">
        <ele>11.56</ele>
        <time>2020-01-19T14:33:23Z</time>
      </trkpt>
      <trkpt lat="47.21589" lon="-1.47346">
        <ele>11.91</ele>
        <time>2020-01-19T14:33:25Z</time>
      </trkpt>
      <trkpt lat="47.21587" lon="-1.47365">
        <ele>10.97</ele>
        <time>2020-01-19T14:33:27Z</time>
      </trkpt>
      <trkpt lat="47.21585" lon="-1.47385">
        <ele>9.93</ele>
        <time>2020-01-19T14:33:29Z</time>
      </trkpt>
      <trkpt lat="47.21581" lon="-1.47404">
        <ele>8.41</ele>
        <time>2020-01-19T14:33:31Z</time>
      </trkpt>
      <trkpt lat="47.21577" lon="-1.47422">
        <ele>5.4</ele>
        <time>2020-01-19T14:33:33Z</time>
      </trkpt>
      <trkpt lat="47.21573" lon="-1.47437">
        <ele>3.84</ele>
        <time>2020-01-19T14:33:35Z</time>
      </trkpt>
      <trkpt lat="47.2157" lon="-1.47455">
        <ele>4</ele>
        <time>2020-01-19T14:33:37Z</time>
      </trkpt>
      <trkpt lat="47.21565" lon="-1.47473">
        <ele>4.69</ele>
        <time>2020-01-19T14:33:39Z</time>
      </trkpt>
      <trkpt lat="47.2156" lon="-1.47489">
        <ele>5.18</ele>
        <time>2020-01-19T14:33:41Z</time>
      </trkpt>
      <trkpt lat="47.21555" lon="-1.47505">
        <ele>5.22</ele>
        <time>2020-01-19T14:33:43Z</time>
      </trkpt>
      <trkpt lat="47.21549" lon="-1.47519">
        <ele>5.08</ele>
        <time>2020-01-19T14:33:45Z</time>
      </trkpt>
      <trkpt lat="47.21543" lon="-1.47535">
        <ele>4.28</ele>
        <time>2020-01-19T14:33:47Z</time>
      </trkpt>
      <trkpt lat="47.21538" lon="-1.47555">
        <ele>4.03</ele>
        <time>2020-01-19T14:33:49Z</time>
      </trkpt>
      <trkpt lat="47.2154" lon="-1.47574">
        <ele>4.14</ele>
        <time>2020-01-19T14:33:51Z</time>
      </trkpt>
      <trkpt lat="47.21539" lon="-1.47591">
        <ele>4.53</ele>
        <time>2020-01-19T14:33:53Z</time>
      </trkpt>
      <trkpt lat="47.21533" lon="-1.47609">
        <ele>5.42</ele>
        <time>2020-01-19T14:33:55Z</time>
      </trkpt>
      <trkpt lat="47.21527" lon="-1.47624">
        <ele>5.67</ele>
        <time>2020-01-19T14:33:57Z</time>
      </trkpt>
      <trkpt lat="47.21522" lon="-1.47638">
        <ele>6.54</ele>
        <time>2020-01-19T14:33:59Z</time>
      </trkpt>
      <trkpt lat="47.21518" lon="-1.4765">
        <ele>7.82</ele>
        <time>2020-01-19T14:34:00Z</time>
      </trkpt>
      <trkpt lat="47.21511" lon="-1.47666">
        <ele>9.26</ele>
        <time>2020-01-19T14:34:02Z</time>
      </trkpt>
      <trkpt lat="47.21505" lon="-1.47679">
        <ele>9.45</ele>
        <time>2020-01-19T14:34:04Z</time>
      </trkpt>
      <trkpt lat="47.215" lon="-1.47691">
        <ele>9.65</ele>
        <time>2020-01-19T14:34:06Z</time>
      </trkpt>
      <trkpt lat="47.21491" lon="-1.47707">
        <ele>9.41</ele>
        <time>2020-01-19T14:34:08Z</time>
      </trkpt>
      <trkpt lat="47.21479" lon="-1.4772">
        <ele>8.89</ele>
        <time>2020-01-19T14:34:10Z</time>
      </trkpt>
      <trkpt lat="47.21471" lon="-1.47732">
        <ele>8.41</ele>
        <time>2020-01-19T14:34:12Z</time>
      </trkpt>
      <trkpt lat="47.21465" lon="-1.47743">
        <ele>8.09</ele>
        <time>2020-01-19T14:34:14Z</time>
      </trkpt>
      <trkpt lat="47.21457" lon="-1.47758">
        <ele>9.02</ele>
        <time>2020-01-19T14:34:16Z</time>
      </trkpt>
      <trkpt lat="47.21451" lon="-1.47773">
        <ele>9.18</ele>
        <time>2020-01-19T14:34:18Z</time>
      </trkpt>
      <trkpt lat="47.21447" lon="-1.4779">
        <ele>9.52</ele>
        <time>2020-01-19T14:34:20Z</time>
      </trkpt>
      <trkpt lat="47.21444" lon="-1.47806">
        <ele>9.93</ele>
        <time>2020-01-19T14:34:22Z</time>
      </trkpt>
      <trkpt lat="47.21442" lon="-1.47824">
        <ele>9.23</ele>
        <time>2020-01-19T14:34:24Z</time>
      </trkpt>
      <trkpt lat="47.2144" lon="-1.47839">
        <ele>9.2</ele>
        <time>2020-01-19T14:34:26Z</time>
      </trkpt>
      <trkpt lat="47.21437" lon="-1.47858">
        <ele>9.15</ele>
        <time>2020-01-19T14:34:28Z</time>
      </trkpt>
      <trkpt lat="47.21435" lon="-1.47876">
        <ele>8.27</ele>
        <time>2020-01-19T14:34:30Z</time>
      </trkpt>
      <trkpt lat="47.21432" lon="-1.47893">
        <ele>8.03</ele>
        <time>2020-01-19T14:34:32Z</time>
      </trkpt>
      <trkpt lat="47.2143" lon="-1.4791">
        <ele>7.84</ele>
        <time>2020-01-19T14:34:34Z</time>
      </trkpt>
      <trkpt lat="47.21428" lon="-1.47929">
        <ele>7.85</ele>
        <time>2020-01-19T14:34:36Z</time>
      </trkpt>
      <trkpt lat="47.21426" lon="-1.4795">
        <ele>8.87</ele>
        <time>2020-01-19T14:34:38Z</time>
      </trkpt>
      <trkpt lat="47.21424" lon="-1.47966">
        <ele>9.36</ele>
        <time>2020-01-19T14:34:40Z</time>
      </trkpt>
      <trkpt lat="47.21423" lon="-1.47984">
        <ele>9.95</ele>
        <time>2020-01-19T14:34:42Z</time>
      </trkpt>
      <trkpt lat="47.21421" lon="-1.47998">
        <ele>10.76</ele>
        <time>2020-01-19T14:34:44Z</time>
      </trkpt>
      <trkpt lat="47.21418" lon="-1.48017">
        <ele>10.41</ele>
        <time>2020-01-19T14:34:46Z</time>
      </trkpt>
      <trkpt lat="47.21413" lon="-1.48035">
        <ele>10.91</ele>
        <time>2020-01-19T14:34:48Z</time>
      </trkpt>
      <trkpt lat="47.21409" lon="-1.4805">
        <ele>10.92</ele>
        <time>2020-01-19T14:34:50Z</time>
      </trkpt>
      <trkpt lat="47.21403" lon="-1.48065">
        <ele>10.79</ele>
        <time>2020-01-19T14:34:52Z</time>
      </trkpt>
      <trkpt lat="47.21396" lon="-1.48081">
        <ele>10.68</ele>
        <time>2020-01-19T14:34:54Z</time>
      </trkpt>
      <trkpt lat="47.21389" lon="-1.48094">
        <ele>10.44</ele>
        <time>2020-01-19T14:34:56Z</time>
      </trkpt>
      <trkpt lat="47.21382" lon="-1.48107">
        <ele>10.09</ele>
        <time>2020-01-19T14:34:58Z</time>
      </trkpt>
      <trkpt lat="47.21373" lon="-1.48121">
        <ele>9.85</ele>
        <time>2020-01-19T14:35:00Z</time>
      </trkpt>
      <trkpt lat="47.21364" lon="-1.48135">
        <ele>9.34</ele>
        <time>2020-01-19T14:35:02Z</time>
      </trkpt>
      <trkpt lat="47.21354" lon="-1.48148">
        <ele>8.9</ele>
        <time>2020-01-19T14:35:04Z</time>
      </trkpt>
      <trkpt lat="47.21345" lon="-1.4816">
        <ele>8.72</ele>
        <time>2020-01-19T14:35:06Z</time>
      </trkpt>
      <trkpt lat="47.21334" lon="-1.48171">
        <ele>7.92</ele>
        <time>2020-01-19T14:35:08Z</time>
      </trkpt>
      <trkpt lat="47.21324" lon="-1.4818">
        <ele>8</ele>
        <time>2020-01-19T14:35:10Z</time>
      </trkpt>
      <trkpt lat="47.21313" lon="-1.48189">
        <ele>7.95</ele>
        <time>2020-01-19T14:35:12Z</time>
      </trkpt>
      <trkpt lat="47.21302" lon="-1.48198">
        <ele>8.48</ele>
        <time>2020-01-19T14:35:14Z</time>
      </trkpt>
      <trkpt lat="47.21292" lon="-1.48208">
        <ele>8.71</ele>
        <time>2020-01-19T14:35:16Z</time>
      </trkpt>
      <trkpt lat="47.21282" lon="-1.48215">
        <ele>9.86</ele>
        <time>2020-01-19T14:35:18Z</time>
      </trkpt>
      <trkpt lat="47.2127" lon="-1.48225">
        <ele>10.87</ele>
        <time>2020-01-19T14:35:20Z</time>
      </trkpt>
      <trkpt lat="47.2126" lon="-1.48234">
        <ele>11.37</ele>
        <time>2020-01-19T14:35:22Z</time>
      </trkpt>
      <trkpt lat="47.21249" lon="-1.48243">
        <ele>11.36</ele>
        <time>2020-01-19T14:35:24Z</time>
      </trkpt>
      <trkpt lat="47.21239" lon="-1.48253">
        <ele>11.89</ele>
        <time>2020-01-19T14:35:26Z</time>
      </trkpt>
      <trkpt lat="47.21229" lon="-1.48268">
        <ele>12.91</ele>
        <time>2020-01-19T14:35:28Z</time>
      </trkpt>
      <trkpt lat="47.21221" lon="-1.48281">
        <ele>14.08</ele>
        <time>2020-01-19T14:35:30Z</time>
      </trkpt>
      <trkpt lat="47.21218" lon="-1.48294">
        <ele>14.14</ele>
        <time>2020-01-19T14:35:32Z</time>
      </trkpt>
      <trkpt lat="47.21223" lon="-1.48311">
        <ele>12.56</ele>
        <time>2020-01-19T14:35:34Z</time>
      </trkpt>
      <trkpt lat="47.21233" lon="-1.48322">
        <ele>11.9</ele>
        <time>2020-01-19T14:35:36Z</time>
      </trkpt>
      <trkpt lat="47.21241" lon="-1.48332">
        <ele>10.88</ele>
        <time>2020-01-19T14:35:38Z</time>
      </trkpt>
      <trkpt lat="47.21236" lon="-1.48346">
        <ele>8.59</ele>
        <time>2020-01-19T14:35:40Z</time>
      </trkpt>
      <trkpt lat="47.21226" lon="-1.48357">
        <ele>8.03</ele>
        <time>2020-01-19T14:35:42Z</time>
      </trkpt>
      <trkpt lat="47.2122" lon="-1.48373">
        <ele>7.71</ele>
        <time>2020-01-19T14:35:44Z</time>
      </trkpt>
      <trkpt lat="47.21221" lon="-1.48394">
        <ele>7.3</ele>
        <time>2020-01-19T14:35:46Z</time>
      </trkpt>
      <trkpt lat="47.21224" lon="-1.48408">
        <ele>5.1</ele>
        <time>2020-01-19T14:35:48Z</time>
      </trkpt>
      <trkpt lat="47.2123" lon="-1.48428">
        <ele>3.27</ele>
        <time>2020-01-19T14:35:50Z</time>
      </trkpt>
      <trkpt lat="47.21237" lon="-1.48444">
        <ele>4.68</ele>
        <time>2020-01-19T14:35:52Z</time>
      </trkpt>
      <trkpt lat="47.21244" lon="-1.48457">
        <ele>6.07</ele>
        <time>2020-01-19T14:35:54Z</time>
      </trkpt>
      <trkpt lat="47.21253" lon="-1.48464">
        <ele>7.16</ele>
        <time>2020-01-19T14:35:56Z</time>
      </trkpt>
      <trkpt lat="47.21262" lon="-1.48465">
        <ele>7.54</ele>
        <time>2020-01-19T14:35:58Z</time>
      </trkpt>
      <trkpt lat="47.21276" lon="-1.48463">
        <ele>6.55</ele>
        <time>2020-01-19T14:36:01Z</time>
      </trkpt>
      <trkpt lat="47.21282" lon="-1.48474">
        <ele>7.19</ele>
        <time>2020-01-19T14:36:03Z</time>
      </trkpt>
      <trkpt lat="47.21281" lon="-1.48493">
        <ele>7.77</ele>
        <time>2020-01-19T14:36:05Z</time>
      </trkpt>
      <trkpt lat="47.21278" lon="-1.48511">
        <ele>6.92</ele>
        <time>2020-01-19T14:36:07Z</time>
      </trkpt>
      <trkpt lat="47.21273" lon="-1.48527">
        <ele>7.36</ele>
        <time>2020-01-19T14:36:09Z</time>
      </trkpt>
      <trkpt lat="47.2127" lon="-1.48542">
        <ele>7.71</ele>
        <time>2020-01-19T14:36:11Z</time>
      </trkpt>
      <trkpt lat="47.21264" lon="-1.48559">
        <ele>7.33</ele>
        <time>2020-01-19T14:36:13Z</time>
      </trkpt>
      <trkpt lat="47.21259" lon="-1.48574">
        <ele>6.05</ele>
        <time>2020-01-19T14:36:15Z</time>
      </trkpt>
      <trkpt lat="47.21254" lon="-1.4859">
        <ele>5.59</ele>
        <time>2020-01-19T14:36:17Z</time>
      </trkpt>
      <trkpt lat="47.21249" lon="-1.48608">
        <ele>6.34</ele>
        <time>2020-01-19T14:36:19Z</time>
      </trkpt>
      <trkpt lat="47.21245" lon="-1.48623">
        <ele>6.42</ele>
        <time>2020-01-19T14:36:21Z</time>
      </trkpt>
      <trkpt lat="47.21241" lon="-1.48638">
        <ele>6.33</ele>
        <time>2020-01-19T14:36:23Z</time>
      </trkpt>
      <trkpt lat="47.21235" lon="-1.48658">
        <ele>5.87</ele>
        <time>2020-01-19T14:36:25Z</time>
      </trkpt>
      <trkpt lat="47.21231" lon="-1.48674">
        <ele>5.74</ele>
        <time>2020-01-19T14:36:27Z</time>
      </trkpt>
      <trkpt lat="47.21226" lon="-1.48693">
        <ele>4.97</ele>
        <time>2020-01-19T14:36:29Z</time>
      </trkpt>
      <trkpt lat="47.21221" lon="-1.48711">
        <ele>4.1</ele>
        <time>2020-01-19T14:36:31Z</time>
      </trkpt>
      <trkpt lat="47.21218" lon="-1.48725">
        <ele>4.16</ele>
        <time>2020-01-19T14:36:33Z</time>
      </trkpt>
      <trkpt lat="47.21213" lon="-1.48744">
        <ele>6.04</ele>
        <time>2020-01-19T14:36:35Z</time>
      </trkpt>
      <trkpt lat="47.21209" lon="-1.48759">
        <ele>7.53</ele>
        <time>2020-01-19T14:36:37Z</time>
      </trkpt>
      <trkpt lat="47.21204" lon="-1.48778">
        <ele>6.27</ele>
        <time>2020-01-19T14:36:39Z</time>
      </trkpt>
      <trkpt lat="47.21199" lon="-1.48796">
        <ele>4.85</ele>
        <time>2020-01-19T14:36:41Z</time>
      </trkpt>
      <trkpt lat="47.21196" lon="-1.48814">
        <ele>4.84</ele>
        <time>2020-01-19T14:36:43Z</time>
      </trkpt>
      <trkpt lat="47.21192" lon="-1.48829">
        <ele>4.9</ele>
        <time>2020-01-19T14:36:45Z</time>
      </trkpt>
      <trkpt lat="47.21189" lon="-1.48847">
        <ele>5.32</ele>
        <time>2020-01-19T14:36:47Z</time>
      </trkpt>
      <trkpt lat="47.2119" lon="-1.48868">
        <ele>5.86</ele>
        <time>2020-01-19T14:36:48Z</time>
      </trkpt>
      <trkpt lat="47.2119" lon="-1.48887">
        <ele>6.13</ele>
        <time>2020-01-19T14:36:50Z</time>
      </trkpt>
      <trkpt lat="47.21187" lon="-1.48905">
        <ele>5.52</ele>
        <time>2020-01-19T14:36:52Z</time>
      </trkpt>
      <trkpt lat="47.2118" lon="-1.48921">
        <ele>4.55</ele>
        <time>2020-01-19T14:36:54Z</time>
      </trkpt>
      <trkpt lat="47.21174" lon="-1.48933">
        <ele>5.84</ele>
        <time>2020-01-19T14:36:56Z</time>
      </trkpt>
      <trkpt lat="47.2117" lon="-1.48952">
        <ele>5.69</ele>
        <time>2020-01-19T14:36:58Z</time>
      </trkpt>
      <trkpt lat="47.21166" lon="-1.48972">
        <ele>6.01</ele>
        <time>2020-01-19T14:37:00Z</time>
      </trkpt>
      <trkpt lat="47.21162" lon="-1.48988">
        <ele>6.5</ele>
        <time>2020-01-19T14:37:02Z</time>
      </trkpt>
      <trkpt lat="47.21159" lon="-1.49006">
        <ele>7.35</ele>
        <time>2020-01-19T14:37:04Z</time>
      </trkpt>
      <trkpt lat="47.21156" lon="-1.49022">
        <ele>7.65</ele>
        <time>2020-01-19T14:37:06Z</time>
      </trkpt>
      <trkpt lat="47.21154" lon="-1.49041">
        <ele>7.46</ele>
        <time>2020-01-19T14:37:08Z</time>
      </trkpt>
      <trkpt lat="47.21155" lon="-1.4906">
        <ele>7.14</ele>
        <time>2020-01-19T14:37:10Z</time>
      </trkpt>
      <trkpt lat="47.2116" lon="-1.49073">
        <ele>6.53</ele>
        <time>2020-01-19T14:37:12Z</time>
      </trkpt>
      <trkpt lat="47.21162" lon="-1.49088">
        <ele>5.9</ele>
        <time>2020-01-19T14:37:14Z</time>
      </trkpt>
      <trkpt lat="47.21157" lon="-1.49102">
        <ele>6.87</ele>
        <time>2020-01-19T14:37:16Z</time>
      </trkpt>
      <trkpt lat="47.21154" lon="-1.49119">
        <ele>7.76</ele>
        <time>2020-01-19T14:37:18Z</time>
      </trkpt>
      <trkpt lat="47.21152" lon="-1.49135">
        <ele>8.36</ele>
        <time>2020-01-19T14:37:20Z</time>
      </trkpt>
      <trkpt lat="47.2115" lon="-1.4915">
        <ele>9.1</ele>
        <time>2020-01-19T14:37:22Z</time>
      </trkpt>
      <trkpt lat="47.21146" lon="-1.4917">
        <ele>9.43</ele>
        <time>2020-01-19T14:37:24Z</time>
      </trkpt>
      <trkpt lat="47.21144" lon="-1.49189">
        <ele>9.4</ele>
        <time>2020-01-19T14:37:26Z</time>
      </trkpt>
      <trkpt lat="47.21142" lon="-1.49205">
        <ele>8.72</ele>
        <time>2020-01-19T14:37:28Z</time>
      </trkpt>
      <trkpt lat="47.2114" lon="-1.49224">
        <ele>8.5</ele>
        <time>2020-01-19T14:37:30Z</time>
      </trkpt>
      <trkpt lat="47.21139" lon="-1.49241">
        <ele>8.97</ele>
        <time>2020-01-19T14:37:32Z</time>
      </trkpt>
      <trkpt lat="47.21137" lon="-1.49259">
        <ele>9.36</ele>
        <time>2020-01-19T14:37:34Z</time>
      </trkpt>
      <trkpt lat="47.21136" lon="-1.49278">
        <ele>9.2</ele>
        <time>2020-01-19T14:37:36Z</time>
      </trkpt>
      <trkpt lat="47.21135" lon="-1.49296">
        <ele>8.71</ele>
        <time>2020-01-19T14:37:38Z</time>
      </trkpt>
      <trkpt lat="47.21135" lon="-1.49312">
        <ele>8.41</ele>
        <time>2020-01-19T14:37:40Z</time>
      </trkpt>
      <trkpt lat="47.21134" lon="-1.4933">
        <ele>9.31</ele>
        <time>2020-01-19T14:37:42Z</time>
      </trkpt>
      <trkpt lat="47.21134" lon="-1.49349">
        <ele>9.53</ele>
        <time>2020-01-19T14:37:44Z</time>
      </trkpt>
      <trkpt lat="47.21133" lon="-1.49368">
        <ele>9.48</ele>
        <time>2020-01-19T14:37:46Z</time>
      </trkpt>
      <trkpt lat="47.21132" lon="-1.49388">
        <ele>9.26</ele>
        <time>2020-01-19T14:37:48Z</time>
      </trkpt>
      <trkpt lat="47.21131" lon="-1.49404">
        <ele>8.6</ele>
        <time>2020-01-19T14:37:50Z</time>
      </trkpt>
      <trkpt lat="47.2113" lon="-1.49422">
        <ele>7.77</ele>
        <time>2020-01-19T14:37:52Z</time>
      </trkpt>
      <trkpt lat="47.21129" lon="-1.49442">
        <ele>7.52</ele>
        <time>2020-01-19T14:37:54Z</time>
      </trkpt>
      <trkpt lat="47.21129" lon="-1.49457">
        <ele>8.62</ele>
        <time>2020-01-19T14:37:56Z</time>
      </trkpt>
      <trkpt lat="47.21128" lon="-1.49475">
        <ele>9.91</ele>
        <time>2020-01-19T14:37:58Z</time>
      </trkpt>
      <trkpt lat="47.21128" lon="-1.49491">
        <ele>10.3</ele>
        <time>2020-01-19T14:38:00Z</time>
      </trkpt>
      <trkpt lat="47.21128" lon="-1.49506">
        <ele>9.98</ele>
        <time>2020-01-19T14:38:02Z</time>
      </trkpt>
      <trkpt lat="47.21128" lon="-1.49523">
        <ele>9.81</ele>
        <time>2020-01-19T14:38:04Z</time>
      </trkpt>
      <trkpt lat="47.21128" lon="-1.49542">
        <ele>9.85</ele>
        <time>2020-01-19T14:38:06Z</time>
      </trkpt>
      <trkpt lat="47.21133" lon="-1.49557">
        <ele>10.33</ele>
        <time>2020-01-19T14:38:08Z</time>
      </trkpt>
      <trkpt lat="47.21137" lon="-1.49571">
        <ele>10.65</ele>
        <time>2020-01-19T14:38:10Z</time>
      </trkpt>
      <trkpt lat="47.21139" lon="-1.4959">
        <ele>9.32</ele>
        <time>2020-01-19T14:38:12Z</time>
      </trkpt>
      <trkpt lat="47.21132" lon="-1.49604">
        <ele>8.26</ele>
        <time>2020-01-19T14:38:14Z</time>
      </trkpt>
      <trkpt lat="47.21127" lon="-1.49618">
        <ele>8.3</ele>
        <time>2020-01-19T14:38:16Z</time>
      </trkpt>
      <trkpt lat="47.21125" lon="-1.49636">
        <ele>7.68</ele>
        <time>2020-01-19T14:38:18Z</time>
      </trkpt>
      <trkpt lat="47.21123" lon="-1.49652">
        <ele>7.41</ele>
        <time>2020-01-19T14:38:20Z</time>
      </trkpt>
      <trkpt lat="47.21121" lon="-1.49672">
        <ele>7.56</ele>
        <time>2020-01-19T14:38:22Z</time>
      </trkpt>
      <trkpt lat="47.2112" lon="-1.4969">
        <ele>7.93</ele>
        <time>2020-01-19T14:38:24Z</time>
      </trkpt>
      <trkpt lat="47.21118" lon="-1.49704">
        <ele>8.38</ele>
        <time>2020-01-19T14:38:26Z</time>
      </trkpt>
      <trkpt lat="47.21117" lon="-1.49719">
        <ele>9.72</ele>
        <time>2020-01-19T14:38:28Z</time>
      </trkpt>
      <trkpt lat="47.21116" lon="-1.4974">
        <ele>10.55</ele>
        <time>2020-01-19T14:38:30Z</time>
      </trkpt>
      <trkpt lat="47.21116" lon="-1.49757">
        <ele>11</ele>
        <time>2020-01-19T14:38:32Z</time>
      </trkpt>
      <trkpt lat="47.21114" lon="-1.49777">
        <ele>10.99</ele>
        <time>2020-01-19T14:38:34Z</time>
      </trkpt>
      <trkpt lat="47.21112" lon="-1.49796">
        <ele>10.7</ele>
        <time>2020-01-19T14:38:36Z</time>
      </trkpt>
      <trkpt lat="47.21109" lon="-1.49817">
        <ele>9.83</ele>
        <time>2020-01-19T14:38:38Z</time>
      </trkpt>
      <trkpt lat="47.21107" lon="-1.49835">
        <ele>9.38</ele>
        <time>2020-01-19T14:38:40Z</time>
      </trkpt>
      <trkpt lat="47.21103" lon="-1.4985">
        <ele>9.24</ele>
        <time>2020-01-19T14:38:42Z</time>
      </trkpt>
      <trkpt lat="47.211" lon="-1.49867">
        <ele>9.45</ele>
        <time>2020-01-19T14:38:44Z</time>
      </trkpt>
      <trkpt lat="47.21097" lon="-1.49885">
        <ele>9.35</ele>
        <time>2020-01-19T14:38:46Z</time>
      </trkpt>
      <trkpt lat="47.2109" lon="-1.499">
        <ele>8.83</ele>
        <time>2020-01-19T14:38:48Z</time>
      </trkpt>
      <trkpt lat="47.21084" lon="-1.49918">
        <ele>8.37</ele>
        <time>2020-01-19T14:38:50Z</time>
      </trkpt>
      <trkpt lat="47.21079" lon="-1.49934">
        <ele>7.64</ele>
        <time>2020-01-19T14:38:52Z</time>
      </trkpt>
      <trkpt lat="47.21074" lon="-1.49951">
        <ele>7.48</ele>
        <time>2020-01-19T14:38:54Z</time>
      </trkpt>
      <trkpt lat="47.2107" lon="-1.49969">
        <ele>7.82</ele>
        <time>2020-01-19T14:38:56Z</time>
      </trkpt>
      <trkpt lat="47.21066" lon="-1.49987">
        <ele>8.15</ele>
        <time>2020-01-19T14:38:58Z</time>
      </trkpt>
      <trkpt lat="47.21063" lon="-1.50002">
        <ele>9.26</ele>
        <time>2020-01-19T14:39:00Z</time>
      </trkpt>
      <trkpt lat="47.21058" lon="-1.50022">
        <ele>10.55</ele>
        <time>2020-01-19T14:39:02Z</time>
      </trkpt>
      <trkpt lat="47.21053" lon="-1.50042">
        <ele>11.03</ele>
        <time>2020-01-19T14:39:04Z</time>
      </trkpt>
      <trkpt lat="47.21049" lon="-1.5006">
        <ele>11.36</ele>
        <time>2020-01-19T14:39:06Z</time>
      </trkpt>
      <trkpt lat="47.21045" lon="-1.50076">
        <ele>11.51</ele>
        <time>2020-01-19T14:39:08Z</time>
      </trkpt>
      <trkpt lat="47.21041" lon="-1.50093">
        <ele>11.11</ele>
        <time>2020-01-19T14:39:10Z</time>
      </trkpt>
      <trkpt lat="47.21036" lon="-1.50111">
        <ele>11.14</ele>
        <time>2020-01-19T14:39:12Z</time>
      </trkpt>
      <trkpt lat="47.21032" lon="-1.50128">
        <ele>11.6</ele>
        <time>2020-01-19T14:39:14Z</time>
      </trkpt>
      <trkpt lat="47.21027" lon="-1.50147">
        <ele>12.51</ele>
        <time>2020-01-19T14:39:16Z</time>
      </trkpt>
      <trkpt lat="47.21022" lon="-1.50167">
        <ele>12.36</ele>
        <time>2020-01-19T14:39:18Z</time>
      </trkpt>
      <trkpt lat="47.21018" lon="-1.50187">
        <ele>11.29</ele>
        <time>2020-01-19T14:39:20Z</time>
      </trkpt>
      <trkpt lat="47.21015" lon="-1.50202">
        <ele>10.63</ele>
        <time>2020-01-19T14:39:22Z</time>
      </trkpt>
      <trkpt lat="47.21016" lon="-1.5022">
        <ele>9.9</ele>
        <time>2020-01-19T14:39:24Z</time>
      </trkpt>
      <trkpt lat="47.21018" lon="-1.50238">
        <ele>9.23</ele>
        <time>2020-01-19T14:39:26Z</time>
      </trkpt>
      <trkpt lat="47.21013" lon="-1.50254">
        <ele>9.68</ele>
        <time>2020-01-19T14:39:28Z</time>
      </trkpt>
      <trkpt lat="47.21008" lon="-1.5027">
        <ele>10</ele>
        <time>2020-01-19T14:39:30Z</time>
      </trkpt>
      <trkpt lat="47.21005" lon="-1.50286">
        <ele>9.59</ele>
        <time>2020-01-19T14:39:32Z</time>
      </trkpt>
      <trkpt lat="47.21002" lon="-1.50308">
        <ele>8.73</ele>
        <time>2020-01-19T14:39:34Z</time>
      </trkpt>
      <trkpt lat="47.21001" lon="-1.50328">
        <ele>7.9</ele>
        <time>2020-01-19T14:39:36Z</time>
      </trkpt>
      <trkpt lat="47.21" lon="-1.50347">
        <ele>7.08</ele>
        <time>2020-01-19T14:39:38Z</time>
      </trkpt>
      <trkpt lat="47.21" lon="-1.50369">
        <ele>6.41</ele>
        <time>2020-01-19T14:39:40Z</time>
      </trkpt>
      <trkpt lat="47.21" lon="-1.50389">
        <ele>5.81</ele>
        <time>2020-01-19T14:39:42Z</time>
      </trkpt>
      <trkpt lat="47.21" lon="-1.50408">
        <ele>5.69</ele>
        <time>2020-01-19T14:39:44Z</time>
      </trkpt>
      <trkpt lat="47.21001" lon="-1.50426">
        <ele>6.69</ele>
        <time>2020-01-19T14:39:46Z</time>
      </trkpt>
      <trkpt lat="47.21001" lon="-1.5045">
        <ele>6.57</ele>
        <time>2020-01-19T14:39:48Z</time>
      </trkpt>
      <trkpt lat="47.21002" lon="-1.50468">
        <ele>6.08</ele>
        <time>2020-01-19T14:39:50Z</time>
      </trkpt>
      <trkpt lat="47.21002" lon="-1.50486">
        <ele>6.27</ele>
        <time>2020-01-19T14:39:52Z</time>
      </trkpt>
      <trkpt lat="47.21002" lon="-1.50502">
        <ele>6.7</ele>
        <time>2020-01-19T14:39:54Z</time>
      </trkpt>
      <trkpt lat="47.21003" lon="-1.50522">
        <ele>7.81</ele>
        <time>2020-01-19T14:39:56Z</time>
      </trkpt>
      <trkpt lat="47.21003" lon="-1.50541">
        <ele>9.26</ele>
        <time>2020-01-19T14:39:58Z</time>
      </trkpt>
      <trkpt lat="47.21003" lon="-1.50559">
        <ele>9.71</ele>
        <time>2020-01-19T14:40:00Z</time>
      </trkpt>
      <trkpt lat="47.21003" lon="-1.50577">
        <ele>9.1</ele>
        <time>2020-01-19T14:40:02Z</time>
      </trkpt>
      <trkpt lat="47.21002" lon="-1.50599">
        <ele>8.85</ele>
        <time>2020-01-19T14:40:04Z</time>
      </trkpt>
      <trkpt lat="47.21001" lon="-1.50621">
        <ele>9.13</ele>
        <time>2020-01-19T14:40:06Z</time>
      </trkpt>
      <trkpt lat="47.21001" lon="-1.5064">
        <ele>10.28</ele>
        <time>2020-01-19T14:40:08Z</time>
      </trkpt>
      <trkpt lat="47.21001" lon="-1.50662">
        <ele>10.73</ele>
        <time>2020-01-19T14:40:10Z</time>
      </trkpt>
      <trkpt lat="47.21001" lon="-1.5068">
        <ele>10.36</ele>
        <time>2020-01-19T14:40:12Z</time>
      </trkpt>
      <trkpt lat="47.21" lon="-1.50703">
        <ele>9.72</ele>
        <time>2020-01-19T14:40:14Z</time>
      </trkpt>
      <trkpt lat="47.20998" lon="-1.50723">
        <ele>8.12</ele>
        <time>2020-01-19T14:40:16Z</time>
      </trkpt>
      <trkpt lat="47.20997" lon="-1.50741">
        <ele>7.89</ele>
        <time>2020-01-19T14:40:18Z</time>
      </trkpt>
      <trkpt lat="47.20994" lon="-1.50764">
        <ele>8.05</ele>
        <time>2020-01-19T14:40:20Z</time>
      </trkpt>
      <trkpt lat="47.20992" lon="-1.50781">
        <ele>8.12</ele>
        <time>2020-01-19T14:40:22Z</time>
      </trkpt>
      <trkpt lat="47.2099" lon="-1.50799">
        <ele>7.03</ele>
        <time>2020-01-19T14:40:24Z</time>
      </trkpt>
      <trkpt lat="47.20987" lon="-1.5082">
        <ele>6.27</ele>
        <time>2020-01-19T14:40:26Z</time>
      </trkpt>
      <trkpt lat="47.20985" lon="-1.50839">
        <ele>6.72</ele>
        <time>2020-01-19T14:40:28Z</time>
      </trkpt>
      <trkpt lat="47.20982" lon="-1.50859">
        <ele>7.56</ele>
        <time>2020-01-19T14:40:30Z</time>
      </trkpt>
      <trkpt lat="47.2098" lon="-1.50878">
        <ele>7.8</ele>
        <time>2020-01-19T14:40:32Z</time>
      </trkpt>
      <trkpt lat="47.20978" lon="-1.50896">
        <ele>7.57</ele>
        <time>2020-01-19T14:40:34Z</time>
      </trkpt>
      <trkpt lat="47.20976" lon="-1.50913">
        <ele>6.87</ele>
        <time>2020-01-19T14:40:36Z</time>
      </trkpt>
      <trkpt lat="47.20974" lon="-1.50927">
        <ele>6.88</ele>
        <time>2020-01-19T14:40:38Z</time>
      </trkpt>
      <trkpt lat="47.20972" lon="-1.50941">
        <ele>6.77</ele>
        <time>2020-01-19T14:40:41Z</time>
      </trkpt>
      <trkpt lat="47.20969" lon="-1.50958">
        <ele>7.54</ele>
        <time>2020-01-19T14:40:44Z</time>
      </trkpt>
      <trkpt lat="47.20968" lon="-1.50976">
        <ele>6.96</ele>
        <time>2020-01-19T14:40:46Z</time>
      </trkpt>
      <trkpt lat="47.20967" lon="-1.50995">
        <ele>6.31</ele>
        <time>2020-01-19T14:40:48Z</time>
      </trkpt>
      <trkpt lat="47.20964" lon="-1.51009">
        <ele>6.12</ele>
        <time>2020-01-19T14:40:50Z</time>
      </trkpt>
      <trkpt lat="47.20957" lon="-1.51025">
        <ele>6.48</ele>
        <time>2020-01-19T14:40:52Z</time>
      </trkpt>
      <trkpt lat="47.20952" lon="-1.51042">
        <ele>6.9</ele>
        <time>2020-01-19T14:40:54Z</time>
      </trkpt>
      <trkpt lat="47.2095" lon="-1.51063">
        <ele>6.94</ele>
        <time>2020-01-19T14:40:56Z</time>
      </trkpt>
      <trkpt lat="47.20947" lon="-1.51082">
        <ele>7.57</ele>
        <time>2020-01-19T14:40:58Z</time>
      </trkpt>
      <trkpt lat="47.20943" lon="-1.51099">
        <ele>8.49</ele>
        <time>2020-01-19T14:41:00Z</time>
      </trkpt>
      <trkpt lat="47.20939" lon="-1.51118">
        <ele>9.24</ele>
        <time>2020-01-19T14:41:02Z</time>
      </trkpt>
      <trkpt lat="47.20933" lon="-1.51135">
        <ele>9.77</ele>
        <time>2020-01-19T14:41:04Z</time>
      </trkpt>
      <trkpt lat="47.20928" lon="-1.51153">
        <ele>9.32</ele>
        <time>2020-01-19T14:41:06Z</time>
      </trkpt>
      <trkpt lat="47.20922" lon="-1.51167">
        <ele>9.47</ele>
        <time>2020-01-19T14:41:08Z</time>
      </trkpt>
      <trkpt lat="47.20916" lon="-1.51185">
        <ele>9.88</ele>
        <time>2020-01-19T14:41:10Z</time>
      </trkpt>
      <trkpt lat="47.2091" lon="-1.51201">
        <ele>10.32</ele>
        <time>2020-01-19T14:41:12Z</time>
      </trkpt>
      <trkpt lat="47.20903" lon="-1.5122">
        <ele>10.27</ele>
        <time>2020-01-19T14:41:14Z</time>
      </trkpt>
      <trkpt lat="47.20897" lon="-1.51235">
        <ele>9.28</ele>
        <time>2020-01-19T14:41:16Z</time>
      </trkpt>
      <trkpt lat="47.20891" lon="-1.51254">
        <ele>7.75</ele>
        <time>2020-01-19T14:41:18Z</time>
      </trkpt>
      <trkpt lat="47.20886" lon="-1.51269">
        <ele>6.53</ele>
        <time>2020-01-19T14:41:20Z</time>
      </trkpt>
      <trkpt lat="47.20879" lon="-1.51284">
        <ele>5.87</ele>
        <time>2020-01-19T14:41:22Z</time>
      </trkpt>
      <trkpt lat="47.20873" lon="-1.51299">
        <ele>5.63</ele>
        <time>2020-01-19T14:41:24Z</time>
      </trkpt>
      <trkpt lat="47.20865" lon="-1.51314">
        <ele>4.98</ele>
        <time>2020-01-19T14:41:26Z</time>
      </trkpt>
      <trkpt lat="47.20858" lon="-1.5133">
        <ele>4.96</ele>
        <time>2020-01-19T14:41:28Z</time>
      </trkpt>
      <trkpt lat="47.20854" lon="-1.51345">
        <ele>6.07</ele>
        <time>2020-01-19T14:41:30Z</time>
      </trkpt>
      <trkpt lat="47.20848" lon="-1.51365">
        <ele>6.7</ele>
        <time>2020-01-19T14:41:33Z</time>
      </trkpt>
      <trkpt lat="47.20844" lon="-1.51378">
        <ele>5.33</ele>
        <time>2020-01-19T14:41:35Z</time>
      </trkpt>
      <trkpt lat="47.2084" lon="-1.51394">
        <ele>5.38</ele>
        <time>2020-01-19T14:41:37Z</time>
      </trkpt>
      <trkpt lat="47.20834" lon="-1.51412">
        <ele>6.33</ele>
        <time>2020-01-19T14:41:39Z</time>
      </trkpt>
      <trkpt lat="47.20829" lon="-1.5143">
        <ele>6.97</ele>
        <time>2020-01-19T14:41:41Z</time>
      </trkpt>
      <trkpt lat="47.20826" lon="-1.5145">
        <ele>7.05</ele>
        <time>2020-01-19T14:41:43Z</time>
      </trkpt>
      <trkpt lat="47.20823" lon="-1.51468">
        <ele>7.32</ele>
        <time>2020-01-19T14:41:45Z</time>
      </trkpt>
      <trkpt lat="47.20821" lon="-1.51487">
        <ele>7.92</ele>
        <time>2020-01-19T14:41:47Z</time>
      </trkpt>
      <trkpt lat="47.20817" lon="-1.51506">
        <ele>8.64</ele>
        <time>2020-01-19T14:41:49Z</time>
      </trkpt>
      <trkpt lat="47.20814" lon="-1.51526">
        <ele>8.65</ele>
        <time>2020-01-19T14:41:51Z</time>
      </trkpt>
      <trkpt lat="47.20812" lon="-1.51547">
        <ele>9.04</ele>
        <time>2020-01-19T14:41:53Z</time>
      </trkpt>
      <trkpt lat="47.20809" lon="-1.51567">
        <ele>8.66</ele>
        <time>2020-01-19T14:41:55Z</time>
      </trkpt>
      <trkpt lat="47.20807" lon="-1.51585">
        <ele>8.71</ele>
        <time>2020-01-19T14:41:57Z</time>
      </trkpt>
      <trkpt lat="47.20805" lon="-1.51603">
        <ele>8.18</ele>
        <time>2020-01-19T14:41:59Z</time>
      </trkpt>
      <trkpt lat="47.20804" lon="-1.51622">
        <ele>7.48</ele>
        <time>2020-01-19T14:42:01Z</time>
      </trkpt>
      <trkpt lat="47.20802" lon="-1.51642">
        <ele>7.02</ele>
        <time>2020-01-19T14:42:03Z</time>
      </trkpt>
      <trkpt lat="47.20799" lon="-1.51662">
        <ele>6.36</ele>
        <time>2020-01-19T14:42:05Z</time>
      </trkpt>
      <trkpt lat="47.20796" lon="-1.51681">
        <ele>5.52</ele>
        <time>2020-01-19T14:42:07Z</time>
      </trkpt>
      <trkpt lat="47.20793" lon="-1.51701">
        <ele>5.46</ele>
        <time>2020-01-19T14:42:09Z</time>
      </trkpt>
      <trkpt lat="47.20789" lon="-1.51717">
        <ele>6.9</ele>
        <time>2020-01-19T14:42:11Z</time>
      </trkpt>
      <trkpt lat="47.20785" lon="-1.51737">
        <ele>8.13</ele>
        <time>2020-01-19T14:42:13Z</time>
      </trkpt>
      <trkpt lat="47.2078" lon="-1.51756">
        <ele>8.82</ele>
        <time>2020-01-19T14:42:15Z</time>
      </trkpt>
      <trkpt lat="47.20775" lon="-1.51776">
        <ele>9.2</ele>
        <time>2020-01-19T14:42:17Z</time>
      </trkpt>
      <trkpt lat="47.2077" lon="-1.51796">
        <ele>9.88</ele>
        <time>2020-01-19T14:42:19Z</time>
      </trkpt>
      <trkpt lat="47.20766" lon="-1.51815">
        <ele>10.73</ele>
        <time>2020-01-19T14:42:21Z</time>
      </trkpt>
      <trkpt lat="47.20762" lon="-1.51834">
        <ele>11.35</ele>
        <time>2020-01-19T14:42:23Z</time>
      </trkpt>
      <trkpt lat="47.20757" lon="-1.5185">
        <ele>11.52</ele>
        <time>2020-01-19T14:42:25Z</time>
      </trkpt>
      <trkpt lat="47.2075" lon="-1.51866">
        <ele>11.57</ele>
        <time>2020-01-19T14:42:27Z</time>
      </trkpt>
      <trkpt lat="47.20743" lon="-1.5188">
        <ele>11.05</ele>
        <time>2020-01-19T14:42:29Z</time>
      </trkpt>
      <trkpt lat="47.20736" lon="-1.51896">
        <ele>10.5</ele>
        <time>2020-01-19T14:42:31Z</time>
      </trkpt>
      <trkpt lat="47.2073" lon="-1.5191">
        <ele>10.58</ele>
        <time>2020-01-19T14:42:33Z</time>
      </trkpt>
      <trkpt lat="47.20721" lon="-1.51927">
        <ele>10.86</ele>
        <time>2020-01-19T14:42:35Z</time>
      </trkpt>
      <trkpt lat="47.20713" lon="-1.51944">
        <ele>11.29</ele>
        <time>2020-01-19T14:42:37Z</time>
      </trkpt>
      <trkpt lat="47.20705" lon="-1.51961">
        <ele>11.38</ele>
        <time>2020-01-19T14:42:39Z</time>
      </trkpt>
      <trkpt lat="47.20697" lon="-1.51976">
        <ele>10.78</ele>
        <time>2020-01-19T14:42:41Z</time>
      </trkpt>
      <trkpt lat="47.20688" lon="-1.51989">
        <ele>10.17</ele>
        <time>2020-01-19T14:42:43Z</time>
      </trkpt>
      <trkpt lat="47.2068" lon="-1.52004">
        <ele>9.87</ele>
        <time>2020-01-19T14:42:45Z</time>
      </trkpt>
      <trkpt lat="47.20672" lon="-1.52016">
        <ele>9.84</ele>
        <time>2020-01-19T14:42:47Z</time>
      </trkpt>
      <trkpt lat="47.20663" lon="-1.52033">
        <ele>9.62</ele>
        <time>2020-01-19T14:42:49Z</time>
      </trkpt>
      <trkpt lat="47.20655" lon="-1.52049">
        <ele>8.94</ele>
        <time>2020-01-19T14:42:51Z</time>
      </trkpt>
      <trkpt lat="47.20645" lon="-1.52063">
        <ele>8.2</ele>
        <time>2020-01-19T14:42:53Z</time>
      </trkpt>
      <trkpt lat="47.20637" lon="-1.52076">
        <ele>7.19</ele>
        <time>2020-01-19T14:42:55Z</time>
      </trkpt>
      <trkpt lat="47.20627" lon="-1.5209">
        <ele>7.01</ele>
        <time>2020-01-19T14:42:57Z</time>
      </trkpt>
      <trkpt lat="47.20619" lon="-1.52103">
        <ele>7.49</ele>
        <time>2020-01-19T14:42:59Z</time>
      </trkpt>
      <trkpt lat="47.20611" lon="-1.52115">
        <ele>8.05</ele>
        <time>2020-01-19T14:43:01Z</time>
      </trkpt>
      <trkpt lat="47.20602" lon="-1.52131">
        <ele>8.49</ele>
        <time>2020-01-19T14:43:03Z</time>
      </trkpt>
      <trkpt lat="47.20595" lon="-1.52146">
        <ele>8.17</ele>
        <time>2020-01-19T14:43:05Z</time>
      </trkpt>
      <trkpt lat="47.20587" lon="-1.52161">
        <ele>8.15</ele>
        <time>2020-01-19T14:43:07Z</time>
      </trkpt>
      <trkpt lat="47.20579" lon="-1.52175">
        <ele>8.23</ele>
        <time>2020-01-19T14:43:09Z</time>
      </trkpt>
      <trkpt lat="47.20572" lon="-1.52189">
        <ele>8.68</ele>
        <time>2020-01-19T14:43:11Z</time>
      </trkpt>
      <trkpt lat="47.20565" lon="-1.52204">
        <ele>8.88</ele>
        <time>2020-01-19T14:43:13Z</time>
      </trkpt>
      <trkpt lat="47.20556" lon="-1.52219">
        <ele>9.21</ele>
        <time>2020-01-19T14:43:15Z</time>
      </trkpt>
      <trkpt lat="47.20548" lon="-1.52233">
        <ele>9.36</ele>
        <time>2020-01-19T14:43:17Z</time>
      </trkpt>
      <trkpt lat="47.20539" lon="-1.5225">
        <ele>9.12</ele>
        <time>2020-01-19T14:43:19Z</time>
      </trkpt>
      <trkpt lat="47.20531" lon="-1.52264">
        <ele>8.79</ele>
        <time>2020-01-19T14:43:21Z</time>
      </trkpt>
      <trkpt lat="47.20525" lon="-1.52282">
        <ele>7.87</ele>
        <time>2020-01-19T14:43:23Z</time>
      </trkpt>
      <trkpt lat="47.20522" lon="-1.523">
        <ele>6.66</ele>
        <time>2020-01-19T14:43:25Z</time>
      </trkpt>
      <trkpt lat="47.20518" lon="-1.52321">
        <ele>5.58</ele>
        <time>2020-01-19T14:43:27Z</time>
      </trkpt>
      <trkpt lat="47.20514" lon="-1.52337">
        <ele>5.78</ele>
        <time>2020-01-19T14:43:29Z</time>
      </trkpt>
      <trkpt lat="47.20509" lon="-1.52355">
        <ele>7.01</ele>
        <time>2020-01-19T14:43:31Z</time>
      </trkpt>
      <trkpt lat="47.20503" lon="-1.52374">
        <ele>8.1</ele>
        <time>2020-01-19T14:43:33Z</time>
      </trkpt>
      <trkpt lat="47.20496" lon="-1.52395">
        <ele>6.89</ele>
        <time>2020-01-19T14:43:35Z</time>
      </trkpt>
      <trkpt lat="47.20489" lon="-1.52409">
        <ele>7.64</ele>
        <time>2020-01-19T14:43:37Z</time>
      </trkpt>
      <trkpt lat="47.20483" lon="-1.52423">
        <ele>8.24</ele>
        <time>2020-01-19T14:43:39Z</time>
      </trkpt>
      <trkpt lat="47.20476" lon="-1.5244">
        <ele>9.11</ele>
        <time>2020-01-19T14:43:41Z</time>
      </trkpt>
      <trkpt lat="47.20469" lon="-1.52457">
        <ele>10.32</ele>
        <time>2020-01-19T14:43:43Z</time>
      </trkpt>
      <trkpt lat="47.20462" lon="-1.52474">
        <ele>10.96</ele>
        <time>2020-01-19T14:43:45Z</time>
      </trkpt>
      <trkpt lat="47.20455" lon="-1.52492">
        <ele>10.78</ele>
        <time>2020-01-19T14:43:47Z</time>
      </trkpt>
      <trkpt lat="47.20448" lon="-1.52514">
        <ele>10.36</ele>
        <time>2020-01-19T14:43:49Z</time>
      </trkpt>
      <trkpt lat="47.20442" lon="-1.5253">
        <ele>10.07</ele>
        <time>2020-01-19T14:43:51Z</time>
      </trkpt>
      <trkpt lat="47.20435" lon="-1.52552">
        <ele>9.82</ele>
        <time>2020-01-19T14:43:53Z</time>
      </trkpt>
      <trkpt lat="47.20427" lon="-1.52571">
        <ele>10.79</ele>
        <time>2020-01-19T14:43:55Z</time>
      </trkpt>
      <trkpt lat="47.20421" lon="-1.52591">
        <ele>11.11</ele>
        <time>2020-01-19T14:43:57Z</time>
      </trkpt>
      <trkpt lat="47.20415" lon="-1.52611">
        <ele>10.37</ele>
        <time>2020-01-19T14:43:59Z</time>
      </trkpt>
      <trkpt lat="47.2041" lon="-1.5263">
        <ele>10.39</ele>
        <time>2020-01-19T14:44:01Z</time>
      </trkpt>
      <trkpt lat="47.20404" lon="-1.52647">
        <ele>10.91</ele>
        <time>2020-01-19T14:44:03Z</time>
      </trkpt>
      <trkpt lat="47.20398" lon="-1.52663">
        <ele>10.33</ele>
        <time>2020-01-19T14:44:05Z</time>
      </trkpt>
      <trkpt lat="47.20391" lon="-1.5268">
        <ele>9.14</ele>
        <time>2020-01-19T14:44:07Z</time>
      </trkpt>
      <trkpt lat="47.20384" lon="-1.52697">
        <ele>8.96</ele>
        <time>2020-01-19T14:44:09Z</time>
      </trkpt>
      <trkpt lat="47.20373" lon="-1.52712">
        <ele>9.07</ele>
        <time>2020-01-19T14:44:11Z</time>
      </trkpt>
      <trkpt lat="47.20362" lon="-1.52727">
        <ele>9.57</ele>
        <time>2020-01-19T14:44:13Z</time>
      </trkpt>
      <trkpt lat="47.20352" lon="-1.52748">
        <ele>9.97</ele>
        <time>2020-01-19T14:44:15Z</time>
      </trkpt>
      <trkpt lat="47.20344" lon="-1.52767">
        <ele>9.92</ele>
        <time>2020-01-19T14:44:17Z</time>
      </trkpt>
      <trkpt lat="47.20334" lon="-1.52788">
        <ele>10.18</ele>
        <time>2020-01-19T14:44:19Z</time>
      </trkpt>
      <trkpt lat="47.20328" lon="-1.52799">
        <ele>10.22</ele>
        <time>2020-01-19T14:44:20Z</time>
      </trkpt>
      <trkpt lat="47.2032" lon="-1.52817">
        <ele>10.17</ele>
        <time>2020-01-19T14:44:22Z</time>
      </trkpt>
      <trkpt lat="47.20311" lon="-1.52835">
        <ele>9.63</ele>
        <time>2020-01-19T14:44:24Z</time>
      </trkpt>
      <trkpt lat="47.20301" lon="-1.52855">
        <ele>8.89</ele>
        <time>2020-01-19T14:44:26Z</time>
      </trkpt>
      <trkpt lat="47.20292" lon="-1.52876">
        <ele>9.07</ele>
        <time>2020-01-19T14:44:28Z</time>
      </trkpt>
      <trkpt lat="47.20283" lon="-1.52897">
        <ele>9.44</ele>
        <time>2020-01-19T14:44:30Z</time>
      </trkpt>
      <trkpt lat="47.20275" lon="-1.52919">
        <ele>9.25</ele>
        <time>2020-01-19T14:44:32Z</time>
      </trkpt>
      <trkpt lat="47.20269" lon="-1.52937">
        <ele>8.09</ele>
        <time>2020-01-19T14:44:34Z</time>
      </trkpt>
      <trkpt lat="47.2026" lon="-1.52957">
        <ele>8.05</ele>
        <time>2020-01-19T14:44:36Z</time>
      </trkpt>
      <trkpt lat="47.20251" lon="-1.52973">
        <ele>7.86</ele>
        <time>2020-01-19T14:44:38Z</time>
      </trkpt>
      <trkpt lat="47.20242" lon="-1.52991">
        <ele>7.04</ele>
        <time>2020-01-19T14:44:40Z</time>
      </trkpt>
      <trkpt lat="47.20233" lon="-1.53005">
        <ele>7.28</ele>
        <time>2020-01-19T14:44:42Z</time>
      </trkpt>
      <trkpt lat="47.20223" lon="-1.53019">
        <ele>8</ele>
        <time>2020-01-19T14:44:44Z</time>
      </trkpt>
      <trkpt lat="47.20211" lon="-1.53034">
        <ele>8.56</ele>
        <time>2020-01-19T14:44:46Z</time>
      </trkpt>
      <trkpt lat="47.20199" lon="-1.53048">
        <ele>8.28</ele>
        <time>2020-01-19T14:44:48Z</time>
      </trkpt>
      <trkpt lat="47.20187" lon="-1.53062">
        <ele>7.46</ele>
        <time>2020-01-19T14:44:50Z</time>
      </trkpt>
      <trkpt lat="47.20176" lon="-1.53077">
        <ele>7.12</ele>
        <time>2020-01-19T14:44:52Z</time>
      </trkpt>
      <trkpt lat="47.20166" lon="-1.53092">
        <ele>7.44</ele>
        <time>2020-01-19T14:44:54Z</time>
      </trkpt>
      <trkpt lat="47.20157" lon="-1.53107">
        <ele>7.83</ele>
        <time>2020-01-19T14:44:56Z</time>
      </trkpt>
      <trkpt lat="47.2015" lon="-1.53124">
        <ele>8.63</ele>
        <time>2020-01-19T14:44:58Z</time>
      </trkpt>
      <trkpt lat="47.20144" lon="-1.5314">
        <ele>9</ele>
        <time>2020-01-19T14:45:00Z</time>
      </trkpt>
      <trkpt lat="47.20137" lon="-1.53157">
        <ele>9.23</ele>
        <time>2020-01-19T14:45:02Z</time>
      </trkpt>
      <trkpt lat="47.2013" lon="-1.53173">
        <ele>9.54</ele>
        <time>2020-01-19T14:45:04Z</time>
      </trkpt>
      <trkpt lat="47.20126" lon="-1.5319">
        <ele>9.87</ele>
        <time>2020-01-19T14:45:06Z</time>
      </trkpt>
      <trkpt lat="47.20122" lon="-1.53213">
        <ele>9.47</ele>
        <time>2020-01-19T14:45:08Z</time>
      </trkpt>
      <trkpt lat="47.20119" lon="-1.53234">
        <ele>9.46</ele>
        <time>2020-01-19T14:45:10Z</time>
      </trkpt>
      <trkpt lat="47.20114" lon="-1.53253">
        <ele>10.21</ele>
        <time>2020-01-19T14:45:12Z</time>
      </trkpt>
      <trkpt lat="47.2011" lon="-1.53272">
        <ele>10.36</ele>
        <time>2020-01-19T14:45:14Z</time>
      </trkpt>
      <trkpt lat="47.20104" lon="-1.5329">
        <ele>11.06</ele>
        <time>2020-01-19T14:45:16Z</time>
      </trkpt>
      <trkpt lat="47.20098" lon="-1.53309">
        <ele>11.51</ele>
        <time>2020-01-19T14:45:18Z</time>
      </trkpt>
      <trkpt lat="47.20092" lon="-1.53324">
        <ele>11.2</ele>
        <time>2020-01-19T14:45:20Z</time>
      </trkpt>
      <trkpt lat="47.20085" lon="-1.53341">
        <ele>9.96</ele>
        <time>2020-01-19T14:45:22Z</time>
      </trkpt>
      <trkpt lat="47.20077" lon="-1.53359">
        <ele>8.49</ele>
        <time>2020-01-19T14:45:24Z</time>
      </trkpt>
      <trkpt lat="47.2007" lon="-1.53375">
        <ele>7.84</ele>
        <time>2020-01-19T14:45:26Z</time>
      </trkpt>
      <trkpt lat="47.20063" lon="-1.53392">
        <ele>8.15</ele>
        <time>2020-01-19T14:45:28Z</time>
      </trkpt>
      <trkpt lat="47.20056" lon="-1.5341">
        <ele>8.89</ele>
        <time>2020-01-19T14:45:30Z</time>
      </trkpt>
      <trkpt lat="47.20047" lon="-1.53429">
        <ele>6.52</ele>
        <time>2020-01-19T14:45:33Z</time>
      </trkpt>
      <trkpt lat="47.20041" lon="-1.53448">
        <ele>5.98</ele>
        <time>2020-01-19T14:45:35Z</time>
      </trkpt>
      <trkpt lat="47.20034" lon="-1.53462">
        <ele>7.37</ele>
        <time>2020-01-19T14:45:37Z</time>
      </trkpt>
      <trkpt lat="47.20028" lon="-1.5348">
        <ele>8.13</ele>
        <time>2020-01-19T14:45:39Z</time>
      </trkpt>
      <trkpt lat="47.2002" lon="-1.53494">
        <ele>8.85</ele>
        <time>2020-01-19T14:45:41Z</time>
      </trkpt>
      <trkpt lat="47.20011" lon="-1.53507">
        <ele>8.82</ele>
        <time>2020-01-19T14:45:43Z</time>
      </trkpt>
      <trkpt lat="47.20001" lon="-1.53518">
        <ele>9.05</ele>
        <time>2020-01-19T14:45:45Z</time>
      </trkpt>
      <trkpt lat="47.19992" lon="-1.5353">
        <ele>11.01</ele>
        <time>2020-01-19T14:45:47Z</time>
      </trkpt>
      <trkpt lat="47.19986" lon="-1.53546">
        <ele>13.33</ele>
        <time>2020-01-19T14:45:49Z</time>
      </trkpt>
      <trkpt lat="47.19981" lon="-1.53568">
        <ele>13.68</ele>
        <time>2020-01-19T14:45:51Z</time>
      </trkpt>
      <trkpt lat="47.19976" lon="-1.53586">
        <ele>12.63</ele>
        <time>2020-01-19T14:45:53Z</time>
      </trkpt>
      <trkpt lat="47.19972" lon="-1.53606">
        <ele>12.86</ele>
        <time>2020-01-19T14:45:55Z</time>
      </trkpt>
      <trkpt lat="47.19967" lon="-1.53624">
        <ele>12.08</ele>
        <time>2020-01-19T14:45:57Z</time>
      </trkpt>
      <trkpt lat="47.19963" lon="-1.53643">
        <ele>10.94</ele>
        <time>2020-01-19T14:45:59Z</time>
      </trkpt>
      <trkpt lat="47.1996" lon="-1.5366">
        <ele>10.27</ele>
        <time>2020-01-19T14:46:01Z</time>
      </trkpt>
      <trkpt lat="47.19956" lon="-1.53681">
        <ele>8.6</ele>
        <time>2020-01-19T14:46:03Z</time>
      </trkpt>
      <trkpt lat="47.19951" lon="-1.53705">
        <ele>8.49</ele>
        <time>2020-01-19T14:46:05Z</time>
      </trkpt>
      <trkpt lat="47.19947" lon="-1.53725">
        <ele>6.96</ele>
        <time>2020-01-19T14:46:07Z</time>
      </trkpt>
      <trkpt lat="47.19943" lon="-1.53745">
        <ele>5.35</ele>
        <time>2020-01-19T14:46:09Z</time>
      </trkpt>
      <trkpt lat="47.19939" lon="-1.53763">
        <ele>5.38</ele>
        <time>2020-01-19T14:46:11Z</time>
      </trkpt>
      <trkpt lat="47.19934" lon="-1.53784">
        <ele>5.87</ele>
        <time>2020-01-19T14:46:13Z</time>
      </trkpt>
      <trkpt lat="47.1993" lon="-1.53802">
        <ele>6.23</ele>
        <time>2020-01-19T14:46:15Z</time>
      </trkpt>
      <trkpt lat="47.19925" lon="-1.53821">
        <ele>8.16</ele>
        <time>2020-01-19T14:46:17Z</time>
      </trkpt>
      <trkpt lat="47.19922" lon="-1.53842">
        <ele>9.3</ele>
        <time>2020-01-19T14:46:19Z</time>
      </trkpt>
      <trkpt lat="47.19918" lon="-1.5386">
        <ele>9.62</ele>
        <time>2020-01-19T14:46:21Z</time>
      </trkpt>
      <trkpt lat="47.19913" lon="-1.53878">
        <ele>9.28</ele>
        <time>2020-01-19T14:46:23Z</time>
      </trkpt>
      <trkpt lat="47.19909" lon="-1.53895">
        <ele>8.24</ele>
        <time>2020-01-19T14:46:25Z</time>
      </trkpt>
      <trkpt lat="47.19905" lon="-1.53911">
        <ele>7.24</ele>
        <time>2020-01-19T14:46:27Z</time>
      </trkpt>
      <trkpt lat="47.19901" lon="-1.53928">
        <ele>7.94</ele>
        <time>2020-01-19T14:46:29Z</time>
      </trkpt>
      <trkpt lat="47.19897" lon="-1.53945">
        <ele>9.48</ele>
        <time>2020-01-19T14:46:31Z</time>
      </trkpt>
      <trkpt lat="47.19892" lon="-1.53961">
        <ele>10.55</ele>
        <time>2020-01-19T14:46:33Z</time>
      </trkpt>
      <trkpt lat="47.19886" lon="-1.53982">
        <ele>10.57</ele>
        <time>2020-01-19T14:46:35Z</time>
      </trkpt>
      <trkpt lat="47.1988" lon="-1.54004">
        <ele>11.39</ele>
        <time>2020-01-19T14:46:37Z</time>
      </trkpt>
      <trkpt lat="47.19874" lon="-1.54025">
        <ele>11.84</ele>
        <time>2020-01-19T14:46:39Z</time>
      </trkpt>
      <trkpt lat="47.19868" lon="-1.54043">
        <ele>11.62</ele>
        <time>2020-01-19T14:46:41Z</time>
      </trkpt>
      <trkpt lat="47.19861" lon="-1.54064">
        <ele>9.8</ele>
        <time>2020-01-19T14:46:43Z</time>
      </trkpt>
      <trkpt lat="47.19854" lon="-1.54083">
        <ele>7.91</ele>
        <time>2020-01-19T14:46:45Z</time>
      </trkpt>
      <trkpt lat="47.19847" lon="-1.54102">
        <ele>7.16</ele>
        <time>2020-01-19T14:46:47Z</time>
      </trkpt>
      <trkpt lat="47.19842" lon="-1.54116">
        <ele>6.61</ele>
        <time>2020-01-19T14:46:49Z</time>
      </trkpt>
      <trkpt lat="47.19835" lon="-1.54131">
        <ele>6.05</ele>
        <time>2020-01-19T14:46:51Z</time>
      </trkpt>
      <trkpt lat="47.19829" lon="-1.54145">
        <ele>6.03</ele>
        <time>2020-01-19T14:46:53Z</time>
      </trkpt>
      <trkpt lat="47.19821" lon="-1.54159">
        <ele>5.65</ele>
        <time>2020-01-19T14:46:55Z</time>
      </trkpt>
      <trkpt lat="47.19812" lon="-1.54171">
        <ele>5.93</ele>
        <time>2020-01-19T14:46:57Z</time>
      </trkpt>
      <trkpt lat="47.19805" lon="-1.54184">
        <ele>6.58</ele>
        <time>2020-01-19T14:46:59Z</time>
      </trkpt>
      <trkpt lat="47.19799" lon="-1.54199">
        <ele>8.51</ele>
        <time>2020-01-19T14:47:02Z</time>
      </trkpt>
      <trkpt lat="47.19795" lon="-1.54211">
        <ele>8.32</ele>
        <time>2020-01-19T14:47:59Z</time>
      </trkpt>
      <trkpt lat="47.19791" lon="-1.54223">
        <ele>9.2</ele>
        <time>2020-01-19T14:48:01Z</time>
      </trkpt>
      <trkpt lat="47.19784" lon="-1.5424">
        <ele>10.73</ele>
        <time>2020-01-19T14:48:03Z</time>
      </trkpt>
      <trkpt lat="47.19779" lon="-1.54254">
        <ele>11.14</ele>
        <time>2020-01-19T14:48:05Z</time>
      </trkpt>
      <trkpt lat="47.19771" lon="-1.54268">
        <ele>11.53</ele>
        <time>2020-01-19T14:48:07Z</time>
      </trkpt>
      <trkpt lat="47.1976" lon="-1.54284">
        <ele>12.33</ele>
        <time>2020-01-19T14:48:09Z</time>
      </trkpt>
      <trkpt lat="47.19747" lon="-1.54299">
        <ele>11.64</ele>
        <time>2020-01-19T14:48:11Z</time>
      </trkpt>
      <trkpt lat="47.19732" lon="-1.54313">
        <ele>10.08</ele>
        <time>2020-01-19T14:48:13Z</time>
      </trkpt>
      <trkpt lat="47.19716" lon="-1.54325">
        <ele>8.48</ele>
        <time>2020-01-19T14:48:15Z</time>
      </trkpt>
      <trkpt lat="47.19702" lon="-1.54335">
        <ele>7.8</ele>
        <time>2020-01-19T14:48:17Z</time>
      </trkpt>
      <trkpt lat="47.19687" lon="-1.54345">
        <ele>7.63</ele>
        <time>2020-01-19T14:48:19Z</time>
      </trkpt>
      <trkpt lat="47.19673" lon="-1.54353">
        <ele>8.3</ele>
        <time>2020-01-19T14:48:21Z</time>
      </trkpt>
      <trkpt lat="47.19659" lon="-1.54363">
        <ele>8.6</ele>
        <time>2020-01-19T14:48:23Z</time>
      </trkpt>
      <trkpt lat="47.19646" lon="-1.54373">
        <ele>9.81</ele>
        <time>2020-01-19T14:48:25Z</time>
      </trkpt>
      <trkpt lat="47.19632" lon="-1.54384">
        <ele>11.05</ele>
        <time>2020-01-19T14:48:27Z</time>
      </trkpt>
      <trkpt lat="47.19622" lon="-1.54395">
        <ele>12.28</ele>
        <time>2020-01-19T14:48:29Z</time>
      </trkpt>
      <trkpt lat="47.19611" lon="-1.54406">
        <ele>12.6</ele>
        <time>2020-01-19T14:48:31Z</time>
      </trkpt>
      <trkpt lat="47.19599" lon="-1.54418">
        <ele>12.66</ele>
        <time>2020-01-19T14:48:33Z</time>
      </trkpt>
      <trkpt lat="47.19587" lon="-1.5443">
        <ele>13.63</ele>
        <time>2020-01-19T14:48:35Z</time>
      </trkpt>
      <trkpt lat="47.19577" lon="-1.5444">
        <ele>13.49</ele>
        <time>2020-01-19T14:48:37Z</time>
      </trkpt>
      <trkpt lat="47.19565" lon="-1.54452">
        <ele>13.16</ele>
        <time>2020-01-19T14:48:39Z</time>
      </trkpt>
      <trkpt lat="47.19554" lon="-1.54463">
        <ele>13.52</ele>
        <time>2020-01-19T14:48:41Z</time>
      </trkpt>
      <trkpt lat="47.19545" lon="-1.54473">
        <ele>14.58</ele>
        <time>2020-01-19T14:48:43Z</time>
      </trkpt>
      <trkpt lat="47.19534" lon="-1.54483">
        <ele>15.14</ele>
        <time>2020-01-19T14:48:45Z</time>
      </trkpt>
      <trkpt lat="47.19524" lon="-1.54494">
        <ele>15.64</ele>
        <time>2020-01-19T14:48:47Z</time>
      </trkpt>
      <trkpt lat="47.19512" lon="-1.54504">
        <ele>15.26</ele>
        <time>2020-01-19T14:48:49Z</time>
      </trkpt>
      <trkpt lat="47.19502" lon="-1.54512">
        <ele>14.69</ele>
        <time>2020-01-19T14:48:51Z</time>
      </trkpt>
      <trkpt lat="47.19491" lon="-1.54522">
        <ele>13.93</ele>
        <time>2020-01-19T14:48:53Z</time>
      </trkpt>
      <trkpt lat="47.19481" lon="-1.54532">
        <ele>13.17</ele>
        <time>2020-01-19T14:48:55Z</time>
      </trkpt>
      <trkpt lat="47.19474" lon="-1.54546">
        <ele>12.16</ele>
        <time>2020-01-19T14:48:57Z</time>
      </trkpt>
      <trkpt lat="47.19468" lon="-1.54563">
        <ele>11.45</ele>
        <time>2020-01-19T14:48:59Z</time>
      </trkpt>
      <trkpt lat="47.19468" lon="-1.54579">
        <ele>10.84</ele>
        <time>2020-01-19T14:49:01Z</time>
      </trkpt>
      <trkpt lat="47.19474" lon="-1.5459">
        <ele>10.69</ele>
        <time>2020-01-19T14:49:04Z</time>
      </trkpt>
      <trkpt lat="47.19473" lon="-1.54605">
        <ele>10.03</ele>
        <time>2020-01-19T14:49:07Z</time>
      </trkpt>
      <trkpt lat="47.19468" lon="-1.54621">
        <ele>9.94</ele>
        <time>2020-01-19T14:49:09Z</time>
      </trkpt>
      <trkpt lat="47.1946" lon="-1.54635">
        <ele>10.7</ele>
        <time>2020-01-19T14:49:11Z</time>
      </trkpt>
      <trkpt lat="47.19451" lon="-1.54643">
        <ele>11.57</ele>
        <time>2020-01-19T14:49:13Z</time>
      </trkpt>
      <trkpt lat="47.19448" lon="-1.54656">
        <ele>11.72</ele>
        <time>2020-01-19T14:49:15Z</time>
      </trkpt>
      <trkpt lat="47.19442" lon="-1.54673">
        <ele>10.9</ele>
        <time>2020-01-19T14:49:17Z</time>
      </trkpt>
      <trkpt lat="47.19438" lon="-1.5469">
        <ele>10.23</ele>
        <time>2020-01-19T14:49:19Z</time>
      </trkpt>
      <trkpt lat="47.19433" lon="-1.54711">
        <ele>9.33</ele>
        <time>2020-01-19T14:49:21Z</time>
      </trkpt>
      <trkpt lat="47.19428" lon="-1.54725">
        <ele>9.37</ele>
        <time>2020-01-19T14:49:23Z</time>
      </trkpt>
      <trkpt lat="47.19423" lon="-1.54739">
        <ele>10.29</ele>
        <time>2020-01-19T14:49:25Z</time>
      </trkpt>
      <trkpt lat="47.19418" lon="-1.54754">
        <ele>11.77</ele>
        <time>2020-01-19T14:49:27Z</time>
      </trkpt>
      <trkpt lat="47.19413" lon="-1.54766">
        <ele>13.2</ele>
        <time>2020-01-19T14:49:29Z</time>
      </trkpt>
      <trkpt lat="47.19408" lon="-1.54784">
        <ele>13.45</ele>
        <time>2020-01-19T14:49:31Z</time>
      </trkpt>
      <trkpt lat="47.19404" lon="-1.54798">
        <ele>14.77</ele>
        <time>2020-01-19T14:49:33Z</time>
      </trkpt>
      <trkpt lat="47.19401" lon="-1.54816">
        <ele>15.43</ele>
        <time>2020-01-19T14:49:35Z</time>
      </trkpt>
      <trkpt lat="47.19397" lon="-1.5483">
        <ele>15.73</ele>
        <time>2020-01-19T14:49:37Z</time>
      </trkpt>
      <trkpt lat="47.19393" lon="-1.54847">
        <ele>16.49</ele>
        <time>2020-01-19T14:49:39Z</time>
      </trkpt>
      <trkpt lat="47.1939" lon="-1.54863">
        <ele>17.75</ele>
        <time>2020-01-19T14:49:41Z</time>
      </trkpt>
      <trkpt lat="47.19386" lon="-1.54876">
        <ele>18.97</ele>
        <time>2020-01-19T14:49:43Z</time>
      </trkpt>
      <trkpt lat="47.19382" lon="-1.54893">
        <ele>20.23</ele>
        <time>2020-01-19T14:49:45Z</time>
      </trkpt>
      <trkpt lat="47.19379" lon="-1.5491">
        <ele>22.09</ele>
        <time>2020-01-19T14:49:47Z</time>
      </trkpt>
      <trkpt lat="47.19374" lon="-1.54927">
        <ele>23.31</ele>
        <time>2020-01-19T14:49:49Z</time>
      </trkpt>
      <trkpt lat="47.19371" lon="-1.5494">
        <ele>23.71</ele>
        <time>2020-01-19T14:49:51Z</time>
      </trkpt>
      <trkpt lat="47.19367" lon="-1.54953">
        <ele>23.51</ele>
        <time>2020-01-19T14:49:53Z</time>
      </trkpt>
      <trkpt lat="47.19362" lon="-1.54971">
        <ele>22.84</ele>
        <time>2020-01-19T14:49:55Z</time>
      </trkpt>
      <trkpt lat="47.19358" lon="-1.54986">
        <ele>21.72</ele>
        <time>2020-01-19T14:49:57Z</time>
      </trkpt>
      <trkpt lat="47.19354" lon="-1.55004">
        <ele>20.89</ele>
        <time>2020-01-19T14:49:59Z</time>
      </trkpt>
      <trkpt lat="47.19349" lon="-1.55021">
        <ele>20.5</ele>
        <time>2020-01-19T14:50:01Z</time>
      </trkpt>
      <trkpt lat="47.19345" lon="-1.55037">
        <ele>19.58</ele>
        <time>2020-01-19T14:50:03Z</time>
      </trkpt>
      <trkpt lat="47.19341" lon="-1.55056">
        <ele>18.83</ele>
        <time>2020-01-19T14:50:05Z</time>
      </trkpt>
      <trkpt lat="47.19337" lon="-1.55077">
        <ele>17.81</ele>
        <time>2020-01-19T14:50:07Z</time>
      </trkpt>
      <trkpt lat="47.19332" lon="-1.55097">
        <ele>17.12</ele>
        <time>2020-01-19T14:50:09Z</time>
      </trkpt>
      <trkpt lat="47.19327" lon="-1.55117">
        <ele>17.68</ele>
        <time>2020-01-19T14:50:11Z</time>
      </trkpt>
      <trkpt lat="47.19322" lon="-1.55136">
        <ele>18.39</ele>
        <time>2020-01-19T14:50:13Z</time>
      </trkpt>
      <trkpt lat="47.19319" lon="-1.55149">
        <ele>18.29</ele>
        <time>2020-01-19T14:50:14Z</time>
      </trkpt>
      <trkpt lat="47.19314" lon="-1.55171">
        <ele>17.31</ele>
        <time>2020-01-19T14:50:16Z</time>
      </trkpt>
      <trkpt lat="47.19309" lon="-1.55191">
        <ele>16.41</ele>
        <time>2020-01-19T14:50:18Z</time>
      </trkpt>
      <trkpt lat="47.19305" lon="-1.55209">
        <ele>16.57</ele>
        <time>2020-01-19T14:50:20Z</time>
      </trkpt>
      <trkpt lat="47.19302" lon="-1.55222">
        <ele>16.16</ele>
        <time>2020-01-19T14:50:21Z</time>
      </trkpt>
      <trkpt lat="47.19296" lon="-1.55246">
        <ele>15.4</ele>
        <time>2020-01-19T14:50:23Z</time>
      </trkpt>
      <trkpt lat="47.19291" lon="-1.55265">
        <ele>15.56</ele>
        <time>2020-01-19T14:50:25Z</time>
      </trkpt>
      <trkpt lat="47.19288" lon="-1.55277">
        <ele>15.65</ele>
        <time>2020-01-19T14:50:26Z</time>
      </trkpt>
      <trkpt lat="47.19283" lon="-1.55299">
        <ele>15.36</ele>
        <time>2020-01-19T14:50:28Z</time>
      </trkpt>
      <trkpt lat="47.19279" lon="-1.55321">
        <ele>15.59</ele>
        <time>2020-01-19T14:50:30Z</time>
      </trkpt>
      <trkpt lat="47.19273" lon="-1.55344">
        <ele>14.82</ele>
        <time>2020-01-19T14:50:32Z</time>
      </trkpt>
      <trkpt lat="47.19269" lon="-1.55364">
        <ele>13.31</ele>
        <time>2020-01-19T14:50:34Z</time>
      </trkpt>
      <trkpt lat="47.19263" lon="-1.55384">
        <ele>11.57</ele>
        <time>2020-01-19T14:50:36Z</time>
      </trkpt>
      <trkpt lat="47.19257" lon="-1.55402">
        <ele>10.82</ele>
        <time>2020-01-19T14:50:38Z</time>
      </trkpt>
      <trkpt lat="47.19255" lon="-1.55416">
        <ele>10.33</ele>
        <time>2020-01-19T14:50:40Z</time>
      </trkpt>
      <trkpt lat="47.19259" lon="-1.55432">
        <ele>9.85</ele>
        <time>2020-01-19T14:50:42Z</time>
      </trkpt>
      <trkpt lat="47.19256" lon="-1.55456">
        <ele>9.42</ele>
        <time>2020-01-19T14:50:44Z</time>
      </trkpt>
      <trkpt lat="47.1925" lon="-1.55474">
        <ele>9.87</ele>
        <time>2020-01-19T14:50:46Z</time>
      </trkpt>
      <trkpt lat="47.1925" lon="-1.55496">
        <ele>10.98</ele>
        <time>2020-01-19T14:50:48Z</time>
      </trkpt>
      <trkpt lat="47.1925" lon="-1.5552">
        <ele>11.41</ele>
        <time>2020-01-19T14:50:50Z</time>
      </trkpt>
      <trkpt lat="47.1925" lon="-1.55542">
        <ele>11.77</ele>
        <time>2020-01-19T14:50:52Z</time>
      </trkpt>
      <trkpt lat="47.19249" lon="-1.55565">
        <ele>11.64</ele>
        <time>2020-01-19T14:50:54Z</time>
      </trkpt>
      <trkpt lat="47.19248" lon="-1.55584">
        <ele>10.78</ele>
        <time>2020-01-19T14:50:56Z</time>
      </trkpt>
      <trkpt lat="47.19246" lon="-1.55607">
        <ele>10.11</ele>
        <time>2020-01-19T14:50:58Z</time>
      </trkpt>
      <trkpt lat="47.19244" lon="-1.55629">
        <ele>8.75</ele>
        <time>2020-01-19T14:51:00Z</time>
      </trkpt>
      <trkpt lat="47.19244" lon="-1.5565">
        <ele>9.08</ele>
        <time>2020-01-19T14:51:02Z</time>
      </trkpt>
      <trkpt lat="47.19243" lon="-1.5567">
        <ele>10.02</ele>
        <time>2020-01-19T14:51:04Z</time>
      </trkpt>
      <trkpt lat="47.19243" lon="-1.55691">
        <ele>9.94</ele>
        <time>2020-01-19T14:51:06Z</time>
      </trkpt>
      <trkpt lat="47.19241" lon="-1.55712">
        <ele>9.63</ele>
        <time>2020-01-19T14:51:08Z</time>
      </trkpt>
      <trkpt lat="47.19241" lon="-1.55734">
        <ele>9.48</ele>
        <time>2020-01-19T14:51:10Z</time>
      </trkpt>
      <trkpt lat="47.1924" lon="-1.55756">
        <ele>9.61</ele>
        <time>2020-01-19T14:51:12Z</time>
      </trkpt>
      <trkpt lat="47.19241" lon="-1.55778">
        <ele>9.13</ele>
        <time>2020-01-19T14:51:14Z</time>
      </trkpt>
      <trkpt lat="47.19241" lon="-1.558">
        <ele>8.66</ele>
        <time>2020-01-19T14:51:16Z</time>
      </trkpt>
      <trkpt lat="47.19241" lon="-1.5582">
        <ele>7.96</ele>
        <time>2020-01-19T14:51:18Z</time>
      </trkpt>
      <trkpt lat="47.19242" lon="-1.55839">
        <ele>7.39</ele>
        <time>2020-01-19T14:51:20Z</time>
      </trkpt>
      <trkpt lat="47.19243" lon="-1.55862">
        <ele>7.7</ele>
        <time>2020-01-19T14:51:22Z</time>
      </trkpt>
      <trkpt lat="47.19245" lon="-1.55881">
        <ele>7.34</ele>
        <time>2020-01-19T14:51:24Z</time>
      </trkpt>
      <trkpt lat="47.19245" lon="-1.55902">
        <ele>7.65</ele>
        <time>2020-01-19T14:51:26Z</time>
      </trkpt>
      <trkpt lat="47.19246" lon="-1.55924">
        <ele>8.04</ele>
        <time>2020-01-19T14:51:28Z</time>
      </trkpt>
      <trkpt lat="47.19247" lon="-1.55944">
        <ele>8.19</ele>
        <time>2020-01-19T14:51:30Z</time>
      </trkpt>
      <trkpt lat="47.1925" lon="-1.55965">
        <ele>8.16</ele>
        <time>2020-01-19T14:51:32Z</time>
      </trkpt>
      <trkpt lat="47.19252" lon="-1.55986">
        <ele>8.52</ele>
        <time>2020-01-19T14:51:34Z</time>
      </trkpt>
      <trkpt lat="47.19254" lon="-1.56005">
        <ele>9.11</ele>
        <time>2020-01-19T14:51:36Z</time>
      </trkpt>
      <trkpt lat="47.19256" lon="-1.56028">
        <ele>8.6</ele>
        <time>2020-01-19T14:51:38Z</time>
      </trkpt>
      <trkpt lat="47.19258" lon="-1.56046">
        <ele>7.77</ele>
        <time>2020-01-19T14:51:40Z</time>
      </trkpt>
      <trkpt lat="47.19261" lon="-1.56067">
        <ele>6.64</ele>
        <time>2020-01-19T14:51:42Z</time>
      </trkpt>
      <trkpt lat="47.19262" lon="-1.56088">
        <ele>5.52</ele>
        <time>2020-01-19T14:51:44Z</time>
      </trkpt>
      <trkpt lat="47.19264" lon="-1.56108">
        <ele>5.1</ele>
        <time>2020-01-19T14:51:46Z</time>
      </trkpt>
      <trkpt lat="47.19265" lon="-1.56128">
        <ele>4.94</ele>
        <time>2020-01-19T14:51:48Z</time>
      </trkpt>
      <trkpt lat="47.19267" lon="-1.56149">
        <ele>6.19</ele>
        <time>2020-01-19T14:51:50Z</time>
      </trkpt>
      <trkpt lat="47.19267" lon="-1.56167">
        <ele>8.12</ele>
        <time>2020-01-19T14:51:52Z</time>
      </trkpt>
      <trkpt lat="47.19267" lon="-1.56185">
        <ele>10.06</ele>
        <time>2020-01-19T14:51:54Z</time>
      </trkpt>
      <trkpt lat="47.19269" lon="-1.56201">
        <ele>10.97</ele>
        <time>2020-01-19T14:51:56Z</time>
      </trkpt>
      <trkpt lat="47.1927" lon="-1.56219">
        <ele>11.17</ele>
        <time>2020-01-19T14:51:58Z</time>
      </trkpt>
      <trkpt lat="47.19273" lon="-1.56238">
        <ele>11.42</ele>
        <time>2020-01-19T14:52:00Z</time>
      </trkpt>
      <trkpt lat="47.19279" lon="-1.56255">
        <ele>11.29</ele>
        <time>2020-01-19T14:52:02Z</time>
      </trkpt>
      <trkpt lat="47.19287" lon="-1.56268">
        <ele>10.96</ele>
        <time>2020-01-19T14:52:04Z</time>
      </trkpt>
      <trkpt lat="47.19292" lon="-1.56286">
        <ele>11.49</ele>
        <time>2020-01-19T14:52:06Z</time>
      </trkpt>
      <trkpt lat="47.19292" lon="-1.56305">
        <ele>11.75</ele>
        <time>2020-01-19T14:52:08Z</time>
      </trkpt>
      <trkpt lat="47.19286" lon="-1.56325">
        <ele>12.52</ele>
        <time>2020-01-19T14:52:10Z</time>
      </trkpt>
      <trkpt lat="47.19282" lon="-1.56344">
        <ele>12.47</ele>
        <time>2020-01-19T14:52:12Z</time>
      </trkpt>
      <trkpt lat="47.19284" lon="-1.56362">
        <ele>12.02</ele>
        <time>2020-01-19T14:52:14Z</time>
      </trkpt>
      <trkpt lat="47.19287" lon="-1.56383">
        <ele>12.18</ele>
        <time>2020-01-19T14:52:16Z</time>
      </trkpt>
      <trkpt lat="47.1929" lon="-1.56405">
        <ele>12.39</ele>
        <time>2020-01-19T14:52:18Z</time>
      </trkpt>
      <trkpt lat="47.19293" lon="-1.56426">
        <ele>12.09</ele>
        <time>2020-01-19T14:52:20Z</time>
      </trkpt>
      <trkpt lat="47.19295" lon="-1.56447">
        <ele>10.68</ele>
        <time>2020-01-19T14:52:22Z</time>
      </trkpt>
      <trkpt lat="47.19296" lon="-1.56468">
        <ele>9.46</ele>
        <time>2020-01-19T14:52:24Z</time>
      </trkpt>
      <trkpt lat="47.19298" lon="-1.56485">
        <ele>9.36</ele>
        <time>2020-01-19T14:52:26Z</time>
      </trkpt>
      <trkpt lat="47.193" lon="-1.56505">
        <ele>9.94</ele>
        <time>2020-01-19T14:52:28Z</time>
      </trkpt>
      <trkpt lat="47.19301" lon="-1.56526">
        <ele>9.93</ele>
        <time>2020-01-19T14:52:30Z</time>
      </trkpt>
      <trkpt lat="47.19303" lon="-1.56544">
        <ele>10</ele>
        <time>2020-01-19T14:52:32Z</time>
      </trkpt>
      <trkpt lat="47.19305" lon="-1.56564">
        <ele>9.66</ele>
        <time>2020-01-19T14:52:34Z</time>
      </trkpt>
      <trkpt lat="47.19306" lon="-1.56583">
        <ele>10.21</ele>
        <time>2020-01-19T14:52:36Z</time>
      </trkpt>
      <trkpt lat="47.19308" lon="-1.56602">
        <ele>10.78</ele>
        <time>2020-01-19T14:52:38Z</time>
      </trkpt>
      <trkpt lat="47.1931" lon="-1.56621">
        <ele>11.04</ele>
        <time>2020-01-19T14:52:40Z</time>
      </trkpt>
      <trkpt lat="47.19311" lon="-1.56641">
        <ele>10.44</ele>
        <time>2020-01-19T14:52:42Z</time>
      </trkpt>
      <trkpt lat="47.19312" lon="-1.56661">
        <ele>8.39</ele>
        <time>2020-01-19T14:52:44Z</time>
      </trkpt>
      <trkpt lat="47.19315" lon="-1.56678">
        <ele>6.93</ele>
        <time>2020-01-19T14:52:46Z</time>
      </trkpt>
      <trkpt lat="47.19316" lon="-1.567">
        <ele>6.22</ele>
        <time>2020-01-19T14:52:48Z</time>
      </trkpt>
      <trkpt lat="47.19317" lon="-1.56718">
        <ele>5.6</ele>
        <time>2020-01-19T14:52:50Z</time>
      </trkpt>
      <trkpt lat="47.1932" lon="-1.56737">
        <ele>5.86</ele>
        <time>2020-01-19T14:52:52Z</time>
      </trkpt>
      <trkpt lat="47.1932" lon="-1.56755">
        <ele>5.86</ele>
        <time>2020-01-19T14:52:54Z</time>
      </trkpt>
      <trkpt lat="47.19322" lon="-1.56772">
        <ele>4.99</ele>
        <time>2020-01-19T14:52:56Z</time>
      </trkpt>
      <trkpt lat="47.19324" lon="-1.5679">
        <ele>4.65</ele>
        <time>2020-01-19T14:52:58Z</time>
      </trkpt>
      <trkpt lat="47.19326" lon="-1.56806">
        <ele>4.95</ele>
        <time>2020-01-19T14:53:00Z</time>
      </trkpt>
      <trkpt lat="47.19327" lon="-1.56825">
        <ele>5.59</ele>
        <time>2020-01-19T14:53:02Z</time>
      </trkpt>
      <trkpt lat="47.19329" lon="-1.56844">
        <ele>6.25</ele>
        <time>2020-01-19T14:53:04Z</time>
      </trkpt>
      <trkpt lat="47.1933" lon="-1.56864">
        <ele>6.24</ele>
        <time>2020-01-19T14:53:06Z</time>
      </trkpt>
      <trkpt lat="47.19331" lon="-1.56882">
        <ele>6.16</ele>
        <time>2020-01-19T14:53:08Z</time>
      </trkpt>
      <trkpt lat="47.19332" lon="-1.569">
        <ele>6.65</ele>
        <time>2020-01-19T14:53:10Z</time>
      </trkpt>
      <trkpt lat="47.19332" lon="-1.56918">
        <ele>7.08</ele>
        <time>2020-01-19T14:53:12Z</time>
      </trkpt>
      <trkpt lat="47.19332" lon="-1.56937">
        <ele>7.44</ele>
        <time>2020-01-19T14:53:14Z</time>
      </trkpt>
      <trkpt lat="47.19332" lon="-1.56956">
        <ele>7.34</ele>
        <time>2020-01-19T14:53:16Z</time>
      </trkpt>
      <trkpt lat="47.19331" lon="-1.56974">
        <ele>8.12</ele>
        <time>2020-01-19T14:53:18Z</time>
      </trkpt>
      <trkpt lat="47.1933" lon="-1.56992">
        <ele>8.49</ele>
        <time>2020-01-19T14:53:20Z</time>
      </trkpt>
      <trkpt lat="47.19328" lon="-1.57008">
        <ele>7.49</ele>
        <time>2020-01-19T14:53:22Z</time>
      </trkpt>
      <trkpt lat="47.19325" lon="-1.57026">
        <ele>7.08</ele>
        <time>2020-01-19T14:53:24Z</time>
      </trkpt>
      <trkpt lat="47.19328" lon="-1.57042">
        <ele>6.85</ele>
        <time>2020-01-19T14:53:26Z</time>
      </trkpt>
      <trkpt lat="47.19336" lon="-1.5705">
        <ele>7.41</ele>
        <time>2020-01-19T14:53:28Z</time>
      </trkpt>
      <trkpt lat="47.19343" lon="-1.57066">
        <ele>8.72</ele>
        <time>2020-01-19T14:53:30Z</time>
      </trkpt>
      <trkpt lat="47.19336" lon="-1.57084">
        <ele>9.42</ele>
        <time>2020-01-19T14:53:32Z</time>
      </trkpt>
      <trkpt lat="47.19323" lon="-1.57092">
        <ele>10.35</ele>
        <time>2020-01-19T14:53:34Z</time>
      </trkpt>
      <trkpt lat="47.19314" lon="-1.57104">
        <ele>11.5</ele>
        <time>2020-01-19T14:53:36Z</time>
      </trkpt>
      <trkpt lat="47.19312" lon="-1.5712">
        <ele>12.39</ele>
        <time>2020-01-19T14:53:38Z</time>
      </trkpt>
      <trkpt lat="47.1931" lon="-1.5714">
        <ele>12.28</ele>
        <time>2020-01-19T14:53:40Z</time>
      </trkpt>
      <trkpt lat="47.19307" lon="-1.5716">
        <ele>12.16</ele>
        <time>2020-01-19T14:53:42Z</time>
      </trkpt>
      <trkpt lat="47.19305" lon="-1.57177">
        <ele>12.02</ele>
        <time>2020-01-19T14:53:44Z</time>
      </trkpt>
      <trkpt lat="47.19302" lon="-1.57196">
        <ele>12.1</ele>
        <time>2020-01-19T14:53:46Z</time>
      </trkpt>
      <trkpt lat="47.19299" lon="-1.57216">
        <ele>11.85</ele>
        <time>2020-01-19T14:53:48Z</time>
      </trkpt>
      <trkpt lat="47.19296" lon="-1.57233">
        <ele>12.3</ele>
        <time>2020-01-19T14:53:50Z</time>
      </trkpt>
      <trkpt lat="47.19291" lon="-1.57253">
        <ele>12.5</ele>
        <time>2020-01-19T14:53:52Z</time>
      </trkpt>
      <trkpt lat="47.19286" lon="-1.57271">
        <ele>12.81</ele>
        <time>2020-01-19T14:53:54Z</time>
      </trkpt>
      <trkpt lat="47.19281" lon="-1.5729">
        <ele>13.02</ele>
        <time>2020-01-19T14:53:56Z</time>
      </trkpt>
      <trkpt lat="47.19277" lon="-1.57305">
        <ele>13.19</ele>
        <time>2020-01-19T14:53:58Z</time>
      </trkpt>
      <trkpt lat="47.19271" lon="-1.57326">
        <ele>14.45</ele>
        <time>2020-01-19T14:54:00Z</time>
      </trkpt>
      <trkpt lat="47.19266" lon="-1.57345">
        <ele>16.64</ele>
        <time>2020-01-19T14:54:02Z</time>
      </trkpt>
      <trkpt lat="47.1926" lon="-1.57364">
        <ele>18.61</ele>
        <time>2020-01-19T14:54:04Z</time>
      </trkpt>
      <trkpt lat="47.19253" lon="-1.57385">
        <ele>19.27</ele>
        <time>2020-01-19T14:54:06Z</time>
      </trkpt>
      <trkpt lat="47.19246" lon="-1.57405">
        <ele>17.53</ele>
        <time>2020-01-19T14:54:08Z</time>
      </trkpt>
      <trkpt lat="47.1924" lon="-1.57424">
        <ele>15.44</ele>
        <time>2020-01-19T14:54:10Z</time>
      </trkpt>
      <trkpt lat="47.19233" lon="-1.57442">
        <ele>14.99</ele>
        <time>2020-01-19T14:54:12Z</time>
      </trkpt>
      <trkpt lat="47.19225" lon="-1.5746">
        <ele>14.67</ele>
        <time>2020-01-19T14:54:14Z</time>
      </trkpt>
      <trkpt lat="47.19218" lon="-1.57479">
        <ele>14.36</ele>
        <time>2020-01-19T14:54:16Z</time>
      </trkpt>
      <trkpt lat="47.1921" lon="-1.575">
        <ele>13.98</ele>
        <time>2020-01-19T14:54:18Z</time>
      </trkpt>
      <trkpt lat="47.19202" lon="-1.57519">
        <ele>14.66</ele>
        <time>2020-01-19T14:54:20Z</time>
      </trkpt>
      <trkpt lat="47.19195" lon="-1.57538">
        <ele>15.42</ele>
        <time>2020-01-19T14:54:22Z</time>
      </trkpt>
      <trkpt lat="47.19188" lon="-1.57558">
        <ele>15.27</ele>
        <time>2020-01-19T14:54:24Z</time>
      </trkpt>
      <trkpt lat="47.19181" lon="-1.57578">
        <ele>15.35</ele>
        <time>2020-01-19T14:54:26Z</time>
      </trkpt>
      <trkpt lat="47.19173" lon="-1.57598">
        <ele>14.42</ele>
        <time>2020-01-19T14:54:28Z</time>
      </trkpt>
      <trkpt lat="47.19167" lon="-1.57618">
        <ele>13.87</ele>
        <time>2020-01-19T14:54:30Z</time>
      </trkpt>
      <trkpt lat="47.1916" lon="-1.57637">
        <ele>12.73</ele>
        <time>2020-01-19T14:54:32Z</time>
      </trkpt>
      <trkpt lat="47.19153" lon="-1.57656">
        <ele>11.13</ele>
        <time>2020-01-19T14:54:34Z</time>
      </trkpt>
      <trkpt lat="47.19145" lon="-1.57677">
        <ele>9.48</ele>
        <time>2020-01-19T14:54:36Z</time>
      </trkpt>
      <trkpt lat="47.19138" lon="-1.57695">
        <ele>9.14</ele>
        <time>2020-01-19T14:54:38Z</time>
      </trkpt>
      <trkpt lat="47.19133" lon="-1.57711">
        <ele>9.44</ele>
        <time>2020-01-19T14:54:40Z</time>
      </trkpt>
      <trkpt lat="47.19127" lon="-1.57729">
        <ele>9.9</ele>
        <time>2020-01-19T14:54:42Z</time>
      </trkpt>
      <trkpt lat="47.1912" lon="-1.57749">
        <ele>9.63</ele>
        <time>2020-01-19T14:54:44Z</time>
      </trkpt>
      <trkpt lat="47.19114" lon="-1.57766">
        <ele>9.59</ele>
        <time>2020-01-19T14:54:46Z</time>
      </trkpt>
      <trkpt lat="47.19108" lon="-1.57785">
        <ele>8.56</ele>
        <time>2020-01-19T14:54:48Z</time>
      </trkpt>
      <trkpt lat="47.19102" lon="-1.57803">
        <ele>8.1</ele>
        <time>2020-01-19T14:54:50Z</time>
      </trkpt>
      <trkpt lat="47.19095" lon="-1.57822">
        <ele>7.8</ele>
        <time>2020-01-19T14:54:52Z</time>
      </trkpt>
      <trkpt lat="47.19089" lon="-1.57841">
        <ele>6.65</ele>
        <time>2020-01-19T14:54:54Z</time>
      </trkpt>
      <trkpt lat="47.19083" lon="-1.57857">
        <ele>6.49</ele>
        <time>2020-01-19T14:54:56Z</time>
      </trkpt>
      <trkpt lat="47.19076" lon="-1.57873">
        <ele>6.92</ele>
        <time>2020-01-19T14:54:58Z</time>
      </trkpt>
      <trkpt lat="47.19069" lon="-1.57891">
        <ele>6.84</ele>
        <time>2020-01-19T14:55:00Z</time>
      </trkpt>
      <trkpt lat="47.19064" lon="-1.57909">
        <ele>6.44</ele>
        <time>2020-01-19T14:55:02Z</time>
      </trkpt>
      <trkpt lat="47.19058" lon="-1.57926">
        <ele>6.39</ele>
        <time>2020-01-19T14:55:04Z</time>
      </trkpt>
      <trkpt lat="47.19051" lon="-1.57942">
        <ele>6.91</ele>
        <time>2020-01-19T14:55:06Z</time>
      </trkpt>
      <trkpt lat="47.19045" lon="-1.57958">
        <ele>7.47</ele>
        <time>2020-01-19T14:55:08Z</time>
      </trkpt>
      <trkpt lat="47.19038" lon="-1.57977">
        <ele>7.42</ele>
        <time>2020-01-19T14:55:10Z</time>
      </trkpt>
      <trkpt lat="47.19032" lon="-1.57995">
        <ele>8.02</ele>
        <time>2020-01-19T14:55:12Z</time>
      </trkpt>
      <trkpt lat="47.19026" lon="-1.58013">
        <ele>8.87</ele>
        <time>2020-01-19T14:55:14Z</time>
      </trkpt>
      <trkpt lat="47.1902" lon="-1.58032">
        <ele>8.74</ele>
        <time>2020-01-19T14:55:16Z</time>
      </trkpt>
      <trkpt lat="47.19015" lon="-1.5805">
        <ele>7.21</ele>
        <time>2020-01-19T14:55:18Z</time>
      </trkpt>
      <trkpt lat="47.19009" lon="-1.58067">
        <ele>6.24</ele>
        <time>2020-01-19T14:55:20Z</time>
      </trkpt>
      <trkpt lat="47.19004" lon="-1.58083">
        <ele>5.93</ele>
        <time>2020-01-19T14:55:22Z</time>
      </trkpt>
      <trkpt lat="47.18998" lon="-1.581">
        <ele>6.12</ele>
        <time>2020-01-19T14:55:24Z</time>
      </trkpt>
      <trkpt lat="47.18991" lon="-1.58119">
        <ele>5.91</ele>
        <time>2020-01-19T14:55:26Z</time>
      </trkpt>
      <trkpt lat="47.18985" lon="-1.58136">
        <ele>6.06</ele>
        <time>2020-01-19T14:55:28Z</time>
      </trkpt>
      <trkpt lat="47.18979" lon="-1.58151">
        <ele>6.45</ele>
        <time>2020-01-19T14:55:30Z</time>
      </trkpt>
      <trkpt lat="47.18973" lon="-1.58166">
        <ele>7.52</ele>
        <time>2020-01-19T14:55:32Z</time>
      </trkpt>
      <trkpt lat="47.18967" lon="-1.58184">
        <ele>8.4</ele>
        <time>2020-01-19T14:55:34Z</time>
      </trkpt>
      <trkpt lat="47.1896" lon="-1.58201">
        <ele>8.24</ele>
        <time>2020-01-19T14:55:36Z</time>
      </trkpt>
      <trkpt lat="47.18954" lon="-1.58219">
        <ele>6.68</ele>
        <time>2020-01-19T14:55:38Z</time>
      </trkpt>
      <trkpt lat="47.18949" lon="-1.58236">
        <ele>6.01</ele>
        <time>2020-01-19T14:55:40Z</time>
      </trkpt>
      <trkpt lat="47.18943" lon="-1.58254">
        <ele>5</ele>
        <time>2020-01-19T14:55:42Z</time>
      </trkpt>
      <trkpt lat="47.18936" lon="-1.5827">
        <ele>4.72</ele>
        <time>2020-01-19T14:55:44Z</time>
      </trkpt>
      <trkpt lat="47.18931" lon="-1.58287">
        <ele>5.27</ele>
        <time>2020-01-19T14:55:46Z</time>
      </trkpt>
      <trkpt lat="47.18924" lon="-1.58302">
        <ele>5.82</ele>
        <time>2020-01-19T14:55:48Z</time>
      </trkpt>
      <trkpt lat="47.18918" lon="-1.58321">
        <ele>6.27</ele>
        <time>2020-01-19T14:55:50Z</time>
      </trkpt>
      <trkpt lat="47.18912" lon="-1.58339">
        <ele>5.57</ele>
        <time>2020-01-19T14:55:52Z</time>
      </trkpt>
      <trkpt lat="47.18906" lon="-1.58355">
        <ele>5.56</ele>
        <time>2020-01-19T14:55:54Z</time>
      </trkpt>
      <trkpt lat="47.189" lon="-1.58373">
        <ele>5.75</ele>
        <time>2020-01-19T14:55:56Z</time>
      </trkpt>
      <trkpt lat="47.18894" lon="-1.5839">
        <ele>5.67</ele>
        <time>2020-01-19T14:55:58Z</time>
      </trkpt>
      <trkpt lat="47.18888" lon="-1.58407">
        <ele>6.03</ele>
        <time>2020-01-19T14:56:00Z</time>
      </trkpt>
      <trkpt lat="47.18881" lon="-1.58423">
        <ele>6.22</ele>
        <time>2020-01-19T14:56:02Z</time>
      </trkpt>
      <trkpt lat="47.18874" lon="-1.58444">
        <ele>6.71</ele>
        <time>2020-01-19T14:56:04Z</time>
      </trkpt>
      <trkpt lat="47.18869" lon="-1.58459">
        <ele>7.04</ele>
        <time>2020-01-19T14:56:06Z</time>
      </trkpt>
      <trkpt lat="47.18864" lon="-1.58478">
        <ele>7.38</ele>
        <time>2020-01-19T14:56:08Z</time>
      </trkpt>
      <trkpt lat="47.18859" lon="-1.58496">
        <ele>6.84</ele>
        <time>2020-01-19T14:56:10Z</time>
      </trkpt>
      <trkpt lat="47.18856" lon="-1.58511">
        <ele>7.15</ele>
        <time>2020-01-19T14:56:12Z</time>
      </trkpt>
      <trkpt lat="47.1885" lon="-1.58531">
        <ele>7.51</ele>
        <time>2020-01-19T14:56:14Z</time>
      </trkpt>
      <trkpt lat="47.18845" lon="-1.58548">
        <ele>7.64</ele>
        <time>2020-01-19T14:56:16Z</time>
      </trkpt>
      <trkpt lat="47.18841" lon="-1.58565">
        <ele>7.57</ele>
        <time>2020-01-19T14:56:18Z</time>
      </trkpt>
      <trkpt lat="47.18836" lon="-1.58584">
        <ele>7.7</ele>
        <time>2020-01-19T14:56:20Z</time>
      </trkpt>
      <trkpt lat="47.18832" lon="-1.58602">
        <ele>6.88</ele>
        <time>2020-01-19T14:56:22Z</time>
      </trkpt>
      <trkpt lat="47.18827" lon="-1.58621">
        <ele>6.68</ele>
        <time>2020-01-19T14:56:24Z</time>
      </trkpt>
      <trkpt lat="47.18823" lon="-1.58638">
        <ele>7.27</ele>
        <time>2020-01-19T14:56:26Z</time>
      </trkpt>
      <trkpt lat="47.1882" lon="-1.58656">
        <ele>7.24</ele>
        <time>2020-01-19T14:56:28Z</time>
      </trkpt>
      <trkpt lat="47.18817" lon="-1.58672">
        <ele>7.64</ele>
        <time>2020-01-19T14:56:30Z</time>
      </trkpt>
      <trkpt lat="47.18815" lon="-1.58691">
        <ele>7.76</ele>
        <time>2020-01-19T14:56:32Z</time>
      </trkpt>
      <trkpt lat="47.18814" lon="-1.58709">
        <ele>8.23</ele>
        <time>2020-01-19T14:56:34Z</time>
      </trkpt>
      <trkpt lat="47.18819" lon="-1.58724">
        <ele>9.78</ele>
        <time>2020-01-19T14:56:36Z</time>
      </trkpt>
      <trkpt lat="47.18826" lon="-1.58741">
        <ele>10.48</ele>
        <time>2020-01-19T14:56:38Z</time>
      </trkpt>
      <trkpt lat="47.18831" lon="-1.58764">
        <ele>10.55</ele>
        <time>2020-01-19T14:56:40Z</time>
      </trkpt>
      <trkpt lat="47.18825" lon="-1.58781">
        <ele>9.71</ele>
        <time>2020-01-19T14:56:42Z</time>
      </trkpt>
      <trkpt lat="47.18815" lon="-1.58797">
        <ele>9.2</ele>
        <time>2020-01-19T14:56:44Z</time>
      </trkpt>
      <trkpt lat="47.18803" lon="-1.58809">
        <ele>8.86</ele>
        <time>2020-01-19T14:56:46Z</time>
      </trkpt>
      <trkpt lat="47.18793" lon="-1.58821">
        <ele>9.08</ele>
        <time>2020-01-19T14:56:48Z</time>
      </trkpt>
      <trkpt lat="47.18788" lon="-1.58839">
        <ele>8.75</ele>
        <time>2020-01-19T14:56:50Z</time>
      </trkpt>
      <trkpt lat="47.18784" lon="-1.5886">
        <ele>9.23</ele>
        <time>2020-01-19T14:56:52Z</time>
      </trkpt>
      <trkpt lat="47.18781" lon="-1.5888">
        <ele>9.29</ele>
        <time>2020-01-19T14:56:54Z</time>
      </trkpt>
      <trkpt lat="47.18778" lon="-1.58898">
        <ele>8.39</ele>
        <time>2020-01-19T14:56:56Z</time>
      </trkpt>
      <trkpt lat="47.18776" lon="-1.58917">
        <ele>8.09</ele>
        <time>2020-01-19T14:56:58Z</time>
      </trkpt>
      <trkpt lat="47.18775" lon="-1.5893">
        <ele>7.76</ele>
        <time>2020-01-19T14:56:59Z</time>
      </trkpt>
      <trkpt lat="47.18773" lon="-1.58949">
        <ele>7.61</ele>
        <time>2020-01-19T14:57:01Z</time>
      </trkpt>
      <trkpt lat="47.1877" lon="-1.58968">
        <ele>7.7</ele>
        <time>2020-01-19T14:57:03Z</time>
      </trkpt>
      <trkpt lat="47.18768" lon="-1.58987">
        <ele>7.34</ele>
        <time>2020-01-19T14:57:05Z</time>
      </trkpt>
      <trkpt lat="47.18765" lon="-1.59007">
        <ele>7.1</ele>
        <time>2020-01-19T14:57:07Z</time>
      </trkpt>
      <trkpt lat="47.18763" lon="-1.59027">
        <ele>8.02</ele>
        <time>2020-01-19T14:57:09Z</time>
      </trkpt>
      <trkpt lat="47.18761" lon="-1.59045">
        <ele>8.29</ele>
        <time>2020-01-19T14:57:11Z</time>
      </trkpt>
      <trkpt lat="47.18759" lon="-1.59065">
        <ele>8.06</ele>
        <time>2020-01-19T14:57:13Z</time>
      </trkpt>
      <trkpt lat="47.18756" lon="-1.59083">
        <ele>8</ele>
        <time>2020-01-19T14:57:15Z</time>
      </trkpt>
      <trkpt lat="47.18755" lon="-1.591">
        <ele>7.93</ele>
        <time>2020-01-19T14:57:17Z</time>
      </trkpt>
      <trkpt lat="47.18753" lon="-1.59119">
        <ele>7.24</ele>
        <time>2020-01-19T14:57:19Z</time>
      </trkpt>
      <trkpt lat="47.18751" lon="-1.59136">
        <ele>7.36</ele>
        <time>2020-01-19T14:57:21Z</time>
      </trkpt>
      <trkpt lat="47.1875" lon="-1.59154">
        <ele>7.69</ele>
        <time>2020-01-19T14:57:23Z</time>
      </trkpt>
      <trkpt lat="47.18749" lon="-1.59173">
        <ele>8.91</ele>
        <time>2020-01-19T14:57:25Z</time>
      </trkpt>
      <trkpt lat="47.18748" lon="-1.59193">
        <ele>10.98</ele>
        <time>2020-01-19T14:57:27Z</time>
      </trkpt>
      <trkpt lat="47.18747" lon="-1.59213">
        <ele>11.4</ele>
        <time>2020-01-19T14:57:29Z</time>
      </trkpt>
      <trkpt lat="47.18744" lon="-1.59232">
        <ele>11.04</ele>
        <time>2020-01-19T14:57:31Z</time>
      </trkpt>
      <trkpt lat="47.18742" lon="-1.59248">
        <ele>10.56</ele>
        <time>2020-01-19T14:57:33Z</time>
      </trkpt>
      <trkpt lat="47.1874" lon="-1.59269">
        <ele>10.09</ele>
        <time>2020-01-19T14:57:35Z</time>
      </trkpt>
      <trkpt lat="47.18737" lon="-1.59288">
        <ele>8.78</ele>
        <time>2020-01-19T14:57:37Z</time>
      </trkpt>
      <trkpt lat="47.18734" lon="-1.59307">
        <ele>7.49</ele>
        <time>2020-01-19T14:57:39Z</time>
      </trkpt>
      <trkpt lat="47.18732" lon="-1.59323">
        <ele>7.68</ele>
        <time>2020-01-19T14:57:41Z</time>
      </trkpt>
      <trkpt lat="47.1873" lon="-1.59342">
        <ele>7.71</ele>
        <time>2020-01-19T14:57:43Z</time>
      </trkpt>
      <trkpt lat="47.18728" lon="-1.59363">
        <ele>7.46</ele>
        <time>2020-01-19T14:57:45Z</time>
      </trkpt>
      <trkpt lat="47.18725" lon="-1.59381">
        <ele>7.57</ele>
        <time>2020-01-19T14:57:47Z</time>
      </trkpt>
      <trkpt lat="47.18723" lon="-1.594">
        <ele>7.47</ele>
        <time>2020-01-19T14:57:49Z</time>
      </trkpt>
      <trkpt lat="47.18721" lon="-1.59419">
        <ele>7.44</ele>
        <time>2020-01-19T14:57:51Z</time>
      </trkpt>
      <trkpt lat="47.18719" lon="-1.59439">
        <ele>8.2</ele>
        <time>2020-01-19T14:57:53Z</time>
      </trkpt>
      <trkpt lat="47.18718" lon="-1.59456">
        <ele>9.17</ele>
        <time>2020-01-19T14:57:55Z</time>
      </trkpt>
      <trkpt lat="47.18717" lon="-1.59475">
        <ele>9.7</ele>
        <time>2020-01-19T14:57:57Z</time>
      </trkpt>
      <trkpt lat="47.18715" lon="-1.59495">
        <ele>9.43</ele>
        <time>2020-01-19T14:57:59Z</time>
      </trkpt>
      <trkpt lat="47.18713" lon="-1.59511">
        <ele>9.61</ele>
        <time>2020-01-19T14:58:01Z</time>
      </trkpt>
      <trkpt lat="47.18711" lon="-1.5953">
        <ele>9.71</ele>
        <time>2020-01-19T14:58:03Z</time>
      </trkpt>
      <trkpt lat="47.18709" lon="-1.5955">
        <ele>9.76</ele>
        <time>2020-01-19T14:58:05Z</time>
      </trkpt>
      <trkpt lat="47.18706" lon="-1.59567">
        <ele>10.67</ele>
        <time>2020-01-19T14:58:07Z</time>
      </trkpt>
      <trkpt lat="47.18704" lon="-1.59588">
        <ele>10.86</ele>
        <time>2020-01-19T14:58:09Z</time>
      </trkpt>
      <trkpt lat="47.18702" lon="-1.59606">
        <ele>10.09</ele>
        <time>2020-01-19T14:58:11Z</time>
      </trkpt>
      <trkpt lat="47.18699" lon="-1.59623">
        <ele>9.57</ele>
        <time>2020-01-19T14:58:13Z</time>
      </trkpt>
      <trkpt lat="47.18696" lon="-1.59643">
        <ele>9.1</ele>
        <time>2020-01-19T14:58:15Z</time>
      </trkpt>
      <trkpt lat="47.18694" lon="-1.59663">
        <ele>9.4</ele>
        <time>2020-01-19T14:58:17Z</time>
      </trkpt>
      <trkpt lat="47.18692" lon="-1.59681">
        <ele>9.82</ele>
        <time>2020-01-19T14:58:19Z</time>
      </trkpt>
      <trkpt lat="47.1869" lon="-1.59698">
        <ele>10.27</ele>
        <time>2020-01-19T14:58:21Z</time>
      </trkpt>
      <trkpt lat="47.18688" lon="-1.59717">
        <ele>10.88</ele>
        <time>2020-01-19T14:58:23Z</time>
      </trkpt>
      <trkpt lat="47.18688" lon="-1.59736">
        <ele>11.48</ele>
        <time>2020-01-19T14:58:25Z</time>
      </trkpt>
      <trkpt lat="47.18687" lon="-1.59754">
        <ele>11.72</ele>
        <time>2020-01-19T14:58:26Z</time>
      </trkpt>
      <trkpt lat="47.18688" lon="-1.5977">
        <ele>10.56</ele>
        <time>2020-01-19T14:58:28Z</time>
      </trkpt>
      <trkpt lat="47.18688" lon="-1.59788">
        <ele>10.07</ele>
        <time>2020-01-19T14:58:30Z</time>
      </trkpt>
      <trkpt lat="47.18687" lon="-1.59807">
        <ele>9.2</ele>
        <time>2020-01-19T14:58:32Z</time>
      </trkpt>
      <trkpt lat="47.18686" lon="-1.5982">
        <ele>9.17</ele>
        <time>2020-01-19T14:58:33Z</time>
      </trkpt>
      <trkpt lat="47.18682" lon="-1.59835">
        <ele>8.64</ele>
        <time>2020-01-19T14:58:34Z</time>
      </trkpt>
      <trkpt lat="47.18668" lon="-1.59849">
        <ele>7.46</ele>
        <time>2020-01-19T14:58:36Z</time>
      </trkpt>
      <trkpt lat="47.18653" lon="-1.59851">
        <ele>7.06</ele>
        <time>2020-01-19T14:58:38Z</time>
      </trkpt>
      <trkpt lat="47.18638" lon="-1.59841">
        <ele>6.76</ele>
        <time>2020-01-19T14:58:40Z</time>
      </trkpt>
      <trkpt lat="47.18626" lon="-1.59835">
        <ele>6.36</ele>
        <time>2020-01-19T14:58:42Z</time>
      </trkpt>
      <trkpt lat="47.18616" lon="-1.59842">
        <ele>6.02</ele>
        <time>2020-01-19T14:58:44Z</time>
      </trkpt>
      <trkpt lat="47.18621" lon="-1.59854">
        <ele>5.98</ele>
        <time>2020-01-19T14:58:46Z</time>
      </trkpt>
      <trkpt lat="47.18623" lon="-1.59873">
        <ele>5.11</ele>
        <time>2020-01-19T14:58:48Z</time>
      </trkpt>
      <trkpt lat="47.18622" lon="-1.59892">
        <ele>4.59</ele>
        <time>2020-01-19T14:58:50Z</time>
      </trkpt>
      <trkpt lat="47.18618" lon="-1.59914">
        <ele>4.52</ele>
        <time>2020-01-19T14:58:52Z</time>
      </trkpt>
      <trkpt lat="47.18613" lon="-1.59933">
        <ele>4.95</ele>
        <time>2020-01-19T14:58:54Z</time>
      </trkpt>
      <trkpt lat="47.18607" lon="-1.59948">
        <ele>4.52</ele>
        <time>2020-01-19T14:58:56Z</time>
      </trkpt>
      <trkpt lat="47.18601" lon="-1.59964">
        <ele>4.57</ele>
        <time>2020-01-19T14:58:58Z</time>
      </trkpt>
      <trkpt lat="47.18596" lon="-1.59983">
        <ele>4.46</ele>
        <time>2020-01-19T14:59:00Z</time>
      </trkpt>
      <trkpt lat="47.18591" lon="-1.6">
        <ele>4.44</ele>
        <time>2020-01-19T14:59:02Z</time>
      </trkpt>
      <trkpt lat="47.18586" lon="-1.60015">
        <ele>4.93</ele>
        <time>2020-01-19T14:59:04Z</time>
      </trkpt>
      <trkpt lat="47.1858" lon="-1.60032">
        <ele>5.72</ele>
        <time>2020-01-19T14:59:06Z</time>
      </trkpt>
      <trkpt lat="47.18574" lon="-1.6005">
        <ele>6.14</ele>
        <time>2020-01-19T14:59:08Z</time>
      </trkpt>
      <trkpt lat="47.18567" lon="-1.60068">
        <ele>6.71</ele>
        <time>2020-01-19T14:59:10Z</time>
      </trkpt>
      <trkpt lat="47.18561" lon="-1.60082">
        <ele>7.16</ele>
        <time>2020-01-19T14:59:12Z</time>
      </trkpt>
      <trkpt lat="47.18554" lon="-1.60101">
        <ele>7.54</ele>
        <time>2020-01-19T14:59:14Z</time>
      </trkpt>
      <trkpt lat="47.18548" lon="-1.60116">
        <ele>7.84</ele>
        <time>2020-01-19T14:59:16Z</time>
      </trkpt>
      <trkpt lat="47.18541" lon="-1.60133">
        <ele>8.34</ele>
        <time>2020-01-19T14:59:18Z</time>
      </trkpt>
      <trkpt lat="47.18533" lon="-1.6015">
        <ele>9.02</ele>
        <time>2020-01-19T14:59:20Z</time>
      </trkpt>
      <trkpt lat="47.18527" lon="-1.60165">
        <ele>9.05</ele>
        <time>2020-01-19T14:59:22Z</time>
      </trkpt>
      <trkpt lat="47.18519" lon="-1.60181">
        <ele>9.37</ele>
        <time>2020-01-19T14:59:24Z</time>
      </trkpt>
      <trkpt lat="47.18511" lon="-1.60197">
        <ele>10.24</ele>
        <time>2020-01-19T14:59:26Z</time>
      </trkpt>
      <trkpt lat="47.18502" lon="-1.60213">
        <ele>10.68</ele>
        <time>2020-01-19T14:59:28Z</time>
      </trkpt>
      <trkpt lat="47.18494" lon="-1.60229">
        <ele>10.35</ele>
        <time>2020-01-19T14:59:30Z</time>
      </trkpt>
      <trkpt lat="47.18486" lon="-1.60244">
        <ele>10.6</ele>
        <time>2020-01-19T14:59:32Z</time>
      </trkpt>
      <trkpt lat="47.18479" lon="-1.60256">
        <ele>10.57</ele>
        <time>2020-01-19T14:59:34Z</time>
      </trkpt>
      <trkpt lat="47.18471" lon="-1.6027">
        <ele>11.26</ele>
        <time>2020-01-19T14:59:36Z</time>
      </trkpt>
      <trkpt lat="47.18462" lon="-1.60286">
        <ele>12.18</ele>
        <time>2020-01-19T14:59:38Z</time>
      </trkpt>
      <trkpt lat="47.18453" lon="-1.603">
        <ele>11.86</ele>
        <time>2020-01-19T14:59:40Z</time>
      </trkpt>
      <trkpt lat="47.18445" lon="-1.60313">
        <ele>11.4</ele>
        <time>2020-01-19T14:59:42Z</time>
      </trkpt>
      <trkpt lat="47.18436" lon="-1.60328">
        <ele>11.18</ele>
        <time>2020-01-19T14:59:44Z</time>
      </trkpt>
      <trkpt lat="47.18427" lon="-1.60343">
        <ele>10.51</ele>
        <time>2020-01-19T14:59:46Z</time>
      </trkpt>
      <trkpt lat="47.18417" lon="-1.60357">
        <ele>10.4</ele>
        <time>2020-01-19T14:59:48Z</time>
      </trkpt>
      <trkpt lat="47.18408" lon="-1.6037">
        <ele>10.67</ele>
        <time>2020-01-19T14:59:50Z</time>
      </trkpt>
      <trkpt lat="47.18397" lon="-1.60384">
        <ele>11.1</ele>
        <time>2020-01-19T14:59:52Z</time>
      </trkpt>
      <trkpt lat="47.18387" lon="-1.60398">
        <ele>11.44</ele>
        <time>2020-01-19T14:59:54Z</time>
      </trkpt>
      <trkpt lat="47.18376" lon="-1.60412">
        <ele>12.06</ele>
        <time>2020-01-19T14:59:56Z</time>
      </trkpt>
      <trkpt lat="47.18368" lon="-1.60423">
        <ele>12.46</ele>
        <time>2020-01-19T14:59:58Z</time>
      </trkpt>
      <trkpt lat="47.18357" lon="-1.60435">
        <ele>12.13</ele>
        <time>2020-01-19T15:00:00Z</time>
      </trkpt>
      <trkpt lat="47.18346" lon="-1.60448">
        <ele>12.06</ele>
        <time>2020-01-19T15:00:02Z</time>
      </trkpt>
      <trkpt lat="47.18336" lon="-1.60462">
        <ele>13.12</ele>
        <time>2020-01-19T15:00:04Z</time>
      </trkpt>
      <trkpt lat="47.18327" lon="-1.60472">
        <ele>13.49</ele>
        <time>2020-01-19T15:00:06Z</time>
      </trkpt>
      <trkpt lat="47.18316" lon="-1.60485">
        <ele>12.98</ele>
        <time>2020-01-19T15:00:08Z</time>
      </trkpt>
      <trkpt lat="47.18307" lon="-1.60495">
        <ele>11.9</ele>
        <time>2020-01-19T15:00:10Z</time>
      </trkpt>
      <trkpt lat="47.18296" lon="-1.60507">
        <ele>11.2</ele>
        <time>2020-01-19T15:00:12Z</time>
      </trkpt>
      <trkpt lat="47.18285" lon="-1.60517">
        <ele>11.14</ele>
        <time>2020-01-19T15:00:14Z</time>
      </trkpt>
      <trkpt lat="47.18275" lon="-1.60528">
        <ele>11.4</ele>
        <time>2020-01-19T15:00:16Z</time>
      </trkpt>
      <trkpt lat="47.18265" lon="-1.60539">
        <ele>12.15</ele>
        <time>2020-01-19T15:00:18Z</time>
      </trkpt>
      <trkpt lat="47.18253" lon="-1.60549">
        <ele>13.31</ele>
        <time>2020-01-19T15:00:20Z</time>
      </trkpt>
      <trkpt lat="47.18242" lon="-1.60558">
        <ele>13.11</ele>
        <time>2020-01-19T15:00:22Z</time>
      </trkpt>
      <trkpt lat="47.18229" lon="-1.60568">
        <ele>12.09</ele>
        <time>2020-01-19T15:00:24Z</time>
      </trkpt>
      <trkpt lat="47.18216" lon="-1.60575">
        <ele>11.41</ele>
        <time>2020-01-19T15:00:26Z</time>
      </trkpt>
      <trkpt lat="47.18205" lon="-1.60581">
        <ele>10.73</ele>
        <time>2020-01-19T15:00:28Z</time>
      </trkpt>
      <trkpt lat="47.18192" lon="-1.60586">
        <ele>9.88</ele>
        <time>2020-01-19T15:00:30Z</time>
      </trkpt>
      <trkpt lat="47.18187" lon="-1.60601">
        <ele>9.63</ele>
        <time>2020-01-19T15:00:35Z</time>
      </trkpt>
      <trkpt lat="47.18175" lon="-1.60607">
        <ele>8.33</ele>
        <time>2020-01-19T15:00:38Z</time>
      </trkpt>
      <trkpt lat="47.18165" lon="-1.60609">
        <ele>8.62</ele>
        <time>2020-01-19T15:00:40Z</time>
      </trkpt>
      <trkpt lat="47.18152" lon="-1.6061">
        <ele>9.76</ele>
        <time>2020-01-19T15:00:42Z</time>
      </trkpt>
      <trkpt lat="47.18139" lon="-1.60609">
        <ele>9.16</ele>
        <time>2020-01-19T15:00:44Z</time>
      </trkpt>
      <trkpt lat="47.18126" lon="-1.60606">
        <ele>8.64</ele>
        <time>2020-01-19T15:00:46Z</time>
      </trkpt>
      <trkpt lat="47.18114" lon="-1.60603">
        <ele>7.94</ele>
        <time>2020-01-19T15:00:48Z</time>
      </trkpt>
      <trkpt lat="47.18102" lon="-1.60598">
        <ele>8.45</ele>
        <time>2020-01-19T15:00:50Z</time>
      </trkpt>
      <trkpt lat="47.1809" lon="-1.60592">
        <ele>9.12</ele>
        <time>2020-01-19T15:00:52Z</time>
      </trkpt>
      <trkpt lat="47.18079" lon="-1.60585">
        <ele>9.12</ele>
        <time>2020-01-19T15:00:54Z</time>
      </trkpt>
      <trkpt lat="47.18067" lon="-1.60578">
        <ele>8.22</ele>
        <time>2020-01-19T15:00:56Z</time>
      </trkpt>
      <trkpt lat="47.18056" lon="-1.6057">
        <ele>7.67</ele>
        <time>2020-01-19T15:00:58Z</time>
      </trkpt>
      <trkpt lat="47.18044" lon="-1.60563">
        <ele>7.72</ele>
        <time>2020-01-19T15:01:00Z</time>
      </trkpt>
      <trkpt lat="47.18034" lon="-1.60558">
        <ele>7.83</ele>
        <time>2020-01-19T15:01:02Z</time>
      </trkpt>
      <trkpt lat="47.18021" lon="-1.60554">
        <ele>8.04</ele>
        <time>2020-01-19T15:01:04Z</time>
      </trkpt>
      <trkpt lat="47.1801" lon="-1.60555">
        <ele>8.88</ele>
        <time>2020-01-19T15:01:06Z</time>
      </trkpt>
      <trkpt lat="47.17997" lon="-1.60559">
        <ele>9.37</ele>
        <time>2020-01-19T15:01:08Z</time>
      </trkpt>
      <trkpt lat="47.17985" lon="-1.60562">
        <ele>10</ele>
        <time>2020-01-19T15:01:10Z</time>
      </trkpt>
      <trkpt lat="47.17975" lon="-1.60566">
        <ele>10.81</ele>
        <time>2020-01-19T15:01:12Z</time>
      </trkpt>
      <trkpt lat="47.17961" lon="-1.6057">
        <ele>11.39</ele>
        <time>2020-01-19T15:01:15Z</time>
      </trkpt>
      <trkpt lat="47.17948" lon="-1.60579">
        <ele>11.55</ele>
        <time>2020-01-19T15:01:17Z</time>
      </trkpt>
      <trkpt lat="47.17936" lon="-1.60585">
        <ele>12.19</ele>
        <time>2020-01-19T15:01:19Z</time>
      </trkpt>
      <trkpt lat="47.17924" lon="-1.60589">
        <ele>12.58</ele>
        <time>2020-01-19T15:01:21Z</time>
      </trkpt>
      <trkpt lat="47.17914" lon="-1.60593">
        <ele>11.45</ele>
        <time>2020-01-19T15:01:23Z</time>
      </trkpt>
      <trkpt lat="47.17905" lon="-1.606">
        <ele>10.69</ele>
        <time>2020-01-19T15:01:25Z</time>
      </trkpt>
      <trkpt lat="47.179" lon="-1.60618">
        <ele>9.67</ele>
        <time>2020-01-19T15:01:27Z</time>
      </trkpt>
      <trkpt lat="47.17895" lon="-1.60639">
        <ele>9.58</ele>
        <time>2020-01-19T15:01:29Z</time>
      </trkpt>
      <trkpt lat="47.1789" lon="-1.60659">
        <ele>10.1</ele>
        <time>2020-01-19T15:01:31Z</time>
      </trkpt>
      <trkpt lat="47.17883" lon="-1.6068">
        <ele>9.72</ele>
        <time>2020-01-19T15:01:33Z</time>
      </trkpt>
      <trkpt lat="47.17877" lon="-1.607">
        <ele>9.16</ele>
        <time>2020-01-19T15:01:35Z</time>
      </trkpt>
      <trkpt lat="47.17872" lon="-1.6072">
        <ele>9.11</ele>
        <time>2020-01-19T15:01:37Z</time>
      </trkpt>
      <trkpt lat="47.17869" lon="-1.60738">
        <ele>8.92</ele>
        <time>2020-01-19T15:01:39Z</time>
      </trkpt>
      <trkpt lat="47.17864" lon="-1.60759">
        <ele>8.51</ele>
        <time>2020-01-19T15:01:41Z</time>
      </trkpt>
      <trkpt lat="47.1786" lon="-1.60778">
        <ele>8.74</ele>
        <time>2020-01-19T15:01:43Z</time>
      </trkpt>
      <trkpt lat="47.17856" lon="-1.60797">
        <ele>9.55</ele>
        <time>2020-01-19T15:01:45Z</time>
      </trkpt>
      <trkpt lat="47.17851" lon="-1.60815">
        <ele>9.34</ele>
        <time>2020-01-19T15:01:47Z</time>
      </trkpt>
      <trkpt lat="47.17846" lon="-1.60835">
        <ele>9.39</ele>
        <time>2020-01-19T15:01:49Z</time>
      </trkpt>
      <trkpt lat="47.17841" lon="-1.60851">
        <ele>8.93</ele>
        <time>2020-01-19T15:01:51Z</time>
      </trkpt>
      <trkpt lat="47.17833" lon="-1.60869">
        <ele>8.06</ele>
        <time>2020-01-19T15:01:53Z</time>
      </trkpt>
      <trkpt lat="47.17824" lon="-1.60883">
        <ele>6.78</ele>
        <time>2020-01-19T15:01:55Z</time>
      </trkpt>
      <trkpt lat="47.17815" lon="-1.60896">
        <ele>5.85</ele>
        <time>2020-01-19T15:01:57Z</time>
      </trkpt>
      <trkpt lat="47.17804" lon="-1.60906">
        <ele>6.34</ele>
        <time>2020-01-19T15:01:59Z</time>
      </trkpt>
      <trkpt lat="47.17792" lon="-1.60914">
        <ele>7.17</ele>
        <time>2020-01-19T15:02:01Z</time>
      </trkpt>
      <trkpt lat="47.17782" lon="-1.6092">
        <ele>8.84</ele>
        <time>2020-01-19T15:02:03Z</time>
      </trkpt>
      <trkpt lat="47.1777" lon="-1.60928">
        <ele>9.9</ele>
        <time>2020-01-19T15:02:05Z</time>
      </trkpt>
      <trkpt lat="47.17757" lon="-1.60937">
        <ele>9.88</ele>
        <time>2020-01-19T15:02:07Z</time>
      </trkpt>
      <trkpt lat="47.17746" lon="-1.60944">
        <ele>9.29</ele>
        <time>2020-01-19T15:02:09Z</time>
      </trkpt>
      <trkpt lat="47.17736" lon="-1.60952">
        <ele>9.02</ele>
        <time>2020-01-19T15:02:11Z</time>
      </trkpt>
      <trkpt lat="47.17724" lon="-1.60961">
        <ele>8.9</ele>
        <time>2020-01-19T15:02:13Z</time>
      </trkpt>
      <trkpt lat="47.17713" lon="-1.60969">
        <ele>8.87</ele>
        <time>2020-01-19T15:02:15Z</time>
      </trkpt>
      <trkpt lat="47.17702" lon="-1.60976">
        <ele>9.4</ele>
        <time>2020-01-19T15:02:17Z</time>
      </trkpt>
      <trkpt lat="47.17689" lon="-1.60979">
        <ele>8.42</ele>
        <time>2020-01-19T15:02:19Z</time>
      </trkpt>
      <trkpt lat="47.17674" lon="-1.60977">
        <ele>7.72</ele>
        <time>2020-01-19T15:02:21Z</time>
      </trkpt>
      <trkpt lat="47.17657" lon="-1.60978">
        <ele>7.32</ele>
        <time>2020-01-19T15:02:23Z</time>
      </trkpt>
      <trkpt lat="47.17646" lon="-1.60986">
        <ele>7.08</ele>
        <time>2020-01-19T15:02:25Z</time>
      </trkpt>
      <trkpt lat="47.17634" lon="-1.60996">
        <ele>7.5</ele>
        <time>2020-01-19T15:02:27Z</time>
      </trkpt>
      <trkpt lat="47.17625" lon="-1.61005">
        <ele>8.34</ele>
        <time>2020-01-19T15:02:29Z</time>
      </trkpt>
      <trkpt lat="47.17613" lon="-1.61015">
        <ele>9.52</ele>
        <time>2020-01-19T15:02:31Z</time>
      </trkpt>
      <trkpt lat="47.17603" lon="-1.61025">
        <ele>9.88</ele>
        <time>2020-01-19T15:02:33Z</time>
      </trkpt>
      <trkpt lat="47.17591" lon="-1.61035">
        <ele>9.95</ele>
        <time>2020-01-19T15:02:35Z</time>
      </trkpt>
      <trkpt lat="47.1758" lon="-1.61045">
        <ele>9.68</ele>
        <time>2020-01-19T15:02:37Z</time>
      </trkpt>
      <trkpt lat="47.17571" lon="-1.61054">
        <ele>9.36</ele>
        <time>2020-01-19T15:02:39Z</time>
      </trkpt>
      <trkpt lat="47.17559" lon="-1.61064">
        <ele>9.23</ele>
        <time>2020-01-19T15:02:41Z</time>
      </trkpt>
      <trkpt lat="47.17548" lon="-1.61075">
        <ele>9.24</ele>
        <time>2020-01-19T15:02:43Z</time>
      </trkpt>
      <trkpt lat="47.17536" lon="-1.61085">
        <ele>8.93</ele>
        <time>2020-01-19T15:02:45Z</time>
      </trkpt>
      <trkpt lat="47.17524" lon="-1.61096">
        <ele>9.09</ele>
        <time>2020-01-19T15:02:47Z</time>
      </trkpt>
      <trkpt lat="47.17514" lon="-1.61104">
        <ele>8.82</ele>
        <time>2020-01-19T15:02:49Z</time>
      </trkpt>
      <trkpt lat="47.17503" lon="-1.61108">
        <ele>7.99</ele>
        <time>2020-01-19T15:02:51Z</time>
      </trkpt>
      <trkpt lat="47.17492" lon="-1.61111">
        <ele>6.4</ele>
        <time>2020-01-19T15:02:53Z</time>
      </trkpt>
      <trkpt lat="47.17477" lon="-1.6111">
        <ele>5.53</ele>
        <time>2020-01-19T15:02:55Z</time>
      </trkpt>
      <trkpt lat="47.17466" lon="-1.61103">
        <ele>5.62</ele>
        <time>2020-01-19T15:02:57Z</time>
      </trkpt>
      <trkpt lat="47.17458" lon="-1.61093">
        <ele>6.63</ele>
        <time>2020-01-19T15:02:59Z</time>
      </trkpt>
      <trkpt lat="47.17449" lon="-1.61079">
        <ele>7.92</ele>
        <time>2020-01-19T15:03:02Z</time>
      </trkpt>
      <trkpt lat="47.17442" lon="-1.61064">
        <ele>8.81</ele>
        <time>2020-01-19T15:03:04Z</time>
      </trkpt>
      <trkpt lat="47.17437" lon="-1.61051">
        <ele>8.68</ele>
        <time>2020-01-19T15:03:06Z</time>
      </trkpt>
      <trkpt lat="47.17433" lon="-1.61039">
        <ele>8.9</ele>
        <time>2020-01-19T15:03:08Z</time>
      </trkpt>
      <trkpt lat="47.17429" lon="-1.61026">
        <ele>9.1</ele>
        <time>2020-01-19T15:03:11Z</time>
      </trkpt>
      <trkpt lat="47.17423" lon="-1.61039">
        <ele>10.31</ele>
        <time>2020-01-19T15:03:16Z</time>
      </trkpt>
      <trkpt lat="47.17429" lon="-1.61058">
        <ele>11.43</ele>
        <time>2020-01-19T15:03:19Z</time>
      </trkpt>
      <trkpt lat="47.17434" lon="-1.6107">
        <ele>12.35</ele>
        <time>2020-01-19T15:03:21Z</time>
      </trkpt>
      <trkpt lat="47.1744" lon="-1.61082">
        <ele>13.47</ele>
        <time>2020-01-19T15:03:23Z</time>
      </trkpt>
      <trkpt lat="47.17447" lon="-1.61097">
        <ele>15.94</ele>
        <time>2020-01-19T15:03:26Z</time>
      </trkpt>
      <trkpt lat="47.17451" lon="-1.61109">
        <ele>15.9</ele>
        <time>2020-01-19T15:03:28Z</time>
      </trkpt>
      <trkpt lat="47.17458" lon="-1.61124">
        <ele>15.68</ele>
        <time>2020-01-19T15:03:30Z</time>
      </trkpt>
      <trkpt lat="47.17462" lon="-1.61136">
        <ele>14.87</ele>
        <time>2020-01-19T15:03:32Z</time>
      </trkpt>
      <trkpt lat="47.17468" lon="-1.61153">
        <ele>14.59</ele>
        <time>2020-01-19T15:03:35Z</time>
      </trkpt>
      <trkpt lat="47.17473" lon="-1.61167">
        <ele>14.55</ele>
        <time>2020-01-19T15:03:37Z</time>
      </trkpt>
      <trkpt lat="47.17479" lon="-1.61181">
        <ele>14.47</ele>
        <time>2020-01-19T15:03:39Z</time>
      </trkpt>
      <trkpt lat="47.17484" lon="-1.61192">
        <ele>16.06</ele>
        <time>2020-01-19T15:03:41Z</time>
      </trkpt>
      <trkpt lat="47.17489" lon="-1.61205">
        <ele>16.8</ele>
        <time>2020-01-19T15:03:43Z</time>
      </trkpt>
      <trkpt lat="47.17494" lon="-1.61216">
        <ele>16.38</ele>
        <time>2020-01-19T15:03:45Z</time>
      </trkpt>
      <trkpt lat="47.17499" lon="-1.61228">
        <ele>15.93</ele>
        <time>2020-01-19T15:03:47Z</time>
      </trkpt>
      <trkpt lat="47.17505" lon="-1.61241">
        <ele>14.88</ele>
        <time>2020-01-19T15:03:49Z</time>
      </trkpt>
      <trkpt lat="47.17514" lon="-1.61258">
        <ele>14.2</ele>
        <time>2020-01-19T15:03:52Z</time>
      </trkpt>
      <trkpt lat="47.17522" lon="-1.61271">
        <ele>14.36</ele>
        <time>2020-01-19T15:03:54Z</time>
      </trkpt>
      <trkpt lat="47.17529" lon="-1.61282">
        <ele>15.2</ele>
        <time>2020-01-19T15:03:56Z</time>
      </trkpt>
      <trkpt lat="47.17538" lon="-1.6129">
        <ele>16.74</ele>
        <time>2020-01-19T15:03:58Z</time>
      </trkpt>
      <trkpt lat="47.17548" lon="-1.61289">
        <ele>17.8</ele>
        <time>2020-01-19T15:04:00Z</time>
      </trkpt>
      <trkpt lat="47.17557" lon="-1.61293">
        <ele>18.7</ele>
        <time>2020-01-19T15:04:02Z</time>
      </trkpt>
      <trkpt lat="47.17564" lon="-1.61304">
        <ele>19.92</ele>
        <time>2020-01-19T15:04:04Z</time>
      </trkpt>
      <trkpt lat="47.17567" lon="-1.61318">
        <ele>20.14</ele>
        <time>2020-01-19T15:04:06Z</time>
      </trkpt>
      <trkpt lat="47.17566" lon="-1.61334">
        <ele>19.39</ele>
        <time>2020-01-19T15:04:08Z</time>
      </trkpt>
      <trkpt lat="47.17559" lon="-1.61346">
        <ele>18.64</ele>
        <time>2020-01-19T15:04:10Z</time>
      </trkpt>
      <trkpt lat="47.1755" lon="-1.61357">
        <ele>18.15</ele>
        <time>2020-01-19T15:04:12Z</time>
      </trkpt>
      <trkpt lat="47.17541" lon="-1.61365">
        <ele>18.02</ele>
        <time>2020-01-19T15:04:14Z</time>
      </trkpt>
      <trkpt lat="47.17534" lon="-1.61377">
        <ele>18.57</ele>
        <time>2020-01-19T15:04:16Z</time>
      </trkpt>
      <trkpt lat="47.17529" lon="-1.61394">
        <ele>19.25</ele>
        <time>2020-01-19T15:04:18Z</time>
      </trkpt>
      <trkpt lat="47.17525" lon="-1.61411">
        <ele>19.4</ele>
        <time>2020-01-19T15:04:20Z</time>
      </trkpt>
      <trkpt lat="47.17522" lon="-1.61425">
        <ele>19</ele>
        <time>2020-01-19T15:04:22Z</time>
      </trkpt>
      <trkpt lat="47.17518" lon="-1.61443">
        <ele>17.42</ele>
        <time>2020-01-19T15:04:25Z</time>
      </trkpt>
      <trkpt lat="47.17513" lon="-1.61456">
        <ele>16.73</ele>
        <time>2020-01-19T15:04:27Z</time>
      </trkpt>
      <trkpt lat="47.17506" lon="-1.61463">
        <ele>17.16</ele>
        <time>2020-01-19T15:04:29Z</time>
      </trkpt>
      <trkpt lat="47.17495" lon="-1.6147">
        <ele>18.02</ele>
        <time>2020-01-19T15:04:31Z</time>
      </trkpt>
      <trkpt lat="47.17482" lon="-1.61476">
        <ele>19.44</ele>
        <time>2020-01-19T15:04:34Z</time>
      </trkpt>
      <trkpt lat="47.17473" lon="-1.61481">
        <ele>20.34</ele>
        <time>2020-01-19T15:04:36Z</time>
      </trkpt>
      <trkpt lat="47.17463" lon="-1.61486">
        <ele>21.37</ele>
        <time>2020-01-19T15:04:38Z</time>
      </trkpt>
      <trkpt lat="47.1745" lon="-1.61491">
        <ele>22.6</ele>
        <time>2020-01-19T15:04:41Z</time>
      </trkpt>
      <trkpt lat="47.17441" lon="-1.61496">
        <ele>22.82</ele>
        <time>2020-01-19T15:04:43Z</time>
      </trkpt>
      <trkpt lat="47.17432" lon="-1.61501">
        <ele>23.78</ele>
        <time>2020-01-19T15:04:45Z</time>
      </trkpt>
      <trkpt lat="47.17423" lon="-1.61506">
        <ele>24.55</ele>
        <time>2020-01-19T15:04:47Z</time>
      </trkpt>
      <trkpt lat="47.17411" lon="-1.61515">
        <ele>24.74</ele>
        <time>2020-01-19T15:04:50Z</time>
      </trkpt>
      <trkpt lat="47.17402" lon="-1.61521">
        <ele>25.23</ele>
        <time>2020-01-19T15:04:52Z</time>
      </trkpt>
      <trkpt lat="47.17394" lon="-1.61528">
        <ele>27.22</ele>
        <time>2020-01-19T15:04:54Z</time>
      </trkpt>
      <trkpt lat="47.17385" lon="-1.61534">
        <ele>27.81</ele>
        <time>2020-01-19T15:04:56Z</time>
      </trkpt>
      <trkpt lat="47.17374" lon="-1.61547">
        <ele>27.74</ele>
        <time>2020-01-19T15:04:59Z</time>
      </trkpt>
      <trkpt lat="47.17366" lon="-1.61555">
        <ele>27.83</ele>
        <time>2020-01-19T15:05:01Z</time>
      </trkpt>
      <trkpt lat="47.17358" lon="-1.61564">
        <ele>27.56</ele>
        <time>2020-01-19T15:05:03Z</time>
      </trkpt>
      <trkpt lat="47.17351" lon="-1.61573">
        <ele>27.45</ele>
        <time>2020-01-19T15:05:05Z</time>
      </trkpt>
      <trkpt lat="47.17341" lon="-1.61587">
        <ele>28.17</ele>
        <time>2020-01-19T15:05:08Z</time>
      </trkpt>
      <trkpt lat="47.17333" lon="-1.61596">
        <ele>29.55</ele>
        <time>2020-01-19T15:05:10Z</time>
      </trkpt>
      <trkpt lat="47.17324" lon="-1.61605">
        <ele>31.04</ele>
        <time>2020-01-19T15:05:12Z</time>
      </trkpt>
      <trkpt lat="47.17316" lon="-1.61618">
        <ele>30.93</ele>
        <time>2020-01-19T15:05:14Z</time>
      </trkpt>
      <trkpt lat="47.17309" lon="-1.61629">
        <ele>29.47</ele>
        <time>2020-01-19T15:05:16Z</time>
      </trkpt>
      <trkpt lat="47.17302" lon="-1.61642">
        <ele>28.79</ele>
        <time>2020-01-19T15:05:18Z</time>
      </trkpt>
      <trkpt lat="47.17295" lon="-1.61656">
        <ele>28.46</ele>
        <time>2020-01-19T15:05:20Z</time>
      </trkpt>
      <trkpt lat="47.17289" lon="-1.61668">
        <ele>28.06</ele>
        <time>2020-01-19T15:05:22Z</time>
      </trkpt>
      <trkpt lat="47.17282" lon="-1.61682">
        <ele>27.26</ele>
        <time>2020-01-19T15:05:24Z</time>
      </trkpt>
      <trkpt lat="47.17276" lon="-1.61695">
        <ele>26.54</ele>
        <time>2020-01-19T15:05:26Z</time>
      </trkpt>
      <trkpt lat="47.17269" lon="-1.61705">
        <ele>26.84</ele>
        <time>2020-01-19T15:05:28Z</time>
      </trkpt>
      <trkpt lat="47.17261" lon="-1.61718">
        <ele>27.62</ele>
        <time>2020-01-19T15:05:30Z</time>
      </trkpt>
      <trkpt lat="47.17254" lon="-1.61732">
        <ele>27.99</ele>
        <time>2020-01-19T15:05:32Z</time>
      </trkpt>
      <trkpt lat="47.17249" lon="-1.61748">
        <ele>27.92</ele>
        <time>2020-01-19T15:05:34Z</time>
      </trkpt>
      <trkpt lat="47.17247" lon="-1.61763">
        <ele>28.3</ele>
        <time>2020-01-19T15:05:36Z</time>
      </trkpt>
      <trkpt lat="47.17241" lon="-1.61779">
        <ele>28.86</ele>
        <time>2020-01-19T15:05:38Z</time>
      </trkpt>
      <trkpt lat="47.17233" lon="-1.61791">
        <ele>28.72</ele>
        <time>2020-01-19T15:05:40Z</time>
      </trkpt>
      <trkpt lat="47.17222" lon="-1.61802">
        <ele>27.79</ele>
        <time>2020-01-19T15:05:42Z</time>
      </trkpt>
      <trkpt lat="47.17212" lon="-1.61811">
        <ele>27.48</ele>
        <time>2020-01-19T15:05:44Z</time>
      </trkpt>
      <trkpt lat="47.17202" lon="-1.61819">
        <ele>27.14</ele>
        <time>2020-01-19T15:05:46Z</time>
      </trkpt>
      <trkpt lat="47.17193" lon="-1.61826">
        <ele>26.22</ele>
        <time>2020-01-19T15:05:48Z</time>
      </trkpt>
      <trkpt lat="47.17184" lon="-1.61834">
        <ele>25.27</ele>
        <time>2020-01-19T15:05:50Z</time>
      </trkpt>
      <trkpt lat="47.17173" lon="-1.61844">
        <ele>24.63</ele>
        <time>2020-01-19T15:05:52Z</time>
      </trkpt>
      <trkpt lat="47.17162" lon="-1.61855">
        <ele>24.37</ele>
        <time>2020-01-19T15:05:54Z</time>
      </trkpt>
      <trkpt lat="47.17153" lon="-1.61863">
        <ele>24.77</ele>
        <time>2020-01-19T15:05:56Z</time>
      </trkpt>
      <trkpt lat="47.17144" lon="-1.61872">
        <ele>24.45</ele>
        <time>2020-01-19T15:05:58Z</time>
      </trkpt>
      <trkpt lat="47.17135" lon="-1.6188">
        <ele>24.32</ele>
        <time>2020-01-19T15:06:00Z</time>
      </trkpt>
      <trkpt lat="47.17124" lon="-1.61889">
        <ele>24.21</ele>
        <time>2020-01-19T15:06:02Z</time>
      </trkpt>
      <trkpt lat="47.17114" lon="-1.61899">
        <ele>23.66</ele>
        <time>2020-01-19T15:06:04Z</time>
      </trkpt>
      <trkpt lat="47.17105" lon="-1.61909">
        <ele>23.02</ele>
        <time>2020-01-19T15:06:06Z</time>
      </trkpt>
      <trkpt lat="47.17094" lon="-1.6192">
        <ele>23.69</ele>
        <time>2020-01-19T15:06:08Z</time>
      </trkpt>
      <trkpt lat="47.17084" lon="-1.61928">
        <ele>24.3</ele>
        <time>2020-01-19T15:06:10Z</time>
      </trkpt>
      <trkpt lat="47.17075" lon="-1.61938">
        <ele>23.84</ele>
        <time>2020-01-19T15:06:12Z</time>
      </trkpt>
      <trkpt lat="47.17065" lon="-1.61949">
        <ele>23.8</ele>
        <time>2020-01-19T15:06:14Z</time>
      </trkpt>
      <trkpt lat="47.17056" lon="-1.61961">
        <ele>23.28</ele>
        <time>2020-01-19T15:06:16Z</time>
      </trkpt>
      <trkpt lat="47.17047" lon="-1.61972">
        <ele>23.41</ele>
        <time>2020-01-19T15:06:18Z</time>
      </trkpt>
      <trkpt lat="47.17039" lon="-1.61984">
        <ele>23.6</ele>
        <time>2020-01-19T15:06:20Z</time>
      </trkpt>
      <trkpt lat="47.1703" lon="-1.61998">
        <ele>23.77</ele>
        <time>2020-01-19T15:06:22Z</time>
      </trkpt>
      <trkpt lat="47.17022" lon="-1.6201">
        <ele>24.54</ele>
        <time>2020-01-19T15:06:24Z</time>
      </trkpt>
      <trkpt lat="47.17013" lon="-1.62023">
        <ele>24.99</ele>
        <time>2020-01-19T15:06:26Z</time>
      </trkpt>
      <trkpt lat="47.17004" lon="-1.62036">
        <ele>25.04</ele>
        <time>2020-01-19T15:06:28Z</time>
      </trkpt>
      <trkpt lat="47.16996" lon="-1.62051">
        <ele>26.24</ele>
        <time>2020-01-19T15:06:30Z</time>
      </trkpt>
      <trkpt lat="47.16988" lon="-1.62065">
        <ele>25.85</ele>
        <time>2020-01-19T15:06:32Z</time>
      </trkpt>
      <trkpt lat="47.16981" lon="-1.62079">
        <ele>25.62</ele>
        <time>2020-01-19T15:06:34Z</time>
      </trkpt>
      <trkpt lat="47.16974" lon="-1.62094">
        <ele>24.84</ele>
        <time>2020-01-19T15:06:36Z</time>
      </trkpt>
      <trkpt lat="47.16966" lon="-1.62108">
        <ele>24.32</ele>
        <time>2020-01-19T15:06:38Z</time>
      </trkpt>
      <trkpt lat="47.1696" lon="-1.6212">
        <ele>24.4</ele>
        <time>2020-01-19T15:06:40Z</time>
      </trkpt>
      <trkpt lat="47.16951" lon="-1.62135">
        <ele>24.34</ele>
        <time>2020-01-19T15:06:42Z</time>
      </trkpt>
      <trkpt lat="47.16945" lon="-1.62148">
        <ele>24.5</ele>
        <time>2020-01-19T15:06:44Z</time>
      </trkpt>
      <trkpt lat="47.16937" lon="-1.62163">
        <ele>24.63</ele>
        <time>2020-01-19T15:06:46Z</time>
      </trkpt>
      <trkpt lat="47.16932" lon="-1.62175">
        <ele>25.16</ele>
        <time>2020-01-19T15:06:48Z</time>
      </trkpt>
      <trkpt lat="47.16925" lon="-1.62192">
        <ele>25.35</ele>
        <time>2020-01-19T15:06:50Z</time>
      </trkpt>
      <trkpt lat="47.16917" lon="-1.62209">
        <ele>24.68</ele>
        <time>2020-01-19T15:06:52Z</time>
      </trkpt>
      <trkpt lat="47.16909" lon="-1.62224">
        <ele>23.96</ele>
        <time>2020-01-19T15:06:54Z</time>
      </trkpt>
      <trkpt lat="47.16902" lon="-1.62233">
        <ele>24.1</ele>
        <time>2020-01-19T15:06:56Z</time>
      </trkpt>
      <trkpt lat="47.16892" lon="-1.62245">
        <ele>24.45</ele>
        <time>2020-01-19T15:06:58Z</time>
      </trkpt>
      <trkpt lat="47.16882" lon="-1.62256">
        <ele>24.25</ele>
        <time>2020-01-19T15:07:00Z</time>
      </trkpt>
      <trkpt lat="47.16873" lon="-1.62267">
        <ele>24.31</ele>
        <time>2020-01-19T15:07:02Z</time>
      </trkpt>
      <trkpt lat="47.16863" lon="-1.62278">
        <ele>23.84</ele>
        <time>2020-01-19T15:07:04Z</time>
      </trkpt>
      <trkpt lat="47.16853" lon="-1.6229">
        <ele>23.76</ele>
        <time>2020-01-19T15:07:06Z</time>
      </trkpt>
      <trkpt lat="47.16844" lon="-1.623">
        <ele>23.99</ele>
        <time>2020-01-19T15:07:08Z</time>
      </trkpt>
      <trkpt lat="47.16833" lon="-1.62311">
        <ele>24.63</ele>
        <time>2020-01-19T15:07:10Z</time>
      </trkpt>
      <trkpt lat="47.16823" lon="-1.6232">
        <ele>25.42</ele>
        <time>2020-01-19T15:07:12Z</time>
      </trkpt>
      <trkpt lat="47.16814" lon="-1.62328">
        <ele>25.57</ele>
        <time>2020-01-19T15:07:14Z</time>
      </trkpt>
      <trkpt lat="47.16802" lon="-1.62335">
        <ele>24.45</ele>
        <time>2020-01-19T15:07:16Z</time>
      </trkpt>
      <trkpt lat="47.16791" lon="-1.62341">
        <ele>23.87</ele>
        <time>2020-01-19T15:07:18Z</time>
      </trkpt>
      <trkpt lat="47.16778" lon="-1.62348">
        <ele>22.68</ele>
        <time>2020-01-19T15:07:20Z</time>
      </trkpt>
      <trkpt lat="47.16766" lon="-1.62353">
        <ele>22.4</ele>
        <time>2020-01-19T15:07:22Z</time>
      </trkpt>
      <trkpt lat="47.16755" lon="-1.62361">
        <ele>23.36</ele>
        <time>2020-01-19T15:07:24Z</time>
      </trkpt>
      <trkpt lat="47.16745" lon="-1.62373">
        <ele>24.75</ele>
        <time>2020-01-19T15:07:26Z</time>
      </trkpt>
      <trkpt lat="47.16736" lon="-1.62389">
        <ele>25.48</ele>
        <time>2020-01-19T15:07:28Z</time>
      </trkpt>
      <trkpt lat="47.16732" lon="-1.62407">
        <ele>25.18</ele>
        <time>2020-01-19T15:07:30Z</time>
      </trkpt>
      <trkpt lat="47.16729" lon="-1.62423">
        <ele>23.79</ele>
        <time>2020-01-19T15:07:32Z</time>
      </trkpt>
      <trkpt lat="47.16728" lon="-1.62441">
        <ele>23.03</ele>
        <time>2020-01-19T15:07:34Z</time>
      </trkpt>
      <trkpt lat="47.16724" lon="-1.62459">
        <ele>22.17</ele>
        <time>2020-01-19T15:07:36Z</time>
      </trkpt>
      <trkpt lat="47.16721" lon="-1.62477">
        <ele>22.18</ele>
        <time>2020-01-19T15:07:38Z</time>
      </trkpt>
      <trkpt lat="47.16717" lon="-1.62494">
        <ele>21.36</ele>
        <time>2020-01-19T15:07:40Z</time>
      </trkpt>
      <trkpt lat="47.16729" lon="-1.62504">
        <ele>21.43</ele>
        <time>2020-01-19T15:07:43Z</time>
      </trkpt>
      <trkpt lat="47.16742" lon="-1.62508">
        <ele>21.71</ele>
        <time>2020-01-19T15:07:45Z</time>
      </trkpt>
      <trkpt lat="47.16755" lon="-1.62513">
        <ele>21.9</ele>
        <time>2020-01-19T15:07:47Z</time>
      </trkpt>
      <trkpt lat="47.16766" lon="-1.62519">
        <ele>21.88</ele>
        <time>2020-01-19T15:07:49Z</time>
      </trkpt>
      <trkpt lat="47.16777" lon="-1.62525">
        <ele>22.52</ele>
        <time>2020-01-19T15:07:51Z</time>
      </trkpt>
      <trkpt lat="47.16788" lon="-1.62532">
        <ele>22.73</ele>
        <time>2020-01-19T15:07:53Z</time>
      </trkpt>
      <trkpt lat="47.16798" lon="-1.62538">
        <ele>23.11</ele>
        <time>2020-01-19T15:07:55Z</time>
      </trkpt>
      <trkpt lat="47.1681" lon="-1.62545">
        <ele>23.15</ele>
        <time>2020-01-19T15:07:58Z</time>
      </trkpt>
      <trkpt lat="47.1682" lon="-1.62553">
        <ele>23.16</ele>
        <time>2020-01-19T15:08:01Z</time>
      </trkpt>
      <trkpt lat="47.16831" lon="-1.62563">
        <ele>23.87</ele>
        <time>2020-01-19T15:08:03Z</time>
      </trkpt>
      <trkpt lat="47.16838" lon="-1.62578">
        <ele>23.77</ele>
        <time>2020-01-19T15:08:05Z</time>
      </trkpt>
      <trkpt lat="47.16833" lon="-1.62593">
        <ele>23.26</ele>
        <time>2020-01-19T15:08:07Z</time>
      </trkpt>
      <trkpt lat="47.16824" lon="-1.62606">
        <ele>23.23</ele>
        <time>2020-01-19T15:08:09Z</time>
      </trkpt>
      <trkpt lat="47.16817" lon="-1.62617">
        <ele>23.71</ele>
        <time>2020-01-19T15:08:11Z</time>
      </trkpt>
      <trkpt lat="47.16808" lon="-1.6263">
        <ele>24.64</ele>
        <time>2020-01-19T15:08:13Z</time>
      </trkpt>
      <trkpt lat="47.16798" lon="-1.62645">
        <ele>25.33</ele>
        <time>2020-01-19T15:08:16Z</time>
      </trkpt>
      <trkpt lat="47.16791" lon="-1.62656">
        <ele>24.42</ele>
        <time>2020-01-19T15:08:18Z</time>
      </trkpt>
      <trkpt lat="47.16783" lon="-1.62667">
        <ele>24.42</ele>
        <time>2020-01-19T15:08:21Z</time>
      </trkpt>
    </trkseg>
  </trk>
</gpx>